<?xml version='1.0' encoding='UTF-8'?><gpx version="1.1" creator="JPX - https://github.com/jenetics/jpx" xmlns="http://www.topografix.com/GPX/1/1"><trk><trkseg><trkpt lat="42.6927324638992" lon="2.686775031920584"><ele>107.0</ele><time>2026-04-06T13:47:08Z</time></trkpt><trkpt lat="42.692747987462255" lon="2.686862247706464"><ele>106.99999999999999</ele><time>2026-04-06T13:47:10Z</time></trkpt><trkpt lat="42.692746268604246" lon="2.6869987126387715"><ele>106.99999999999999</ele><time>2026-04-06T13:47:12Z</time></trkpt><trkpt lat="42.692726908605096" lon="2.687126986417143"><ele>107.0</ele><time>2026-04-06T13:47:14Z</time></trkpt><trkpt lat="42.692688510923126" lon="2.687276248242775"><ele>107.0</ele><time>2026-04-06T13:47:16Z</time></trkpt><trkpt lat="42.6926102379262" lon="2.6873567982344584"><ele>106.8</ele><time>2026-04-06T13:47:18Z</time></trkpt><trkpt lat="42.692556326182164" lon="2.687461522277804"><ele>106.6</ele><time>2026-04-06T13:47:20Z</time></trkpt><trkpt lat="42.69248543977795" lon="2.6875091085352185"><ele>106.39999999999999</ele><time>2026-04-06T13:47:21Z</time></trkpt><trkpt lat="42.692455741175564" lon="2.6876072469771777"><ele>106.19999999999999</ele><time>2026-04-06T13:47:22Z</time></trkpt><trkpt lat="42.69245300423352" lon="2.6877239823235737"><ele>106.0</ele><time>2026-04-06T13:47:23Z</time></trkpt><trkpt lat="42.69245734536504" lon="2.687878055636766"><ele>105.75</ele><time>2026-04-06T13:47:24Z</time></trkpt><trkpt lat="42.6924577656819" lon="2.6880780067267747"><ele>105.5</ele><time>2026-04-06T13:47:25Z</time></trkpt><trkpt lat="42.69245954494555" lon="2.6882392233188095"><ele>105.25</ele><time>2026-04-06T13:47:26Z</time></trkpt><trkpt lat="42.69246450394129" lon="2.6883905868252045"><ele>105.0</ele><time>2026-04-06T13:47:27Z</time></trkpt><trkpt lat="42.692459069061684" lon="2.6885472888132536"><ele>105.0</ele><time>2026-04-06T13:47:28Z</time></trkpt><trkpt lat="42.692443546663654" lon="2.688708471854033"><ele>105.0</ele><time>2026-04-06T13:47:29Z</time></trkpt><trkpt lat="42.6924413058871" lon="2.688872824465892"><ele>105.0</ele><time>2026-04-06T13:47:30Z</time></trkpt><trkpt lat="42.692438535788796" lon="2.6890252606810665"><ele>105.0</ele><time>2026-04-06T13:47:31Z</time></trkpt><trkpt lat="42.69242884581215" lon="2.689177509524549"><ele>105.0</ele><time>2026-04-06T13:47:32Z</time></trkpt><trkpt lat="42.69243122939141" lon="2.689331352542981"><ele>105.0</ele><time>2026-04-06T13:47:33Z</time></trkpt><trkpt lat="42.69242918355044" lon="2.6894758628259137"><ele>105.0</ele><time>2026-04-06T13:47:34Z</time></trkpt><trkpt lat="42.692430262892636" lon="2.6896322026597215"><ele>105.0</ele><time>2026-04-06T13:47:35Z</time></trkpt><trkpt lat="42.69242793614196" lon="2.689779883037142"><ele>105.0</ele><time>2026-04-06T13:47:36Z</time></trkpt><trkpt lat="42.69242626226774" lon="2.689929740165315"><ele>104.8</ele><time>2026-04-06T13:47:37Z</time></trkpt><trkpt lat="42.69242816290593" lon="2.6900919350654937"><ele>104.6</ele><time>2026-04-06T13:47:38Z</time></trkpt><trkpt lat="42.69242165206142" lon="2.6902571832931472"><ele>104.4</ele><time>2026-04-06T13:47:39Z</time></trkpt><trkpt lat="42.69241764137571" lon="2.69040507936371"><ele>104.2</ele><time>2026-04-06T13:47:40Z</time></trkpt><trkpt lat="42.69241727361199" lon="2.690539719456458"><ele>104.0</ele><time>2026-04-06T13:47:41Z</time></trkpt><trkpt lat="42.6924214482179" lon="2.6906719826277232"><ele>104.0</ele><time>2026-04-06T13:47:42Z</time></trkpt><trkpt lat="42.6924213309859" lon="2.6908120736472276"><ele>104.0</ele><time>2026-04-06T13:47:43Z</time></trkpt><trkpt lat="42.69242018029953" lon="2.6909488970473583"><ele>104.0</ele><time>2026-04-06T13:47:44Z</time></trkpt><trkpt lat="42.69241571580632" lon="2.691094571189416"><ele>104.0</ele><time>2026-04-06T13:47:45Z</time></trkpt><trkpt lat="42.69241724405693" lon="2.691261348024805"><ele>104.0</ele><time>2026-04-06T13:47:46Z</time></trkpt><trkpt lat="42.69241323516661" lon="2.691442985798518"><ele>103.75</ele><time>2026-04-06T13:47:47Z</time></trkpt><trkpt lat="42.69241277366751" lon="2.691635072290657"><ele>103.5</ele><time>2026-04-06T13:47:48Z</time></trkpt><trkpt lat="42.69241239536139" lon="2.6918219226600852"><ele>103.25</ele><time>2026-04-06T13:47:49Z</time></trkpt><trkpt lat="42.69241082885127" lon="2.692010725221245"><ele>103.0</ele><time>2026-04-06T13:47:50Z</time></trkpt><trkpt lat="42.69240846256938" lon="2.6921916712103875"><ele>103.0</ele><time>2026-04-06T13:47:51Z</time></trkpt><trkpt lat="42.69240612518573" lon="2.692368263627586"><ele>103.0</ele><time>2026-04-06T13:47:52Z</time></trkpt><trkpt lat="42.692398754928135" lon="2.692542271352614"><ele>103.0</ele><time>2026-04-06T13:47:53Z</time></trkpt><trkpt lat="42.69240106527288" lon="2.692714416840209"><ele>103.0</ele><time>2026-04-06T13:47:54Z</time></trkpt><trkpt lat="42.69239610590824" lon="2.6928619692723554"><ele>103.2</ele><time>2026-04-06T13:47:55Z</time></trkpt><trkpt lat="42.6923753990799" lon="2.693008218358955"><ele>103.4</ele><time>2026-04-06T13:47:56Z</time></trkpt><trkpt lat="42.6923703178286" lon="2.693145527592789"><ele>103.60000000000001</ele><time>2026-04-06T13:47:57Z</time></trkpt><trkpt lat="42.692367408339784" lon="2.6932944706565713"><ele>103.80000000000001</ele><time>2026-04-06T13:47:58Z</time></trkpt><trkpt lat="42.692365131215325" lon="2.693437383061754"><ele>104.0</ele><time>2026-04-06T13:47:59Z</time></trkpt><trkpt lat="42.692362638524514" lon="2.693574773547586"><ele>104.0</ele><time>2026-04-06T13:48:00Z</time></trkpt><trkpt lat="42.69235785211464" lon="2.69370486253204"><ele>104.0</ele><time>2026-04-06T13:48:01Z</time></trkpt><trkpt lat="42.69235843459105" lon="2.6938481393798472"><ele>104.0</ele><time>2026-04-06T13:48:02Z</time></trkpt><trkpt lat="42.69231660162414" lon="2.693991238806376"><ele>104.0</ele><time>2026-04-06T13:48:03Z</time></trkpt><trkpt lat="42.692285980752885" lon="2.694153771092193"><ele>104.0</ele><time>2026-04-06T13:48:04Z</time></trkpt><trkpt lat="42.69227478071337" lon="2.6942993631388186"><ele>104.2</ele><time>2026-04-06T13:48:05Z</time></trkpt><trkpt lat="42.69224337326895" lon="2.6944505205950846"><ele>104.4</ele><time>2026-04-06T13:48:06Z</time></trkpt><trkpt lat="42.692200017327124" lon="2.6945774230357697"><ele>104.6</ele><time>2026-04-06T13:48:07Z</time></trkpt><trkpt lat="42.692169019002584" lon="2.694708114076692"><ele>104.8</ele><time>2026-04-06T13:48:08Z</time></trkpt><trkpt lat="42.692139153006174" lon="2.694837678933528"><ele>105.0</ele><time>2026-04-06T13:48:09Z</time></trkpt><trkpt lat="42.69210627335578" lon="2.694951505365955"><ele>105.0</ele><time>2026-04-06T13:48:09.999Z</time></trkpt><trkpt lat="42.69207001206736" lon="2.695076438841137"><ele>105.0</ele><time>2026-04-06T13:48:11Z</time></trkpt><trkpt lat="42.692033911314745" lon="2.6951970744751166"><ele>105.0</ele><time>2026-04-06T13:48:12Z</time></trkpt><trkpt lat="42.69199722099754" lon="2.695319680205261"><ele>105.0</ele><time>2026-04-06T13:48:13Z</time></trkpt><trkpt lat="42.69197341527699" lon="2.6954518008004844"><ele>105.0</ele><time>2026-04-06T13:48:14Z</time></trkpt><trkpt lat="42.69193736039831" lon="2.6955537842048245"><ele>105.16666666666667</ele><time>2026-04-06T13:48:15Z</time></trkpt><trkpt lat="42.691911252371675" lon="2.6956719165193492"><ele>105.33333333333334</ele><time>2026-04-06T13:48:16Z</time></trkpt><trkpt lat="42.691874434580626" lon="2.6957631057539495"><ele>105.5</ele><time>2026-04-06T13:48:17Z</time></trkpt><trkpt lat="42.69185107255399" lon="2.6958619223801215"><ele>105.66666666666667</ele><time>2026-04-06T13:48:18Z</time></trkpt><trkpt lat="42.69182584478297" lon="2.6959686306139625"><ele>105.83333333333334</ele><time>2026-04-06T13:48:19Z</time></trkpt><trkpt lat="42.69180107615086" lon="2.6960733954937575"><ele>106.0</ele><time>2026-04-06T13:48:20Z</time></trkpt><trkpt lat="42.691793259724136" lon="2.6961629101849676"><ele>106.0</ele><time>2026-04-06T13:48:21Z</time></trkpt><trkpt lat="42.69177418509653" lon="2.696274798209594"><ele>106.0</ele><time>2026-04-06T13:48:23Z</time></trkpt><trkpt lat="42.6919870265427" lon="2.6963240763688545"><ele>106.0</ele><time>2026-04-06T13:48:25Z</time></trkpt><trkpt lat="42.69207045988482" lon="2.696370344189429"><ele>106.0</ele><time>2026-04-06T13:48:26Z</time></trkpt><trkpt lat="42.69216255221555" lon="2.696407719726301"><ele>105.6</ele><time>2026-04-06T13:48:27Z</time></trkpt><trkpt lat="42.69225342268216" lon="2.6964351696741096"><ele>105.19999999999999</ele><time>2026-04-06T13:48:28Z</time></trkpt><trkpt lat="42.6923471470254" lon="2.6964847159577197"><ele>104.80000000000001</ele><time>2026-04-06T13:48:29Z</time></trkpt><trkpt lat="42.69244018354816" lon="2.696550396443083"><ele>104.4</ele><time>2026-04-06T13:48:30Z</time></trkpt><trkpt lat="42.69253881129183" lon="2.696602729527224"><ele>104.0</ele><time>2026-04-06T13:48:31Z</time></trkpt><trkpt lat="42.69264229195548" lon="2.6966389607136314"><ele>104.0</ele><time>2026-04-06T13:48:32Z</time></trkpt><trkpt lat="42.69274977717558" lon="2.696653378382011"><ele>104.0</ele><time>2026-04-06T13:48:33Z</time></trkpt><trkpt lat="42.69285194386843" lon="2.696657830067506"><ele>104.0</ele><time>2026-04-06T13:48:34Z</time></trkpt><trkpt lat="42.692965400884745" lon="2.696665362675835"><ele>104.0</ele><time>2026-04-06T13:48:35Z</time></trkpt><trkpt lat="42.693066613434105" lon="2.696672565234815"><ele>104.0</ele><time>2026-04-06T13:48:36Z</time></trkpt><trkpt lat="42.693156902636815" lon="2.6966789770674904"><ele>103.6</ele><time>2026-04-06T13:48:37Z</time></trkpt><trkpt lat="42.693243304470414" lon="2.696684340453056"><ele>103.2</ele><time>2026-04-06T13:48:38Z</time></trkpt><trkpt lat="42.693336937020995" lon="2.696670642391002"><ele>102.8</ele><time>2026-04-06T13:48:39Z</time></trkpt><trkpt lat="42.693423015878466" lon="2.6966952295753934"><ele>102.39999999999999</ele><time>2026-04-06T13:48:40Z</time></trkpt><trkpt lat="42.69351862529451" lon="2.6967002001491687"><ele>102.0</ele><time>2026-04-06T13:48:41Z</time></trkpt><trkpt lat="42.69362366258393" lon="2.696708445044449"><ele>101.25</ele><time>2026-04-06T13:48:42Z</time></trkpt><trkpt lat="42.69372430273286" lon="2.6967169666413455"><ele>100.5</ele><time>2026-04-06T13:48:43Z</time></trkpt><trkpt lat="42.69383624388614" lon="2.696727953287869"><ele>99.75</ele><time>2026-04-06T13:48:44Z</time></trkpt><trkpt lat="42.693963711705976" lon="2.696741219561448"><ele>99.0</ele><time>2026-04-06T13:48:45Z</time></trkpt><trkpt lat="42.694094247060384" lon="2.696752793314223"><ele>99.0</ele><time>2026-04-06T13:48:46Z</time></trkpt><trkpt lat="42.694229874781854" lon="2.696765488110365"><ele>99.0</ele><time>2026-04-06T13:48:47Z</time></trkpt><trkpt lat="42.6943805167841" lon="2.6967797181288247"><ele>99.0</ele><time>2026-04-06T13:48:48Z</time></trkpt><trkpt lat="42.69454032300352" lon="2.6967951077095673"><ele>99.0</ele><time>2026-04-06T13:48:49Z</time></trkpt><trkpt lat="42.69469833254061" lon="2.6968095251360786"><ele>99.0</ele><time>2026-04-06T13:48:50Z</time></trkpt><trkpt lat="42.69482785256365" lon="2.696821389741304"><ele>99.0</ele><time>2026-04-06T13:48:51Z</time></trkpt><trkpt lat="42.694928042140184" lon="2.696823112162786"><ele>99.0</ele><time>2026-04-06T13:48:52Z</time></trkpt><trkpt lat="42.6950033701852" lon="2.6968407779828367"><ele>99.0</ele><time>2026-04-06T13:48:53Z</time></trkpt><trkpt lat="42.695066712299756" lon="2.696844972651774"><ele>99.0</ele><time>2026-04-06T13:48:54Z</time></trkpt><trkpt lat="42.69513010667816" lon="2.6968443873666343"><ele>99.0</ele><time>2026-04-06T13:48:55Z</time></trkpt><trkpt lat="42.69523627519061" lon="2.696859919454069"><ele>98.4</ele><time>2026-04-06T13:48:57Z</time></trkpt><trkpt lat="42.69530020474688" lon="2.6968664279391623"><ele>97.80000000000001</ele><time>2026-04-06T13:48:58Z</time></trkpt><trkpt lat="42.69538895393234" lon="2.696867449623675"><ele>97.19999999999999</ele><time>2026-04-06T13:48:59Z</time></trkpt><trkpt lat="42.695483424692185" lon="2.6968729318178224"><ele>96.6</ele><time>2026-04-06T13:49:00Z</time></trkpt><trkpt lat="42.695589111070014" lon="2.696882894042677"><ele>96.0</ele><time>2026-04-06T13:49:01Z</time></trkpt><trkpt lat="42.695718771856896" lon="2.69688742659989"><ele>96.0</ele><time>2026-04-06T13:49:02Z</time></trkpt><trkpt lat="42.69586093663274" lon="2.6968997254087603"><ele>96.0</ele><time>2026-04-06T13:49:03Z</time></trkpt><trkpt lat="42.69601467696012" lon="2.6969147969816127"><ele>96.0</ele><time>2026-04-06T13:49:04Z</time></trkpt><trkpt lat="42.69616975058697" lon="2.696925002984711"><ele>95.33333333333333</ele><time>2026-04-06T13:49:05Z</time></trkpt><trkpt lat="42.69632886288539" lon="2.6969377305482327"><ele>94.66666666666666</ele><time>2026-04-06T13:49:06Z</time></trkpt><trkpt lat="42.69649325995329" lon="2.6969599399519386"><ele>94.0</ele><time>2026-04-06T13:49:07Z</time></trkpt><trkpt lat="42.69666070308868" lon="2.696969026531918"><ele>94.0</ele><time>2026-04-06T13:49:08Z</time></trkpt><trkpt lat="42.69682703054873" lon="2.6969848434638974"><ele>94.0</ele><time>2026-04-06T13:49:09Z</time></trkpt><trkpt lat="42.69700226510177" lon="2.697003252882793"><ele>94.0</ele><time>2026-04-06T13:49:10Z</time></trkpt><trkpt lat="42.697196947652785" lon="2.697017830904109"><ele>94.66666666666666</ele><time>2026-04-06T13:49:11Z</time></trkpt><trkpt lat="42.697382492298686" lon="2.697033411347376"><ele>95.33333333333333</ele><time>2026-04-06T13:49:12Z</time></trkpt><trkpt lat="42.69754830337377" lon="2.6970462956460453"><ele>96.0</ele><time>2026-04-06T13:49:13Z</time></trkpt><trkpt lat="42.697705168278766" lon="2.69705772270612"><ele>96.25</ele><time>2026-04-06T13:49:14Z</time></trkpt><trkpt lat="42.697848054949624" lon="2.697069297467502"><ele>96.5</ele><time>2026-04-06T13:49:15Z</time></trkpt><trkpt lat="42.697990315605274" lon="2.697103584931413"><ele>96.75</ele><time>2026-04-06T13:49:16Z</time></trkpt><trkpt lat="42.698135186969445" lon="2.6971187501909513"><ele>97.0</ele><time>2026-04-06T13:49:17Z</time></trkpt><trkpt lat="42.698300621452255" lon="2.6971185862170897"><ele>97.0</ele><time>2026-04-06T13:49:18Z</time></trkpt><trkpt lat="42.69845630686192" lon="2.6971246187592683"><ele>97.0</ele><time>2026-04-06T13:49:19Z</time></trkpt><trkpt lat="42.6985949920489" lon="2.6971393554298753"><ele>97.0</ele><time>2026-04-06T13:49:20Z</time></trkpt><trkpt lat="42.69872695579307" lon="2.697156753740264"><ele>97.0</ele><time>2026-04-06T13:49:21Z</time></trkpt><trkpt lat="42.698845775398865" lon="2.697152281453613"><ele>97.39999999999999</ele><time>2026-04-06T13:49:22Z</time></trkpt><trkpt lat="42.698961220565074" lon="2.697139319759344"><ele>97.8</ele><time>2026-04-06T13:49:23Z</time></trkpt><trkpt lat="42.69907011758725" lon="2.6971450480924726"><ele>98.2</ele><time>2026-04-06T13:49:24Z</time></trkpt><trkpt lat="42.699166128528425" lon="2.6971665916305776"><ele>98.6</ele><time>2026-04-06T13:49:25Z</time></trkpt><trkpt lat="42.69925474790573" lon="2.6972249039633494"><ele>99.0</ele><time>2026-04-06T13:49:26Z</time></trkpt><trkpt lat="42.69935428045938" lon="2.6973443093470784"><ele>100.5</ele><time>2026-04-06T13:49:27Z</time></trkpt><trkpt lat="42.69944014897986" lon="2.6974908358327903"><ele>102.0</ele><time>2026-04-06T13:49:28Z</time></trkpt><trkpt lat="42.69950585079767" lon="2.6976590023809353"><ele>103.5</ele><time>2026-04-06T13:49:29Z</time></trkpt><trkpt lat="42.6995595798789" lon="2.6978512708450695"><ele>105.0</ele><time>2026-04-06T13:49:30Z</time></trkpt><trkpt lat="42.699586667230015" lon="2.698064419107922"><ele>105.0</ele><time>2026-04-06T13:49:31Z</time></trkpt><trkpt lat="42.69959956331357" lon="2.6982765316541943"><ele>105.0</ele><time>2026-04-06T13:49:32Z</time></trkpt><trkpt lat="42.69961389471268" lon="2.698495514268018"><ele>105.0</ele><time>2026-04-06T13:49:33Z</time></trkpt><trkpt lat="42.6996014886953" lon="2.6987334400825214"><ele>104.0</ele><time>2026-04-06T13:49:34Z</time></trkpt><trkpt lat="42.69960165312687" lon="2.698959861476124"><ele>103.0</ele><time>2026-04-06T13:49:35Z</time></trkpt><trkpt lat="42.69961528528952" lon="2.6991904537788205"><ele>102.0</ele><time>2026-04-06T13:49:36Z</time></trkpt><trkpt lat="42.69961512509917" lon="2.699424400045005"><ele>102.0</ele><time>2026-04-06T13:49:37Z</time></trkpt><trkpt lat="42.69961467758206" lon="2.699648414022995"><ele>102.0</ele><time>2026-04-06T13:49:38Z</time></trkpt><trkpt lat="42.69960232096982" lon="2.6998794807887934"><ele>102.0</ele><time>2026-04-06T13:49:39Z</time></trkpt><trkpt lat="42.699614924646674" lon="2.700109305268303"><ele>102.0</ele><time>2026-04-06T13:49:40Z</time></trkpt><trkpt lat="42.699602772946946" lon="2.70032749400426"><ele>102.0</ele><time>2026-04-06T13:49:41Z</time></trkpt><trkpt lat="42.699603123943454" lon="2.700547813277431"><ele>102.0</ele><time>2026-04-06T13:49:42Z</time></trkpt><trkpt lat="42.69960607475776" lon="2.700760324604215"><ele>102.0</ele><time>2026-04-06T13:49:43Z</time></trkpt><trkpt lat="42.69961569771163" lon="2.7009551893234653"><ele>102.0</ele><time>2026-04-06T13:49:44Z</time></trkpt><trkpt lat="42.69963139505337" lon="2.7011468888786254"><ele>102.0</ele><time>2026-04-06T13:49:45Z</time></trkpt><trkpt lat="42.699658070448365" lon="2.701337155560685"><ele>102.0</ele><time>2026-04-06T13:49:46Z</time></trkpt><trkpt lat="42.699693440141544" lon="2.70151410989678"><ele>102.0</ele><time>2026-04-06T13:49:47Z</time></trkpt><trkpt lat="42.6997366666473" lon="2.701685200242326"><ele>102.0</ele><time>2026-04-06T13:49:48Z</time></trkpt><trkpt lat="42.69978622156914" lon="2.7018582432422757"><ele>102.0</ele><time>2026-04-06T13:49:49Z</time></trkpt><trkpt lat="42.69983629505512" lon="2.702025101670449"><ele>102.0</ele><time>2026-04-06T13:49:50Z</time></trkpt><trkpt lat="42.699886283067755" lon="2.7021916750748733"><ele>101.25</ele><time>2026-04-06T13:49:51Z</time></trkpt><trkpt lat="42.69993765426147" lon="2.702361140511197"><ele>100.5</ele><time>2026-04-06T13:49:52Z</time></trkpt><trkpt lat="42.699988451416665" lon="2.7025295051550633"><ele>99.75</ele><time>2026-04-06T13:49:53Z</time></trkpt><trkpt lat="42.70003771384061" lon="2.702698797923416"><ele>99.0</ele><time>2026-04-06T13:49:54Z</time></trkpt><trkpt lat="42.70008887513727" lon="2.7028676269711482"><ele>98.5</ele><time>2026-04-06T13:49:55Z</time></trkpt><trkpt lat="42.70013839740154" lon="2.7030310473575714"><ele>98.0</ele><time>2026-04-06T13:49:56Z</time></trkpt><trkpt lat="42.70018614093112" lon="2.7031888048382697"><ele>97.5</ele><time>2026-04-06T13:49:57Z</time></trkpt><trkpt lat="42.70023252106099" lon="2.7033432375563646"><ele>97.0</ele><time>2026-04-06T13:49:58Z</time></trkpt><trkpt lat="42.700276131961026" lon="2.7035046326535412"><ele>97.5</ele><time>2026-04-06T13:49:59Z</time></trkpt><trkpt lat="42.70032801748846" lon="2.7036734820980723"><ele>98.0</ele><time>2026-04-06T13:50:00Z</time></trkpt><trkpt lat="42.70037592658481" lon="2.703831416905462"><ele>98.5</ele><time>2026-04-06T13:50:01Z</time></trkpt><trkpt lat="42.70042097144586" lon="2.70398151979096"><ele>99.0</ele><time>2026-04-06T13:50:02Z</time></trkpt><trkpt lat="42.70046692994966" lon="2.7041346655810514"><ele>99.0</ele><time>2026-04-06T13:50:03Z</time></trkpt><trkpt lat="42.70051246755584" lon="2.7042871563984066"><ele>99.0</ele><time>2026-04-06T13:50:04Z</time></trkpt><trkpt lat="42.700560236697186" lon="2.704446837520199"><ele>99.0</ele><time>2026-04-06T13:50:05Z</time></trkpt><trkpt lat="42.700609587311185" lon="2.7046137645865183"><ele>99.0</ele><time>2026-04-06T13:50:06Z</time></trkpt><trkpt lat="42.70065734136328" lon="2.704777284714491"><ele>98.75</ele><time>2026-04-06T13:50:07Z</time></trkpt><trkpt lat="42.70070405759084" lon="2.7049352963892863"><ele>98.5</ele><time>2026-04-06T13:50:08Z</time></trkpt><trkpt lat="42.700769873019" lon="2.7050764839562893"><ele>98.25</ele><time>2026-04-06T13:50:09Z</time></trkpt><trkpt lat="42.700819427193224" lon="2.7052321123727237"><ele>98.0</ele><time>2026-04-06T13:50:10Z</time></trkpt><trkpt lat="42.700870121345176" lon="2.705396196321498"><ele>97.75</ele><time>2026-04-06T13:50:11Z</time></trkpt><trkpt lat="42.700915244951766" lon="2.7055523503642744"><ele>97.5</ele><time>2026-04-06T13:50:12Z</time></trkpt><trkpt lat="42.70093494379877" lon="2.7057158929211766"><ele>97.25</ele><time>2026-04-06T13:50:13Z</time></trkpt><trkpt lat="42.70098031593449" lon="2.7058692903526156"><ele>97.0</ele><time>2026-04-06T13:50:14Z</time></trkpt><trkpt lat="42.70102561311869" lon="2.70602243431379"><ele>97.25</ele><time>2026-04-06T13:50:15Z</time></trkpt><trkpt lat="42.701075927449274" lon="2.7061930504286895"><ele>97.5</ele><time>2026-04-06T13:50:15.999Z</time></trkpt><trkpt lat="42.701124328384545" lon="2.706361917806091"><ele>97.75</ele><time>2026-04-06T13:50:17Z</time></trkpt><trkpt lat="42.701166352868285" lon="2.706525854417549"><ele>98.0</ele><time>2026-04-06T13:50:18Z</time></trkpt><trkpt lat="42.70119811191321" lon="2.706702786707395"><ele>98.5</ele><time>2026-04-06T13:50:19Z</time></trkpt><trkpt lat="42.70121329095943" lon="2.7068801391672097"><ele>99.0</ele><time>2026-04-06T13:50:20Z</time></trkpt><trkpt lat="42.70121993235868" lon="2.707064671827746"><ele>99.5</ele><time>2026-04-06T13:50:21Z</time></trkpt><trkpt lat="42.70121391669371" lon="2.707256628932334"><ele>100.0</ele><time>2026-04-06T13:50:22Z</time></trkpt><trkpt lat="42.7012236836948" lon="2.7074517148600004"><ele>100.0</ele><time>2026-04-06T13:50:23Z</time></trkpt><trkpt lat="42.701219584570694" lon="2.7076505491008267"><ele>100.0</ele><time>2026-04-06T13:50:24Z</time></trkpt><trkpt lat="42.70119863025444" lon="2.7078689176606474"><ele>100.0</ele><time>2026-04-06T13:50:25Z</time></trkpt><trkpt lat="42.7011944359147" lon="2.7080753380958034"><ele>101.25</ele><time>2026-04-06T13:50:26Z</time></trkpt><trkpt lat="42.70119152359087" lon="2.7082535585871548"><ele>102.5</ele><time>2026-04-06T13:50:27Z</time></trkpt><trkpt lat="42.70120302949844" lon="2.7084414950122015"><ele>103.75</ele><time>2026-04-06T13:50:28Z</time></trkpt><trkpt lat="42.70119933694753" lon="2.7086411850899936"><ele>105.0</ele><time>2026-04-06T13:50:29Z</time></trkpt><trkpt lat="42.701196230518214" lon="2.708859544733761"><ele>108.33333333333334</ele><time>2026-04-06T13:50:30Z</time></trkpt><trkpt lat="42.701192490781075" lon="2.709065567085491"><ele>111.66666666666667</ele><time>2026-04-06T13:50:31Z</time></trkpt><trkpt lat="42.70118375751396" lon="2.7092795087046797"><ele>115.0</ele><time>2026-04-06T13:50:32Z</time></trkpt><trkpt lat="42.701182943820605" lon="2.7094745775602918"><ele>115.5</ele><time>2026-04-06T13:50:33Z</time></trkpt><trkpt lat="42.70117608207525" lon="2.7096520509779296"><ele>116.0</ele><time>2026-04-06T13:50:34Z</time></trkpt><trkpt lat="42.701177688650894" lon="2.7098443332115028"><ele>116.5</ele><time>2026-04-06T13:50:35Z</time></trkpt><trkpt lat="42.701172587015954" lon="2.71003470026219"><ele>117.0</ele><time>2026-04-06T13:50:36Z</time></trkpt><trkpt lat="42.70115850413564" lon="2.7102171384536735"><ele>116.0</ele><time>2026-04-06T13:50:37Z</time></trkpt><trkpt lat="42.70116530052954" lon="2.710408111538275"><ele>115.0</ele><time>2026-04-06T13:50:38Z</time></trkpt><trkpt lat="42.701150288644065" lon="2.7105888876268134"><ele>114.0</ele><time>2026-04-06T13:50:39Z</time></trkpt><trkpt lat="42.701160097470286" lon="2.710761362440831"><ele>113.0</ele><time>2026-04-06T13:50:40Z</time></trkpt><trkpt lat="42.70115255320849" lon="2.7109334094007176"><ele>111.25</ele><time>2026-04-06T13:50:41Z</time></trkpt><trkpt lat="42.701154148699565" lon="2.711120145129717"><ele>109.5</ele><time>2026-04-06T13:50:42Z</time></trkpt><trkpt lat="42.701150050147035" lon="2.7113039551601905"><ele>107.75</ele><time>2026-04-06T13:50:43Z</time></trkpt><trkpt lat="42.70113848232656" lon="2.711488351078227"><ele>106.0</ele><time>2026-04-06T13:50:44Z</time></trkpt><trkpt lat="42.701129682558296" lon="2.711665434225606"><ele>106.0</ele><time>2026-04-06T13:50:45Z</time></trkpt><trkpt lat="42.701127427543334" lon="2.7118413117136733"><ele>106.0</ele><time>2026-04-06T13:50:46Z</time></trkpt><trkpt lat="42.70112531716376" lon="2.712014036599308"><ele>106.0</ele><time>2026-04-06T13:50:47Z</time></trkpt><trkpt lat="42.70111961830951" lon="2.712195902950086"><ele>106.0</ele><time>2026-04-06T13:50:48Z</time></trkpt><trkpt lat="42.70111622814032" lon="2.712372921483442"><ele>104.75</ele><time>2026-04-06T13:50:49Z</time></trkpt><trkpt lat="42.70111470072472" lon="2.7125358499278156"><ele>103.5</ele><time>2026-04-06T13:50:50Z</time></trkpt><trkpt lat="42.701110299480206" lon="2.71269660353336"><ele>102.25</ele><time>2026-04-06T13:50:51Z</time></trkpt><trkpt lat="42.701107947566726" lon="2.7128617449527583"><ele>101.0</ele><time>2026-04-06T13:50:52Z</time></trkpt><trkpt lat="42.70110726127017" lon="2.713044255476441"><ele>100.25</ele><time>2026-04-06T13:50:53Z</time></trkpt><trkpt lat="42.701089068418035" lon="2.7132287967734263"><ele>99.5</ele><time>2026-04-06T13:50:54Z</time></trkpt><trkpt lat="42.701098713677915" lon="2.7134004606754685"><ele>98.75</ele><time>2026-04-06T13:50:55Z</time></trkpt><trkpt lat="42.7010952553678" lon="2.7135774228427154"><ele>98.0</ele><time>2026-04-06T13:50:56Z</time></trkpt><trkpt lat="42.70107549220413" lon="2.7137757192834218"><ele>97.5</ele><time>2026-04-06T13:50:57Z</time></trkpt><trkpt lat="42.70107065801477" lon="2.7139661623614098"><ele>97.0</ele><time>2026-04-06T13:50:58Z</time></trkpt><trkpt lat="42.70108158291927" lon="2.7141556439183967"><ele>96.5</ele><time>2026-04-06T13:50:59Z</time></trkpt><trkpt lat="42.701072555579046" lon="2.7143497504268757"><ele>96.0</ele><time>2026-04-06T13:51:00Z</time></trkpt><trkpt lat="42.70107260524003" lon="2.7145443214922915"><ele>96.0</ele><time>2026-04-06T13:51:01Z</time></trkpt><trkpt lat="42.701068317241536" lon="2.714746601625863"><ele>96.0</ele><time>2026-04-06T13:51:02Z</time></trkpt><trkpt lat="42.70105954606018" lon="2.7149498859421133"><ele>96.0</ele><time>2026-04-06T13:51:03Z</time></trkpt><trkpt lat="42.701054229085145" lon="2.715152141776193"><ele>96.0</ele><time>2026-04-06T13:51:04Z</time></trkpt><trkpt lat="42.70104962567547" lon="2.715365361467075"><ele>96.0</ele><time>2026-04-06T13:51:05Z</time></trkpt><trkpt lat="42.701049521841746" lon="2.715575733418095"><ele>96.0</ele><time>2026-04-06T13:51:06Z</time></trkpt><trkpt lat="42.70102859372865" lon="2.7157822469635535"><ele>96.0</ele><time>2026-04-06T13:51:07Z</time></trkpt><trkpt lat="42.70102419106301" lon="2.7159902770634217"><ele>95.0</ele><time>2026-04-06T13:51:08Z</time></trkpt><trkpt lat="42.701033850492585" lon="2.716209642413256"><ele>94.0</ele><time>2026-04-06T13:51:09Z</time></trkpt><trkpt lat="42.70102848417595" lon="2.7164365524066043"><ele>93.0</ele><time>2026-04-06T13:51:10Z</time></trkpt><trkpt lat="42.70101999892317" lon="2.716659318987151"><ele>93.0</ele><time>2026-04-06T13:51:11Z</time></trkpt><trkpt lat="42.70102137583744" lon="2.7168816276969445"><ele>93.0</ele><time>2026-04-06T13:51:12Z</time></trkpt><trkpt lat="42.70100045338705" lon="2.717111904948538"><ele>93.0</ele><time>2026-04-06T13:51:13Z</time></trkpt><trkpt lat="42.701010426814584" lon="2.7173371109171054"><ele>93.0</ele><time>2026-04-06T13:51:14Z</time></trkpt><trkpt lat="42.70099897596201" lon="2.717560861363806"><ele>93.0</ele><time>2026-04-06T13:51:15Z</time></trkpt><trkpt lat="42.70098977014273" lon="2.7177860678265535"><ele>93.0</ele><time>2026-04-06T13:51:16Z</time></trkpt><trkpt lat="42.70097401510251" lon="2.718017963052927"><ele>93.0</ele><time>2026-04-06T13:51:17Z</time></trkpt><trkpt lat="42.70094599775846" lon="2.718242254920834"><ele>93.0</ele><time>2026-04-06T13:51:18Z</time></trkpt><trkpt lat="42.70090563211712" lon="2.7184716505702586"><ele>93.0</ele><time>2026-04-06T13:51:19Z</time></trkpt><trkpt lat="42.70085189901376" lon="2.7187130371472796"><ele>93.0</ele><time>2026-04-06T13:51:20Z</time></trkpt><trkpt lat="42.700802057725554" lon="2.7189476597219397"><ele>93.0</ele><time>2026-04-06T13:51:21Z</time></trkpt><trkpt lat="42.700751533104" lon="2.7191850866900595"><ele>93.0</ele><time>2026-04-06T13:51:22Z</time></trkpt><trkpt lat="42.7006923940675" lon="2.719442537959234"><ele>92.5</ele><time>2026-04-06T13:51:23Z</time></trkpt><trkpt lat="42.700612888950495" lon="2.7197274671295517"><ele>92.0</ele><time>2026-04-06T13:51:24Z</time></trkpt><trkpt lat="42.70054383691653" lon="2.720022564166841"><ele>92.0</ele><time>2026-04-06T13:51:25Z</time></trkpt><trkpt lat="42.700468646091664" lon="2.7203411619554516"><ele>92.0</ele><time>2026-04-06T13:51:26Z</time></trkpt><trkpt lat="42.700396211853985" lon="2.720648079506265"><ele>92.0</ele><time>2026-04-06T13:51:27Z</time></trkpt><trkpt lat="42.70033545220479" lon="2.7209086422279385"><ele>92.0</ele><time>2026-04-06T13:51:28Z</time></trkpt><trkpt lat="42.70027986723669" lon="2.721147192005214"><ele>92.0</ele><time>2026-04-06T13:51:29Z</time></trkpt><trkpt lat="42.700244231684806" lon="2.7213734273215513"><ele>92.25</ele><time>2026-04-06T13:51:30Z</time></trkpt><trkpt lat="42.70018537156029" lon="2.7215756508273006"><ele>92.5</ele><time>2026-04-06T13:51:31Z</time></trkpt><trkpt lat="42.700132839051946" lon="2.7217746340394173"><ele>92.75</ele><time>2026-04-06T13:51:32Z</time></trkpt><trkpt lat="42.70009842919914" lon="2.721944487927677"><ele>93.0</ele><time>2026-04-06T13:51:33Z</time></trkpt><trkpt lat="42.70006472726811" lon="2.722109155992212"><ele>93.25</ele><time>2026-04-06T13:51:34Z</time></trkpt><trkpt lat="42.70003100131442" lon="2.722259930600473"><ele>93.5</ele><time>2026-04-06T13:51:35Z</time></trkpt><trkpt lat="42.69999630520579" lon="2.722411807802432"><ele>93.75</ele><time>2026-04-06T13:51:36Z</time></trkpt><trkpt lat="42.69994732622963" lon="2.722567588721753"><ele>94.0</ele><time>2026-04-06T13:51:37Z</time></trkpt><trkpt lat="42.69991637731179" lon="2.7227385734247567"><ele>93.0</ele><time>2026-04-06T13:51:38Z</time></trkpt><trkpt lat="42.699879181336215" lon="2.72290939508908"><ele>92.0</ele><time>2026-04-06T13:51:39Z</time></trkpt><trkpt lat="42.699846132589926" lon="2.723083901072912"><ele>91.0</ele><time>2026-04-06T13:51:40Z</time></trkpt><trkpt lat="42.69980224608135" lon="2.7232587666632155"><ele>90.0</ele><time>2026-04-06T13:51:41Z</time></trkpt><trkpt lat="42.69975796949915" lon="2.7234268909817922"><ele>90.0</ele><time>2026-04-06T13:51:42Z</time></trkpt><trkpt lat="42.69972573473241" lon="2.72358595040125"><ele>90.0</ele><time>2026-04-06T13:51:43Z</time></trkpt><trkpt lat="42.699694289112195" lon="2.723730892571345"><ele>90.0</ele><time>2026-04-06T13:51:44Z</time></trkpt><trkpt lat="42.699660302585905" lon="2.7238971259137887"><ele>90.0</ele><time>2026-04-06T13:51:45Z</time></trkpt><trkpt lat="42.6996131593648" lon="2.7240662655238075"><ele>90.0</ele><time>2026-04-06T13:51:46Z</time></trkpt><trkpt lat="42.699572369131545" lon="2.7242506350019338"><ele>90.0</ele><time>2026-04-06T13:51:47Z</time></trkpt><trkpt lat="42.69953133311445" lon="2.724441006517616"><ele>90.0</ele><time>2026-04-06T13:51:48Z</time></trkpt><trkpt lat="42.699489668641256" lon="2.7246226985526394"><ele>90.0</ele><time>2026-04-06T13:51:49Z</time></trkpt><trkpt lat="42.699444226034664" lon="2.7247779904757046"><ele>90.0</ele><time>2026-04-06T13:51:50Z</time></trkpt><trkpt lat="42.69941130814169" lon="2.72492695105375"><ele>90.0</ele><time>2026-04-06T13:51:51Z</time></trkpt><trkpt lat="42.69936926339835" lon="2.7250671297802818"><ele>90.0</ele><time>2026-04-06T13:51:52Z</time></trkpt><trkpt lat="42.69933232037349" lon="2.725202901310719"><ele>90.0</ele><time>2026-04-06T13:51:53Z</time></trkpt><trkpt lat="42.69929806242623" lon="2.725329002579583"><ele>90.0</ele><time>2026-04-06T13:51:54Z</time></trkpt><trkpt lat="42.699280257214554" lon="2.7254348885903315"><ele>90.0</ele><time>2026-04-06T13:51:55Z</time></trkpt><trkpt lat="42.699249985595586" lon="2.725571992347033"><ele>90.0</ele><time>2026-04-06T13:51:57Z</time></trkpt><trkpt lat="42.69939692643699" lon="2.7256797435178464"><ele>90.0</ele><time>2026-04-06T13:51:59Z</time></trkpt><trkpt lat="42.69947270511738" lon="2.7257117191771862"><ele>90.0</ele><time>2026-04-06T13:52:00Z</time></trkpt><trkpt lat="42.69951285933497" lon="2.7257958881211373"><ele>90.0</ele><time>2026-04-06T13:52:01Z</time></trkpt><trkpt lat="42.699543738306886" lon="2.725873633548564"><ele>90.0</ele><time>2026-04-06T13:52:02Z</time></trkpt><trkpt lat="42.69951122236009" lon="2.725993009979824"><ele>90.0</ele><time>2026-04-06T13:52:03Z</time></trkpt><trkpt lat="42.699529634118655" lon="2.7261013645306935"><ele>90.0</ele><time>2026-04-06T13:52:04Z</time></trkpt><trkpt lat="42.69954723167172" lon="2.726190094685266"><ele>90.0</ele><time>2026-04-06T13:52:05Z</time></trkpt><trkpt lat="42.69963898768585" lon="2.7262332233067634"><ele>90.0</ele><time>2026-04-06T13:52:06Z</time></trkpt><trkpt lat="42.69971589727017" lon="2.726324235093455"><ele>90.0</ele><time>2026-04-06T13:52:07Z</time></trkpt><trkpt lat="42.699805815684805" lon="2.7263932936538167"><ele>90.2</ele><time>2026-04-06T13:52:08Z</time></trkpt><trkpt lat="42.69987433069421" lon="2.7264738841474014"><ele>90.4</ele><time>2026-04-06T13:52:09Z</time></trkpt><trkpt lat="42.69992824697017" lon="2.726526479383299"><ele>90.6</ele><time>2026-04-06T13:52:10Z</time></trkpt><trkpt lat="42.69998095952483" lon="2.7265796699829434"><ele>90.8</ele><time>2026-04-06T13:52:11.999Z</time></trkpt><trkpt lat="42.70010293682234" lon="2.7264188941137766"><ele>91.0</ele><time>2026-04-06T13:52:15.999Z</time></trkpt><trkpt lat="42.70014629356336" lon="2.7262953392755556"><ele>91.0</ele><time>2026-04-06T13:52:16.999Z</time></trkpt><trkpt lat="42.700189125769036" lon="2.7261666546579293"><ele>91.0</ele><time>2026-04-06T13:52:17.999Z</time></trkpt><trkpt lat="42.70022799981313" lon="2.7260443074493588"><ele>91.0</ele><time>2026-04-06T13:52:18.999Z</time></trkpt><trkpt lat="42.70027149197136" lon="2.7259169545944117"><ele>91.0</ele><time>2026-04-06T13:52:19.999Z</time></trkpt><trkpt lat="42.70030842989653" lon="2.725802053147137"><ele>91.0</ele><time>2026-04-06T13:52:20.999Z</time></trkpt><trkpt lat="42.70036735698295" lon="2.7257351880479335"><ele>91.0</ele><time>2026-04-06T13:52:21.999Z</time></trkpt><trkpt lat="42.70044488681995" lon="2.7256491476740226"><ele>91.0</ele><time>2026-04-06T13:52:24Z</time></trkpt><trkpt lat="42.700521020293316" lon="2.725651379165809"><ele>91.0</ele><time>2026-04-06T13:52:26Z</time></trkpt><trkpt lat="42.70062310779622" lon="2.7256686944382165"><ele>91.0</ele><time>2026-04-06T13:52:29Z</time></trkpt><trkpt lat="42.7007289073369" lon="2.7257111797291462"><ele>91.0</ele><time>2026-04-06T13:52:31Z</time></trkpt><trkpt lat="42.70084877081003" lon="2.725770151272926"><ele>91.0</ele><time>2026-04-06T13:52:33Z</time></trkpt><trkpt lat="42.700967784991924" lon="2.725826536280299"><ele>91.0</ele><time>2026-04-06T13:52:35Z</time></trkpt><trkpt lat="42.70104383938729" lon="2.725862487646349"><ele>91.0</ele><time>2026-04-06T13:52:36Z</time></trkpt><trkpt lat="42.70112133214" lon="2.725899008451205"><ele>91.0</ele><time>2026-04-06T13:52:37Z</time></trkpt><trkpt lat="42.701205041226004" lon="2.7259373512963596"><ele>91.0</ele><time>2026-04-06T13:52:38Z</time></trkpt><trkpt lat="42.70128981725081" lon="2.7259761828728735"><ele>91.33333333333333</ele><time>2026-04-06T13:52:39Z</time></trkpt><trkpt lat="42.70135452695449" lon="2.726005823046695"><ele>91.66666666666666</ele><time>2026-04-06T13:52:40Z</time></trkpt><trkpt lat="42.70144844470721" lon="2.726048841932331"><ele>92.0</ele><time>2026-04-06T13:52:42Z</time></trkpt><trkpt lat="42.70151659334693" lon="2.7260800574110666"><ele>92.33333333333333</ele><time>2026-04-06T13:52:44Z</time></trkpt><trkpt lat="42.701590548483914" lon="2.7261103100950255"><ele>92.66666666666667</ele><time>2026-04-06T13:52:46Z</time></trkpt><trkpt lat="42.70169086461371" lon="2.726137551482771"><ele>93.0</ele><time>2026-04-06T13:52:53Z</time></trkpt><trkpt lat="42.70176510203656" lon="2.726191080780516"><ele>94.0</ele><time>2026-04-06T13:52:54Z</time></trkpt><trkpt lat="42.70183255897592" lon="2.726240008215089"><ele>95.0</ele><time>2026-04-06T13:52:55Z</time></trkpt><trkpt lat="42.70188413180188" lon="2.726305590339964"><ele>96.0</ele><time>2026-04-06T13:52:56Z</time></trkpt><trkpt lat="42.7019672999371" lon="2.726399819794111"><ele>97.0</ele><time>2026-04-06T13:52:57Z</time></trkpt><trkpt lat="42.70206327758258" lon="2.7265015513374675"><ele>98.0</ele><time>2026-04-06T13:52:58Z</time></trkpt><trkpt lat="42.70213640772386" lon="2.7265843831604655"><ele>99.60000000000001</ele><time>2026-04-06T13:52:59Z</time></trkpt><trkpt lat="42.702219880859516" lon="2.726662928476246"><ele>101.2</ele><time>2026-04-06T13:53:00Z</time></trkpt><trkpt lat="42.702295777125606" lon="2.726719552145109"><ele>102.8</ele><time>2026-04-06T13:53:01Z</time></trkpt><trkpt lat="42.70240279790693" lon="2.7267586541579374"><ele>104.4</ele><time>2026-04-06T13:53:02Z</time></trkpt><trkpt lat="42.70251756753361" lon="2.726768857182501"><ele>106.0</ele><time>2026-04-06T13:53:03Z</time></trkpt><trkpt lat="42.70263471241787" lon="2.7267617017644166"><ele>108.75</ele><time>2026-04-06T13:53:04Z</time></trkpt><trkpt lat="42.702754665148866" lon="2.7267264593695106"><ele>111.5</ele><time>2026-04-06T13:53:05Z</time></trkpt><trkpt lat="42.702878281643315" lon="2.7267107315420094"><ele>114.25</ele><time>2026-04-06T13:53:06Z</time></trkpt><trkpt lat="42.702996345885595" lon="2.726700105267307"><ele>117.0</ele><time>2026-04-06T13:53:07Z</time></trkpt><trkpt lat="42.70312308935385" lon="2.7266830217830385"><ele>117.0</ele><time>2026-04-06T13:53:08Z</time></trkpt><trkpt lat="42.70324582017153" lon="2.726635556794989"><ele>117.0</ele><time>2026-04-06T13:53:09Z</time></trkpt><trkpt lat="42.70338346738296" lon="2.7266184981859336"><ele>117.0</ele><time>2026-04-06T13:53:10Z</time></trkpt><trkpt lat="42.703498221489845" lon="2.7265868255681913"><ele>117.0</ele><time>2026-04-06T13:53:11Z</time></trkpt><trkpt lat="42.70359917052009" lon="2.726561898072798"><ele>117.19999999999999</ele><time>2026-04-06T13:53:12Z</time></trkpt><trkpt lat="42.70369650260982" lon="2.726542319623501"><ele>117.39999999999999</ele><time>2026-04-06T13:53:13Z</time></trkpt><trkpt lat="42.703803227543766" lon="2.7265216199507676"><ele>117.60000000000001</ele><time>2026-04-06T13:53:14Z</time></trkpt><trkpt lat="42.703912973555354" lon="2.72649756378311"><ele>117.80000000000001</ele><time>2026-04-06T13:53:15Z</time></trkpt><trkpt lat="42.70402254942686" lon="2.726472863523557"><ele>118.0</ele><time>2026-04-06T13:53:16Z</time></trkpt><trkpt lat="42.7041133868489" lon="2.7264192058022627"><ele>118.00000000000001</ele><time>2026-04-06T13:53:17Z</time></trkpt><trkpt lat="42.7041935546652" lon="2.7264212538688244"><ele>118.0</ele><time>2026-04-06T13:53:18Z</time></trkpt><trkpt lat="42.704261164889466" lon="2.7264068288578476"><ele>118.0</ele><time>2026-04-06T13:53:19Z</time></trkpt><trkpt lat="42.70433140597397" lon="2.7263658355975307"><ele>118.0</ele><time>2026-04-06T13:53:20Z</time></trkpt><trkpt lat="42.70441743740811" lon="2.7263384535272293"><ele>118.00000000000001</ele><time>2026-04-06T13:53:21Z</time></trkpt><trkpt lat="42.7044999736096" lon="2.7262948865229"><ele>118.0</ele><time>2026-04-06T13:53:22Z</time></trkpt><trkpt lat="42.70457596331609" lon="2.726235901070637"><ele>118.0</ele><time>2026-04-06T13:53:23Z</time></trkpt><trkpt lat="42.7046582143316" lon="2.7261481297019032"><ele>118.00000000000001</ele><time>2026-04-06T13:53:24Z</time></trkpt><trkpt lat="42.7047361118614" lon="2.726049022573712"><ele>118.00000000000001</ele><time>2026-04-06T13:53:25Z</time></trkpt><trkpt lat="42.704802360808095" lon="2.7259660110929853"><ele>118.0</ele><time>2026-04-06T13:53:26Z</time></trkpt><trkpt lat="42.70486563489999" lon="2.725892809965468"><ele>118.0</ele><time>2026-04-06T13:53:27Z</time></trkpt><trkpt lat="42.704931610783575" lon="2.7258352066056606"><ele>118.0</ele><time>2026-04-06T13:53:28Z</time></trkpt><trkpt lat="42.70499564819321" lon="2.7258163135219453"><ele>118.0</ele><time>2026-04-06T13:53:29Z</time></trkpt><trkpt lat="42.70510416208482" lon="2.725754869574105"><ele>118.0</ele><time>2026-04-06T13:53:31Z</time></trkpt><trkpt lat="42.705204513647175" lon="2.7257697882376117"><ele>118.0</ele><time>2026-04-06T13:53:33Z</time></trkpt><trkpt lat="42.705271844937336" lon="2.725437710153779"><ele>118.00000000000001</ele><time>2026-04-06T13:53:36Z</time></trkpt><trkpt lat="42.705335815243714" lon="2.7253280565746767"><ele>118.0</ele><time>2026-04-06T13:53:38Z</time></trkpt><trkpt lat="42.70539500659017" lon="2.7252175082378156"><ele>118.0</ele><time>2026-04-06T13:53:40Z</time></trkpt><trkpt lat="42.70545150424998" lon="2.725106796825296"><ele>118.0</ele><time>2026-04-06T13:53:42Z</time></trkpt><trkpt lat="42.70549131949505" lon="2.725031954514972"><ele>118.00000000000001</ele><time>2026-04-06T13:53:44Z</time></trkpt><trkpt lat="42.70553019294692" lon="2.7249520530658278"><ele>118.0</ele><time>2026-04-06T13:53:52Z</time></trkpt><trkpt lat="42.70555142362511" lon="2.7248604557956053"><ele>118.0</ele><time>2026-04-06T13:53:58Z</time></trkpt><trkpt lat="42.705582556524185" lon="2.724763790085442"><ele>118.0</ele><time>2026-04-06T13:54:43Z</time></trkpt><trkpt lat="42.70562816737618" lon="2.7246867440230185"><ele>118.0</ele><time>2026-04-06T13:54:47Z</time></trkpt><trkpt lat="42.70567696591812" lon="2.7246011385300557"><ele>118.0</ele><time>2026-04-06T13:56:11Z</time></trkpt><trkpt lat="42.70565449441774" lon="2.72468123462317"><ele>118.0</ele><time>2026-04-06T13:57:02Z</time></trkpt><trkpt lat="42.705675402611675" lon="2.7245962716829326"><ele>118.0</ele><time>2026-04-06T13:57:45Z</time></trkpt><trkpt lat="42.705611913201444" lon="2.7246215529517284"><ele>118.0</ele><time>2026-04-06T13:57:56Z</time></trkpt><trkpt lat="42.7056554131771" lon="2.724512652876107"><ele>118.00000000000001</ele><time>2026-04-06T13:58:38Z</time></trkpt><trkpt lat="42.70571907954007" lon="2.7245375170542125"><ele>118.0</ele><time>2026-04-06T13:58:41Z</time></trkpt><trkpt lat="42.70570856091997" lon="2.7246352796202955"><ele>118.0</ele><time>2026-04-06T13:58:44Z</time></trkpt><trkpt lat="42.70564755272277" lon="2.7246981234847945"><ele>118.0</ele><time>2026-04-06T13:58:48Z</time></trkpt><trkpt lat="42.70563249856539" lon="2.724575341918508"><ele>118.00000000000001</ele><time>2026-04-06T14:01:54Z</time></trkpt><trkpt lat="42.70569004895643" lon="2.7245147671711436"><ele>118.0</ele><time>2026-04-06T14:01:56Z</time></trkpt><trkpt lat="42.705758052682185" lon="2.7244873818077466"><ele>118.0</ele><time>2026-04-06T14:01:58Z</time></trkpt><trkpt lat="42.705830937970624" lon="2.7244178921175037"><ele>118.00000000000001</ele><time>2026-04-06T14:02:00Z</time></trkpt><trkpt lat="42.70589842741825" lon="2.724360850702146"><ele>118.00000000000001</ele><time>2026-04-06T14:02:02Z</time></trkpt><trkpt lat="42.70599575213261" lon="2.7242992843808707"><ele>118.0</ele><time>2026-04-06T14:02:04Z</time></trkpt><trkpt lat="42.70605567343999" lon="2.724260515094348"><ele>118.0</ele><time>2026-04-06T14:02:05Z</time></trkpt><trkpt lat="42.706165337492976" lon="2.724206020856797"><ele>117.80000000000001</ele><time>2026-04-06T14:02:07Z</time></trkpt><trkpt lat="42.70628451245953" lon="2.7241518829938682"><ele>117.60000000000001</ele><time>2026-04-06T14:02:09Z</time></trkpt><trkpt lat="42.706365719212904" lon="2.724098884955821"><ele>117.39999999999999</ele><time>2026-04-06T14:02:10Z</time></trkpt><trkpt lat="42.706456557382" lon="2.7240392034943475"><ele>117.19999999999999</ele><time>2026-04-06T14:02:11Z</time></trkpt><trkpt lat="42.70651984185539" lon="2.7239722891436573"><ele>117.0</ele><time>2026-04-06T14:02:12Z</time></trkpt><trkpt lat="42.70658790850733" lon="2.7238777804825642"><ele>117.0</ele><time>2026-04-06T14:02:13Z</time></trkpt><trkpt lat="42.70665121418191" lon="2.723734987989283"><ele>116.99999999999999</ele><time>2026-04-06T14:02:14Z</time></trkpt><trkpt lat="42.70671098166597" lon="2.7235944011468933"><ele>116.99999999999999</ele><time>2026-04-06T14:02:15Z</time></trkpt><trkpt lat="42.706758684589566" lon="2.723489373805738"><ele>117.0</ele><time>2026-04-06T14:02:16Z</time></trkpt><trkpt lat="42.70679462398843" lon="2.723404371092172"><ele>117.0</ele><time>2026-04-06T14:02:17Z</time></trkpt><trkpt lat="42.706845764680935" lon="2.7233266535946816"><ele>117.39999999999999</ele><time>2026-04-06T14:02:18Z</time></trkpt><trkpt lat="42.70691668963547" lon="2.7232691283837993"><ele>117.79999999999998</ele><time>2026-04-06T14:02:19Z</time></trkpt><trkpt lat="42.707003282137514" lon="2.7232260160224704"><ele>118.2</ele><time>2026-04-06T14:02:20Z</time></trkpt><trkpt lat="42.70709158273582" lon="2.723200860159097"><ele>118.6</ele><time>2026-04-06T14:02:21Z</time></trkpt><trkpt lat="42.70715487250573" lon="2.7231833481896315"><ele>119.0</ele><time>2026-04-06T14:02:22Z</time></trkpt><trkpt lat="42.70727799682517" lon="2.7231100993896566"><ele>118.99999999999999</ele><time>2026-04-06T14:02:24Z</time></trkpt><trkpt lat="42.70733289809398" lon="2.723036398341563"><ele>119.0</ele><time>2026-04-06T14:02:25Z</time></trkpt><trkpt lat="42.707395150526054" lon="2.722942176443967"><ele>119.0</ele><time>2026-04-06T14:02:26Z</time></trkpt><trkpt lat="42.70745538679498" lon="2.722855935602753"><ele>119.0</ele><time>2026-04-06T14:02:27Z</time></trkpt><trkpt lat="42.707511777038825" lon="2.722768964438485"><ele>118.99999999999999</ele><time>2026-04-06T14:02:28Z</time></trkpt><trkpt lat="42.70756173008032" lon="2.7226961895905686"><ele>119.0</ele><time>2026-04-06T14:02:29Z</time></trkpt><trkpt lat="42.70762120771452" lon="2.7226174028151373"><ele>119.2</ele><time>2026-04-06T14:02:30Z</time></trkpt><trkpt lat="42.70769057067089" lon="2.7225523392951048"><ele>119.4</ele><time>2026-04-06T14:02:31Z</time></trkpt><trkpt lat="42.7077605469054" lon="2.7225098977193007"><ele>119.6</ele><time>2026-04-06T14:02:32Z</time></trkpt><trkpt lat="42.70784803208715" lon="2.7224738772410713"><ele>119.8</ele><time>2026-04-06T14:02:33Z</time></trkpt><trkpt lat="42.7079453312564" lon="2.7224061903550014"><ele>120.0</ele><time>2026-04-06T14:02:34Z</time></trkpt><trkpt lat="42.70804333914236" lon="2.7223349543126023"><ele>120.0</ele><time>2026-04-06T14:02:35Z</time></trkpt><trkpt lat="42.70811657583688" lon="2.722282380857249"><ele>120.0</ele><time>2026-04-06T14:02:36Z</time></trkpt><trkpt lat="42.708186038049256" lon="2.722233299159355"><ele>120.0</ele><time>2026-04-06T14:02:37Z</time></trkpt><trkpt lat="42.708261203719786" lon="2.7222046149867904"><ele>120.0</ele><time>2026-04-06T14:02:38Z</time></trkpt><trkpt lat="42.708335286690534" lon="2.7221676301866875"><ele>120.0</ele><time>2026-04-06T14:02:39Z</time></trkpt><trkpt lat="42.70840372467218" lon="2.7221210797500976"><ele>120.0</ele><time>2026-04-06T14:02:40Z</time></trkpt><trkpt lat="42.70847382904858" lon="2.722064508540471"><ele>120.0</ele><time>2026-04-06T14:02:41Z</time></trkpt><trkpt lat="42.70854138626746" lon="2.7219958219045677"><ele>120.0</ele><time>2026-04-06T14:02:42Z</time></trkpt><trkpt lat="42.708608564003974" lon="2.721937186683114"><ele>120.0</ele><time>2026-04-06T14:02:43Z</time></trkpt><trkpt lat="42.70868606993897" lon="2.7218875398815854"><ele>120.0</ele><time>2026-04-06T14:02:44Z</time></trkpt><trkpt lat="42.70876606114071" lon="2.721841036536371"><ele>120.0</ele><time>2026-04-06T14:02:45Z</time></trkpt><trkpt lat="42.708836707912134" lon="2.721780410669162"><ele>120.0</ele><time>2026-04-06T14:02:46Z</time></trkpt><trkpt lat="42.708899816689744" lon="2.7217256283766296"><ele>120.4</ele><time>2026-04-06T14:02:47Z</time></trkpt><trkpt lat="42.70898928692524" lon="2.7216318867916094"><ele>120.8</ele><time>2026-04-06T14:02:49Z</time></trkpt><trkpt lat="42.709098823700785" lon="2.7216160774236156"><ele>121.19999999999999</ele><time>2026-04-06T14:02:51Z</time></trkpt><trkpt lat="42.70917385856117" lon="2.721617239884768"><ele>121.6</ele><time>2026-04-06T14:02:52Z</time></trkpt><trkpt lat="42.70926003836445" lon="2.721637551962181"><ele>122.0</ele><time>2026-04-06T14:02:53Z</time></trkpt><trkpt lat="42.70932923021467" lon="2.7216268612022207"><ele>121.99999999999999</ele><time>2026-04-06T14:02:54Z</time></trkpt><trkpt lat="42.70940344737162" lon="2.72156146546291"><ele>122.0</ele><time>2026-04-06T14:02:56Z</time></trkpt><trkpt lat="42.709442935749394" lon="2.7214894798775497"><ele>122.0</ele><time>2026-04-06T14:02:57Z</time></trkpt><trkpt lat="42.70949791488816" lon="2.721396951264986"><ele>122.0</ele><time>2026-04-06T14:02:58Z</time></trkpt><trkpt lat="42.709551824078495" lon="2.721326907349465"><ele>121.99999999999999</ele><time>2026-04-06T14:02:59Z</time></trkpt><trkpt lat="42.70960142768774" lon="2.721260289873423"><ele>122.0</ele><time>2026-04-06T14:03:00Z</time></trkpt><trkpt lat="42.7096556524268" lon="2.7211882518051467"><ele>121.66666666666666</ele><time>2026-04-06T14:03:01Z</time></trkpt><trkpt lat="42.70970211489543" lon="2.721112786943021"><ele>121.33333333333333</ele><time>2026-04-06T14:03:02Z</time></trkpt><trkpt lat="42.709751713239385" lon="2.721032179104017"><ele>121.0</ele><time>2026-04-06T14:03:03Z</time></trkpt><trkpt lat="42.70980499894792" lon="2.7209598881787413"><ele>120.66666666666666</ele><time>2026-04-06T14:03:04Z</time></trkpt><trkpt lat="42.709867356460684" lon="2.7208807789210856"><ele>120.33333333333333</ele><time>2026-04-06T14:03:05Z</time></trkpt><trkpt lat="42.709932804972105" lon="2.720729084901879"><ele>120.0</ele><time>2026-04-06T14:03:07Z</time></trkpt><trkpt lat="42.70997864083506" lon="2.7205999620591395"><ele>120.0</ele><time>2026-04-06T14:03:09Z</time></trkpt><trkpt lat="42.710048282685804" lon="2.7204832284109233"><ele>120.0</ele><time>2026-04-06T14:03:11Z</time></trkpt><trkpt lat="42.71012127780065" lon="2.7203721571536104"><ele>120.0</ele><time>2026-04-06T14:03:13Z</time></trkpt><trkpt lat="42.71016780789955" lon="2.7202802608110486"><ele>120.0</ele><time>2026-04-06T14:03:14Z</time></trkpt><trkpt lat="42.71019581523726" lon="2.7201980516843762"><ele>120.0</ele><time>2026-04-06T14:03:15Z</time></trkpt><trkpt lat="42.71024881473263" lon="2.720033823799125"><ele>119.8</ele><time>2026-04-06T14:03:17Z</time></trkpt><trkpt lat="42.71030001064833" lon="2.7199423769632736"><ele>119.6</ele><time>2026-04-06T14:03:18Z</time></trkpt><trkpt lat="42.71037155133211" lon="2.719880949278983"><ele>119.4</ele><time>2026-04-06T14:03:19Z</time></trkpt><trkpt lat="42.710460321362575" lon="2.71984042821137"><ele>119.2</ele><time>2026-04-06T14:03:20Z</time></trkpt><trkpt lat="42.710558248330884" lon="2.719833790204679"><ele>119.0</ele><time>2026-04-06T14:03:21Z</time></trkpt><trkpt lat="42.71067078955608" lon="2.7198287511453016"><ele>118.99999999999999</ele><time>2026-04-06T14:03:22Z</time></trkpt><trkpt lat="42.710756874949546" lon="2.7198086938563915"><ele>119.0</ele><time>2026-04-06T14:03:23Z</time></trkpt><trkpt lat="42.71083679779542" lon="2.7198133471358545"><ele>119.0</ele><time>2026-04-06T14:03:24Z</time></trkpt><trkpt lat="42.710920929698794" lon="2.719840689896487"><ele>119.0</ele><time>2026-04-06T14:03:25Z</time></trkpt><trkpt lat="42.71097901547618" lon="2.7198995265715395"><ele>118.99999999999999</ele><time>2026-04-06T14:03:26Z</time></trkpt><trkpt lat="42.71108135203243" lon="2.7199627057008704"><ele>119.0</ele><time>2026-04-06T14:03:27Z</time></trkpt><trkpt lat="42.71114919757042" lon="2.7200272520794937"><ele>120.4</ele><time>2026-04-06T14:03:28Z</time></trkpt><trkpt lat="42.71124271547674" lon="2.7200536258387764"><ele>121.80000000000001</ele><time>2026-04-06T14:03:30Z</time></trkpt><trkpt lat="42.71132663935535" lon="2.7200041997749413"><ele>123.19999999999999</ele><time>2026-04-06T14:03:32Z</time></trkpt><trkpt lat="42.711417167618926" lon="2.7199346746490503"><ele>124.6</ele><time>2026-04-06T14:03:34Z</time></trkpt><trkpt lat="42.71151441947865" lon="2.7198136659492222"><ele>126.0</ele><time>2026-04-06T14:03:36Z</time></trkpt><trkpt lat="42.71160685287164" lon="2.7197019023397146"><ele>126.0</ele><time>2026-04-06T14:03:38Z</time></trkpt><trkpt lat="42.71169250620576" lon="2.7196099868133645"><ele>126.0</ele><time>2026-04-06T14:03:40Z</time></trkpt><trkpt lat="42.71174821708604" lon="2.719473419161668"><ele>126.0</ele><time>2026-04-06T14:03:42Z</time></trkpt><trkpt lat="42.71169701554826" lon="2.7192958003764844"><ele>126.0</ele><time>2026-04-06T14:03:44Z</time></trkpt><trkpt lat="42.71163689409911" lon="2.7192159858200418"><ele>126.0</ele><time>2026-04-06T14:03:45Z</time></trkpt><trkpt lat="42.7115704634164" lon="2.719163167909943"><ele>125.16666666666667</ele><time>2026-04-06T14:03:46Z</time></trkpt><trkpt lat="42.71153221248093" lon="2.7190756274756804"><ele>124.33333333333334</ele><time>2026-04-06T14:03:47Z</time></trkpt><trkpt lat="42.71148354794461" lon="2.719002196498247"><ele>123.5</ele><time>2026-04-06T14:03:48Z</time></trkpt><trkpt lat="42.71144037381238" lon="2.718938473566211"><ele>122.66666666666667</ele><time>2026-04-06T14:03:49Z</time></trkpt><trkpt lat="42.711398669484424" lon="2.7188635406867228"><ele>121.83333333333334</ele><time>2026-04-06T14:03:50Z</time></trkpt><trkpt lat="42.71135829530048" lon="2.718712348319469"><ele>121.0</ele><time>2026-04-06T14:03:52Z</time></trkpt><trkpt lat="42.71135756386372" lon="2.7186169716691686"><ele>121.16666666666667</ele><time>2026-04-06T14:03:53Z</time></trkpt><trkpt lat="42.71136466753198" lon="2.7185220384903777"><ele>121.33333333333334</ele><time>2026-04-06T14:03:54Z</time></trkpt><trkpt lat="42.7113801516483" lon="2.7183913582128207"><ele>121.5</ele><time>2026-04-06T14:03:56Z</time></trkpt><trkpt lat="42.71143333136667" lon="2.7182833381787774"><ele>121.66666666666666</ele><time>2026-04-06T14:03:59Z</time></trkpt><trkpt lat="42.711497723333856" lon="2.7182339806505422"><ele>121.83333333333333</ele><time>2026-04-06T14:04:32Z</time></trkpt><trkpt lat="42.71148721095134" lon="2.71833055003978"><ele>122.0</ele><time>2026-04-06T14:04:49Z</time></trkpt><trkpt lat="42.71148214710238" lon="2.718417351672096"><ele>121.99999999999999</ele><time>2026-04-06T14:04:55Z</time></trkpt><trkpt lat="42.71148830143169" lon="2.7185046330588256"><ele>122.0</ele><time>2026-04-06T14:05:00Z</time></trkpt><trkpt lat="42.71147824951053" lon="2.7185914309209562"><ele>121.99999999999999</ele><time>2026-04-06T14:05:12Z</time></trkpt><trkpt lat="42.71147302459948" lon="2.718694409388848"><ele>121.99999999999999</ele><time>2026-04-06T14:05:34Z</time></trkpt><trkpt lat="42.71148157356964" lon="2.718792828343134"><ele>122.0</ele><time>2026-04-06T14:06:01Z</time></trkpt><trkpt lat="42.71152379172672" lon="2.71888438555545"><ele>121.99999999999999</ele><time>2026-04-06T14:06:04Z</time></trkpt><trkpt lat="42.71157040970383" lon="2.7189487757986126"><ele>121.99999999999999</ele><time>2026-04-06T14:06:07Z</time></trkpt><trkpt lat="42.71161352640783" lon="2.719037251581217"><ele>121.83333333333333</ele><time>2026-04-06T14:06:18Z</time></trkpt><trkpt lat="42.711663749886014" lon="2.7191311714178696"><ele>121.66666666666666</ele><time>2026-04-06T14:06:26Z</time></trkpt><trkpt lat="42.711709438415774" lon="2.719212143668391"><ele>121.5</ele><time>2026-04-06T14:06:30Z</time></trkpt><trkpt lat="42.7117455085306" lon="2.7193119050432353"><ele>121.33333333333334</ele><time>2026-04-06T14:06:33Z</time></trkpt><trkpt lat="42.71178859391697" lon="2.7194080431947425"><ele>121.16666666666667</ele><time>2026-04-06T14:06:37Z</time></trkpt><trkpt lat="42.71179397006302" lon="2.719494462965346"><ele>121.0</ele><time>2026-04-06T14:06:40Z</time></trkpt><trkpt lat="42.71178067234997" lon="2.7195856059133092"><ele>121.83333333333334</ele><time>2026-04-06T14:06:44Z</time></trkpt><trkpt lat="42.71175268893621" lon="2.719667331166771"><ele>122.66666666666667</ele><time>2026-04-06T14:06:47Z</time></trkpt><trkpt lat="42.71170821289764" lon="2.719753409598295"><ele>123.5</ele><time>2026-04-06T14:07:05Z</time></trkpt><trkpt lat="42.711657147468294" lon="2.719842714755793"><ele>124.33333333333334</ele><time>2026-04-06T14:07:08Z</time></trkpt><trkpt lat="42.711583734040325" lon="2.7198967555829054"><ele>125.16666666666667</ele><time>2026-04-06T14:07:12Z</time></trkpt><trkpt lat="42.711527704461616" lon="2.719939674952549"><ele>126.0</ele><time>2026-04-06T14:11:32Z</time></trkpt><trkpt lat="42.71145059750913" lon="2.7200040635427016"><ele>126.0</ele><time>2026-04-06T14:11:35Z</time></trkpt><trkpt lat="42.71140723739884" lon="2.7200712539650076"><ele>126.0</ele><time>2026-04-06T14:11:38Z</time></trkpt><trkpt lat="42.71134088996689" lon="2.720090965307393"><ele>126.0</ele><time>2026-04-06T14:11:41Z</time></trkpt><trkpt lat="42.71126442101231" lon="2.720139359059748"><ele>126.0</ele><time>2026-04-06T14:11:44Z</time></trkpt><trkpt lat="42.71120164773462" lon="2.7201215892596298"><ele>126.0</ele><time>2026-04-06T14:11:51Z</time></trkpt><trkpt lat="42.71113264264491" lon="2.7200699000411994"><ele>126.0</ele><time>2026-04-06T14:11:57Z</time></trkpt><trkpt lat="42.71106668396912" lon="2.7200370652024044"><ele>126.0</ele><time>2026-04-06T14:12:01Z</time></trkpt><trkpt lat="42.71100540827458" lon="2.719996564548302"><ele>124.83333333333333</ele><time>2026-04-06T14:15:17Z</time></trkpt><trkpt lat="42.71092902467778" lon="2.7199591135035783"><ele>123.66666666666666</ele><time>2026-04-06T14:15:35Z</time></trkpt><trkpt lat="42.71086652275429" lon="2.7199085718320988"><ele>122.5</ele><time>2026-04-06T14:15:40Z</time></trkpt><trkpt lat="42.710789445136925" lon="2.7199005056834764"><ele>121.33333333333333</ele><time>2026-04-06T14:15:43Z</time></trkpt><trkpt lat="42.71070743743203" lon="2.7199011312657895"><ele>120.16666666666666</ele><time>2026-04-06T14:15:47Z</time></trkpt><trkpt lat="42.7106303415956" lon="2.7199138243175205"><ele>119.0</ele><time>2026-04-06T14:15:50Z</time></trkpt><trkpt lat="42.71056276252867" lon="2.719938724938403"><ele>118.99999999999999</ele><time>2026-04-06T14:15:54Z</time></trkpt><trkpt lat="42.71049015256095" lon="2.71993824178182"><ele>119.0</ele><time>2026-04-06T14:15:59Z</time></trkpt><trkpt lat="42.71041195111184" lon="2.7199730290218667"><ele>119.0</ele><time>2026-04-06T14:16:03Z</time></trkpt><trkpt lat="42.71035290608473" lon="2.720028642339593"><ele>119.0</ele><time>2026-04-06T14:16:05Z</time></trkpt><trkpt lat="42.71031546549477" lon="2.7201078435502524"><ele>118.99999999999999</ele><time>2026-04-06T14:16:08Z</time></trkpt><trkpt lat="42.71028191982697" lon="2.720198041992047"><ele>119.0</ele><time>2026-04-06T14:16:11Z</time></trkpt><trkpt lat="42.710246097897254" lon="2.720299505376449"><ele>119.16666666666666</ele><time>2026-04-06T14:16:14Z</time></trkpt><trkpt lat="42.71021253923487" lon="2.7203863075476113"><ele>119.33333333333333</ele><time>2026-04-06T14:16:16Z</time></trkpt><trkpt lat="42.710174317366324" lon="2.7204724976786845"><ele>119.5</ele><time>2026-04-06T14:16:18Z</time></trkpt><trkpt lat="42.71011313054511" lon="2.720551809575174"><ele>119.66666666666666</ele><time>2026-04-06T14:16:21Z</time></trkpt><trkpt lat="42.710031581722646" lon="2.720600344539751"><ele>119.83333333333333</ele><time>2026-04-06T14:16:24Z</time></trkpt><trkpt lat="42.70996508143466" lon="2.7207018943359706"><ele>120.0</ele><time>2026-04-06T14:17:01Z</time></trkpt><trkpt lat="42.70989785813517" lon="2.7208326887509884"><ele>120.0</ele><time>2026-04-06T14:17:03Z</time></trkpt><trkpt lat="42.709818397730295" lon="2.720959753902924"><ele>120.0</ele><time>2026-04-06T14:17:05Z</time></trkpt><trkpt lat="42.70976755725664" lon="2.7210210958012455"><ele>120.0</ele><time>2026-04-06T14:17:06Z</time></trkpt><trkpt lat="42.70971117117108" lon="2.7211017275580827"><ele>120.0</ele><time>2026-04-06T14:17:07Z</time></trkpt><trkpt lat="42.70966199143759" lon="2.7211726140496793"><ele>120.0</ele><time>2026-04-06T14:17:08Z</time></trkpt><trkpt lat="42.70958361565367" lon="2.7213090070543973"><ele>120.4</ele><time>2026-04-06T14:17:10Z</time></trkpt><trkpt lat="42.709529433819405" lon="2.7213800330472453"><ele>120.8</ele><time>2026-04-06T14:17:11Z</time></trkpt><trkpt lat="42.70946207579679" lon="2.721464249376507"><ele>121.19999999999999</ele><time>2026-04-06T14:17:12Z</time></trkpt><trkpt lat="42.70938855070336" lon="2.72155038952386"><ele>121.6</ele><time>2026-04-06T14:17:13Z</time></trkpt><trkpt lat="42.7093191464203" lon="2.7216240084209034"><ele>122.0</ele><time>2026-04-06T14:17:15Z</time></trkpt><trkpt lat="42.70922104404771" lon="2.7216550132955346"><ele>121.99999999999999</ele><time>2026-04-06T14:17:17Z</time></trkpt><trkpt lat="42.709136008731534" lon="2.721637955637597"><ele>122.0</ele><time>2026-04-06T14:17:18Z</time></trkpt><trkpt lat="42.70904680944928" lon="2.7216231597895693"><ele>122.0</ele><time>2026-04-06T14:17:19Z</time></trkpt><trkpt lat="42.708959382582435" lon="2.721653762477269"><ele>122.0</ele><time>2026-04-06T14:17:21Z</time></trkpt><trkpt lat="42.70890261134459" lon="2.7217060190956324"><ele>121.99999999999999</ele><time>2026-04-06T14:17:22Z</time></trkpt><trkpt lat="42.708844457848585" lon="2.7217818031623793"><ele>122.0</ele><time>2026-04-06T14:17:23Z</time></trkpt><trkpt lat="42.70877805619764" lon="2.7218488747988254"><ele>121.99999999999999</ele><time>2026-04-06T14:17:24Z</time></trkpt><trkpt lat="42.708687790633874" lon="2.7218738792389456"><ele>122.0</ele><time>2026-04-06T14:17:25Z</time></trkpt><trkpt lat="42.708620839926844" lon="2.7219251328686327"><ele>122.0</ele><time>2026-04-06T14:17:26Z</time></trkpt><trkpt lat="42.70854644404316" lon="2.7219888197913265"><ele>122.0</ele><time>2026-04-06T14:17:27Z</time></trkpt><trkpt lat="42.70847738234268" lon="2.722031713524257"><ele>121.99999999999999</ele><time>2026-04-06T14:17:28Z</time></trkpt><trkpt lat="42.708412113443345" lon="2.7220925430243104"><ele>122.0</ele><time>2026-04-06T14:17:29Z</time></trkpt><trkpt lat="42.708356451588486" lon="2.722141145802522"><ele>121.66666666666666</ele><time>2026-04-06T14:17:30Z</time></trkpt><trkpt lat="42.70829351789908" lon="2.722178696814007"><ele>121.33333333333333</ele><time>2026-04-06T14:17:31Z</time></trkpt><trkpt lat="42.708215715856326" lon="2.722213883755893"><ele>121.0</ele><time>2026-04-06T14:17:32Z</time></trkpt><trkpt lat="42.708137809987164" lon="2.7222511432021568"><ele>120.66666666666666</ele><time>2026-04-06T14:17:33Z</time></trkpt><trkpt lat="42.70807646523128" lon="2.7222890943437266"><ele>120.33333333333333</ele><time>2026-04-06T14:17:34Z</time></trkpt><trkpt lat="42.70798723725118" lon="2.722341875913397"><ele>120.0</ele><time>2026-04-06T14:17:35Z</time></trkpt><trkpt lat="42.707905792914666" lon="2.7224118806511344"><ele>120.0</ele><time>2026-04-06T14:17:36Z</time></trkpt><trkpt lat="42.70783118418903" lon="2.722467033256587"><ele>120.0</ele><time>2026-04-06T14:17:37Z</time></trkpt><trkpt lat="42.70776163047333" lon="2.7225136030423442"><ele>120.0</ele><time>2026-04-06T14:17:38Z</time></trkpt><trkpt lat="42.707671148047176" lon="2.7225624028878705"><ele>120.0</ele><time>2026-04-06T14:17:39Z</time></trkpt><trkpt lat="42.70759917979905" lon="2.722607317172853"><ele>120.0</ele><time>2026-04-06T14:17:40Z</time></trkpt><trkpt lat="42.70754126077072" lon="2.7226802633609486"><ele>120.0</ele><time>2026-04-06T14:17:41Z</time></trkpt><trkpt lat="42.70746160203984" lon="2.7228011041716647"><ele>119.83333333333333</ele><time>2026-04-06T14:17:42Z</time></trkpt><trkpt lat="42.7073905711992" lon="2.7229127448923554"><ele>119.66666666666666</ele><time>2026-04-06T14:17:43Z</time></trkpt><trkpt lat="42.70732237834315" lon="2.7230033662775903"><ele>119.5</ele><time>2026-04-06T14:17:44Z</time></trkpt><trkpt lat="42.70726731198872" lon="2.72307887102096"><ele>119.33333333333333</ele><time>2026-04-06T14:17:45Z</time></trkpt><trkpt lat="42.70720718071165" lon="2.723147288435005"><ele>119.16666666666666</ele><time>2026-04-06T14:17:46Z</time></trkpt><trkpt lat="42.70714858546929" lon="2.723182299728474"><ele>119.0</ele><time>2026-04-06T14:17:47Z</time></trkpt><trkpt lat="42.707066614601416" lon="2.7232123739917897"><ele>119.0</ele><time>2026-04-06T14:17:48Z</time></trkpt><trkpt lat="42.706940143545104" lon="2.723273885504305"><ele>119.0</ele><time>2026-04-06T14:17:49Z</time></trkpt><trkpt lat="42.706871216544194" lon="2.7232954912909104"><ele>119.0</ele><time>2026-04-06T14:17:50Z</time></trkpt><trkpt lat="42.70681426364053" lon="2.7233475633263446"><ele>119.0</ele><time>2026-04-06T14:17:52Z</time></trkpt><trkpt lat="42.706744481646915" lon="2.7234659668200947"><ele>119.0</ele><time>2026-04-06T14:17:54Z</time></trkpt><trkpt lat="42.706707428825524" lon="2.723550266992111"><ele>118.66666666666666</ele><time>2026-04-06T14:17:56Z</time></trkpt><trkpt lat="42.70665110553806" lon="2.7236662292590914"><ele>118.33333333333333</ele><time>2026-04-06T14:17:59Z</time></trkpt><trkpt lat="42.70661483293385" lon="2.723740494667791"><ele>118.0</ele><time>2026-04-06T14:18:01Z</time></trkpt><trkpt lat="42.70656605596112" lon="2.7238377249197785"><ele>117.66666666666666</ele><time>2026-04-06T14:18:04Z</time></trkpt><trkpt lat="42.70652869549999" lon="2.723922137413026"><ele>117.33333333333333</ele><time>2026-04-06T14:18:07Z</time></trkpt><trkpt lat="42.70646910396815" lon="2.7240005452773834"><ele>117.0</ele><time>2026-04-06T14:18:12Z</time></trkpt><trkpt lat="42.70641217772618" lon="2.7240493051385526"><ele>117.0</ele><time>2026-04-06T14:18:16Z</time></trkpt><trkpt lat="42.70633631774072" lon="2.7241019331785092"><ele>116.99999999999999</ele><time>2026-04-06T14:18:20Z</time></trkpt><trkpt lat="42.7062513627834" lon="2.7241662213103077"><ele>116.99999999999999</ele><time>2026-04-06T14:18:23Z</time></trkpt><trkpt lat="42.70614513270001" lon="2.7242268535971137"><ele>117.0</ele><time>2026-04-06T14:18:25Z</time></trkpt><trkpt lat="42.706057607392715" lon="2.7242720937294003"><ele>117.0</ele><time>2026-04-06T14:18:27Z</time></trkpt><trkpt lat="42.705952891762884" lon="2.7243363957683604"><ele>117.14285714285715</ele><time>2026-04-06T14:18:29Z</time></trkpt><trkpt lat="42.70588199125192" lon="2.724376017966389"><ele>117.2857142857143</ele><time>2026-04-06T14:18:30Z</time></trkpt><trkpt lat="42.7058102307246" lon="2.7244261531942153"><ele>117.42857142857143</ele><time>2026-04-06T14:18:31Z</time></trkpt><trkpt lat="42.705752475079905" lon="2.7244682217822924"><ele>117.57142857142858</ele><time>2026-04-06T14:18:32Z</time></trkpt><trkpt lat="42.70570329726558" lon="2.7245240196747287"><ele>117.71428571428572</ele><time>2026-04-06T14:18:33Z</time></trkpt><trkpt lat="42.70565901918438" lon="2.724594436086379"><ele>117.85714285714286</ele><time>2026-04-06T14:18:34Z</time></trkpt><trkpt lat="42.70561428702864" lon="2.7246894635848595"><ele>118.0</ele><time>2026-04-06T14:18:35Z</time></trkpt><trkpt lat="42.705575249297574" lon="2.724777000987738"><ele>118.00000000000001</ele><time>2026-04-06T14:18:36Z</time></trkpt><trkpt lat="42.70554170371557" lon="2.724854829051888"><ele>118.0</ele><time>2026-04-06T14:18:37Z</time></trkpt><trkpt lat="42.70547663237778" lon="2.7249912329751456"><ele>118.0</ele><time>2026-04-06T14:18:39Z</time></trkpt><trkpt lat="42.70543330240029" lon="2.7250704644713952"><ele>118.0</ele><time>2026-04-06T14:18:41Z</time></trkpt><trkpt lat="42.70539603153093" lon="2.725141064431951"><ele>118.00000000000001</ele><time>2026-04-06T14:18:44Z</time></trkpt><trkpt lat="42.70533204801587" lon="2.7252194388899666"><ele>118.0</ele><time>2026-04-06T14:19:24Z</time></trkpt><trkpt lat="42.70528006283157" lon="2.7253240102877982"><ele>118.00000000000001</ele><time>2026-04-06T14:19:26Z</time></trkpt><trkpt lat="42.70522370367895" lon="2.72542016244317"><ele>118.0</ele><time>2026-04-06T14:19:28Z</time></trkpt><trkpt lat="42.70517992723216" lon="2.7254929052396184"><ele>118.0</ele><time>2026-04-06T14:19:29Z</time></trkpt><trkpt lat="42.70510611314832" lon="2.7255985887583747"><ele>118.0</ele><time>2026-04-06T14:19:31Z</time></trkpt><trkpt lat="42.705042267195715" lon="2.7257057525015287"><ele>118.00000000000001</ele><time>2026-04-06T14:19:33Z</time></trkpt><trkpt lat="42.705015387995154" lon="2.725797900208252"><ele>118.0</ele><time>2026-04-06T14:19:36Z</time></trkpt><trkpt lat="42.705075210149595" lon="2.725842718409095"><ele>118.00000000000001</ele><time>2026-04-06T14:20:01Z</time></trkpt><trkpt lat="42.70515825316743" lon="2.7258653638952395"><ele>118.0</ele><time>2026-04-06T14:20:03Z</time></trkpt><trkpt lat="42.70527298684474" lon="2.7259009831334513"><ele>118.0</ele><time>2026-04-06T14:20:05Z</time></trkpt><trkpt lat="42.70534193217953" lon="2.7259237925120536"><ele>118.0</ele><time>2026-04-06T14:20:06Z</time></trkpt><trkpt lat="42.705404807415945" lon="2.7259528021273494"><ele>118.00000000000001</ele><time>2026-04-06T14:20:07Z</time></trkpt><trkpt lat="42.70549867908733" lon="2.7259744957057888"><ele>118.0</ele><time>2026-04-06T14:20:08Z</time></trkpt><trkpt lat="42.70557937577361" lon="2.725984970867483"><ele>117.0</ele><time>2026-04-06T14:20:09Z</time></trkpt><trkpt lat="42.70572005733599" lon="2.7260197370042705"><ele>116.0</ele><time>2026-04-06T14:20:10Z</time></trkpt><trkpt lat="42.705866722308166" lon="2.726035390205764"><ele>115.0</ele><time>2026-04-06T14:20:11Z</time></trkpt><trkpt lat="42.705758882573804" lon="2.72602824873228"><ele>114.0</ele><time>2026-04-06T14:20:12Z</time></trkpt><trkpt lat="42.70582557305361" lon="2.7260176064964927"><ele>114.0</ele><time>2026-04-06T14:20:13Z</time></trkpt><trkpt lat="42.705891346884115" lon="2.726012915077897"><ele>114.0</ele><time>2026-04-06T14:20:14Z</time></trkpt><trkpt lat="42.705955435978126" lon="2.7260022086426923"><ele>114.0</ele><time>2026-04-06T14:20:15Z</time></trkpt><trkpt lat="42.70608500412678" lon="2.7259783864614127"><ele>114.0</ele><time>2026-04-06T14:20:17Z</time></trkpt><trkpt lat="42.70614726423064" lon="2.725961558638308"><ele>114.0</ele><time>2026-04-06T14:20:18Z</time></trkpt><trkpt lat="42.70621317573937" lon="2.7259417912478696"><ele>114.0</ele><time>2026-04-06T14:20:19Z</time></trkpt><trkpt lat="42.70628200824418" lon="2.7259256777767913"><ele>112.0</ele><time>2026-04-06T14:20:20Z</time></trkpt><trkpt lat="42.70640481714276" lon="2.7258953324668935"><ele>110.0</ele><time>2026-04-06T14:20:22Z</time></trkpt><trkpt lat="42.70647712953384" lon="2.7258789409587956"><ele>108.0</ele><time>2026-04-06T14:20:23Z</time></trkpt><trkpt lat="42.70658227051018" lon="2.7258624890528727"><ele>106.0</ele><time>2026-04-06T14:20:25Z</time></trkpt><trkpt lat="42.706658248778595" lon="2.725851846870893"><ele>104.0</ele><time>2026-04-06T14:20:27Z</time></trkpt><trkpt lat="42.70672397148721" lon="2.7258877936506365"><ele>103.83333333333333</ele><time>2026-04-06T14:20:29Z</time></trkpt><trkpt lat="42.70675285441171" lon="2.726088677326476"><ele>103.66666666666666</ele><time>2026-04-06T14:20:33Z</time></trkpt><trkpt lat="42.706752148827924" lon="2.7261764120086145"><ele>103.5</ele><time>2026-04-06T14:20:34Z</time></trkpt><trkpt lat="42.70675678918937" lon="2.7262671527825253"><ele>103.33333333333334</ele><time>2026-04-06T14:20:35Z</time></trkpt><trkpt lat="42.7067671396427" lon="2.7263694908816336"><ele>103.16666666666667</ele><time>2026-04-06T14:20:36Z</time></trkpt><trkpt lat="42.70679510355281" lon="2.726454580491529"><ele>103.0</ele><time>2026-04-06T14:20:37Z</time></trkpt><trkpt lat="42.70683340099214" lon="2.726602946921095"><ele>103.0</ele><time>2026-04-06T14:20:39Z</time></trkpt><trkpt lat="42.70681032872822" lon="2.7267451572503036"><ele>103.0</ele><time>2026-04-06T14:20:41Z</time></trkpt><trkpt lat="42.706777404065704" lon="2.7268582731333093"><ele>103.0</ele><time>2026-04-06T14:20:42Z</time></trkpt><trkpt lat="42.70674081655117" lon="2.72695208569879"><ele>103.0</ele><time>2026-04-06T14:20:43Z</time></trkpt><trkpt lat="42.70672174445393" lon="2.727039145449985"><ele>103.0</ele><time>2026-04-06T14:20:44Z</time></trkpt><trkpt lat="42.706690270700015" lon="2.7271877728029916"><ele>102.60000000000001</ele><time>2026-04-06T14:20:46Z</time></trkpt><trkpt lat="42.70667307256117" lon="2.7272869018874655"><ele>102.2</ele><time>2026-04-06T14:20:47Z</time></trkpt><trkpt lat="42.706579520445665" lon="2.7274625963860615"><ele>101.8</ele><time>2026-04-06T14:20:49Z</time></trkpt><trkpt lat="42.70651318988168" lon="2.7275459140111384"><ele>101.4</ele><time>2026-04-06T14:20:50Z</time></trkpt><trkpt lat="42.70646379337692" lon="2.7276141164831205"><ele>101.0</ele><time>2026-04-06T14:20:51Z</time></trkpt><trkpt lat="42.70638503565847" lon="2.7277169418786404"><ele>101.0</ele><time>2026-04-06T14:20:53Z</time></trkpt><trkpt lat="42.706333448727605" lon="2.7278233878454428"><ele>101.0</ele><time>2026-04-06T14:20:55Z</time></trkpt><trkpt lat="42.7062963269638" lon="2.7279870347820934"><ele>101.0</ele><time>2026-04-06T14:20:57Z</time></trkpt><trkpt lat="42.70629433257176" lon="2.7280858130968753"><ele>101.0</ele><time>2026-04-06T14:20:58Z</time></trkpt><trkpt lat="42.70629284627761" lon="2.728209483839215"><ele>101.0</ele><time>2026-04-06T14:20:59Z</time></trkpt><trkpt lat="42.70628028813766" lon="2.72830414212542"><ele>101.0</ele><time>2026-04-06T14:21:00Z</time></trkpt><trkpt lat="42.70623832916771" lon="2.7283871181048225"><ele>101.0</ele><time>2026-04-06T14:21:01Z</time></trkpt><trkpt lat="42.706164247151705" lon="2.7284618108357717"><ele>101.0</ele><time>2026-04-06T14:21:02Z</time></trkpt><trkpt lat="42.706057589077574" lon="2.7285219031897388"><ele>101.0</ele><time>2026-04-06T14:21:03Z</time></trkpt><trkpt lat="42.70596280682882" lon="2.7285579857677384"><ele>101.0</ele><time>2026-04-06T14:21:04Z</time></trkpt><trkpt lat="42.70588932758755" lon="2.728597073619638"><ele>100.49999999999999</ele><time>2026-04-06T14:21:05Z</time></trkpt><trkpt lat="42.705837911492836" lon="2.7286596740616544"><ele>100.0</ele><time>2026-04-06T14:21:06Z</time></trkpt><trkpt lat="42.7057890669044" lon="2.7287420000806497"><ele>99.5</ele><time>2026-04-06T14:21:07Z</time></trkpt><trkpt lat="42.705740712793066" lon="2.7288408868607306"><ele>99.0</ele><time>2026-04-06T14:21:08Z</time></trkpt><trkpt lat="42.70570362831962" lon="2.728945001080799"><ele>98.49999999999999</ele><time>2026-04-06T14:21:09Z</time></trkpt><trkpt lat="42.70566204679017" lon="2.7290467049832836"><ele>98.0</ele><time>2026-04-06T14:21:10Z</time></trkpt><trkpt lat="42.70562193328452" lon="2.7291544025758805"><ele>97.99999999999999</ele><time>2026-04-06T14:21:11Z</time></trkpt><trkpt lat="42.70558431653975" lon="2.729239807021968"><ele>98.0</ele><time>2026-04-06T14:21:12Z</time></trkpt><trkpt lat="42.70554206697581" lon="2.7293259685489395"><ele>98.0</ele><time>2026-04-06T14:21:13Z</time></trkpt><trkpt lat="42.70549306430262" lon="2.729432823443406"><ele>98.0</ele><time>2026-04-06T14:21:14Z</time></trkpt><trkpt lat="42.70543862804902" lon="2.7295775199146335"><ele>97.99999999999999</ele><time>2026-04-06T14:21:15Z</time></trkpt><trkpt lat="42.70540427249655" lon="2.729686165023768"><ele>98.0</ele><time>2026-04-06T14:21:16Z</time></trkpt><trkpt lat="42.70537965401246" lon="2.729801455021725"><ele>97.75</ele><time>2026-04-06T14:21:17Z</time></trkpt><trkpt lat="42.70537719764679" lon="2.7299296519903207"><ele>97.5</ele><time>2026-04-06T14:21:18Z</time></trkpt><trkpt lat="42.70536288615862" lon="2.7300747427785366"><ele>97.25</ele><time>2026-04-06T14:21:19Z</time></trkpt><trkpt lat="42.70532538613419" lon="2.7302080728178266"><ele>97.0</ele><time>2026-04-06T14:21:20Z</time></trkpt><trkpt lat="42.70528246237078" lon="2.7303968074671743"><ele>97.0</ele><time>2026-04-06T14:21:21Z</time></trkpt><trkpt lat="42.70524699847126" lon="2.730571650805061"><ele>97.0</ele><time>2026-04-06T14:21:22Z</time></trkpt><trkpt lat="42.70519749968051" lon="2.7307372832945815"><ele>97.0</ele><time>2026-04-06T14:21:23Z</time></trkpt><trkpt lat="42.705134028216705" lon="2.7309201755570385"><ele>97.0</ele><time>2026-04-06T14:21:24Z</time></trkpt><trkpt lat="42.7051087089009" lon="2.7310784926219003"><ele>96.8</ele><time>2026-04-06T14:21:25Z</time></trkpt><trkpt lat="42.70508440815062" lon="2.7312296353953838"><ele>96.6</ele><time>2026-04-06T14:21:26Z</time></trkpt><trkpt lat="42.70505146132554" lon="2.731364161819082"><ele>96.39999999999999</ele><time>2026-04-06T14:21:27Z</time></trkpt><trkpt lat="42.70500436383114" lon="2.731481274805737"><ele>96.19999999999999</ele><time>2026-04-06T14:21:28Z</time></trkpt><trkpt lat="42.70495033778118" lon="2.7316082740605307"><ele>96.0</ele><time>2026-04-06T14:21:29Z</time></trkpt><trkpt lat="42.704884041495276" lon="2.7317600753495124"><ele>96.0</ele><time>2026-04-06T14:21:30Z</time></trkpt><trkpt lat="42.70482398796898" lon="2.7318876671877725"><ele>96.0</ele><time>2026-04-06T14:21:31Z</time></trkpt><trkpt lat="42.704772145770136" lon="2.7319939388425523"><ele>96.0</ele><time>2026-04-06T14:21:32Z</time></trkpt><trkpt lat="42.704731644712794" lon="2.7320841272827994"><ele>96.0</ele><time>2026-04-06T14:21:33Z</time></trkpt><trkpt lat="42.70465134783706" lon="2.7322045766677774"><ele>96.0</ele><time>2026-04-06T14:21:35Z</time></trkpt><trkpt lat="42.70459580247273" lon="2.732286700446994"><ele>95.8</ele><time>2026-04-06T14:21:37Z</time></trkpt><trkpt lat="42.70461896342423" lon="2.732449338194552"><ele>95.6</ele><time>2026-04-06T14:21:38.999Z</time></trkpt><trkpt lat="42.70464339996876" lon="2.7325885510340013"><ele>95.4</ele><time>2026-04-06T14:21:39.999Z</time></trkpt><trkpt lat="42.70466122543073" lon="2.7327499169657927"><ele>95.2</ele><time>2026-04-06T14:21:40.999Z</time></trkpt><trkpt lat="42.704663594986584" lon="2.7328762523951378"><ele>95.0</ele><time>2026-04-06T14:21:41.999Z</time></trkpt><trkpt lat="42.704656025323956" lon="2.7329781842253915"><ele>94.8</ele><time>2026-04-06T14:21:42.999Z</time></trkpt><trkpt lat="42.704643156756575" lon="2.7330665828904275"><ele>94.6</ele><time>2026-04-06T14:21:43.999Z</time></trkpt><trkpt lat="42.70461383082279" lon="2.7331636779588218"><ele>94.4</ele><time>2026-04-06T14:21:44.999Z</time></trkpt><trkpt lat="42.704541341040134" lon="2.7333513592235965"><ele>94.2</ele><time>2026-04-06T14:21:45.999Z</time></trkpt><trkpt lat="42.704481699728106" lon="2.7332794022251283"><ele>94.0</ele><time>2026-04-06T14:21:47Z</time></trkpt><trkpt lat="42.70441155410751" lon="2.7333141580000464"><ele>94.0</ele><time>2026-04-06T14:21:48Z</time></trkpt><trkpt lat="42.704350716741764" lon="2.7333487944336374"><ele>94.0</ele><time>2026-04-06T14:21:49Z</time></trkpt><trkpt lat="42.704291060261205" lon="2.7333865198038936"><ele>94.0</ele><time>2026-04-06T14:21:50Z</time></trkpt><trkpt lat="42.70419297194736" lon="2.7334479857622442"><ele>94.0</ele><time>2026-04-06T14:21:52Z</time></trkpt><trkpt lat="42.704105087508935" lon="2.7335122687692563"><ele>94.0</ele><time>2026-04-06T14:21:54Z</time></trkpt><trkpt lat="42.70403661342872" lon="2.7335680909797846"><ele>94.0</ele><time>2026-04-06T14:21:56Z</time></trkpt><trkpt lat="42.70397624694161" lon="2.7336445058258234"><ele>94.0</ele><time>2026-04-06T14:21:58Z</time></trkpt><trkpt lat="42.70390094693965" lon="2.7337218188660137"><ele>94.0</ele><time>2026-04-06T14:22:00Z</time></trkpt><trkpt lat="42.70382402910376" lon="2.7338154448467367"><ele>94.0</ele><time>2026-04-06T14:22:02Z</time></trkpt><trkpt lat="42.703753485329614" lon="2.7339322570618236"><ele>94.0</ele><time>2026-04-06T14:22:04Z</time></trkpt><trkpt lat="42.7037142301532" lon="2.7340156894529"><ele>94.0</ele><time>2026-04-06T14:22:05Z</time></trkpt><trkpt lat="42.70366427598017" lon="2.734094999463074"><ele>94.0</ele><time>2026-04-06T14:22:06Z</time></trkpt><trkpt lat="42.70362330639245" lon="2.7341702481972328"><ele>94.0</ele><time>2026-04-06T14:22:07Z</time></trkpt><trkpt lat="42.70357855782166" lon="2.7342425903249663"><ele>94.0</ele><time>2026-04-06T14:22:08Z</time></trkpt><trkpt lat="42.703537954235664" lon="2.7343134856069735"><ele>94.0</ele><time>2026-04-06T14:22:09Z</time></trkpt><trkpt lat="42.703494092850285" lon="2.734409714846344"><ele>94.0</ele><time>2026-04-06T14:22:10Z</time></trkpt><trkpt lat="42.703443348758064" lon="2.7344776914990576"><ele>94.0</ele><time>2026-04-06T14:22:11Z</time></trkpt><trkpt lat="42.70338802783447" lon="2.734559032237542"><ele>94.0</ele><time>2026-04-06T14:22:12Z</time></trkpt><trkpt lat="42.70334893163796" lon="2.7346455366883777"><ele>93.5</ele><time>2026-04-06T14:22:13Z</time></trkpt><trkpt lat="42.70330649103548" lon="2.7347370187825235"><ele>93.0</ele><time>2026-04-06T14:22:14Z</time></trkpt><trkpt lat="42.70327025568784" lon="2.7348190306552294"><ele>92.5</ele><time>2026-04-06T14:22:15Z</time></trkpt><trkpt lat="42.70322682083461" lon="2.734881556472141"><ele>92.0</ele><time>2026-04-06T14:22:16Z</time></trkpt><trkpt lat="42.703154092538185" lon="2.735001883237592"><ele>91.5</ele><time>2026-04-06T14:22:18Z</time></trkpt><trkpt lat="42.70314527194271" lon="2.7350887507352795"><ele>91.0</ele><time>2026-04-06T14:22:20Z</time></trkpt><trkpt lat="42.70323891195134" lon="2.7350927745788502"><ele>91.0</ele><time>2026-04-06T14:22:24Z</time></trkpt><trkpt lat="42.70329478318114" lon="2.735049528625358"><ele>91.0</ele><time>2026-04-06T14:22:25Z</time></trkpt><trkpt lat="42.70339727661576" lon="2.7349693561446475"><ele>91.0</ele><time>2026-04-06T14:22:27Z</time></trkpt><trkpt lat="42.703459752566815" lon="2.734937870856576"><ele>91.0</ele><time>2026-04-06T14:23:04Z</time></trkpt><trkpt lat="42.70352293704059" lon="2.7348899438025267"><ele>91.0</ele><time>2026-04-06T14:23:32.999Z</time></trkpt><trkpt lat="42.703590711422905" lon="2.7348399839698994"><ele>91.0</ele><time>2026-04-06T14:23:34.999Z</time></trkpt><trkpt lat="42.70364736774895" lon="2.7348004104015877"><ele>91.6</ele><time>2026-04-06T14:23:36.999Z</time></trkpt><trkpt lat="42.70375791816988" lon="2.7347350760969626"><ele>92.19999999999999</ele><time>2026-04-06T14:23:38.999Z</time></trkpt><trkpt lat="42.70389767744665" lon="2.7346762960063966"><ele>92.80000000000001</ele><time>2026-04-06T14:23:40.999Z</time></trkpt><trkpt lat="42.70398411915931" lon="2.73461842027436"><ele>93.4</ele><time>2026-04-06T14:23:42.999Z</time></trkpt><trkpt lat="42.704050527087425" lon="2.7345725017048395"><ele>94.0</ele><time>2026-04-06T14:23:44.999Z</time></trkpt><trkpt lat="42.70411990661263" lon="2.734522393825454"><ele>94.0</ele><time>2026-04-06T14:23:46.999Z</time></trkpt><trkpt lat="42.704203017368805" lon="2.7344427992576072"><ele>94.0</ele><time>2026-04-06T14:23:48.999Z</time></trkpt><trkpt lat="42.70427225913572" lon="2.734387063167993"><ele>94.0</ele><time>2026-04-06T14:23:50.999Z</time></trkpt><trkpt lat="42.70433129296174" lon="2.7343485922809787"><ele>94.0</ele><time>2026-04-06T14:23:54Z</time></trkpt><trkpt lat="42.704413145289074" lon="2.7342807226076955"><ele>94.0</ele><time>2026-04-06T14:23:57Z</time></trkpt><trkpt lat="42.70448028629729" lon="2.7342341982484704"><ele>94.0</ele><time>2026-04-06T14:23:59Z</time></trkpt><trkpt lat="42.70457188105457" lon="2.7341619960683996"><ele>95.16666666666666</ele><time>2026-04-06T14:24:01Z</time></trkpt><trkpt lat="42.704629360587546" lon="2.734126244543171"><ele>96.33333333333333</ele><time>2026-04-06T14:24:03Z</time></trkpt><trkpt lat="42.7046973688118" lon="2.7340722999137466"><ele>97.5</ele><time>2026-04-06T14:24:08Z</time></trkpt><trkpt lat="42.704773447459566" lon="2.7340141812864975"><ele>98.66666666666666</ele><time>2026-04-06T14:24:12Z</time></trkpt><trkpt lat="42.70485051077184" lon="2.7339879958782496"><ele>99.83333333333333</ele><time>2026-04-06T14:24:14Z</time></trkpt><trkpt lat="42.70492278067965" lon="2.733959779293462"><ele>101.0</ele><time>2026-04-06T14:24:16Z</time></trkpt><trkpt lat="42.70499682656598" lon="2.7339408951304836"><ele>100.99999999999999</ele><time>2026-04-06T14:24:19Z</time></trkpt><trkpt lat="42.70506456359371" lon="2.7339331239426774"><ele>101.0</ele><time>2026-04-06T14:24:21Z</time></trkpt><trkpt lat="42.705136387525634" lon="2.7339229930885076"><ele>101.0</ele><time>2026-04-06T14:24:22Z</time></trkpt><trkpt lat="42.705220798968995" lon="2.7339100734997834"><ele>101.0</ele><time>2026-04-06T14:24:25Z</time></trkpt><trkpt lat="42.705291078845974" lon="2.7338874610810513"><ele>100.99999999999999</ele><time>2026-04-06T14:24:28Z</time></trkpt><trkpt lat="42.70539274594065" lon="2.733851411138718"><ele>101.0</ele><time>2026-04-06T14:24:30Z</time></trkpt><trkpt lat="42.70546141721014" lon="2.733822872813725"><ele>101.71428571428571</ele><time>2026-04-06T14:24:31Z</time></trkpt><trkpt lat="42.705539587813526" lon="2.733815074258272"><ele>102.42857142857142</ele><time>2026-04-06T14:24:33Z</time></trkpt><trkpt lat="42.70560449339743" lon="2.73382438239641"><ele>103.14285714285714</ele><time>2026-04-06T14:24:35Z</time></trkpt><trkpt lat="42.70569113072932" lon="2.733820168592527"><ele>103.85714285714286</ele><time>2026-04-06T14:24:37Z</time></trkpt><trkpt lat="42.70575948668007" lon="2.7338377173911335"><ele>104.57142857142857</ele><time>2026-04-06T14:24:38Z</time></trkpt><trkpt lat="42.705822458776595" lon="2.7338220742721653"><ele>105.28571428571429</ele><time>2026-04-06T14:24:40Z</time></trkpt><trkpt lat="42.705900069047324" lon="2.7338378014058504"><ele>106.0</ele><time>2026-04-06T14:24:42Z</time></trkpt><trkpt lat="42.70599477664011" lon="2.7338446394218034"><ele>106.00000000000001</ele><time>2026-04-06T14:24:44Z</time></trkpt><trkpt lat="42.70605689865013" lon="2.7338605138919125"><ele>106.0</ele><time>2026-04-06T14:24:45Z</time></trkpt><trkpt lat="42.706126309606155" lon="2.7338830789800483"><ele>106.0</ele><time>2026-04-06T14:24:46Z</time></trkpt><trkpt lat="42.706227793108475" lon="2.7338935914048426"><ele>106.0</ele><time>2026-04-06T14:24:48Z</time></trkpt><trkpt lat="42.70631417769856" lon="2.7338905023599307"><ele>106.00000000000001</ele><time>2026-04-06T14:24:50Z</time></trkpt><trkpt lat="42.70639763912017" lon="2.7338886431974423"><ele>106.0</ele><time>2026-04-06T14:24:51Z</time></trkpt><trkpt lat="42.70648939690271" lon="2.733892216944051"><ele>106.8</ele><time>2026-04-06T14:24:52Z</time></trkpt><trkpt lat="42.706596757939195" lon="2.7338954175200327"><ele>107.6</ele><time>2026-04-06T14:24:53Z</time></trkpt><trkpt lat="42.706696183199874" lon="2.733902899865567"><ele>108.4</ele><time>2026-04-06T14:24:54Z</time></trkpt><trkpt lat="42.70676540477859" lon="2.733904555011114"><ele>109.2</ele><time>2026-04-06T14:24:55Z</time></trkpt><trkpt lat="42.706831754409336" lon="2.7339225477121145"><ele>110.0</ele><time>2026-04-06T14:24:56Z</time></trkpt><trkpt lat="42.70692133907172" lon="2.734015000767529"><ele>110.16666666666666</ele><time>2026-04-06T14:24:58Z</time></trkpt><trkpt lat="42.70697652700896" lon="2.7340845288910764"><ele>110.33333333333333</ele><time>2026-04-06T14:24:59Z</time></trkpt><trkpt lat="42.707024344719386" lon="2.734144629341559"><ele>110.5</ele><time>2026-04-06T14:25:00Z</time></trkpt><trkpt lat="42.70709155746013" lon="2.734215907690425"><ele>110.66666666666666</ele><time>2026-04-06T14:25:01Z</time></trkpt><trkpt lat="42.707159348746515" lon="2.7342652090656285"><ele>110.83333333333333</ele><time>2026-04-06T14:25:02Z</time></trkpt><trkpt lat="42.707222799321286" lon="2.7342725681980142"><ele>111.0</ele><time>2026-04-06T14:25:03Z</time></trkpt><trkpt lat="42.70733109975545" lon="2.734240379353203"><ele>111.0</ele><time>2026-04-06T14:25:05Z</time></trkpt><trkpt lat="42.707411561234096" lon="2.73423905514803"><ele>111.0</ele><time>2026-04-06T14:25:16Z</time></trkpt><trkpt lat="42.70736666206082" lon="2.73416127573299"><ele>111.0</ele><time>2026-04-06T14:25:20Z</time></trkpt><trkpt lat="42.70728833874886" lon="2.7342202852023307"><ele>111.0</ele><time>2026-04-06T14:25:23Z</time></trkpt><trkpt lat="42.70721896963128" lon="2.7342803044498245"><ele>111.0</ele><time>2026-04-06T14:25:25Z</time></trkpt><trkpt lat="42.70714573324247" lon="2.734252023979235"><ele>111.0</ele><time>2026-04-06T14:25:27Z</time></trkpt><trkpt lat="42.70708347176169" lon="2.7343517772026265"><ele>110.4</ele><time>2026-04-06T14:25:30Z</time></trkpt><trkpt lat="42.70707121976336" lon="2.734479857048455"><ele>109.8</ele><time>2026-04-06T14:25:31.999Z</time></trkpt><trkpt lat="42.70704586219211" lon="2.734630264781485"><ele>109.20000000000002</ele><time>2026-04-06T14:25:33.999Z</time></trkpt><trkpt lat="42.70702683755219" lon="2.7347347626553002"><ele>108.60000000000001</ele><time>2026-04-06T14:25:34.999Z</time></trkpt><trkpt lat="42.70700791762785" lon="2.7348548200426985"><ele>108.0</ele><time>2026-04-06T14:25:35.999Z</time></trkpt><trkpt lat="42.707007495664406" lon="2.734958993690296"><ele>108.0</ele><time>2026-04-06T14:25:36.999Z</time></trkpt><trkpt lat="42.70702269329934" lon="2.735054891173464"><ele>108.0</ele><time>2026-04-06T14:25:37.999Z</time></trkpt><trkpt lat="42.70703073861582" lon="2.735148022793725"><ele>108.0</ele><time>2026-04-06T14:25:38.999Z</time></trkpt><trkpt lat="42.70704093330729" lon="2.7352422487451244"><ele>108.0</ele><time>2026-04-06T14:25:39.999Z</time></trkpt><trkpt lat="42.70706854865377" lon="2.735319898631135"><ele>108.0</ele><time>2026-04-06T14:25:40.999Z</time></trkpt><trkpt lat="42.707109951995754" lon="2.735386828135562"><ele>108.0</ele><time>2026-04-06T14:25:41.999Z</time></trkpt><trkpt lat="42.70717155669421" lon="2.7354253699843736"><ele>108.0</ele><time>2026-04-06T14:25:42.999Z</time></trkpt><trkpt lat="42.70725199857927" lon="2.735441900714384"><ele>108.25</ele><time>2026-04-06T14:25:43.999Z</time></trkpt><trkpt lat="42.707357316653415" lon="2.735431571161798"><ele>108.5</ele><time>2026-04-06T14:25:44.999Z</time></trkpt><trkpt lat="42.70752115300539" lon="2.735473740728006"><ele>108.75</ele><time>2026-04-06T14:25:45.999Z</time></trkpt><trkpt lat="42.707689590459864" lon="2.73554155743126"><ele>109.0</ele><time>2026-04-06T14:25:46.999Z</time></trkpt><trkpt lat="42.70781089532167" lon="2.73561053073567"><ele>109.0</ele><time>2026-04-06T14:25:47.999Z</time></trkpt><trkpt lat="42.707715956462" lon="2.735458150718338"><ele>109.0</ele><time>2026-04-06T14:25:48.999Z</time></trkpt><trkpt lat="42.707833711775244" lon="2.7355010485013973"><ele>109.0</ele><time>2026-04-06T14:25:49.999Z</time></trkpt><trkpt lat="42.70794086473075" lon="2.735548015084174"><ele>109.0</ele><time>2026-04-06T14:25:50.999Z</time></trkpt><trkpt lat="42.708035374449835" lon="2.735590256481981"><ele>109.0</ele><time>2026-04-06T14:25:51.999Z</time></trkpt><trkpt lat="42.708145923903835" lon="2.73565464722417"><ele>109.0</ele><time>2026-04-06T14:25:52.999Z</time></trkpt><trkpt lat="42.70825520449479" lon="2.735715610803967"><ele>109.0</ele><time>2026-04-06T14:25:53.999Z</time></trkpt><trkpt lat="42.70836545272097" lon="2.735777889976646"><ele>109.0</ele><time>2026-04-06T14:25:54.999Z</time></trkpt><trkpt lat="42.708475557519904" lon="2.735833704977393"><ele>109.6</ele><time>2026-04-06T14:25:55.999Z</time></trkpt><trkpt lat="42.708578103356494" lon="2.735882707607757"><ele>110.2</ele><time>2026-04-06T14:25:56.999Z</time></trkpt><trkpt lat="42.70868355102395" lon="2.735926806919359"><ele>110.79999999999998</ele><time>2026-04-06T14:25:57.999Z</time></trkpt><trkpt lat="42.70875675462961" lon="2.7359659026719316"><ele>111.39999999999999</ele><time>2026-04-06T14:25:59Z</time></trkpt><trkpt lat="42.70887412381121" lon="2.7359986824781415"><ele>112.0</ele><time>2026-04-06T14:26:00Z</time></trkpt><trkpt lat="42.70897697402815" lon="2.736035726318674"><ele>112.8</ele><time>2026-04-06T14:26:01Z</time></trkpt><trkpt lat="42.70908165819364" lon="2.736081984640368"><ele>113.6</ele><time>2026-04-06T14:26:02Z</time></trkpt><trkpt lat="42.70917700145865" lon="2.73612596292971"><ele>114.39999999999999</ele><time>2026-04-06T14:26:03Z</time></trkpt><trkpt lat="42.70926520629417" lon="2.7362078964170133"><ele>115.19999999999999</ele><time>2026-04-06T14:26:04Z</time></trkpt><trkpt lat="42.70932945703981" lon="2.736296687803381"><ele>116.0</ele><time>2026-04-06T14:26:05Z</time></trkpt><trkpt lat="42.709387792581104" lon="2.736408435417089"><ele>116.0</ele><time>2026-04-06T14:26:06Z</time></trkpt><trkpt lat="42.709448937803124" lon="2.7365355169542234"><ele>116.0</ele><time>2026-04-06T14:26:07Z</time></trkpt><trkpt lat="42.70952334171687" lon="2.7366491357690266"><ele>116.0</ele><time>2026-04-06T14:26:08Z</time></trkpt><trkpt lat="42.709607173179364" lon="2.736733692906099"><ele>116.0</ele><time>2026-04-06T14:26:09Z</time></trkpt><trkpt lat="42.709675828948" lon="2.7367963125803403"><ele>116.0</ele><time>2026-04-06T14:26:10Z</time></trkpt><trkpt lat="42.70975148788034" lon="2.7368593714443525"><ele>116.6</ele><time>2026-04-06T14:26:11Z</time></trkpt><trkpt lat="42.70984250946788" lon="2.7369085489834117"><ele>117.19999999999999</ele><time>2026-04-06T14:26:12Z</time></trkpt><trkpt lat="42.709930306201436" lon="2.7369365387796316"><ele>117.80000000000001</ele><time>2026-04-06T14:26:13Z</time></trkpt><trkpt lat="42.71003499690231" lon="2.736966027604765"><ele>118.4</ele><time>2026-04-06T14:26:14Z</time></trkpt><trkpt lat="42.710137793363145" lon="2.7370212175909496"><ele>119.0</ele><time>2026-04-06T14:26:15Z</time></trkpt><trkpt lat="42.710225607044066" lon="2.737084247756895"><ele>119.16666666666666</ele><time>2026-04-06T14:26:16Z</time></trkpt><trkpt lat="42.71030704192881" lon="2.737141537591801"><ele>119.33333333333333</ele><time>2026-04-06T14:26:17Z</time></trkpt><trkpt lat="42.710378240296194" lon="2.7372002356843286"><ele>119.5</ele><time>2026-04-06T14:26:18Z</time></trkpt><trkpt lat="42.71044726606731" lon="2.7372813581316833"><ele>119.66666666666666</ele><time>2026-04-06T14:26:19Z</time></trkpt><trkpt lat="42.710514634526845" lon="2.737358465157592"><ele>119.83333333333333</ele><time>2026-04-06T14:26:20Z</time></trkpt><trkpt lat="42.71057994955791" lon="2.7374097963831314"><ele>120.0</ele><time>2026-04-06T14:26:21Z</time></trkpt><trkpt lat="42.71064803352422" lon="2.73744572184019"><ele>120.0</ele><time>2026-04-06T14:26:22Z</time></trkpt><trkpt lat="42.71072058841053" lon="2.737468215229124"><ele>120.0</ele><time>2026-04-06T14:26:23Z</time></trkpt><trkpt lat="42.71080065999314" lon="2.737482889900839"><ele>120.0</ele><time>2026-04-06T14:26:24Z</time></trkpt><trkpt lat="42.71088168656469" lon="2.73747431612042"><ele>120.0</ele><time>2026-04-06T14:26:25Z</time></trkpt><trkpt lat="42.710950669775876" lon="2.737429490666843"><ele>120.0</ele><time>2026-04-06T14:26:26Z</time></trkpt><trkpt lat="42.71101775272429" lon="2.737354940833838"><ele>120.0</ele><time>2026-04-06T14:26:27Z</time></trkpt><trkpt lat="42.711076572122224" lon="2.737281794618199"><ele>120.83333333333333</ele><time>2026-04-06T14:26:28Z</time></trkpt><trkpt lat="42.71114176664644" lon="2.7372299483944182"><ele>121.66666666666666</ele><time>2026-04-06T14:26:29Z</time></trkpt><trkpt lat="42.71121915967794" lon="2.7371980245538454"><ele>122.5</ele><time>2026-04-06T14:26:30Z</time></trkpt><trkpt lat="42.71132273660339" lon="2.7371769413628724"><ele>123.33333333333333</ele><time>2026-04-06T14:26:31Z</time></trkpt><trkpt lat="42.71141981124141" lon="2.73716080465366"><ele>124.16666666666666</ele><time>2026-04-06T14:26:32Z</time></trkpt><trkpt lat="42.71149759381005" lon="2.737150022411221"><ele>125.0</ele><time>2026-04-06T14:26:33Z</time></trkpt><trkpt lat="42.71156452646951" lon="2.7371491672658803"><ele>125.0</ele><time>2026-04-06T14:26:34Z</time></trkpt><trkpt lat="42.7116218719961" lon="2.7371853326463453"><ele>125.0</ele><time>2026-04-06T14:26:35Z</time></trkpt><trkpt lat="42.711676183953564" lon="2.737251618257406"><ele>125.0</ele><time>2026-04-06T14:26:36Z</time></trkpt><trkpt lat="42.7117350134848" lon="2.7373530372871193"><ele>125.0</ele><time>2026-04-06T14:26:37Z</time></trkpt><trkpt lat="42.71179702887495" lon="2.7374699256318094"><ele>125.0</ele><time>2026-04-06T14:26:38Z</time></trkpt><trkpt lat="42.71186475197752" lon="2.737611761869446"><ele>126.66666666666666</ele><time>2026-04-06T14:26:39Z</time></trkpt><trkpt lat="42.711928843704676" lon="2.7377239140367795"><ele>128.33333333333331</ele><time>2026-04-06T14:26:40Z</time></trkpt><trkpt lat="42.712008090986366" lon="2.7378185039343377"><ele>130.0</ele><time>2026-04-06T14:26:41Z</time></trkpt><trkpt lat="42.71208396349983" lon="2.7378867978319588"><ele>131.66666666666666</ele><time>2026-04-06T14:26:42Z</time></trkpt><trkpt lat="42.71214704458603" lon="2.7379287910994354"><ele>133.33333333333334</ele><time>2026-04-06T14:26:43Z</time></trkpt><trkpt lat="42.712216448126746" lon="2.737939942530078"><ele>135.0</ele><time>2026-04-06T14:26:44Z</time></trkpt><trkpt lat="42.71229210755722" lon="2.7379360141796423"><ele>135.0</ele><time>2026-04-06T14:26:45Z</time></trkpt><trkpt lat="42.71236699096435" lon="2.7379063619379806"><ele>135.0</ele><time>2026-04-06T14:26:46Z</time></trkpt><trkpt lat="42.712457004909325" lon="2.737868866519557"><ele>135.0</ele><time>2026-04-06T14:26:47Z</time></trkpt><trkpt lat="42.71253203108661" lon="2.7378617358595423"><ele>135.0</ele><time>2026-04-06T14:26:48Z</time></trkpt><trkpt lat="42.71260223052881" lon="2.738004073318525"><ele>135.0</ele><time>2026-04-06T14:26:50Z</time></trkpt><trkpt lat="42.71261395990934" lon="2.7381063458810764"><ele>135.0</ele><time>2026-04-06T14:26:51Z</time></trkpt><trkpt lat="42.71266826120474" lon="2.7382220642907926"><ele>135.6</ele><time>2026-04-06T14:26:53Z</time></trkpt><trkpt lat="42.71279344746328" lon="2.738228663437897"><ele>136.2</ele><time>2026-04-06T14:26:55Z</time></trkpt><trkpt lat="42.712874524825104" lon="2.7381988772293746"><ele>136.8</ele><time>2026-04-06T14:26:56Z</time></trkpt><trkpt lat="42.71297706220254" lon="2.738166231775393"><ele>137.4</ele><time>2026-04-06T14:26:57Z</time></trkpt><trkpt lat="42.713073663065074" lon="2.7381329765898346"><ele>138.0</ele><time>2026-04-06T14:26:58Z</time></trkpt><trkpt lat="42.71327381534789" lon="2.7380497189791173"><ele>138.0</ele><time>2026-04-06T14:27:00Z</time></trkpt><trkpt lat="42.71337808929518" lon="2.7380127554345037"><ele>138.0</ele><time>2026-04-06T14:27:01Z</time></trkpt><trkpt lat="42.71350717385807" lon="2.737970516202772"><ele>138.0</ele><time>2026-04-06T14:27:02Z</time></trkpt><trkpt lat="42.713601239288266" lon="2.737933862144747"><ele>138.0</ele><time>2026-04-06T14:27:03Z</time></trkpt><trkpt lat="42.71369090397595" lon="2.737900506620045"><ele>138.0</ele><time>2026-04-06T14:27:04Z</time></trkpt><trkpt lat="42.713779642748285" lon="2.737878528640637"><ele>138.6</ele><time>2026-04-06T14:27:05Z</time></trkpt><trkpt lat="42.71388985644431" lon="2.737879208241991"><ele>139.20000000000002</ele><time>2026-04-06T14:27:06Z</time></trkpt><trkpt lat="42.714006844922906" lon="2.7379056826186363"><ele>139.8</ele><time>2026-04-06T14:27:07Z</time></trkpt><trkpt lat="42.71411287776688" lon="2.7379464950538037"><ele>140.4</ele><time>2026-04-06T14:27:08Z</time></trkpt><trkpt lat="42.7142080527725" lon="2.737986106470402"><ele>141.0</ele><time>2026-04-06T14:27:09Z</time></trkpt><trkpt lat="42.7142960071445" lon="2.7380295588207937"><ele>141.0</ele><time>2026-04-06T14:27:10Z</time></trkpt><trkpt lat="42.71440841016355" lon="2.7380964150304066"><ele>141.0</ele><time>2026-04-06T14:27:11Z</time></trkpt><trkpt lat="42.71451382552419" lon="2.738176208167981"><ele>141.0</ele><time>2026-04-06T14:27:12Z</time></trkpt><trkpt lat="42.71460038513362" lon="2.7382520743459047"><ele>141.0</ele><time>2026-04-06T14:27:13Z</time></trkpt><trkpt lat="42.71469853211943" lon="2.738333506789854"><ele>141.0</ele><time>2026-04-06T14:27:14Z</time></trkpt><trkpt lat="42.71479767387279" lon="2.738411925102573"><ele>141.0</ele><time>2026-04-06T14:27:15Z</time></trkpt><trkpt lat="42.71488339773623" lon="2.7384847262785814"><ele>141.0</ele><time>2026-04-06T14:27:16Z</time></trkpt><trkpt lat="42.714981951418046" lon="2.7385566570371553"><ele>141.0</ele><time>2026-04-06T14:27:17Z</time></trkpt><trkpt lat="42.71506476596846" lon="2.7386069979194723"><ele>141.0</ele><time>2026-04-06T14:27:18Z</time></trkpt><trkpt lat="42.71512490753045" lon="2.738633602705095"><ele>140.6</ele><time>2026-04-06T14:27:19Z</time></trkpt><trkpt lat="42.71523386316577" lon="2.738618910699349"><ele>140.2</ele><time>2026-04-06T14:27:21Z</time></trkpt><trkpt lat="42.71532407619708" lon="2.738479831790143"><ele>139.8</ele><time>2026-04-06T14:27:23Z</time></trkpt><trkpt lat="42.715377514731905" lon="2.738368017461489"><ele>139.4</ele><time>2026-04-06T14:27:24Z</time></trkpt><trkpt lat="42.7154212981776" lon="2.738238392451626"><ele>139.0</ele><time>2026-04-06T14:27:25Z</time></trkpt><trkpt lat="42.715447674844434" lon="2.738117253516664"><ele>139.0</ele><time>2026-04-06T14:27:26Z</time></trkpt><trkpt lat="42.715479434801516" lon="2.7380001367717575"><ele>139.0</ele><time>2026-04-06T14:27:27Z</time></trkpt><trkpt lat="42.71553127603619" lon="2.7379075507876185"><ele>139.0</ele><time>2026-04-06T14:27:28Z</time></trkpt><trkpt lat="42.71560532172274" lon="2.737838076105003"><ele>139.0</ele><time>2026-04-06T14:27:29Z</time></trkpt><trkpt lat="42.715698277113546" lon="2.737754767238689"><ele>139.0</ele><time>2026-04-06T14:27:30Z</time></trkpt><trkpt lat="42.715789485243135" lon="2.737693679559141"><ele>139.4</ele><time>2026-04-06T14:27:31Z</time></trkpt><trkpt lat="42.71586569583617" lon="2.737637000179768"><ele>139.8</ele><time>2026-04-06T14:27:32Z</time></trkpt><trkpt lat="42.71595447795903" lon="2.7375793101471833"><ele>140.2</ele><time>2026-04-06T14:27:33Z</time></trkpt><trkpt lat="42.716056203189495" lon="2.7375100627275413"><ele>140.6</ele><time>2026-04-06T14:27:34Z</time></trkpt><trkpt lat="42.71614490070881" lon="2.737453542023816"><ele>141.0</ele><time>2026-04-06T14:27:35Z</time></trkpt><trkpt lat="42.71626156727801" lon="2.7374057626520303"><ele>141.16666666666666</ele><time>2026-04-06T14:27:35.999Z</time></trkpt><trkpt lat="42.71635463100859" lon="2.737374486111753"><ele>141.33333333333334</ele><time>2026-04-06T14:27:36.999Z</time></trkpt><trkpt lat="42.71643368269491" lon="2.7373460764170447"><ele>141.5</ele><time>2026-04-06T14:27:37.999Z</time></trkpt><trkpt lat="42.71651878792809" lon="2.737321063857364"><ele>141.66666666666669</ele><time>2026-04-06T14:27:38.999Z</time></trkpt><trkpt lat="42.71659453954126" lon="2.737322165045629"><ele>141.83333333333334</ele><time>2026-04-06T14:27:39.999Z</time></trkpt><trkpt lat="42.71668154634446" lon="2.7373565211064688"><ele>142.0</ele><time>2026-04-06T14:27:40.999Z</time></trkpt><trkpt lat="42.71676691295081" lon="2.7374117678788275"><ele>142.0</ele><time>2026-04-06T14:27:41.999Z</time></trkpt><trkpt lat="42.716849235823474" lon="2.737462367526462"><ele>142.0</ele><time>2026-04-06T14:27:42.999Z</time></trkpt><trkpt lat="42.71692997685093" lon="2.737469303259799"><ele>142.0</ele><time>2026-04-06T14:27:43.999Z</time></trkpt><trkpt lat="42.717021425061155" lon="2.737456674758712"><ele>142.0</ele><time>2026-04-06T14:27:44.999Z</time></trkpt><trkpt lat="42.717119404741496" lon="2.7374372777083518"><ele>142.0</ele><time>2026-04-06T14:27:45.999Z</time></trkpt><trkpt lat="42.71721564624797" lon="2.737416066644959"><ele>142.0</ele><time>2026-04-06T14:27:46.999Z</time></trkpt><trkpt lat="42.71730128956668" lon="2.737388914812792"><ele>142.0</ele><time>2026-04-06T14:27:47.999Z</time></trkpt><trkpt lat="42.71737527133745" lon="2.7373555208808082"><ele>142.0</ele><time>2026-04-06T14:27:48.999Z</time></trkpt><trkpt lat="42.71745212081889" lon="2.737328593942827"><ele>142.0</ele><time>2026-04-06T14:27:49.999Z</time></trkpt><trkpt lat="42.71752980728152" lon="2.737313821391919"><ele>142.0</ele><time>2026-04-06T14:27:50.999Z</time></trkpt><trkpt lat="42.71763636625714" lon="2.7372828169282912"><ele>142.0</ele><time>2026-04-06T14:27:52.999Z</time></trkpt><trkpt lat="42.71766735023459" lon="2.737163702236208"><ele>142.0</ele><time>2026-04-06T14:27:54.999Z</time></trkpt><trkpt lat="42.717667968710195" lon="2.7370073318998784"><ele>142.0</ele><time>2026-04-06T14:27:56.999Z</time></trkpt><trkpt lat="42.71766456918541" lon="2.736904307125033"><ele>142.0</ele><time>2026-04-06T14:27:57.999Z</time></trkpt><trkpt lat="42.71766535614846" lon="2.7368027621504583"><ele>142.0</ele><time>2026-04-06T14:27:58.999Z</time></trkpt><trkpt lat="42.717668882881604" lon="2.7367170904591553"><ele>142.0</ele><time>2026-04-06T14:27:59.999Z</time></trkpt><trkpt lat="42.71768452705322" lon="2.736624195674195"><ele>142.0</ele><time>2026-04-06T14:28:00.999Z</time></trkpt><trkpt lat="42.717719210659766" lon="2.7365478585543666"><ele>142.0</ele><time>2026-04-06T14:28:01.999Z</time></trkpt><trkpt lat="42.71778141036195" lon="2.736477642351973"><ele>142.0</ele><time>2026-04-06T14:28:02.999Z</time></trkpt><trkpt lat="42.71787785319974" lon="2.736372002704117"><ele>142.0</ele><time>2026-04-06T14:28:03.999Z</time></trkpt><trkpt lat="42.71798030173783" lon="2.7362560519841086"><ele>142.0</ele><time>2026-04-06T14:28:05Z</time></trkpt><trkpt lat="42.71805915515893" lon="2.7361672362069496"><ele>142.0</ele><time>2026-04-06T14:28:06Z</time></trkpt><trkpt lat="42.71812777089699" lon="2.7360882760472225"><ele>142.4</ele><time>2026-04-06T14:28:07Z</time></trkpt><trkpt lat="42.71818750193749" lon="2.7360207760243243"><ele>142.79999999999998</ele><time>2026-04-06T14:28:08Z</time></trkpt><trkpt lat="42.718267238439246" lon="2.735933920253854"><ele>143.2</ele><time>2026-04-06T14:28:09Z</time></trkpt><trkpt lat="42.71835729937369" lon="2.7358583833616024"><ele>143.6</ele><time>2026-04-06T14:28:10Z</time></trkpt><trkpt lat="42.7184422909452" lon="2.7357986079532326"><ele>144.0</ele><time>2026-04-06T14:28:11Z</time></trkpt><trkpt lat="42.718530359127996" lon="2.735742565848361"><ele>143.6</ele><time>2026-04-06T14:28:12Z</time></trkpt><trkpt lat="42.71863405236588" lon="2.735693829717578"><ele>143.2</ele><time>2026-04-06T14:28:13Z</time></trkpt><trkpt lat="42.71874308196458" lon="2.735633564932325"><ele>142.79999999999998</ele><time>2026-04-06T14:28:14Z</time></trkpt><trkpt lat="42.71882353249716" lon="2.7355691402041185"><ele>142.4</ele><time>2026-04-06T14:28:15Z</time></trkpt><trkpt lat="42.71889252677819" lon="2.7354950055367624"><ele>142.0</ele><time>2026-04-06T14:28:16Z</time></trkpt><trkpt lat="42.718957695112" lon="2.7354228885362013"><ele>142.0</ele><time>2026-04-06T14:28:17Z</time></trkpt><trkpt lat="42.71901707118315" lon="2.73536644810147"><ele>142.0</ele><time>2026-04-06T14:28:18Z</time></trkpt><trkpt lat="42.7190770426223" lon="2.7353103429323897"><ele>142.0</ele><time>2026-04-06T14:28:19Z</time></trkpt><trkpt lat="42.71920527923779" lon="2.7353112183191888"><ele>142.0</ele><time>2026-04-06T14:28:21Z</time></trkpt><trkpt lat="42.71928099405106" lon="2.735342815187703"><ele>142.0</ele><time>2026-04-06T14:28:22Z</time></trkpt><trkpt lat="42.71937148569345" lon="2.7353791756921595"><ele>142.0</ele><time>2026-04-06T14:28:23Z</time></trkpt><trkpt lat="42.71946098172179" lon="2.735395829225214"><ele>141.66666666666669</ele><time>2026-04-06T14:28:24Z</time></trkpt><trkpt lat="42.71955457101848" lon="2.7353852803414958"><ele>141.33333333333334</ele><time>2026-04-06T14:28:25Z</time></trkpt><trkpt lat="42.719653924154414" lon="2.7353619437704526"><ele>141.0</ele><time>2026-04-06T14:28:26Z</time></trkpt><trkpt lat="42.71974441388435" lon="2.7353385602137212"><ele>140.66666666666666</ele><time>2026-04-06T14:28:27Z</time></trkpt><trkpt lat="42.719825847642646" lon="2.7353081279605513"><ele>140.33333333333331</ele><time>2026-04-06T14:28:28Z</time></trkpt><trkpt lat="42.719896772589344" lon="2.7352643783748967"><ele>140.0</ele><time>2026-04-06T14:28:29Z</time></trkpt><trkpt lat="42.71996375975054" lon="2.7352090480964777"><ele>140.0</ele><time>2026-04-06T14:28:30Z</time></trkpt><trkpt lat="42.72002431912039" lon="2.735125460313639"><ele>140.0</ele><time>2026-04-06T14:28:31Z</time></trkpt><trkpt lat="42.72008645071969" lon="2.735023601843139"><ele>140.0</ele><time>2026-04-06T14:28:32Z</time></trkpt><trkpt lat="42.72016330837091" lon="2.73490214258734"><ele>140.0</ele><time>2026-04-06T14:28:33Z</time></trkpt><trkpt lat="42.72025566133763" lon="2.7347695128660092"><ele>140.0</ele><time>2026-04-06T14:28:34Z</time></trkpt><trkpt lat="42.72037890535547" lon="2.7346272547651287"><ele>139.75</ele><time>2026-04-06T14:28:35Z</time></trkpt><trkpt lat="42.72050730889303" lon="2.734444450420954"><ele>139.5</ele><time>2026-04-06T14:28:36Z</time></trkpt><trkpt lat="42.72061471586233" lon="2.7343804217862604"><ele>139.25</ele><time>2026-04-06T14:28:38Z</time></trkpt><trkpt lat="42.72069989283788" lon="2.7342466432837513"><ele>139.0</ele><time>2026-04-06T14:28:39Z</time></trkpt><trkpt lat="42.720751918150846" lon="2.7341460380488773"><ele>140.2</ele><time>2026-04-06T14:28:40Z</time></trkpt><trkpt lat="42.7208455354051" lon="2.734012692235038"><ele>141.4</ele><time>2026-04-06T14:28:42Z</time></trkpt><trkpt lat="42.72090812782889" lon="2.733939775283603"><ele>142.6</ele><time>2026-04-06T14:28:43Z</time></trkpt><trkpt lat="42.72098833812249" lon="2.7338563234337965"><ele>143.8</ele><time>2026-04-06T14:28:44Z</time></trkpt><trkpt lat="42.72107172112545" lon="2.7337750529243934"><ele>145.0</ele><time>2026-04-06T14:28:45Z</time></trkpt><trkpt lat="42.72115717486818" lon="2.733694437259848"><ele>145.6</ele><time>2026-04-06T14:28:46Z</time></trkpt><trkpt lat="42.721246882015116" lon="2.73361973159928"><ele>146.2</ele><time>2026-04-06T14:28:47Z</time></trkpt><trkpt lat="42.721327868746634" lon="2.7335609813896586"><ele>146.8</ele><time>2026-04-06T14:28:48Z</time></trkpt><trkpt lat="42.7213966463181" lon="2.733504644298133"><ele>147.4</ele><time>2026-04-06T14:28:49Z</time></trkpt><trkpt lat="42.721468908321185" lon="2.7334287808904234"><ele>148.0</ele><time>2026-04-06T14:28:50Z</time></trkpt><trkpt lat="42.7215451370322" lon="2.7333332592654513"><ele>149.0</ele><time>2026-04-06T14:28:51Z</time></trkpt><trkpt lat="42.7216107849435" lon="2.733248355050086"><ele>150.0</ele><time>2026-04-06T14:28:52Z</time></trkpt><trkpt lat="42.721674242171126" lon="2.733169315970901"><ele>151.0</ele><time>2026-04-06T14:28:53Z</time></trkpt><trkpt lat="42.72173778633908" lon="2.733107045796615"><ele>152.0</ele><time>2026-04-06T14:28:54Z</time></trkpt><trkpt lat="42.72179522126224" lon="2.7330493486481857"><ele>153.0</ele><time>2026-04-06T14:28:55Z</time></trkpt><trkpt lat="42.72185501966565" lon="2.732987804862574"><ele>154.0</ele><time>2026-04-06T14:28:56Z</time></trkpt><trkpt lat="42.721920164038906" lon="2.7329541840904166"><ele>154.33333333333334</ele><time>2026-04-06T14:28:57Z</time></trkpt><trkpt lat="42.7219916151455" lon="2.7329152647473554"><ele>154.66666666666669</ele><time>2026-04-06T14:28:58Z</time></trkpt><trkpt lat="42.722052379256574" lon="2.7328518676069913"><ele>155.0</ele><time>2026-04-06T14:28:59Z</time></trkpt><trkpt lat="42.722100906789244" lon="2.7327791188846766"><ele>155.33333333333334</ele><time>2026-04-06T14:29:00Z</time></trkpt><trkpt lat="42.72216283496974" lon="2.7326840867961093"><ele>155.66666666666666</ele><time>2026-04-06T14:29:01Z</time></trkpt><trkpt lat="42.72222839826723" lon="2.732562654964068"><ele>156.0</ele><time>2026-04-06T14:29:02Z</time></trkpt><trkpt lat="42.72228894085073" lon="2.732460581380061"><ele>157.2</ele><time>2026-04-06T14:29:03Z</time></trkpt><trkpt lat="42.72233829112236" lon="2.732360054359739"><ele>158.39999999999998</ele><time>2026-04-06T14:29:04Z</time></trkpt><trkpt lat="42.72239179485701" lon="2.7322516040719353"><ele>159.6</ele><time>2026-04-06T14:29:05Z</time></trkpt><trkpt lat="42.722464923711705" lon="2.7321359370928096"><ele>160.79999999999998</ele><time>2026-04-06T14:29:06Z</time></trkpt><trkpt lat="42.72253067444972" lon="2.7320198184016005"><ele>162.0</ele><time>2026-04-06T14:29:07Z</time></trkpt><trkpt lat="42.722585360111566" lon="2.731925777635413"><ele>161.33333333333334</ele><time>2026-04-06T14:29:08Z</time></trkpt><trkpt lat="42.72262860509003" lon="2.731828358947854"><ele>160.66666666666666</ele><time>2026-04-06T14:29:09Z</time></trkpt><trkpt lat="42.72267723553678" lon="2.731731430507366"><ele>160.0</ele><time>2026-04-06T14:29:10Z</time></trkpt><trkpt lat="42.72272611553259" lon="2.731638729207087"><ele>159.33333333333331</ele><time>2026-04-06T14:29:11Z</time></trkpt><trkpt lat="42.7227731377183" lon="2.731557994968656"><ele>158.66666666666666</ele><time>2026-04-06T14:29:12Z</time></trkpt><trkpt lat="42.72281672501379" lon="2.73148693421873"><ele>158.0</ele><time>2026-04-06T14:29:13Z</time></trkpt><trkpt lat="42.72287667141911" lon="2.731350678062471"><ele>158.0</ele><time>2026-04-06T14:29:15Z</time></trkpt><trkpt lat="42.72285535902411" lon="2.7311849826099395"><ele>158.0</ele><time>2026-04-06T14:29:17Z</time></trkpt><trkpt lat="42.72278640092961" lon="2.731063264812642"><ele>158.0</ele><time>2026-04-06T14:29:19Z</time></trkpt><trkpt lat="42.722748216599186" lon="2.730977419914428"><ele>158.0</ele><time>2026-04-06T14:29:21Z</time></trkpt><trkpt lat="42.72270023962111" lon="2.730876808536816"><ele>158.0</ele><time>2026-04-06T14:29:37Z</time></trkpt><trkpt lat="42.72273310946514" lon="2.730778592127465"><ele>159.5</ele><time>2026-04-06T14:29:39.999Z</time></trkpt><trkpt lat="42.722771474601544" lon="2.730683273086643"><ele>161.0</ele><time>2026-04-06T14:29:43.999Z</time></trkpt><trkpt lat="42.722837448055294" lon="2.7306600061697615"><ele>162.5</ele><time>2026-04-06T14:29:46.999Z</time></trkpt><trkpt lat="42.72288054922748" lon="2.7305561102196654"><ele>164.0</ele><time>2026-04-06T14:29:50.999Z</time></trkpt><trkpt lat="42.72294713821289" lon="2.730509058279441"><ele>165.5</ele><time>2026-04-06T14:29:53.999Z</time></trkpt><trkpt lat="42.72298633741749" lon="2.7304087994354527"><ele>167.0</ele><time>2026-04-06T14:29:55.999Z</time></trkpt><trkpt lat="42.72303895688123" lon="2.730335622064746"><ele>167.0</ele><time>2026-04-06T14:29:57.999Z</time></trkpt><trkpt lat="42.72311080850055" lon="2.730253953968231"><ele>167.0</ele><time>2026-04-06T14:29:59.999Z</time></trkpt><trkpt lat="42.72312367041525" lon="2.730169428903008"><ele>167.0</ele><time>2026-04-06T14:30:02.999Z</time></trkpt><trkpt lat="42.72307867688995" lon="2.730106358773439"><ele>167.0</ele><time>2026-04-06T14:30:05.999Z</time></trkpt><trkpt lat="42.72300206869954" lon="2.7300293207433617"><ele>167.0</ele><time>2026-04-06T14:30:08.999Z</time></trkpt><trkpt lat="42.72292438150627" lon="2.7299762307055517"><ele>167.0</ele><time>2026-04-06T14:30:11Z</time></trkpt><trkpt lat="42.72284706649452" lon="2.729898496658214"><ele>166.2</ele><time>2026-04-06T14:30:13Z</time></trkpt><trkpt lat="42.72273736855572" lon="2.7298270243661467"><ele>165.39999999999998</ele><time>2026-04-06T14:30:15Z</time></trkpt><trkpt lat="42.722661105820826" lon="2.7297521112949035"><ele>164.60000000000002</ele><time>2026-04-06T14:30:17Z</time></trkpt><trkpt lat="42.722649005621314" lon="2.7296487980983493"><ele>163.8</ele><time>2026-04-06T14:30:19Z</time></trkpt><trkpt lat="42.72272531852205" lon="2.7295097634484593"><ele>163.0</ele><time>2026-04-06T14:30:21Z</time></trkpt><trkpt lat="42.72278103852035" lon="2.729425737189726"><ele>165.33333333333334</ele><time>2026-04-06T14:30:22Z</time></trkpt><trkpt lat="42.722823587456354" lon="2.729356780667828"><ele>167.66666666666669</ele><time>2026-04-06T14:30:23Z</time></trkpt><trkpt lat="42.722863227664455" lon="2.7292713957611143"><ele>170.0</ele><time>2026-04-06T14:30:25Z</time></trkpt><trkpt lat="42.722942947481314" lon="2.729211050762102"><ele>172.33333333333334</ele><time>2026-04-06T14:30:28Z</time></trkpt><trkpt lat="42.72298841107034" lon="2.729115782547995"><ele>174.66666666666666</ele><time>2026-04-06T14:30:32Z</time></trkpt><trkpt lat="42.72303118589705" lon="2.729012899873032"><ele>177.0</ele><time>2026-04-06T14:30:35Z</time></trkpt><trkpt lat="42.723076292087306" lon="2.7289453040958844"><ele>177.0</ele><time>2026-04-06T14:30:37Z</time></trkpt><trkpt lat="42.723125580729295" lon="2.7288780440814002"><ele>177.0</ele><time>2026-04-06T14:30:39Z</time></trkpt><trkpt lat="42.72317924984232" lon="2.7288305503108248"><ele>177.0</ele><time>2026-04-06T14:30:41Z</time></trkpt><trkpt lat="42.7232303250482" lon="2.7287781438594436"><ele>177.0</ele><time>2026-04-06T14:30:43Z</time></trkpt><trkpt lat="42.72331056518829" lon="2.7287661408279456"><ele>177.0</ele><time>2026-04-06T14:30:46Z</time></trkpt><trkpt lat="42.72337679264614" lon="2.7286773816399967"><ele>177.0</ele><time>2026-04-06T14:30:48Z</time></trkpt><trkpt lat="42.72343836745705" lon="2.7286149051358946"><ele>177.0</ele><time>2026-04-06T14:30:50Z</time></trkpt><trkpt lat="42.723515490661086" lon="2.728573958254515"><ele>178.66666666666666</ele><time>2026-04-06T14:30:52Z</time></trkpt><trkpt lat="42.72359307420497" lon="2.728534027512441"><ele>180.33333333333334</ele><time>2026-04-06T14:30:54Z</time></trkpt><trkpt lat="42.72367226911129" lon="2.7285127605303487"><ele>182.0</ele><time>2026-04-06T14:30:56Z</time></trkpt><trkpt lat="42.72377736007847" lon="2.7284914565994853"><ele>183.66666666666669</ele><time>2026-04-06T14:30:58Z</time></trkpt><trkpt lat="42.72383504558321" lon="2.728451374593199"><ele>185.33333333333334</ele><time>2026-04-06T14:31:00Z</time></trkpt><trkpt lat="42.72389653475874" lon="2.7284292797780805"><ele>187.0</ele><time>2026-04-06T14:31:02Z</time></trkpt><trkpt lat="42.72399387918156" lon="2.728386948206317"><ele>187.0</ele><time>2026-04-06T14:31:05Z</time></trkpt><trkpt lat="42.724083700373406" lon="2.728357248411198"><ele>187.0</ele><time>2026-04-06T14:31:07Z</time></trkpt><trkpt lat="42.72414058626323" lon="2.728312604073821"><ele>187.0</ele><time>2026-04-06T14:31:09Z</time></trkpt><trkpt lat="42.724207449159735" lon="2.728211174240634"><ele>187.0</ele><time>2026-04-06T14:31:11Z</time></trkpt><trkpt lat="42.724286490912625" lon="2.7281472140588363"><ele>187.0</ele><time>2026-04-06T14:31:13Z</time></trkpt><trkpt lat="42.72437245944536" lon="2.7280679048579666"><ele>188.8</ele><time>2026-04-06T14:31:16Z</time></trkpt><trkpt lat="42.724442649344304" lon="2.7279400350886434"><ele>190.6</ele><time>2026-04-06T14:31:18Z</time></trkpt><trkpt lat="42.72447884820249" lon="2.7278508564918114"><ele>192.4</ele><time>2026-04-06T14:31:19Z</time></trkpt><trkpt lat="42.72453699123446" lon="2.7277159252726464"><ele>194.20000000000002</ele><time>2026-04-06T14:31:21Z</time></trkpt><trkpt lat="42.72459255808562" lon="2.7275408891596276"><ele>196.0</ele><time>2026-04-06T14:31:23Z</time></trkpt><trkpt lat="42.7246246551374" lon="2.7274363796832657"><ele>196.0</ele><time>2026-04-06T14:31:25Z</time></trkpt><trkpt lat="42.72467979179528" lon="2.727365796580138"><ele>196.0</ele><time>2026-04-06T14:31:27Z</time></trkpt><trkpt lat="42.72475753933466" lon="2.7272918167314026"><ele>196.0</ele><time>2026-04-06T14:31:29Z</time></trkpt><trkpt lat="42.724848874941685" lon="2.7271763251849768"><ele>196.0</ele><time>2026-04-06T14:31:31Z</time></trkpt><trkpt lat="42.72489680439172" lon="2.7271121893560926"><ele>196.0</ele><time>2026-04-06T14:31:32Z</time></trkpt><trkpt lat="42.72498033293768" lon="2.727013748716918"><ele>195.99999999999997</ele><time>2026-04-06T14:31:34Z</time></trkpt><trkpt lat="42.72502945111434" lon="2.7269541054543427"><ele>196.0</ele><time>2026-04-06T14:31:35Z</time></trkpt><trkpt lat="42.72510140941071" lon="2.726859899941031"><ele>196.0</ele><time>2026-04-06T14:31:37Z</time></trkpt><trkpt lat="42.72516796773542" lon="2.7267478595149286"><ele>196.0</ele><time>2026-04-06T14:31:39Z</time></trkpt><trkpt lat="42.72519206634295" lon="2.726665608968369"><ele>195.99999999999997</ele><time>2026-04-06T14:31:41Z</time></trkpt><trkpt lat="42.72519204320211" lon="2.726579509058103"><ele>196.0</ele><time>2026-04-06T14:31:43Z</time></trkpt><trkpt lat="42.7251650422361" lon="2.7264956452399884"><ele>195.99999999999997</ele><time>2026-04-06T14:31:45Z</time></trkpt><trkpt lat="42.725118393972735" lon="2.7264201154111203"><ele>196.0</ele><time>2026-04-06T14:31:47Z</time></trkpt><trkpt lat="42.72502442634986" lon="2.7264012175567127"><ele>196.0</ele><time>2026-04-06T14:31:48.999Z</time></trkpt><trkpt lat="42.724952947714" lon="2.726370379625854"><ele>196.0</ele><time>2026-04-06T14:31:50.999Z</time></trkpt><trkpt lat="42.72489727022004" lon="2.7263013087156085"><ele>195.99999999999997</ele><time>2026-04-06T14:31:53.999Z</time></trkpt><trkpt lat="42.72495042042361" lon="2.7262368273652506"><ele>196.0</ele><time>2026-04-06T14:31:56.999Z</time></trkpt><trkpt lat="42.72505203366116" lon="2.7262467147129126"><ele>196.0</ele><time>2026-04-06T14:31:59.999Z</time></trkpt><trkpt lat="42.725181566070326" lon="2.726259004254458"><ele>196.0</ele><time>2026-04-06T14:32:01.999Z</time></trkpt><trkpt lat="42.725257944384424" lon="2.726270704248173"><ele>196.0</ele><time>2026-04-06T14:32:02.999Z</time></trkpt><trkpt lat="42.72533944361023" lon="2.7263199207746456"><ele>196.0</ele><time>2026-04-06T14:32:04.999Z</time></trkpt><trkpt lat="42.725401737922" lon="2.7263506612011255"><ele>196.0</ele><time>2026-04-06T14:32:06.999Z</time></trkpt><trkpt lat="42.72547632984407" lon="2.7262801109306904"><ele>195.99999999999997</ele><time>2026-04-06T14:32:08.999Z</time></trkpt><trkpt lat="42.725517331891844" lon="2.726213533534737"><ele>196.0</ele><time>2026-04-06T14:32:09.999Z</time></trkpt><trkpt lat="42.72561349794554" lon="2.7261487967207962"><ele>196.0</ele><time>2026-04-06T14:32:11.999Z</time></trkpt><trkpt lat="42.72573368991543" lon="2.7261435873225643"><ele>196.0</ele><time>2026-04-06T14:32:13.999Z</time></trkpt><trkpt lat="42.72580070774776" lon="2.7261304262538313"><ele>195.99999999999997</ele><time>2026-04-06T14:32:14.999Z</time></trkpt><trkpt lat="42.72587840769257" lon="2.7261065707526404"><ele>196.0</ele><time>2026-04-06T14:32:15.999Z</time></trkpt><trkpt lat="42.72594285633259" lon="2.7260920146233967"><ele>195.99999999999997</ele><time>2026-04-06T14:32:17Z</time></trkpt><trkpt lat="42.726010190611646" lon="2.726087300711951"><ele>196.0</ele><time>2026-04-06T14:32:18Z</time></trkpt><trkpt lat="42.72612533021138" lon="2.7260934938934245"><ele>196.0</ele><time>2026-04-06T14:32:20Z</time></trkpt><trkpt lat="42.726210370654435" lon="2.726071879531864"><ele>196.0</ele><time>2026-04-06T14:32:22Z</time></trkpt><trkpt lat="42.72627540962388" lon="2.7260366008829218"><ele>195.99999999999997</ele><time>2026-04-06T14:32:54Z</time></trkpt><trkpt lat="42.72633680422623" lon="2.725981090182641"><ele>196.0</ele><time>2026-04-06T14:32:57Z</time></trkpt><trkpt lat="42.72638132919282" lon="2.7259197482255493"><ele>193.66666666666666</ele><time>2026-04-06T14:32:59Z</time></trkpt><trkpt lat="42.72643550602237" lon="2.7258012592115115"><ele>191.33333333333331</ele><time>2026-04-06T14:33:01Z</time></trkpt><trkpt lat="42.72649339099132" lon="2.7256397109587955"><ele>189.0</ele><time>2026-04-06T14:33:03Z</time></trkpt><trkpt lat="42.726518081599515" lon="2.7255492929887724"><ele>186.66666666666666</ele><time>2026-04-06T14:33:04Z</time></trkpt><trkpt lat="42.72654132117171" lon="2.725463475440239"><ele>184.33333333333331</ele><time>2026-04-06T14:33:05Z</time></trkpt><trkpt lat="42.72656792024798" lon="2.7253799677330584"><ele>182.0</ele><time>2026-04-06T14:33:06Z</time></trkpt><trkpt lat="42.726603298226465" lon="2.7252874009049632"><ele>181.83333333333331</ele><time>2026-04-06T14:33:07Z</time></trkpt><trkpt lat="42.72664703455147" lon="2.7251954722810035"><ele>181.66666666666666</ele><time>2026-04-06T14:33:08Z</time></trkpt><trkpt lat="42.72669372364463" lon="2.72513058133506"><ele>181.5</ele><time>2026-04-06T14:33:09Z</time></trkpt><trkpt lat="42.72676839919221" lon="2.7250459501556996"><ele>181.33333333333334</ele><time>2026-04-06T14:33:11Z</time></trkpt><trkpt lat="42.72684091096257" lon="2.7249586516913333"><ele>181.16666666666669</ele><time>2026-04-06T14:33:13Z</time></trkpt><trkpt lat="42.72691524605373" lon="2.7248626400296483"><ele>181.0</ele><time>2026-04-06T14:33:15Z</time></trkpt><trkpt lat="42.72698099529377" lon="2.724750488270455"><ele>181.0</ele><time>2026-04-06T14:33:17Z</time></trkpt><trkpt lat="42.727037794297004" lon="2.7246412891305467"><ele>181.0</ele><time>2026-04-06T14:33:19Z</time></trkpt><trkpt lat="42.72713719391359" lon="2.7245180831882054"><ele>181.0</ele><time>2026-04-06T14:33:21Z</time></trkpt><trkpt lat="42.72720719706157" lon="2.724459299225929"><ele>181.0</ele><time>2026-04-06T14:33:22Z</time></trkpt><trkpt lat="42.72729522939883" lon="2.7244074645948735"><ele>181.0</ele><time>2026-04-06T14:33:23Z</time></trkpt><trkpt lat="42.727379473334175" lon="2.7243445031224764"><ele>181.4</ele><time>2026-04-06T14:33:24Z</time></trkpt><trkpt lat="42.72745072287096" lon="2.7242789683133553"><ele>181.8</ele><time>2026-04-06T14:33:25Z</time></trkpt><trkpt lat="42.72752063577139" lon="2.724177673881098"><ele>182.20000000000002</ele><time>2026-04-06T14:33:26Z</time></trkpt><trkpt lat="42.727584181406485" lon="2.724062267449186"><ele>182.60000000000002</ele><time>2026-04-06T14:33:27Z</time></trkpt><trkpt lat="42.727634311285684" lon="2.723958013744619"><ele>183.0</ele><time>2026-04-06T14:33:28Z</time></trkpt><trkpt lat="42.727675503672415" lon="2.7238510818734984"><ele>183.0</ele><time>2026-04-06T14:33:29Z</time></trkpt><trkpt lat="42.72770680034456" lon="2.7237315949274987"><ele>183.0</ele><time>2026-04-06T14:33:30Z</time></trkpt><trkpt lat="42.72775614340201" lon="2.7236252167196437"><ele>183.0</ele><time>2026-04-06T14:33:31Z</time></trkpt><trkpt lat="42.72779800191" lon="2.723514736088849"><ele>183.0</ele><time>2026-04-06T14:33:32Z</time></trkpt><trkpt lat="42.727840540043545" lon="2.7234055201256564"><ele>183.0</ele><time>2026-04-06T14:33:33Z</time></trkpt><trkpt lat="42.72788202754476" lon="2.723324612562544"><ele>183.0</ele><time>2026-04-06T14:33:34Z</time></trkpt><trkpt lat="42.727928110336826" lon="2.723259447590241"><ele>183.8</ele><time>2026-04-06T14:33:35Z</time></trkpt><trkpt lat="42.72800355454581" lon="2.723217759916389"><ele>184.60000000000002</ele><time>2026-04-06T14:33:36Z</time></trkpt><trkpt lat="42.72809299274779" lon="2.723178238562967"><ele>185.39999999999998</ele><time>2026-04-06T14:33:37Z</time></trkpt><trkpt lat="42.728202342497354" lon="2.7231265597935517"><ele>186.2</ele><time>2026-04-06T14:33:38Z</time></trkpt><trkpt lat="42.72830947798988" lon="2.7230547156700653"><ele>187.0</ele><time>2026-04-06T14:33:39Z</time></trkpt><trkpt lat="42.72840079427428" lon="2.722985590386496"><ele>187.0</ele><time>2026-04-06T14:33:40Z</time></trkpt><trkpt lat="42.72848870144616" lon="2.7229240687665657"><ele>187.0</ele><time>2026-04-06T14:33:41Z</time></trkpt><trkpt lat="42.72853630464775" lon="2.722840946963287"><ele>187.0</ele><time>2026-04-06T14:33:43Z</time></trkpt><trkpt lat="42.72872451061809" lon="2.7226794194877506"><ele>187.0</ele><time>2026-04-06T14:33:45Z</time></trkpt><trkpt lat="42.72889897372318" lon="2.722607192648092"><ele>187.39999999999998</ele><time>2026-04-06T14:33:46Z</time></trkpt><trkpt lat="42.729006185067306" lon="2.722516730025152"><ele>187.79999999999998</ele><time>2026-04-06T14:33:47Z</time></trkpt><trkpt lat="42.72910190166787" lon="2.7224044781607057"><ele>188.2</ele><time>2026-04-06T14:33:48Z</time></trkpt><trkpt lat="42.729185164188195" lon="2.722325124933108"><ele>188.6</ele><time>2026-04-06T14:33:49Z</time></trkpt><trkpt lat="42.729265440098764" lon="2.7222585853090466"><ele>189.0</ele><time>2026-04-06T14:33:50Z</time></trkpt><trkpt lat="42.72934764215417" lon="2.7222023180834576"><ele>189.5</ele><time>2026-04-06T14:33:51Z</time></trkpt><trkpt lat="42.729417967644444" lon="2.722135170526537"><ele>190.0</ele><time>2026-04-06T14:33:52Z</time></trkpt><trkpt lat="42.729469928275485" lon="2.7220651581834105"><ele>190.5</ele><time>2026-04-06T14:33:53Z</time></trkpt><trkpt lat="42.729519368747496" lon="2.7219994110708563"><ele>191.0</ele><time>2026-04-06T14:33:54Z</time></trkpt><trkpt lat="42.72957341470774" lon="2.7219184124499285"><ele>191.5</ele><time>2026-04-06T14:33:55Z</time></trkpt><trkpt lat="42.729633005455" lon="2.7218231943719515"><ele>192.0</ele><time>2026-04-06T14:33:55.999Z</time></trkpt><trkpt lat="42.72968680801712" lon="2.7217367040253144"><ele>192.33333333333334</ele><time>2026-04-06T14:33:56.999Z</time></trkpt><trkpt lat="42.72972855224445" lon="2.721663040351313"><ele>192.66666666666669</ele><time>2026-04-06T14:33:57.999Z</time></trkpt><trkpt lat="42.729789342975344" lon="2.7215698514834985"><ele>193.0</ele><time>2026-04-06T14:33:58.999Z</time></trkpt><trkpt lat="42.72986593085086" lon="2.7214826006315738"><ele>193.33333333333334</ele><time>2026-04-06T14:33:59.999Z</time></trkpt><trkpt lat="42.72993775277709" lon="2.721404797650139"><ele>193.66666666666669</ele><time>2026-04-06T14:34:00.999Z</time></trkpt><trkpt lat="42.73000946339694" lon="2.7213219475186827"><ele>194.0</ele><time>2026-04-06T14:34:01.999Z</time></trkpt><trkpt lat="42.73006713651509" lon="2.7212576241945854"><ele>194.00000000000003</ele><time>2026-04-06T14:34:02.999Z</time></trkpt><trkpt lat="42.73012730920246" lon="2.7211915075994506"><ele>194.0</ele><time>2026-04-06T14:34:03.999Z</time></trkpt><trkpt lat="42.730180355535225" lon="2.7211189178398354"><ele>194.0</ele><time>2026-04-06T14:34:04.999Z</time></trkpt><trkpt lat="42.73024237853978" lon="2.721040114931996"><ele>194.0</ele><time>2026-04-06T14:34:05.999Z</time></trkpt><trkpt lat="42.730295786464865" lon="2.7209858373324916"><ele>194.00000000000003</ele><time>2026-04-06T14:34:06.999Z</time></trkpt><trkpt lat="42.730409505550654" lon="2.7209072503126746"><ele>194.0</ele><time>2026-04-06T14:34:08.999Z</time></trkpt><trkpt lat="42.73050793607204" lon="2.7208112837464937"><ele>194.6</ele><time>2026-04-06T14:34:10.999Z</time></trkpt><trkpt lat="42.73060087135795" lon="2.7207056460452534"><ele>195.2</ele><time>2026-04-06T14:34:12.999Z</time></trkpt><trkpt lat="42.73065570077727" lon="2.720657508103033"><ele>195.79999999999998</ele><time>2026-04-06T14:34:13.999Z</time></trkpt><trkpt lat="42.73075924832703" lon="2.7205647025160484"><ele>196.39999999999998</ele><time>2026-04-06T14:34:15.999Z</time></trkpt><trkpt lat="42.730840745092955" lon="2.7205554953475612"><ele>197.0</ele><time>2026-04-06T14:34:16.999Z</time></trkpt><trkpt lat="42.73091510518941" lon="2.7205488443765073"><ele>197.00000000000003</ele><time>2026-04-06T14:34:17.999Z</time></trkpt><trkpt lat="42.73100852955164" lon="2.720520501023017"><ele>197.0</ele><time>2026-04-06T14:34:18.999Z</time></trkpt><trkpt lat="42.73108767847342" lon="2.7204937928116033"><ele>197.0</ele><time>2026-04-06T14:34:19.999Z</time></trkpt><trkpt lat="42.73115046902396" lon="2.720450770301837"><ele>197.0</ele><time>2026-04-06T14:34:20.999Z</time></trkpt><trkpt lat="42.731212873632565" lon="2.720414263303238"><ele>197.00000000000003</ele><time>2026-04-06T14:34:21.999Z</time></trkpt><trkpt lat="42.73128468162374" lon="2.720381351192117"><ele>197.0</ele><time>2026-04-06T14:34:23Z</time></trkpt><trkpt lat="42.73136003122853" lon="2.720358040734211"><ele>197.75</ele><time>2026-04-06T14:34:24Z</time></trkpt><trkpt lat="42.731439480639764" lon="2.720332414638055"><ele>198.5</ele><time>2026-04-06T14:34:25Z</time></trkpt><trkpt lat="42.7315172024173" lon="2.7204144985914707"><ele>199.25</ele><time>2026-04-06T14:34:27Z</time></trkpt><trkpt lat="42.73159811805268" lon="2.7205330214456755"><ele>200.0</ele><time>2026-04-06T14:34:29Z</time></trkpt><trkpt lat="42.73190337479323" lon="2.720241942115051"><ele>201.16666666666669</ele><time>2026-04-06T14:34:30Z</time></trkpt><trkpt lat="42.731974774398424" lon="2.7202172929702475"><ele>202.33333333333334</ele><time>2026-04-06T14:34:31Z</time></trkpt><trkpt lat="42.73204000887332" lon="2.7201984065529907"><ele>203.5</ele><time>2026-04-06T14:34:32Z</time></trkpt><trkpt lat="42.732159625069514" lon="2.7201504336117677"><ele>204.66666666666669</ele><time>2026-04-06T14:34:34Z</time></trkpt><trkpt lat="42.73222690405338" lon="2.720123043931715"><ele>205.83333333333334</ele><time>2026-04-06T14:34:35Z</time></trkpt><trkpt lat="42.732309939085134" lon="2.7200772991123285"><ele>207.0</ele><time>2026-04-06T14:34:36Z</time></trkpt><trkpt lat="42.73238390504534" lon="2.720019928193934"><ele>207.0</ele><time>2026-04-06T14:34:37Z</time></trkpt><trkpt lat="42.73244588444838" lon="2.7199659767890143"><ele>207.0</ele><time>2026-04-06T14:34:38Z</time></trkpt><trkpt lat="42.73252414979747" lon="2.71991602894962"><ele>207.0</ele><time>2026-04-06T14:34:39Z</time></trkpt><trkpt lat="42.73260995268367" lon="2.719873305898988"><ele>207.0</ele><time>2026-04-06T14:34:40Z</time></trkpt><trkpt lat="42.732699791262036" lon="2.7198372578525363"><ele>207.0</ele><time>2026-04-06T14:34:41Z</time></trkpt><trkpt lat="42.73279316840412" lon="2.7197969848029033"><ele>207.0</ele><time>2026-04-06T14:34:42Z</time></trkpt><trkpt lat="42.73289089483424" lon="2.7197487201504154"><ele>207.16666666666666</ele><time>2026-04-06T14:34:43Z</time></trkpt><trkpt lat="42.732988070782376" lon="2.719685758612041"><ele>207.33333333333331</ele><time>2026-04-06T14:34:44Z</time></trkpt><trkpt lat="42.73307491690035" lon="2.7196350376310123"><ele>207.5</ele><time>2026-04-06T14:34:45Z</time></trkpt><trkpt lat="42.73314070137034" lon="2.7195798045044492"><ele>207.66666666666666</ele><time>2026-04-06T14:34:46Z</time></trkpt><trkpt lat="42.73320748160387" lon="2.719516464160418"><ele>207.83333333333331</ele><time>2026-04-06T14:34:47Z</time></trkpt><trkpt lat="42.733256664734185" lon="2.719453234229021"><ele>208.0</ele><time>2026-04-06T14:34:48Z</time></trkpt><trkpt lat="42.73334821075465" lon="2.7193453981349007"><ele>208.8</ele><time>2026-04-06T14:34:50Z</time></trkpt><trkpt lat="42.733407385566096" lon="2.71929775643746"><ele>209.60000000000002</ele><time>2026-04-06T14:34:51Z</time></trkpt><trkpt lat="42.73352551362157" lon="2.7192869036650498"><ele>210.39999999999998</ele><time>2026-04-06T14:34:53Z</time></trkpt><trkpt lat="42.73362996734488" lon="2.719250407453266"><ele>211.2</ele><time>2026-04-06T14:34:55Z</time></trkpt><trkpt lat="42.733724314012754" lon="2.719256688169312"><ele>212.0</ele><time>2026-04-06T14:34:57Z</time></trkpt><trkpt lat="42.733814479169865" lon="2.71930058691284"><ele>212.00000000000003</ele><time>2026-04-06T14:34:59Z</time></trkpt><trkpt lat="42.73388965137067" lon="2.7193447439172407"><ele>212.0</ele><time>2026-04-06T14:35:02Z</time></trkpt><trkpt lat="42.73396213778094" lon="2.719394971127525"><ele>212.0</ele><time>2026-04-06T14:35:03Z</time></trkpt><trkpt lat="42.734061184495516" lon="2.7194565425601596"><ele>212.0</ele><time>2026-04-06T14:35:05Z</time></trkpt><trkpt lat="42.734147060500796" lon="2.7194888969611632"><ele>212.00000000000003</ele><time>2026-04-06T14:35:07Z</time></trkpt><trkpt lat="42.73423134092632" lon="2.7195228360638306"><ele>212.0</ele><time>2026-04-06T14:35:09Z</time></trkpt><trkpt lat="42.73434659978891" lon="2.7195085366727607"><ele>214.16666666666669</ele><time>2026-04-06T14:35:12Z</time></trkpt><trkpt lat="42.734413414040844" lon="2.719511077348289"><ele>216.33333333333334</ele><time>2026-04-06T14:35:13Z</time></trkpt><trkpt lat="42.73448032501508" lon="2.7194986084342223"><ele>218.5</ele><time>2026-04-06T14:35:14Z</time></trkpt><trkpt lat="42.734591096630794" lon="2.719503895544004"><ele>220.66666666666669</ele><time>2026-04-06T14:35:16Z</time></trkpt><trkpt lat="42.73469648089324" lon="2.719469048394795"><ele>222.83333333333334</ele><time>2026-04-06T14:35:18Z</time></trkpt><trkpt lat="42.7347804527151" lon="2.719485425295652"><ele>225.0</ele><time>2026-04-06T14:35:20Z</time></trkpt><trkpt lat="42.73488941570908" lon="2.719430530288898"><ele>225.66666666666666</ele><time>2026-04-06T14:35:22Z</time></trkpt><trkpt lat="42.73497141109632" lon="2.7193673912796212"><ele>226.33333333333331</ele><time>2026-04-06T14:35:25Z</time></trkpt><trkpt lat="42.73503586997031" lon="2.719367466863363"><ele>227.0</ele><time>2026-04-06T14:35:26Z</time></trkpt><trkpt lat="42.735101352263214" lon="2.719355146930331"><ele>227.66666666666666</ele><time>2026-04-06T14:35:27Z</time></trkpt><trkpt lat="42.73521112187633" lon="2.7193130097346563"><ele>228.33333333333331</ele><time>2026-04-06T14:35:29Z</time></trkpt><trkpt lat="42.73531650376889" lon="2.719279159357516"><ele>229.0</ele><time>2026-04-06T14:35:31Z</time></trkpt><trkpt lat="42.73543479600612" lon="2.719256466419233"><ele>228.99999999999997</ele><time>2026-04-06T14:35:33Z</time></trkpt><trkpt lat="42.73550035602633" lon="2.7192205531736975"><ele>229.0</ele><time>2026-04-06T14:35:34Z</time></trkpt><trkpt lat="42.73556080354624" lon="2.7191927036576238"><ele>229.0</ele><time>2026-04-06T14:35:35Z</time></trkpt><trkpt lat="42.735638657252146" lon="2.7191580363422116"><ele>229.0</ele><time>2026-04-06T14:35:37Z</time></trkpt><trkpt lat="42.73573574957155" lon="2.7191487428286325"><ele>228.99999999999997</ele><time>2026-04-06T14:35:38Z</time></trkpt><trkpt lat="42.735815657666514" lon="2.719150462607491"><ele>229.0</ele><time>2026-04-06T14:35:39Z</time></trkpt><trkpt lat="42.73588077370402" lon="2.7191391554203306"><ele>228.99999999999997</ele><time>2026-04-06T14:35:40Z</time></trkpt><trkpt lat="42.735984065164246" lon="2.7191127864647426"><ele>229.0</ele><time>2026-04-06T14:35:42Z</time></trkpt><trkpt lat="42.73609952934836" lon="2.719103587863921"><ele>229.0</ele><time>2026-04-06T14:35:44Z</time></trkpt><trkpt lat="42.73618088443156" lon="2.719101159542144"><ele>229.0</ele><time>2026-04-06T14:35:45Z</time></trkpt><trkpt lat="42.73625830455411" lon="2.7190943796816756"><ele>228.99999999999997</ele><time>2026-04-06T14:35:46Z</time></trkpt><trkpt lat="42.73632503185098" lon="2.719100727865412"><ele>229.0</ele><time>2026-04-06T14:35:47Z</time></trkpt><trkpt lat="42.73639144441984" lon="2.7190864325052133"><ele>230.6</ele><time>2026-04-06T14:35:48Z</time></trkpt><trkpt lat="42.736488814946455" lon="2.719050453841659"><ele>232.2</ele><time>2026-04-06T14:35:49Z</time></trkpt><trkpt lat="42.73657585995185" lon="2.719023393479448"><ele>233.79999999999998</ele><time>2026-04-06T14:35:50Z</time></trkpt><trkpt lat="42.73668158505593" lon="2.7189983319422777"><ele>235.39999999999998</ele><time>2026-04-06T14:35:51Z</time></trkpt><trkpt lat="42.73677466282715" lon="2.718981071500356"><ele>237.0</ele><time>2026-04-06T14:35:52Z</time></trkpt><trkpt lat="42.73686165273267" lon="2.718966171234232"><ele>238.66666666666666</ele><time>2026-04-06T14:35:53Z</time></trkpt><trkpt lat="42.73693953884462" lon="2.7189402311620827"><ele>240.33333333333331</ele><time>2026-04-06T14:35:54Z</time></trkpt><trkpt lat="42.73700605143718" lon="2.718902697347025"><ele>242.0</ele><time>2026-04-06T14:35:55Z</time></trkpt><trkpt lat="42.73708552271723" lon="2.718869898905792"><ele>243.66666666666666</ele><time>2026-04-06T14:35:56Z</time></trkpt><trkpt lat="42.73716557876683" lon="2.718839189892249"><ele>245.33333333333331</ele><time>2026-04-06T14:35:57Z</time></trkpt><trkpt lat="42.73723884040143" lon="2.7188214996331777"><ele>247.0</ele><time>2026-04-06T14:35:57.999Z</time></trkpt><trkpt lat="42.737316847605534" lon="2.718800574134279"><ele>246.99999999999997</ele><time>2026-04-06T14:35:58.999Z</time></trkpt><trkpt lat="42.73739108910722" lon="2.7187884423037576"><ele>247.0</ele><time>2026-04-06T14:35:59.999Z</time></trkpt><trkpt lat="42.737473932196366" lon="2.7187793760068173"><ele>247.0</ele><time>2026-04-06T14:36:00.999Z</time></trkpt><trkpt lat="42.73754187503861" lon="2.71875302754852"><ele>247.0</ele><time>2026-04-06T14:36:01.999Z</time></trkpt><trkpt lat="42.73762763507123" lon="2.7187122223733726"><ele>246.99999999999997</ele><time>2026-04-06T14:36:02.999Z</time></trkpt><trkpt lat="42.73771533622282" lon="2.7186723504054022"><ele>247.0</ele><time>2026-04-06T14:36:03.999Z</time></trkpt><trkpt lat="42.73780532303481" lon="2.7186325782211562"><ele>245.39999999999998</ele><time>2026-04-06T14:36:04.999Z</time></trkpt><trkpt lat="42.73788688891859" lon="2.7185887316194832"><ele>243.79999999999998</ele><time>2026-04-06T14:36:05.999Z</time></trkpt><trkpt lat="42.73799618567907" lon="2.718566026488711"><ele>242.2</ele><time>2026-04-06T14:36:07.999Z</time></trkpt><trkpt lat="42.73810576363622" lon="2.7185227310891196"><ele>240.6</ele><time>2026-04-06T14:36:09.999Z</time></trkpt><trkpt lat="42.73820041936891" lon="2.7184917875237127"><ele>239.0</ele><time>2026-04-06T14:36:11.999Z</time></trkpt><trkpt lat="42.73826938505566" lon="2.7184495404892135"><ele>238.6</ele><time>2026-04-06T14:36:14.999Z</time></trkpt><trkpt lat="42.738289249543605" lon="2.718359410107817"><ele>238.2</ele><time>2026-04-06T14:38:27.999Z</time></trkpt><trkpt lat="42.738278070393335" lon="2.718180539789278"><ele>237.79999999999998</ele><time>2026-04-06T14:38:29.999Z</time></trkpt><trkpt lat="42.73829254882518" lon="2.718064569360402"><ele>237.39999999999998</ele><time>2026-04-06T14:38:30.999Z</time></trkpt><trkpt lat="42.73831757389463" lon="2.7179497826336565"><ele>237.0</ele><time>2026-04-06T14:38:31.999Z</time></trkpt><trkpt lat="42.73834030078373" lon="2.717824065498331"><ele>238.8</ele><time>2026-04-06T14:38:32.999Z</time></trkpt><trkpt lat="42.73835587348275" lon="2.7176927663845807"><ele>240.6</ele><time>2026-04-06T14:38:35Z</time></trkpt><trkpt lat="42.738367560668" lon="2.717549015895816"><ele>242.40000000000003</ele><time>2026-04-06T14:38:45Z</time></trkpt><trkpt lat="42.738379579132626" lon="2.7174290213673125"><ele>244.20000000000002</ele><time>2026-04-06T14:38:47Z</time></trkpt><trkpt lat="42.73840266870552" lon="2.717291208033417"><ele>246.0</ele><time>2026-04-06T14:38:49Z</time></trkpt><trkpt lat="42.73840447310074" lon="2.7171970691990714"><ele>246.0</ele><time>2026-04-06T14:38:51Z</time></trkpt><trkpt lat="42.738396119809444" lon="2.7170873643402342"><ele>246.00000000000003</ele><time>2026-04-06T14:39:16Z</time></trkpt><trkpt lat="42.73838017884269" lon="2.7169813831284384"><ele>246.00000000000003</ele><time>2026-04-06T14:39:18Z</time></trkpt><trkpt lat="42.738345470105116" lon="2.716842569903434"><ele>246.0</ele><time>2026-04-06T14:39:21Z</time></trkpt><trkpt lat="42.73830703873567" lon="2.716726953334537"><ele>246.0</ele><time>2026-04-06T14:39:23Z</time></trkpt><trkpt lat="42.738269866394106" lon="2.7166141716046472"><ele>247.66666666666666</ele><time>2026-04-06T14:39:25Z</time></trkpt><trkpt lat="42.73829606338417" lon="2.716479701860702"><ele>249.33333333333331</ele><time>2026-04-06T14:39:27Z</time></trkpt><trkpt lat="42.73824888798385" lon="2.71636594633609"><ele>251.0</ele><time>2026-04-06T14:39:30Z</time></trkpt><trkpt lat="42.738217375042616" lon="2.716290427166833"><ele>252.66666666666666</ele><time>2026-04-06T14:39:32Z</time></trkpt><trkpt lat="42.73817884821455" lon="2.7161857188773406"><ele>254.33333333333331</ele><time>2026-04-06T14:39:35Z</time></trkpt><trkpt lat="42.738126038993045" lon="2.716086089396489"><ele>256.0</ele><time>2026-04-06T14:39:37Z</time></trkpt><trkpt lat="42.73808886441837" lon="2.716001035484341"><ele>257.5</ele><time>2026-04-06T14:39:39Z</time></trkpt><trkpt lat="42.73805536509427" lon="2.7158845034649794"><ele>259.0</ele><time>2026-04-06T14:39:41Z</time></trkpt><trkpt lat="42.73807501141424" lon="2.7157910525266016"><ele>260.5</ele><time>2026-04-06T14:39:43Z</time></trkpt><trkpt lat="42.73808695811505" lon="2.715672606227016"><ele>262.0</ele><time>2026-04-06T14:39:45Z</time></trkpt><trkpt lat="42.73807747045063" lon="2.7155564948691473"><ele>263.5</ele><time>2026-04-06T14:39:47Z</time></trkpt><trkpt lat="42.73810348074907" lon="2.7154573443736183"><ele>265.0</ele><time>2026-04-06T14:39:49Z</time></trkpt><trkpt lat="42.738109321661035" lon="2.7153444603333243"><ele>265.66666666666663</ele><time>2026-04-06T14:39:51Z</time></trkpt><trkpt lat="42.738123209331775" lon="2.7152293902176785"><ele>266.3333333333333</ele><time>2026-04-06T14:39:54Z</time></trkpt><trkpt lat="42.73809570953985" lon="2.715133362373025"><ele>267.0</ele><time>2026-04-06T14:39:56Z</time></trkpt><trkpt lat="42.738034783885695" lon="2.7150346458484758"><ele>267.6666666666667</ele><time>2026-04-06T14:47:18Z</time></trkpt><trkpt lat="42.738009148908525" lon="2.714930400616797"><ele>268.33333333333337</ele><time>2026-04-06T14:47:21Z</time></trkpt><trkpt lat="42.73799737893722" lon="2.7148005689249928"><ele>269.0</ele><time>2026-04-06T14:47:25Z</time></trkpt><trkpt lat="42.73797130683362" lon="2.7147082115270376"><ele>269.0</ele><time>2026-04-06T14:47:27Z</time></trkpt><trkpt lat="42.737957268442955" lon="2.7146232313299565"><ele>269.0</ele><time>2026-04-06T14:47:29Z</time></trkpt><trkpt lat="42.73793619076443" lon="2.714530297977168"><ele>269.0</ele><time>2026-04-06T14:47:31Z</time></trkpt><trkpt lat="42.73791917381132" lon="2.7144394635045996"><ele>269.0</ele><time>2026-04-06T14:47:34Z</time></trkpt><trkpt lat="42.7378962702355" lon="2.714347661585299"><ele>269.0</ele><time>2026-04-06T14:47:36Z</time></trkpt><trkpt lat="42.73792419275886" lon="2.7142474611196796"><ele>269.0</ele><time>2026-04-06T14:47:39Z</time></trkpt><trkpt lat="42.73793150736546" lon="2.714143498538045"><ele>269.0</ele><time>2026-04-06T14:47:42Z</time></trkpt><trkpt lat="42.737943165709446" lon="2.714055804200983"><ele>270.5</ele><time>2026-04-06T14:47:44Z</time></trkpt><trkpt lat="42.73796929380219" lon="2.7139417401973747"><ele>272.0</ele><time>2026-04-06T14:47:47Z</time></trkpt><trkpt lat="42.73800481058943" lon="2.713838042810699"><ele>273.5</ele><time>2026-04-06T14:47:50Z</time></trkpt><trkpt lat="42.7380461579693" lon="2.7137368673766025"><ele>275.0</ele><time>2026-04-06T14:47:53Z</time></trkpt><trkpt lat="42.73809817570478" lon="2.7136727521869384"><ele>276.5</ele><time>2026-04-06T14:48:15Z</time></trkpt><trkpt lat="42.73813556230611" lon="2.713589151900548"><ele>278.0</ele><time>2026-04-06T14:48:24Z</time></trkpt><trkpt lat="42.73820032215877" lon="2.713529769706988"><ele>280.5</ele><time>2026-04-06T14:48:48.999Z</time></trkpt><trkpt lat="42.73824335253393" lon="2.7134519144877927"><ele>283.0</ele><time>2026-04-06T14:48:50.999Z</time></trkpt><trkpt lat="42.73828482837863" lon="2.71338320244148"><ele>285.5</ele><time>2026-04-06T14:48:52.999Z</time></trkpt><trkpt lat="42.73834270717348" lon="2.713308300220625"><ele>288.0</ele><time>2026-04-06T14:48:54.999Z</time></trkpt><trkpt lat="42.73840846038867" lon="2.7132409868958574"><ele>290.5</ele><time>2026-04-06T14:48:56.999Z</time></trkpt><trkpt lat="42.73845989657029" lon="2.7131843124844406"><ele>293.0</ele><time>2026-04-06T14:48:58.999Z</time></trkpt><trkpt lat="42.73853124163691" lon="2.7130838893694222"><ele>294.1666666666667</ele><time>2026-04-06T14:49:01.999Z</time></trkpt><trkpt lat="42.73859032566224" lon="2.7130263409952646"><ele>295.33333333333337</ele><time>2026-04-06T14:49:03.999Z</time></trkpt><trkpt lat="42.73867392697231" lon="2.7129639683889524"><ele>296.5</ele><time>2026-04-06T14:49:07Z</time></trkpt><trkpt lat="42.73873288572634" lon="2.712904470908267"><ele>297.6666666666667</ele><time>2026-04-06T14:49:09Z</time></trkpt><trkpt lat="42.73879587016113" lon="2.7128407562686503"><ele>298.8333333333333</ele><time>2026-04-06T14:49:11Z</time></trkpt><trkpt lat="42.73888022419105" lon="2.7127504873745516"><ele>300.0</ele><time>2026-04-06T14:49:13Z</time></trkpt><trkpt lat="42.73896550964154" lon="2.712685625349758"><ele>300.0</ele><time>2026-04-06T14:49:15Z</time></trkpt><trkpt lat="42.739038752037" lon="2.7126346036520985"><ele>300.0</ele><time>2026-04-06T14:49:17Z</time></trkpt><trkpt lat="42.73909616434987" lon="2.712551567766261"><ele>300.0</ele><time>2026-04-06T14:49:19Z</time></trkpt><trkpt lat="42.73914896008183" lon="2.7124561127695137"><ele>300.0</ele><time>2026-04-06T14:49:21Z</time></trkpt><trkpt lat="42.7391885694836" lon="2.712346399881015"><ele>300.0</ele><time>2026-04-06T14:49:23Z</time></trkpt><trkpt lat="42.739220815547114" lon="2.712261945720016"><ele>300.0</ele><time>2026-04-06T14:49:25Z</time></trkpt><trkpt lat="42.73930612851145" lon="2.712173469256039"><ele>300.0</ele><time>2026-04-06T14:49:27Z</time></trkpt><trkpt lat="42.73938460677095" lon="2.7120526517294983"><ele>300.0</ele><time>2026-04-06T14:49:29Z</time></trkpt><trkpt lat="42.739489977324396" lon="2.7119453954298796"><ele>300.0</ele><time>2026-04-06T14:49:31Z</time></trkpt><trkpt lat="42.73953394342343" lon="2.7118404242111147"><ele>300.0</ele><time>2026-04-06T14:49:33Z</time></trkpt><trkpt lat="42.73954823982947" lon="2.7116822244284333"><ele>300.0</ele><time>2026-04-06T14:49:35Z</time></trkpt><trkpt lat="42.739566819227015" lon="2.7115324546685047"><ele>300.0</ele><time>2026-04-06T14:49:37Z</time></trkpt><trkpt lat="42.739557140150296" lon="2.7113790675733638"><ele>300.0</ele><time>2026-04-06T14:49:39Z</time></trkpt><trkpt lat="42.73955187077054" lon="2.7112866975314716"><ele>300.0</ele><time>2026-04-06T14:49:40Z</time></trkpt><trkpt lat="42.739583974038" lon="2.7111680846521846"><ele>300.0</ele><time>2026-04-06T14:49:42Z</time></trkpt><trkpt lat="42.73959457748828" lon="2.7110230771202777"><ele>300.6</ele><time>2026-04-06T14:49:44Z</time></trkpt><trkpt lat="42.739611655025726" lon="2.7108446376830875"><ele>301.2</ele><time>2026-04-06T14:49:46Z</time></trkpt><trkpt lat="42.73962139364807" lon="2.710696232467769"><ele>301.8</ele><time>2026-04-06T14:49:48Z</time></trkpt><trkpt lat="42.739618406131235" lon="2.710565436005455"><ele>302.4</ele><time>2026-04-06T14:49:50Z</time></trkpt><trkpt lat="42.73960260457987" lon="2.7104555408735234"><ele>303.0</ele><time>2026-04-06T14:49:54Z</time></trkpt><trkpt lat="42.73953997064626" lon="2.710386458541154"><ele>303.0</ele><time>2026-04-06T14:49:56Z</time></trkpt><trkpt lat="42.73944552234307" lon="2.7103254493857762"><ele>303.0</ele><time>2026-04-06T14:49:58Z</time></trkpt><trkpt lat="42.7393565718003" lon="2.710203183675507"><ele>303.0</ele><time>2026-04-06T14:50:00Z</time></trkpt><trkpt lat="42.7393007419349" lon="2.710139162838856"><ele>303.0</ele><time>2026-04-06T14:50:01Z</time></trkpt><trkpt lat="42.73920953354803" lon="2.7100334837509585"><ele>303.0</ele><time>2026-04-06T14:50:03Z</time></trkpt><trkpt lat="42.739100743283124" lon="2.7099547137599966"><ele>306.0</ele><time>2026-04-06T14:50:05Z</time></trkpt><trkpt lat="42.739043013325286" lon="2.709909915978728"><ele>309.0</ele><time>2026-04-06T14:50:06Z</time></trkpt><trkpt lat="42.73893202129008" lon="2.709836001423985"><ele>312.0</ele><time>2026-04-06T14:50:08Z</time></trkpt><trkpt lat="42.73881369447974" lon="2.709773621367048"><ele>315.0</ele><time>2026-04-06T14:50:10Z</time></trkpt><trkpt lat="42.73870722122805" lon="2.7097057648079756"><ele>318.0</ele><time>2026-04-06T14:50:12Z</time></trkpt><trkpt lat="42.738637843906375" lon="2.70964602982794"><ele>318.0</ele><time>2026-04-06T14:50:14Z</time></trkpt><trkpt lat="42.738583572773685" lon="2.709570311857786"><ele>318.0</ele><time>2026-04-06T14:50:16Z</time></trkpt><trkpt lat="42.73854570203059" lon="2.709444219437058"><ele>318.0</ele><time>2026-04-06T14:50:18Z</time></trkpt><trkpt lat="42.73855261353185" lon="2.7092954888310676"><ele>318.0</ele><time>2026-04-06T14:50:20Z</time></trkpt><trkpt lat="42.738571862232575" lon="2.7092095254579456"><ele>318.0</ele><time>2026-04-06T14:50:21Z</time></trkpt><trkpt lat="42.738627609997394" lon="2.7091017938092685"><ele>316.6</ele><time>2026-04-06T14:50:23Z</time></trkpt><trkpt lat="42.73870305648117" lon="2.709047584474535"><ele>315.20000000000005</ele><time>2026-04-06T14:50:25Z</time></trkpt><trkpt lat="42.73876422833804" lon="2.708965152070324"><ele>313.8</ele><time>2026-04-06T14:50:27Z</time></trkpt><trkpt lat="42.73875856146871" lon="2.7088379870790518"><ele>312.40000000000003</ele><time>2026-04-06T14:50:29Z</time></trkpt><trkpt lat="42.738691735906905" lon="2.708723706513185"><ele>311.0</ele><time>2026-04-06T14:50:31Z</time></trkpt><trkpt lat="42.7386115544727" lon="2.7086288063356845"><ele>311.5</ele><time>2026-04-06T14:50:33Z</time></trkpt><trkpt lat="42.73857039716416" lon="2.708516698511261"><ele>312.0</ele><time>2026-04-06T14:50:34.999Z</time></trkpt><trkpt lat="42.73853175083865" lon="2.708396563755565"><ele>312.5</ele><time>2026-04-06T14:50:36.999Z</time></trkpt><trkpt lat="42.738466975212695" lon="2.7082758848585877"><ele>313.0</ele><time>2026-04-06T14:50:38.999Z</time></trkpt><trkpt lat="42.73843031034039" lon="2.7081943372208794"><ele>313.5</ele><time>2026-04-06T14:50:39.999Z</time></trkpt><trkpt lat="42.738402395744764" lon="2.7081155695580037"><ele>314.0</ele><time>2026-04-06T14:50:40.999Z</time></trkpt><trkpt lat="42.738359599445104" lon="2.708002171666332"><ele>314.0</ele><time>2026-04-06T14:50:42.999Z</time></trkpt><trkpt lat="42.73832797038379" lon="2.7079190436375327"><ele>314.0</ele><time>2026-04-06T14:50:43.999Z</time></trkpt><trkpt lat="42.73830324849224" lon="2.707824196816392"><ele>314.0</ele><time>2026-04-06T14:50:44.999Z</time></trkpt><trkpt lat="42.73828599536344" lon="2.707684664671636"><ele>314.0</ele><time>2026-04-06T14:50:46.999Z</time></trkpt><trkpt lat="42.73824737205454" lon="2.7076164534175646"><ele>314.0</ele><time>2026-04-06T14:50:48.999Z</time></trkpt><trkpt lat="42.73816106917089" lon="2.7075635006182077"><ele>314.0</ele><time>2026-04-06T14:50:50.999Z</time></trkpt><trkpt lat="42.73805216612942" lon="2.707577372847922"><ele>314.2</ele><time>2026-04-06T14:50:52.999Z</time></trkpt><trkpt lat="42.737943297776525" lon="2.7075728476949124"><ele>314.4</ele><time>2026-04-06T14:50:54.999Z</time></trkpt><trkpt lat="42.73783858256378" lon="2.707524897910802"><ele>314.6</ele><time>2026-04-06T14:50:56.999Z</time></trkpt><trkpt lat="42.737743575312365" lon="2.7074760375591937"><ele>314.8</ele><time>2026-04-06T14:50:58.999Z</time></trkpt><trkpt lat="42.73767568364595" lon="2.707409803765974"><ele>315.0</ele><time>2026-04-06T14:51:00.999Z</time></trkpt><trkpt lat="42.73762480275903" lon="2.7073514313271816"><ele>314.6666666666667</ele><time>2026-04-06T14:51:21Z</time></trkpt><trkpt lat="42.73752424922861" lon="2.707307281609903"><ele>314.3333333333333</ele><time>2026-04-06T14:51:23Z</time></trkpt><trkpt lat="42.73744384002951" lon="2.707309527258644"><ele>314.0</ele><time>2026-04-06T14:51:25Z</time></trkpt><trkpt lat="42.73734947738972" lon="2.7073067807651343"><ele>313.66666666666663</ele><time>2026-04-06T14:51:27Z</time></trkpt><trkpt lat="42.73727976048725" lon="2.707277400334248"><ele>313.3333333333333</ele><time>2026-04-06T14:51:29Z</time></trkpt><trkpt lat="42.73720501875507" lon="2.7071966930671665"><ele>313.0</ele><time>2026-04-06T14:51:32Z</time></trkpt><trkpt lat="42.73716838650544" lon="2.707115103381293"><ele>313.0</ele><time>2026-04-06T14:51:34Z</time></trkpt><trkpt lat="42.73707206777064" lon="2.7071144330376162"><ele>313.0</ele><time>2026-04-06T14:51:36Z</time></trkpt><trkpt lat="42.73698794757289" lon="2.707105645728263"><ele>313.0</ele><time>2026-04-06T14:51:38Z</time></trkpt><trkpt lat="42.736894521089205" lon="2.707097097296309"><ele>313.0</ele><time>2026-04-06T14:51:40Z</time></trkpt><trkpt lat="42.736812271900206" lon="2.7070864125783225"><ele>313.0</ele><time>2026-04-06T14:51:42Z</time></trkpt><trkpt lat="42.73674342178722" lon="2.7070306624379454"><ele>313.0</ele><time>2026-04-06T14:51:44Z</time></trkpt><trkpt lat="42.73669246824011" lon="2.7069767503903392"><ele>313.16666666666663</ele><time>2026-04-06T14:51:46Z</time></trkpt><trkpt lat="42.73661703543437" lon="2.7069471911417673"><ele>313.3333333333333</ele><time>2026-04-06T14:51:48Z</time></trkpt><trkpt lat="42.73653507047927" lon="2.706913271729149"><ele>313.5</ele><time>2026-04-06T14:51:51Z</time></trkpt><trkpt lat="42.736468256483406" lon="2.7069141318895085"><ele>313.6666666666667</ele><time>2026-04-06T14:51:53Z</time></trkpt><trkpt lat="42.73640999341658" lon="2.706858455532841"><ele>313.83333333333337</ele><time>2026-04-06T14:51:55Z</time></trkpt><trkpt lat="42.73634336768839" lon="2.706808556100704"><ele>314.0</ele><time>2026-04-06T14:51:57Z</time></trkpt><trkpt lat="42.73627033515096" lon="2.706768879503792"><ele>317.5</ele><time>2026-04-06T14:51:59Z</time></trkpt><trkpt lat="42.736229313730874" lon="2.7066972933565308"><ele>321.0</ele><time>2026-04-06T14:52:01Z</time></trkpt><trkpt lat="42.73621063874609" lon="2.706575056541656"><ele>324.5</ele><time>2026-04-06T14:52:03Z</time></trkpt><trkpt lat="42.736147612587885" lon="2.7064381781599782"><ele>328.0</ele><time>2026-04-06T14:52:06Z</time></trkpt><trkpt lat="42.736105145544414" lon="2.706354515470016"><ele>331.5</ele><time>2026-04-06T14:52:08Z</time></trkpt><trkpt lat="42.73605891492096" lon="2.70629074106819"><ele>335.0</ele><time>2026-04-06T14:52:10Z</time></trkpt><trkpt lat="42.73599159335271" lon="2.706236509293179"><ele>335.8</ele><time>2026-04-06T14:52:12Z</time></trkpt><trkpt lat="42.73588933986251" lon="2.706178622224101"><ele>336.6</ele><time>2026-04-06T14:52:14Z</time></trkpt><trkpt lat="42.735816843466594" lon="2.706151041681793"><ele>337.4</ele><time>2026-04-06T14:52:16Z</time></trkpt><trkpt lat="42.7357446640741" lon="2.706154786730157"><ele>338.2</ele><time>2026-04-06T14:52:18Z</time></trkpt><trkpt lat="42.73563843900415" lon="2.7061085811333214"><ele>339.0</ele><time>2026-04-06T14:52:20Z</time></trkpt><trkpt lat="42.73554683411512" lon="2.7060889017730516"><ele>341.0</ele><time>2026-04-06T14:52:22Z</time></trkpt><trkpt lat="42.735479955568614" lon="2.7060286929772768"><ele>343.0</ele><time>2026-04-06T14:52:24Z</time></trkpt><trkpt lat="42.735460600108716" lon="2.70592781035853"><ele>345.0</ele><time>2026-04-06T14:52:26Z</time></trkpt><trkpt lat="42.73543891872076" lon="2.705804202214084"><ele>347.0</ele><time>2026-04-06T14:52:28Z</time></trkpt><trkpt lat="42.73541224270945" lon="2.7057115393417654"><ele>349.0</ele><time>2026-04-06T14:52:30Z</time></trkpt><trkpt lat="42.735367887811584" lon="2.705650334611731"><ele>351.0</ele><time>2026-04-06T14:52:38Z</time></trkpt><trkpt lat="42.735299951864214" lon="2.705625150530316"><ele>351.20000000000005</ele><time>2026-04-06T15:10:26Z</time></trkpt><trkpt lat="42.73521286409335" lon="2.7055812741660015"><ele>351.40000000000003</ele><time>2026-04-06T15:10:29Z</time></trkpt><trkpt lat="42.73513570506824" lon="2.7055265192894584"><ele>351.6</ele><time>2026-04-06T15:10:32Z</time></trkpt><trkpt lat="42.73504822355735" lon="2.7054663315251393"><ele>351.8</ele><time>2026-04-06T15:10:35Z</time></trkpt><trkpt lat="42.73496958483031" lon="2.705413071413593"><ele>352.0</ele><time>2026-04-06T15:10:37Z</time></trkpt><trkpt lat="42.734894826538245" lon="2.70534360392777"><ele>352.0</ele><time>2026-04-06T15:10:39Z</time></trkpt><trkpt lat="42.734738175009" lon="2.7052812935517903"><ele>352.0</ele><time>2026-04-06T15:10:43Z</time></trkpt><trkpt lat="42.734638036455564" lon="2.705246393206078"><ele>352.0</ele><time>2026-04-06T15:10:45Z</time></trkpt><trkpt lat="42.7345631173973" lon="2.7052536023641345"><ele>352.0</ele><time>2026-04-06T15:10:47Z</time></trkpt><trkpt lat="42.73452864178153" lon="2.7051423889444313"><ele>352.0</ele><time>2026-04-06T15:10:50Z</time></trkpt><trkpt lat="42.734559722450214" lon="2.7050166734384264"><ele>355.6</ele><time>2026-04-06T15:10:52Z</time></trkpt><trkpt lat="42.73456827436491" lon="2.704894457783061"><ele>359.20000000000005</ele><time>2026-04-06T15:10:54Z</time></trkpt><trkpt lat="42.734580542792244" lon="2.70476043142259"><ele>362.8</ele><time>2026-04-06T15:10:56Z</time></trkpt><trkpt lat="42.734615634043955" lon="2.704652542462142"><ele>366.4</ele><time>2026-04-06T15:10:58Z</time></trkpt><trkpt lat="42.73463854107711" lon="2.7045383062116852"><ele>370.0</ele><time>2026-04-06T15:11:01Z</time></trkpt><trkpt lat="42.73464459387918" lon="2.7044042612634263"><ele>371.16666666666663</ele><time>2026-04-06T15:11:04Z</time></trkpt><trkpt lat="42.734666825620764" lon="2.704262496175631"><ele>372.3333333333333</ele><time>2026-04-06T15:11:06Z</time></trkpt><trkpt lat="42.73467224483979" lon="2.7041757141078153"><ele>373.5</ele><time>2026-04-06T15:11:08Z</time></trkpt><trkpt lat="42.73468003554536" lon="2.704038494969436"><ele>374.6666666666667</ele><time>2026-04-06T15:11:10Z</time></trkpt><trkpt lat="42.73473048761017" lon="2.703937787503047"><ele>375.83333333333337</ele><time>2026-04-06T15:11:12Z</time></trkpt><trkpt lat="42.734744546276985" lon="2.7038505963501427"><ele>377.0</ele><time>2026-04-06T15:11:14Z</time></trkpt><trkpt lat="42.734783507317196" lon="2.7037721732363167"><ele>377.0</ele><time>2026-04-06T15:11:16Z</time></trkpt><trkpt lat="42.73484207449731" lon="2.7037230142838307"><ele>377.0</ele><time>2026-04-06T15:11:17Z</time></trkpt><trkpt lat="42.73496138171934" lon="2.7036870039976457"><ele>377.0</ele><time>2026-04-06T15:11:19Z</time></trkpt><trkpt lat="42.735005806773565" lon="2.7035732601185467"><ele>377.0</ele><time>2026-04-06T15:11:21Z</time></trkpt><trkpt lat="42.735058335261094" lon="2.7034397304496522"><ele>377.0</ele><time>2026-04-06T15:11:23Z</time></trkpt><trkpt lat="42.73511865556083" lon="2.7033330481291533"><ele>376.1666666666667</ele><time>2026-04-06T15:11:25Z</time></trkpt><trkpt lat="42.73514135034443" lon="2.703225423809973"><ele>375.33333333333337</ele><time>2026-04-06T15:11:27Z</time></trkpt><trkpt lat="42.73520629595819" lon="2.7031225266492553"><ele>374.5</ele><time>2026-04-06T15:11:30Z</time></trkpt><trkpt lat="42.735236988203035" lon="2.7029852754480745"><ele>373.6666666666667</ele><time>2026-04-06T15:11:32Z</time></trkpt><trkpt lat="42.73525070028783" lon="2.702890414884886"><ele>372.8333333333333</ele><time>2026-04-06T15:11:34Z</time></trkpt><trkpt lat="42.73527458552618" lon="2.7027922304095497"><ele>372.0</ele><time>2026-04-06T15:11:36Z</time></trkpt><trkpt lat="42.735305504602515" lon="2.7026998627027488"><ele>370.8333333333333</ele><time>2026-04-06T15:11:38Z</time></trkpt><trkpt lat="42.735339561464464" lon="2.7026014677333015"><ele>369.6666666666667</ele><time>2026-04-06T15:11:40Z</time></trkpt><trkpt lat="42.735391105868636" lon="2.702499742870584"><ele>368.5</ele><time>2026-04-06T15:11:42Z</time></trkpt><trkpt lat="42.73546645194912" lon="2.702371279352954"><ele>367.33333333333337</ele><time>2026-04-06T15:11:44Z</time></trkpt><trkpt lat="42.73550550785263" lon="2.702294201174315"><ele>366.1666666666667</ele><time>2026-04-06T15:11:45Z</time></trkpt><trkpt lat="42.735551107820704" lon="2.7021967591713536"><ele>365.0</ele><time>2026-04-06T15:11:46Z</time></trkpt><trkpt lat="42.735595187879525" lon="2.7021122501025543"><ele>365.0</ele><time>2026-04-06T15:11:47Z</time></trkpt><trkpt lat="42.735638004413" lon="2.7020152978953154"><ele>365.0</ele><time>2026-04-06T15:11:48.999Z</time></trkpt><trkpt lat="42.73564243110653" lon="2.7019071547248354"><ele>365.0</ele><time>2026-04-06T15:11:51.999Z</time></trkpt><trkpt lat="42.7356227087048" lon="2.7018223989045422"><ele>365.0</ele><time>2026-04-06T15:11:54.999Z</time></trkpt><trkpt lat="42.73564056286489" lon="2.701697898783903"><ele>365.0</ele><time>2026-04-06T15:11:57.999Z</time></trkpt><trkpt lat="42.735674161688564" lon="2.701592527590287"><ele>365.0</ele><time>2026-04-06T15:11:59.999Z</time></trkpt><trkpt lat="42.735692867368584" lon="2.7014760419245603"><ele>364.5</ele><time>2026-04-06T15:12:01.999Z</time></trkpt><trkpt lat="42.735686790174874" lon="2.7013701729256123"><ele>364.0</ele><time>2026-04-06T15:12:03.999Z</time></trkpt><trkpt lat="42.73569776974902" lon="2.701269653306336"><ele>363.5</ele><time>2026-04-06T15:12:05.999Z</time></trkpt><trkpt lat="42.73571472476808" lon="2.701175014050047"><ele>363.0</ele><time>2026-04-06T15:12:07.999Z</time></trkpt><trkpt lat="42.73572115828489" lon="2.701027956719388"><ele>362.5</ele><time>2026-04-06T15:12:11Z</time></trkpt><trkpt lat="42.73570022701116" lon="2.700897174678276"><ele>362.0</ele><time>2026-04-06T15:12:13Z</time></trkpt><trkpt lat="42.73567087728178" lon="2.7007872024087844"><ele>360.5</ele><time>2026-04-06T15:12:15Z</time></trkpt><trkpt lat="42.735651198500506" lon="2.7006856082355664"><ele>359.0</ele><time>2026-04-06T15:12:17Z</time></trkpt><trkpt lat="42.73564263371987" lon="2.700551966361576"><ele>357.5</ele><time>2026-04-06T15:12:19Z</time></trkpt><trkpt lat="42.73562342678115" lon="2.7004167881987517"><ele>356.0</ele><time>2026-04-06T15:12:21Z</time></trkpt><trkpt lat="42.73559957884889" lon="2.700305342899831"><ele>354.5</ele><time>2026-04-06T15:12:23Z</time></trkpt><trkpt lat="42.73560117430106" lon="2.700204615861817"><ele>353.0</ele><time>2026-04-06T15:12:25Z</time></trkpt><trkpt lat="42.73560236592139" lon="2.7000889558123453"><ele>352.1428571428571</ele><time>2026-04-06T15:12:27Z</time></trkpt><trkpt lat="42.73559619306119" lon="2.6999883601201797"><ele>351.28571428571433</ele><time>2026-04-06T15:12:30Z</time></trkpt><trkpt lat="42.73555127303445" lon="2.6999163460171434"><ele>350.42857142857144</ele><time>2026-04-06T15:13:02Z</time></trkpt><trkpt lat="42.73549770172964" lon="2.6998650574163863"><ele>349.57142857142856</ele><time>2026-04-06T15:13:23Z</time></trkpt><trkpt lat="42.73544765271308" lon="2.6997980483318904"><ele>348.71428571428567</ele><time>2026-04-06T15:13:41Z</time></trkpt><trkpt lat="42.735384486993546" lon="2.6997765589519522"><ele>347.8571428571429</ele><time>2026-04-06T15:13:55.999Z</time></trkpt><trkpt lat="42.7353197380612" lon="2.699779685869593"><ele>347.0</ele><time>2026-04-06T15:14:02.999Z</time></trkpt><trkpt lat="42.7352998599293" lon="2.6996844867981356"><ele>347.0</ele><time>2026-04-06T15:14:04.999Z</time></trkpt><trkpt lat="42.735258480033345" lon="2.699751461057662"><ele>347.0</ele><time>2026-04-06T15:15:27Z</time></trkpt><trkpt lat="42.73518146142301" lon="2.699737801654699"><ele>347.0</ele><time>2026-04-06T15:15:47.999Z</time></trkpt><trkpt lat="42.73510337316521" lon="2.699695982187387"><ele>347.0</ele><time>2026-04-06T15:16:38Z</time></trkpt><trkpt lat="42.73504639537798" lon="2.699658243269798"><ele>347.0</ele><time>2026-04-06T15:17:46Z</time></trkpt><trkpt lat="42.73498927872408" lon="2.6996113425963832"><ele>347.0</ele><time>2026-04-06T15:18:45Z</time></trkpt><trkpt lat="42.73494388272052" lon="2.6995412216887047"><ele>347.0</ele><time>2026-04-06T15:18:52Z</time></trkpt><trkpt lat="42.734897999890116" lon="2.6994629080023302"><ele>345.83333333333337</ele><time>2026-04-06T15:19:12Z</time></trkpt><trkpt lat="42.73484879817267" lon="2.6993998030208672"><ele>344.6666666666667</ele><time>2026-04-06T15:19:14Z</time></trkpt><trkpt lat="42.73478201217928" lon="2.69934093539968"><ele>343.5</ele><time>2026-04-06T15:19:16Z</time></trkpt><trkpt lat="42.734694747858775" lon="2.699264151648507"><ele>342.3333333333333</ele><time>2026-04-06T15:19:18Z</time></trkpt><trkpt lat="42.734656653871745" lon="2.699180170363638"><ele>341.16666666666663</ele><time>2026-04-06T15:19:21Z</time></trkpt><trkpt lat="42.734716586986394" lon="2.699093435605034"><ele>340.0</ele><time>2026-04-06T15:19:23Z</time></trkpt><trkpt lat="42.73479031319067" lon="2.6990782709745096"><ele>340.0</ele><time>2026-04-06T15:19:25Z</time></trkpt><trkpt lat="42.734869509404355" lon="2.6990540838698727"><ele>340.0</ele><time>2026-04-06T15:19:28Z</time></trkpt><trkpt lat="42.73496132606992" lon="2.699015267736806"><ele>340.0</ele><time>2026-04-06T15:19:36Z</time></trkpt><trkpt lat="42.73500487077352" lon="2.6989234335029764"><ele>340.0</ele><time>2026-04-06T15:19:38Z</time></trkpt><trkpt lat="42.73506930575916" lon="2.698815608070288"><ele>340.0</ele><time>2026-04-06T15:19:41Z</time></trkpt><trkpt lat="42.73515089267958" lon="2.6987798886357437"><ele>340.0</ele><time>2026-04-06T15:19:43Z</time></trkpt><trkpt lat="42.735224362465296" lon="2.698766736082364"><ele>340.8333333333333</ele><time>2026-04-06T15:19:45Z</time></trkpt><trkpt lat="42.73526130272638" lon="2.6986929803777215"><ele>341.66666666666663</ele><time>2026-04-06T15:19:48Z</time></trkpt><trkpt lat="42.73532729479784" lon="2.698647939482903"><ele>342.5</ele><time>2026-04-06T15:19:50Z</time></trkpt><trkpt lat="42.73540822698193" lon="2.698650555445948"><ele>343.3333333333333</ele><time>2026-04-06T15:19:53Z</time></trkpt><trkpt lat="42.73550085549306" lon="2.698642351099141"><ele>344.1666666666667</ele><time>2026-04-06T15:19:55Z</time></trkpt><trkpt lat="42.73555209020828" lon="2.698569917247738"><ele>345.0</ele><time>2026-04-06T15:19:56.999Z</time></trkpt><trkpt lat="42.7356116802427" lon="2.698503781187369"><ele>345.3333333333333</ele><time>2026-04-06T15:19:58.999Z</time></trkpt><trkpt lat="42.73569229895968" lon="2.6985014477281597"><ele>345.6666666666667</ele><time>2026-04-06T15:20:00.999Z</time></trkpt><trkpt lat="42.73577473341713" lon="2.698436752520922"><ele>346.0</ele><time>2026-04-06T15:20:02.999Z</time></trkpt><trkpt lat="42.73579486659491" lon="2.698324062095081"><ele>346.33333333333337</ele><time>2026-04-06T15:20:04.999Z</time></trkpt><trkpt lat="42.735811229697504" lon="2.698194007835322"><ele>346.6666666666667</ele><time>2026-04-06T15:20:05.999Z</time></trkpt><trkpt lat="42.73577553476969" lon="2.698104455286715"><ele>347.0</ele><time>2026-04-06T15:20:06.999Z</time></trkpt><trkpt lat="42.73573495758055" lon="2.698025410425928"><ele>347.0</ele><time>2026-04-06T15:20:08.999Z</time></trkpt><trkpt lat="42.735676464306714" lon="2.6979325220900168"><ele>347.0</ele><time>2026-04-06T15:20:10.999Z</time></trkpt><trkpt lat="42.73558872638063" lon="2.69780523140602"><ele>347.0</ele><time>2026-04-06T15:20:12.999Z</time></trkpt><trkpt lat="42.73553188386531" lon="2.6977109029080277"><ele>347.0</ele><time>2026-04-06T15:20:15.999Z</time></trkpt><trkpt lat="42.735464892266634" lon="2.697622008836856"><ele>347.0</ele><time>2026-04-06T15:20:17.999Z</time></trkpt><trkpt lat="42.735416293877456" lon="2.6975652507309813"><ele>348.5</ele><time>2026-04-06T15:20:18.999Z</time></trkpt><trkpt lat="42.73532784619825" lon="2.697484444068922"><ele>350.0</ele><time>2026-04-06T15:20:20.999Z</time></trkpt><trkpt lat="42.7352651662725" lon="2.6973790570139315"><ele>351.5</ele><time>2026-04-06T15:20:22.999Z</time></trkpt><trkpt lat="42.73521110453472" lon="2.697297437513045"><ele>353.0</ele><time>2026-04-06T15:20:24.999Z</time></trkpt><trkpt lat="42.73514145338428" lon="2.6973122468171566"><ele>354.5</ele><time>2026-04-06T15:20:25.999Z</time></trkpt><trkpt lat="42.73507590017016" lon="2.6972856489483283"><ele>356.0</ele><time>2026-04-06T15:20:26.999Z</time></trkpt><trkpt lat="42.73497493921904" lon="2.6972524244495406"><ele>356.0</ele><time>2026-04-06T15:20:28.999Z</time></trkpt><trkpt lat="42.73490867229916" lon="2.697228379259998"><ele>356.0</ele><time>2026-04-06T15:20:30.999Z</time></trkpt><trkpt lat="42.73485793854007" lon="2.697162927011439"><ele>356.0</ele><time>2026-04-06T15:20:32.999Z</time></trkpt><trkpt lat="42.73478332053162" lon="2.697127920622641"><ele>356.0</ele><time>2026-04-06T15:20:35Z</time></trkpt><trkpt lat="42.73464744879855" lon="2.697070772463069"><ele>356.0</ele><time>2026-04-06T15:20:38Z</time></trkpt><trkpt lat="42.73457093552037" lon="2.6970511263858516"><ele>356.0</ele><time>2026-04-06T15:20:39Z</time></trkpt><trkpt lat="42.73454605390187" lon="2.6969722008728887"><ele>356.0</ele><time>2026-04-06T15:20:41Z</time></trkpt><trkpt lat="42.73448504920097" lon="2.6969303470915515"><ele>356.0</ele><time>2026-04-06T15:20:43Z</time></trkpt><trkpt lat="42.73443016423345" lon="2.6968857694709554"><ele>356.0</ele><time>2026-04-06T15:20:50Z</time></trkpt><trkpt lat="42.73434632179987" lon="2.696843293883173"><ele>356.0</ele><time>2026-04-06T15:20:55Z</time></trkpt><trkpt lat="42.73427034067364" lon="2.696785599933943"><ele>356.0</ele><time>2026-04-06T15:20:58Z</time></trkpt><trkpt lat="42.73420647515143" lon="2.6967275710984815"><ele>356.0</ele><time>2026-04-06T15:21:00Z</time></trkpt><trkpt lat="42.734150380943746" lon="2.696685113144938"><ele>359.4</ele><time>2026-04-06T15:21:03Z</time></trkpt><trkpt lat="42.734072400263855" lon="2.696611864144134"><ele>362.8</ele><time>2026-04-06T15:21:06Z</time></trkpt><trkpt lat="42.73401605436043" lon="2.696519393284484"><ele>366.2</ele><time>2026-04-06T15:21:09Z</time></trkpt><trkpt lat="42.73396434811724" lon="2.696417981140643"><ele>369.59999999999997</ele><time>2026-04-06T15:21:12Z</time></trkpt><trkpt lat="42.733908710969324" lon="2.6963042979506704"><ele>373.0</ele><time>2026-04-06T15:21:14Z</time></trkpt><trkpt lat="42.73386301503551" lon="2.696210903767022"><ele>373.0</ele><time>2026-04-06T15:21:16Z</time></trkpt><trkpt lat="42.73382996855122" lon="2.6961362636373014"><ele>373.0</ele><time>2026-04-06T15:21:18Z</time></trkpt><trkpt lat="42.733750197809975" lon="2.6960126560203377"><ele>373.0</ele><time>2026-04-06T15:21:20Z</time></trkpt><trkpt lat="42.73370275944951" lon="2.6959106573637164"><ele>373.0</ele><time>2026-04-06T15:21:23Z</time></trkpt><trkpt lat="42.73364586316422" lon="2.695862365940718"><ele>373.0</ele><time>2026-04-06T15:21:24Z</time></trkpt><trkpt lat="42.73359003140106" lon="2.6957393712364"><ele>373.0</ele><time>2026-04-06T15:21:26Z</time></trkpt><trkpt lat="42.733535043646626" lon="2.6956741805945112"><ele>373.3333333333333</ele><time>2026-04-06T15:21:27Z</time></trkpt><trkpt lat="42.733483495386764" lon="2.6956037709830696"><ele>373.66666666666663</ele><time>2026-04-06T15:21:28Z</time></trkpt><trkpt lat="42.733390664008425" lon="2.6955082822641803"><ele>374.0</ele><time>2026-04-06T15:21:30Z</time></trkpt><trkpt lat="42.73332385549958" lon="2.695440776912303"><ele>374.3333333333333</ele><time>2026-04-06T15:21:31Z</time></trkpt><trkpt lat="42.73327038044666" lon="2.6953807902893083"><ele>374.6666666666667</ele><time>2026-04-06T15:21:32Z</time></trkpt><trkpt lat="42.73319715911564" lon="2.695297897157525"><ele>375.0</ele><time>2026-04-06T15:21:34Z</time></trkpt><trkpt lat="42.73312010127644" lon="2.695217150959312"><ele>378.8</ele><time>2026-04-06T15:21:36Z</time></trkpt><trkpt lat="42.73303823963117" lon="2.6951211029874362"><ele>382.6</ele><time>2026-04-06T15:21:38Z</time></trkpt><trkpt lat="42.73295843381019" lon="2.6949995030478147"><ele>386.4</ele><time>2026-04-06T15:21:40Z</time></trkpt><trkpt lat="42.73291409319421" lon="2.694930821155522"><ele>390.2</ele><time>2026-04-06T15:21:41Z</time></trkpt><trkpt lat="42.73284624286007" lon="2.6948238852729625"><ele>394.0</ele><time>2026-04-06T15:21:43Z</time></trkpt><trkpt lat="42.73276680381838" lon="2.694691903310765"><ele>393.4</ele><time>2026-04-06T15:21:45Z</time></trkpt><trkpt lat="42.73268481169654" lon="2.694575224383544"><ele>392.79999999999995</ele><time>2026-04-06T15:21:47Z</time></trkpt><trkpt lat="42.732603716923656" lon="2.694472342244008"><ele>392.20000000000005</ele><time>2026-04-06T15:21:48Z</time></trkpt><trkpt lat="42.73254724965396" lon="2.694390550966576"><ele>391.6</ele><time>2026-04-06T15:21:49Z</time></trkpt><trkpt lat="42.73250642134564" lon="2.694310140986538"><ele>391.0</ele><time>2026-04-06T15:21:50Z</time></trkpt><trkpt lat="42.732433635479666" lon="2.694140066274469"><ele>391.00000000000006</ele><time>2026-04-06T15:21:52Z</time></trkpt><trkpt lat="42.732379678643" lon="2.6940362757197294"><ele>391.0</ele><time>2026-04-06T15:21:54Z</time></trkpt><trkpt lat="42.732311634940295" lon="2.693949766378935"><ele>391.0</ele><time>2026-04-06T15:21:56Z</time></trkpt><trkpt lat="42.73226834130165" lon="2.693872925582269"><ele>391.0</ele><time>2026-04-06T15:21:57Z</time></trkpt><trkpt lat="42.732223649046304" lon="2.6937955097272375"><ele>391.00000000000006</ele><time>2026-04-06T15:21:58Z</time></trkpt><trkpt lat="42.73217490728195" lon="2.6936990557216407"><ele>391.0</ele><time>2026-04-06T15:21:59Z</time></trkpt><trkpt lat="42.732135119796396" lon="2.6936272283984235"><ele>391.4</ele><time>2026-04-06T15:22:00Z</time></trkpt><trkpt lat="42.73204984900381" lon="2.6935068846946977"><ele>391.8</ele><time>2026-04-06T15:22:01.999Z</time></trkpt><trkpt lat="42.73198365861254" lon="2.6934180201387066"><ele>392.2</ele><time>2026-04-06T15:22:02.999Z</time></trkpt><trkpt lat="42.73192560956585" lon="2.693322704068671"><ele>392.59999999999997</ele><time>2026-04-06T15:22:03.999Z</time></trkpt><trkpt lat="42.73188168079588" lon="2.693257433768389"><ele>393.0</ele><time>2026-04-06T15:22:04.999Z</time></trkpt><trkpt lat="42.73178948448358" lon="2.6931419989771577"><ele>393.0</ele><time>2026-04-06T15:22:06.999Z</time></trkpt><trkpt lat="42.731728624240496" lon="2.6930866919927254"><ele>393.0</ele><time>2026-04-06T15:22:07.999Z</time></trkpt><trkpt lat="42.73166738524404" lon="2.693043786366257"><ele>393.0</ele><time>2026-04-06T15:22:08.999Z</time></trkpt><trkpt lat="42.73155820630639" lon="2.69298680658535"><ele>393.0</ele><time>2026-04-06T15:22:10.999Z</time></trkpt><trkpt lat="42.73147598722186" lon="2.6929727061084425"><ele>393.0</ele><time>2026-04-06T15:22:11.999Z</time></trkpt><trkpt lat="42.73136538523895" lon="2.6929668688949144"><ele>393.0</ele><time>2026-04-06T15:22:13.999Z</time></trkpt><trkpt lat="42.73137238985502" lon="2.692847592197357"><ele>393.0</ele><time>2026-04-06T15:22:44Z</time></trkpt><trkpt lat="42.731406154733676" lon="2.692756448157604"><ele>393.0</ele><time>2026-04-06T15:22:46Z</time></trkpt><trkpt lat="42.731454302058346" lon="2.6926611157719775"><ele>393.0</ele><time>2026-04-06T15:22:48Z</time></trkpt><trkpt lat="42.73147553409265" lon="2.6925420337937163"><ele>393.0</ele><time>2026-04-06T15:22:50Z</time></trkpt><trkpt lat="42.731502405621136" lon="2.6924496952231767"><ele>393.0</ele><time>2026-04-06T15:22:52Z</time></trkpt><trkpt lat="42.73153916374187" lon="2.692334991425556"><ele>393.3333333333333</ele><time>2026-04-06T15:22:54Z</time></trkpt><trkpt lat="42.7315585573507" lon="2.6922302198731267"><ele>393.66666666666663</ele><time>2026-04-06T15:22:56Z</time></trkpt><trkpt lat="42.73157850481149" lon="2.6921321568016774"><ele>394.0</ele><time>2026-04-06T15:22:58Z</time></trkpt><trkpt lat="42.73159803680484" lon="2.6920237408038656"><ele>394.3333333333333</ele><time>2026-04-06T15:23:00Z</time></trkpt><trkpt lat="42.731633027918726" lon="2.691915562396879"><ele>394.66666666666663</ele><time>2026-04-06T15:23:02Z</time></trkpt><trkpt lat="42.731670724098194" lon="2.6918158093652114"><ele>395.0</ele><time>2026-04-06T15:23:04Z</time></trkpt><trkpt lat="42.731710272449824" lon="2.691720713570933"><ele>393.8333333333333</ele><time>2026-04-06T15:23:06Z</time></trkpt><trkpt lat="42.73173540714894" lon="2.691634515177614"><ele>392.66666666666663</ele><time>2026-04-06T15:23:08Z</time></trkpt><trkpt lat="42.73176490419011" lon="2.691503370434341"><ele>391.5</ele><time>2026-04-06T15:23:11Z</time></trkpt><trkpt lat="42.73178833264483" lon="2.691405138868912"><ele>390.33333333333337</ele><time>2026-04-06T15:23:13Z</time></trkpt><trkpt lat="42.73182248088648" lon="2.6913204603137095"><ele>389.1666666666667</ele><time>2026-04-06T15:23:15Z</time></trkpt><trkpt lat="42.731862467286916" lon="2.6912450681703772"><ele>388.0</ele><time>2026-04-06T15:23:17Z</time></trkpt><trkpt lat="42.731909510936724" lon="2.6911659368826633"><ele>384.33333333333337</ele><time>2026-04-06T15:23:19Z</time></trkpt><trkpt lat="42.73195585132423" lon="2.6910726974361032"><ele>380.6666666666667</ele><time>2026-04-06T15:23:22Z</time></trkpt><trkpt lat="42.73201432113433" lon="2.6909591230821444"><ele>377.0</ele><time>2026-04-06T15:23:25Z</time></trkpt><trkpt lat="42.73204000792707" lon="2.6908797506233926"><ele>373.33333333333337</ele><time>2026-04-06T15:23:28Z</time></trkpt><trkpt lat="42.73210569266369" lon="2.69078135194216"><ele>369.6666666666667</ele><time>2026-04-06T15:23:31Z</time></trkpt><trkpt lat="42.73214002585076" lon="2.6906737898835225"><ele>366.0</ele><time>2026-04-06T15:23:34Z</time></trkpt><trkpt lat="42.73216187021657" lon="2.6905756792859936"><ele>366.0</ele><time>2026-04-06T15:23:37Z</time></trkpt><trkpt lat="42.73218606692939" lon="2.6904745083966044"><ele>366.0</ele><time>2026-04-06T15:23:40Z</time></trkpt><trkpt lat="42.73220844970329" lon="2.6903624241965374"><ele>366.0</ele><time>2026-04-06T15:23:43Z</time></trkpt><trkpt lat="42.73222031460677" lon="2.6902608161804618"><ele>366.0</ele><time>2026-04-06T15:23:46Z</time></trkpt><trkpt lat="42.73224886730628" lon="2.6901806218321638"><ele>366.0</ele><time>2026-04-06T15:23:48Z</time></trkpt><trkpt lat="42.73230829427291" lon="2.6900986377660825"><ele>366.0</ele><time>2026-04-06T15:23:50Z</time></trkpt><trkpt lat="42.73237618208294" lon="2.6900143439244757"><ele>363.1666666666667</ele><time>2026-04-06T15:23:52Z</time></trkpt><trkpt lat="42.73244319044663" lon="2.689935368378197"><ele>360.3333333333333</ele><time>2026-04-06T15:23:54Z</time></trkpt><trkpt lat="42.732510821717575" lon="2.6898571647272616"><ele>357.5</ele><time>2026-04-06T15:23:56Z</time></trkpt><trkpt lat="42.73256443171778" lon="2.6897571404194585"><ele>354.66666666666663</ele><time>2026-04-06T15:23:58Z</time></trkpt><trkpt lat="42.73261464257188" lon="2.6896858725818853"><ele>351.8333333333333</ele><time>2026-04-06T15:24:00Z</time></trkpt><trkpt lat="42.73266983897362" lon="2.689628218427585"><ele>349.0</ele><time>2026-04-06T15:24:02Z</time></trkpt><trkpt lat="42.732727970025685" lon="2.6895841266936644"><ele>347.66666666666663</ele><time>2026-04-06T15:24:04Z</time></trkpt><trkpt lat="42.73282161866352" lon="2.689584297975669"><ele>346.3333333333333</ele><time>2026-04-06T15:24:07Z</time></trkpt><trkpt lat="42.73291152837742" lon="2.6896074413411566"><ele>345.0</ele><time>2026-04-06T15:24:10Z</time></trkpt><trkpt lat="42.732978980591774" lon="2.6896387511834754"><ele>343.6666666666667</ele><time>2026-04-06T15:24:13Z</time></trkpt><trkpt lat="42.73304038595999" lon="2.6896936798851923"><ele>342.33333333333337</ele><time>2026-04-06T15:24:16.999Z</time></trkpt><trkpt lat="42.7330852410342" lon="2.6897631529003263"><ele>341.0</ele><time>2026-04-06T15:24:20.999Z</time></trkpt><trkpt lat="42.733133577603404" lon="2.689847085767668"><ele>341.0</ele><time>2026-04-06T15:24:24.999Z</time></trkpt><trkpt lat="42.733192298359214" lon="2.689892999318144"><ele>341.0</ele><time>2026-04-06T15:24:28.999Z</time></trkpt><trkpt lat="42.733256055483714" lon="2.689909266215657"><ele>341.0</ele><time>2026-04-06T15:24:33.999Z</time></trkpt><trkpt lat="42.73332957233525" lon="2.689893027112813"><ele>341.0</ele><time>2026-04-06T15:24:37.999Z</time></trkpt><trkpt lat="42.73338961762365" lon="2.6898485967513057"><ele>341.0</ele><time>2026-04-06T15:24:40.999Z</time></trkpt><trkpt lat="42.73345393204702" lon="2.6898056253448996"><ele>341.0</ele><time>2026-04-06T15:24:43.999Z</time></trkpt><trkpt lat="42.73352089263196" lon="2.689793667517923"><ele>341.0</ele><time>2026-04-06T15:24:47Z</time></trkpt><trkpt lat="42.733579449806065" lon="2.689739711011177"><ele>341.33333333333337</ele><time>2026-04-06T15:24:50Z</time></trkpt><trkpt lat="42.73363432372042" lon="2.6896627701171787"><ele>341.6666666666667</ele><time>2026-04-06T15:24:53Z</time></trkpt><trkpt lat="42.73371016259489" lon="2.689605030073332"><ele>342.0</ele><time>2026-04-06T15:24:56Z</time></trkpt><trkpt lat="42.73378536171506" lon="2.689563602445726"><ele>342.3333333333333</ele><time>2026-04-06T15:24:58Z</time></trkpt><trkpt lat="42.73385899571068" lon="2.689529683802821"><ele>342.66666666666663</ele><time>2026-04-06T15:25:00Z</time></trkpt><trkpt lat="42.733948871338605" lon="2.6894799328468877"><ele>343.0</ele><time>2026-04-06T15:25:03Z</time></trkpt><trkpt lat="42.73402173240307" lon="2.689416971134034"><ele>339.7142857142857</ele><time>2026-04-06T15:25:06Z</time></trkpt><trkpt lat="42.734085545296665" lon="2.689349128383935"><ele>336.42857142857144</ele><time>2026-04-06T15:25:09Z</time></trkpt><trkpt lat="42.73413414553984" lon="2.6892904742497845"><ele>333.1428571428571</ele><time>2026-04-06T15:25:11Z</time></trkpt><trkpt lat="42.73418093864326" lon="2.6892313344939383"><ele>329.8571428571429</ele><time>2026-04-06T15:25:13Z</time></trkpt><trkpt lat="42.73422419717646" lon="2.6891475099852"><ele>326.57142857142856</ele><time>2026-04-06T15:25:16Z</time></trkpt><trkpt lat="42.734289168306354" lon="2.689067249677686"><ele>323.2857142857143</ele><time>2026-04-06T15:25:18Z</time></trkpt><trkpt lat="42.73432602857781" lon="2.6889775714772552"><ele>320.0</ele><time>2026-04-06T15:25:20Z</time></trkpt><trkpt lat="42.73433946652984" lon="2.688875531091897"><ele>320.0</ele><time>2026-04-06T15:25:22Z</time></trkpt><trkpt lat="42.734376696525004" lon="2.6887741191610335"><ele>320.0</ele><time>2026-04-06T15:25:25Z</time></trkpt><trkpt lat="42.734409078908826" lon="2.6886914440488336"><ele>320.0</ele><time>2026-04-06T15:25:27Z</time></trkpt><trkpt lat="42.734449460364246" lon="2.688603154914127"><ele>320.0</ele><time>2026-04-06T15:25:29Z</time></trkpt><trkpt lat="42.73448950675336" lon="2.6885216658239512"><ele>320.0</ele><time>2026-04-06T15:25:31Z</time></trkpt><trkpt lat="42.73453190480121" lon="2.6884253076686013"><ele>320.0</ele><time>2026-04-06T15:25:34Z</time></trkpt><trkpt lat="42.734572692315446" lon="2.688328407204619"><ele>316.5</ele><time>2026-04-06T15:25:37Z</time></trkpt><trkpt lat="42.73462325965374" lon="2.688235092188019"><ele>313.0</ele><time>2026-04-06T15:25:41Z</time></trkpt><trkpt lat="42.73465705497365" lon="2.6881249170690498"><ele>309.5</ele><time>2026-04-06T15:25:44Z</time></trkpt><trkpt lat="42.73466181006131" lon="2.688016823190195"><ele>306.0</ele><time>2026-04-06T15:25:47Z</time></trkpt><trkpt lat="42.734665791988206" lon="2.687927917695362"><ele>302.5</ele><time>2026-04-06T15:25:50Z</time></trkpt><trkpt lat="42.73468406608604" lon="2.6878149542372665"><ele>299.0</ele><time>2026-04-06T15:25:53Z</time></trkpt><trkpt lat="42.73468652005891" lon="2.6877251203207138"><ele>297.0</ele><time>2026-04-06T15:25:55Z</time></trkpt><trkpt lat="42.734688817594275" lon="2.687615243281502"><ele>295.0</ele><time>2026-04-06T15:25:58Z</time></trkpt><trkpt lat="42.73470666672016" lon="2.6875319761756904"><ele>293.0</ele><time>2026-04-06T15:26:00Z</time></trkpt><trkpt lat="42.73473267431837" lon="2.687427713540273"><ele>291.0</ele><time>2026-04-06T15:26:02Z</time></trkpt><trkpt lat="42.73475494139438" lon="2.6873174417356163"><ele>289.0</ele><time>2026-04-06T15:26:04Z</time></trkpt><trkpt lat="42.734783046915034" lon="2.687183144117454"><ele>287.0</ele><time>2026-04-06T15:26:06Z</time></trkpt><trkpt lat="42.73478807497411" lon="2.687097688688669"><ele>287.0</ele><time>2026-04-06T15:26:07Z</time></trkpt><trkpt lat="42.7348026774928" lon="2.6869947143918704"><ele>287.0</ele><time>2026-04-06T15:26:09Z</time></trkpt><trkpt lat="42.73484755134695" lon="2.686899934565802"><ele>287.0</ele><time>2026-04-06T15:26:11Z</time></trkpt><trkpt lat="42.73488232143693" lon="2.686798270371786"><ele>287.0</ele><time>2026-04-06T15:26:13Z</time></trkpt><trkpt lat="42.73489963464875" lon="2.6866880847523786"><ele>287.0</ele><time>2026-04-06T15:26:15Z</time></trkpt><trkpt lat="42.734944440899476" lon="2.6866042815948825"><ele>287.0</ele><time>2026-04-06T15:26:17Z</time></trkpt><trkpt lat="42.734987320762514" lon="2.686516730982158"><ele>285.14285714285717</ele><time>2026-04-06T15:26:19.999Z</time></trkpt><trkpt lat="42.73503045763958" lon="2.6864157118582765"><ele>283.2857142857143</ele><time>2026-04-06T15:26:22.999Z</time></trkpt><trkpt lat="42.73506572620503" lon="2.68632990924445"><ele>281.42857142857144</ele><time>2026-04-06T15:26:25.999Z</time></trkpt><trkpt lat="42.735090732209024" lon="2.686247802590093"><ele>279.57142857142856</ele><time>2026-04-06T15:26:29.999Z</time></trkpt><trkpt lat="42.73516207178817" lon="2.6861859808392174"><ele>277.7142857142857</ele><time>2026-04-06T15:26:31.999Z</time></trkpt><trkpt lat="42.735221904925204" lon="2.6861574934686856"><ele>275.8571428571429</ele><time>2026-04-06T15:26:34.999Z</time></trkpt><trkpt lat="42.735272901361114" lon="2.686094424528671"><ele>274.0</ele><time>2026-04-06T15:26:36.999Z</time></trkpt><trkpt lat="42.73532793950241" lon="2.68601477859593"><ele>270.7142857142857</ele><time>2026-04-06T15:26:39.999Z</time></trkpt><trkpt lat="42.73536847915977" lon="2.685913477068729"><ele>267.42857142857144</ele><time>2026-04-06T15:26:43.999Z</time></trkpt><trkpt lat="42.73542604945958" lon="2.6858420616420653"><ele>264.1428571428571</ele><time>2026-04-06T15:26:47.999Z</time></trkpt><trkpt lat="42.73549349605474" lon="2.6858124393628864"><ele>260.8571428571429</ele><time>2026-04-06T15:26:51.999Z</time></trkpt><trkpt lat="42.73552861542963" lon="2.685729859289299"><ele>257.57142857142856</ele><time>2026-04-06T15:26:59Z</time></trkpt><trkpt lat="42.735535967286026" lon="2.6856279129975524"><ele>254.28571428571425</ele><time>2026-04-06T15:27:03Z</time></trkpt><trkpt lat="42.73557647065041" lon="2.685557287944756"><ele>250.99999999999997</ele><time>2026-04-06T15:28:03Z</time></trkpt><trkpt lat="42.73563160476531" lon="2.6855088817714416"><ele>251.00000000000003</ele><time>2026-04-06T15:28:07Z</time></trkpt><trkpt lat="42.7356774656769" lon="2.685432524829863"><ele>251.0</ele><time>2026-04-06T15:28:12Z</time></trkpt><trkpt lat="42.73570172299377" lon="2.6853407254070643"><ele>251.0</ele><time>2026-04-06T15:28:15Z</time></trkpt><trkpt lat="42.735735077282094" lon="2.6852434767404927"><ele>251.0</ele><time>2026-04-06T15:28:18Z</time></trkpt><trkpt lat="42.73579479942513" lon="2.685114301873153"><ele>251.00000000000003</ele><time>2026-04-06T15:28:21Z</time></trkpt><trkpt lat="42.73584750135673" lon="2.685057136910801"><ele>251.0</ele><time>2026-04-06T15:28:23Z</time></trkpt><trkpt lat="42.73589385970228" lon="2.6849907223293776"><ele>248.99999999999997</ele><time>2026-04-06T15:28:24.999Z</time></trkpt><trkpt lat="42.73594907461868" lon="2.6849245583753745"><ele>247.0</ele><time>2026-04-06T15:28:26.999Z</time></trkpt><trkpt lat="42.73600340310395" lon="2.684866183108102"><ele>244.99999999999997</ele><time>2026-04-06T15:28:28.999Z</time></trkpt><trkpt lat="42.73605683053146" lon="2.6848049921535635"><ele>242.99999999999997</ele><time>2026-04-06T15:28:30.999Z</time></trkpt><trkpt lat="42.736121219224636" lon="2.684712657103535"><ele>241.0</ele><time>2026-04-06T15:28:33.999Z</time></trkpt><trkpt lat="42.736160922826244" lon="2.6846422620189747"><ele>238.99999999999997</ele><time>2026-04-06T15:28:35.999Z</time></trkpt><trkpt lat="42.73622061818077" lon="2.684606055817232"><ele>236.99999999999997</ele><time>2026-04-06T15:28:37.999Z</time></trkpt><trkpt lat="42.73627537681641" lon="2.6845248973240334"><ele>234.6</ele><time>2026-04-06T15:28:39.999Z</time></trkpt><trkpt lat="42.736349395765274" lon="2.6844744644498495"><ele>232.2</ele><time>2026-04-06T15:28:41.999Z</time></trkpt><trkpt lat="42.73643439520704" lon="2.684413518024085"><ele>229.8</ele><time>2026-04-06T15:28:43.999Z</time></trkpt><trkpt lat="42.736487655321945" lon="2.68434082626786"><ele>227.4</ele><time>2026-04-06T15:28:45.999Z</time></trkpt><trkpt lat="42.736611550741074" lon="2.684262249966638"><ele>225.0</ele><time>2026-04-06T15:28:47.999Z</time></trkpt><trkpt lat="42.73671364300156" lon="2.684211350484336"><ele>225.0</ele><time>2026-04-06T15:28:49.999Z</time></trkpt><trkpt lat="42.73680597282339" lon="2.6841389074919193"><ele>225.0</ele><time>2026-04-06T15:28:51.999Z</time></trkpt><trkpt lat="42.736891035430936" lon="2.6840508310141487"><ele>225.0</ele><time>2026-04-06T15:28:53.999Z</time></trkpt><trkpt lat="42.736995328046994" lon="2.683982214727451"><ele>225.0</ele><time>2026-04-06T15:28:55.999Z</time></trkpt><trkpt lat="42.737053575218326" lon="2.6839472254167025"><ele>225.0</ele><time>2026-04-06T15:28:56.999Z</time></trkpt><trkpt lat="42.73711192421106" lon="2.683892124660658"><ele>223.16666666666666</ele><time>2026-04-06T15:28:57.999Z</time></trkpt><trkpt lat="42.73717086776427" lon="2.6838504189659265"><ele>221.33333333333331</ele><time>2026-04-06T15:28:59Z</time></trkpt><trkpt lat="42.73723737666232" lon="2.6838002601661843"><ele>219.5</ele><time>2026-04-06T15:29:00Z</time></trkpt><trkpt lat="42.737314695273724" lon="2.683742268749181"><ele>217.66666666666666</ele><time>2026-04-06T15:29:01Z</time></trkpt><trkpt lat="42.73739174871429" lon="2.683687414622043"><ele>215.83333333333331</ele><time>2026-04-06T15:29:02Z</time></trkpt><trkpt lat="42.73746815726536" lon="2.683630180467473"><ele>214.0</ele><time>2026-04-06T15:29:03Z</time></trkpt><trkpt lat="42.73753749076543" lon="2.683577676265235"><ele>214.00000000000003</ele><time>2026-04-06T15:29:04Z</time></trkpt><trkpt lat="42.737602579272675" lon="2.6835246499594123"><ele>214.0</ele><time>2026-04-06T15:29:05Z</time></trkpt><trkpt lat="42.737662234314804" lon="2.6834913301955847"><ele>214.0</ele><time>2026-04-06T15:29:06Z</time></trkpt><trkpt lat="42.737725043362964" lon="2.6834556920911785"><ele>214.0</ele><time>2026-04-06T15:29:07Z</time></trkpt><trkpt lat="42.73778835509382" lon="2.683418424468204"><ele>214.0</ele><time>2026-04-06T15:29:08Z</time></trkpt><trkpt lat="42.73784583224066" lon="2.68337951502708"><ele>214.00000000000003</ele><time>2026-04-06T15:29:09Z</time></trkpt><trkpt lat="42.737906002889616" lon="2.6833271864484716"><ele>214.0</ele><time>2026-04-06T15:29:10Z</time></trkpt><trkpt lat="42.7379613738449" lon="2.6832769510336982"><ele>211.99999999999997</ele><time>2026-04-06T15:29:11Z</time></trkpt><trkpt lat="42.73801556537261" lon="2.6832324696164367"><ele>210.0</ele><time>2026-04-06T15:29:12Z</time></trkpt><trkpt lat="42.73811847007097" lon="2.6831464177917135"><ele>208.0</ele><time>2026-04-06T15:29:14Z</time></trkpt><trkpt lat="42.73816980485509" lon="2.683094675260588"><ele>206.0</ele><time>2026-04-06T15:29:15Z</time></trkpt><trkpt lat="42.738257420786915" lon="2.682978262728548"><ele>203.99999999999997</ele><time>2026-04-06T15:29:17Z</time></trkpt><trkpt lat="42.73830516927168" lon="2.6829124299394813"><ele>202.0</ele><time>2026-04-06T15:29:18Z</time></trkpt><trkpt lat="42.73835902648534" lon="2.6828469865187303"><ele>201.99999999999997</ele><time>2026-04-06T15:29:19Z</time></trkpt><trkpt lat="42.7384241623491" lon="2.6827848093390028"><ele>202.0</ele><time>2026-04-06T15:29:20Z</time></trkpt><trkpt lat="42.73849396940878" lon="2.682722636270486"><ele>202.0</ele><time>2026-04-06T15:29:21Z</time></trkpt><trkpt lat="42.73857281953357" lon="2.6826613029156277"><ele>202.0</ele><time>2026-04-06T15:29:22Z</time></trkpt><trkpt lat="42.73864294983376" lon="2.6826053095795075"><ele>201.99999999999997</ele><time>2026-04-06T15:29:23Z</time></trkpt><trkpt lat="42.73870038958454" lon="2.6825586235737644"><ele>202.0</ele><time>2026-04-06T15:29:24Z</time></trkpt><trkpt lat="42.73881151346958" lon="2.6824757019800303"><ele>201.2</ele><time>2026-04-06T15:29:26Z</time></trkpt><trkpt lat="42.73887264827885" lon="2.682437239167701"><ele>200.39999999999998</ele><time>2026-04-06T15:29:27Z</time></trkpt><trkpt lat="42.73899663802878" lon="2.6823933948161343"><ele>199.60000000000002</ele><time>2026-04-06T15:29:29Z</time></trkpt><trkpt lat="42.739130532655366" lon="2.6824427362702847"><ele>198.8</ele><time>2026-04-06T15:29:31Z</time></trkpt><trkpt lat="42.73920835330305" lon="2.6824682299473697"><ele>198.0</ele><time>2026-04-06T15:29:32Z</time></trkpt><trkpt lat="42.73927644164554" lon="2.6824886092457136"><ele>198.0</ele><time>2026-04-06T15:29:33Z</time></trkpt><trkpt lat="42.739340808319355" lon="2.6825212980440427"><ele>198.0</ele><time>2026-04-06T15:29:34Z</time></trkpt><trkpt lat="42.73944059584698" lon="2.6826120346705995"><ele>198.0</ele><time>2026-04-06T15:29:36Z</time></trkpt><trkpt lat="42.739495895504945" lon="2.6826824338897843"><ele>198.0</ele><time>2026-04-06T15:29:37Z</time></trkpt><trkpt lat="42.73954927733156" lon="2.6827287683174297"><ele>198.0</ele><time>2026-04-06T15:29:38Z</time></trkpt><trkpt lat="42.73967569509563" lon="2.6827047357471656"><ele>198.66666666666666</ele><time>2026-04-06T15:29:40Z</time></trkpt><trkpt lat="42.73972922596369" lon="2.682650459627403"><ele>199.33333333333331</ele><time>2026-04-06T15:29:41Z</time></trkpt><trkpt lat="42.73976853505072" lon="2.6825687159618004"><ele>200.0</ele><time>2026-04-06T15:29:42Z</time></trkpt><trkpt lat="42.73980289599827" lon="2.6824828392561284"><ele>200.66666666666666</ele><time>2026-04-06T15:29:43Z</time></trkpt><trkpt lat="42.73985172211304" lon="2.682386119222801"><ele>201.33333333333331</ele><time>2026-04-06T15:29:44Z</time></trkpt><trkpt lat="42.73991088961088" lon="2.6822892413201758"><ele>202.0</ele><time>2026-04-06T15:29:45Z</time></trkpt><trkpt lat="42.739975642653725" lon="2.6821943861063504"><ele>202.0</ele><time>2026-04-06T15:29:46Z</time></trkpt><trkpt lat="42.74003203284628" lon="2.6821061682872345"><ele>202.0</ele><time>2026-04-06T15:29:47Z</time></trkpt><trkpt lat="42.74007957759183" lon="2.6820336852717372"><ele>202.0</ele><time>2026-04-06T15:29:48Z</time></trkpt><trkpt lat="42.74017797467195" lon="2.681909644753435"><ele>202.0</ele><time>2026-04-06T15:29:50Z</time></trkpt><trkpt lat="42.74024309249509" lon="2.6818627118666307"><ele>202.0</ele><time>2026-04-06T15:29:51Z</time></trkpt><trkpt lat="42.74033404062926" lon="2.6818398556887906"><ele>201.39999999999998</ele><time>2026-04-06T15:29:52Z</time></trkpt><trkpt lat="42.740422503654855" lon="2.681833338813882"><ele>200.79999999999998</ele><time>2026-04-06T15:29:53Z</time></trkpt><trkpt lat="42.74052817599402" lon="2.681834185576686"><ele>200.2</ele><time>2026-04-06T15:29:54Z</time></trkpt><trkpt lat="42.74062140564666" lon="2.6818284366475496"><ele>199.6</ele><time>2026-04-06T15:29:55Z</time></trkpt><trkpt lat="42.74071025896909" lon="2.6818104723805436"><ele>199.0</ele><time>2026-04-06T15:29:56Z</time></trkpt><trkpt lat="42.74078666262086" lon="2.68179361065803"><ele>199.0</ele><time>2026-04-06T15:29:57Z</time></trkpt><trkpt lat="42.7408672675379" lon="2.681761237303623"><ele>199.0</ele><time>2026-04-06T15:29:58Z</time></trkpt><trkpt lat="42.74093340784609" lon="2.6817245668786214"><ele>199.0</ele><time>2026-04-06T15:29:59Z</time></trkpt><trkpt lat="42.74100763765004" lon="2.681681482886326"><ele>199.0</ele><time>2026-04-06T15:30:00Z</time></trkpt><trkpt lat="42.74111301870953" lon="2.6816188794395903"><ele>199.0</ele><time>2026-04-06T15:30:02Z</time></trkpt><trkpt lat="42.74120328294759" lon="2.681565393972856"><ele>198.33333333333331</ele><time>2026-04-06T15:30:04Z</time></trkpt><trkpt lat="42.74126531474158" lon="2.6815473143552278"><ele>197.66666666666666</ele><time>2026-04-06T15:30:05Z</time></trkpt><trkpt lat="42.74134769084961" lon="2.6815248134217553"><ele>197.0</ele><time>2026-04-06T15:30:06Z</time></trkpt><trkpt lat="42.741423430873446" lon="2.6814937675026056"><ele>196.33333333333331</ele><time>2026-04-06T15:30:07Z</time></trkpt><trkpt lat="42.74150298207176" lon="2.681454754718144"><ele>195.66666666666666</ele><time>2026-04-06T15:30:08Z</time></trkpt><trkpt lat="42.74157538851023" lon="2.6814159320475937"><ele>195.0</ele><time>2026-04-06T15:30:09Z</time></trkpt><trkpt lat="42.74164352217389" lon="2.6813730744031297"><ele>195.0</ele><time>2026-04-06T15:30:10Z</time></trkpt><trkpt lat="42.741711928289426" lon="2.681311244020378"><ele>195.0</ele><time>2026-04-06T15:30:11Z</time></trkpt><trkpt lat="42.74176153948842" lon="2.6812317584747296"><ele>195.0</ele><time>2026-04-06T15:30:12Z</time></trkpt><trkpt lat="42.74183029658075" lon="2.6811643137366743"><ele>195.0</ele><time>2026-04-06T15:30:13Z</time></trkpt><trkpt lat="42.741895046469736" lon="2.681102994429109"><ele>195.0</ele><time>2026-04-06T15:30:14Z</time></trkpt><trkpt lat="42.74195889617986" lon="2.6810389017293095"><ele>195.0</ele><time>2026-04-06T15:30:15Z</time></trkpt><trkpt lat="42.742027949505754" lon="2.6809747781482223"><ele>193.28571428571428</ele><time>2026-04-06T15:30:16Z</time></trkpt><trkpt lat="42.74209091641474" lon="2.6809305348113077"><ele>191.57142857142856</ele><time>2026-04-06T15:30:17Z</time></trkpt><trkpt lat="42.74215152851481" lon="2.6808919665944817"><ele>189.85714285714286</ele><time>2026-04-06T15:30:18Z</time></trkpt><trkpt lat="42.742216911291436" lon="2.680843003522166"><ele>188.14285714285714</ele><time>2026-04-06T15:30:19Z</time></trkpt><trkpt lat="42.74228083434945" lon="2.6807915313852995"><ele>186.42857142857144</ele><time>2026-04-06T15:30:20Z</time></trkpt><trkpt lat="42.742341267846946" lon="2.6807517701435195"><ele>184.71428571428572</ele><time>2026-04-06T15:30:21Z</time></trkpt><trkpt lat="42.74240016962881" lon="2.6807080354791153"><ele>183.0</ele><time>2026-04-06T15:30:22Z</time></trkpt><trkpt lat="42.74246443319702" lon="2.6806586569724997"><ele>183.0</ele><time>2026-04-06T15:30:23Z</time></trkpt><trkpt lat="42.742519697942015" lon="2.6806163895236566"><ele>183.0</ele><time>2026-04-06T15:30:24Z</time></trkpt><trkpt lat="42.74258482922748" lon="2.6805821414538276"><ele>183.0</ele><time>2026-04-06T15:30:25Z</time></trkpt><trkpt lat="42.74264920975723" lon="2.680551613498308"><ele>183.0</ele><time>2026-04-06T15:30:26Z</time></trkpt><trkpt lat="42.74272121774363" lon="2.680511643767878"><ele>183.0</ele><time>2026-04-06T15:30:27Z</time></trkpt><trkpt lat="42.74279735461892" lon="2.6804631338817155"><ele>183.0</ele><time>2026-04-06T15:30:28Z</time></trkpt><trkpt lat="42.74287877895432" lon="2.6804203021113766"><ele>180.2</ele><time>2026-04-06T15:30:29Z</time></trkpt><trkpt lat="42.74297113620359" lon="2.6803809009099817"><ele>177.4</ele><time>2026-04-06T15:30:30Z</time></trkpt><trkpt lat="42.74306154921121" lon="2.6803485467706527"><ele>174.6</ele><time>2026-04-06T15:30:31Z</time></trkpt><trkpt lat="42.74315277952521" lon="2.680324298370997"><ele>171.79999999999998</ele><time>2026-04-06T15:30:32Z</time></trkpt><trkpt lat="42.74324254204597" lon="2.68030022569897"><ele>169.0</ele><time>2026-04-06T15:30:33Z</time></trkpt><trkpt lat="42.74332649592491" lon="2.6802753694079766"><ele>169.2</ele><time>2026-04-06T15:30:34Z</time></trkpt><trkpt lat="42.74342487433984" lon="2.680258993063008"><ele>169.39999999999998</ele><time>2026-04-06T15:30:34.999Z</time></trkpt><trkpt lat="42.743520402278826" lon="2.680241936750735"><ele>169.6</ele><time>2026-04-06T15:30:35.999Z</time></trkpt><trkpt lat="42.74360712963278" lon="2.6802203861431653"><ele>169.8</ele><time>2026-04-06T15:30:36.999Z</time></trkpt><trkpt lat="42.74370086712458" lon="2.680198144268892"><ele>170.0</ele><time>2026-04-06T15:30:37.999Z</time></trkpt><trkpt lat="42.74380046665958" lon="2.680180094305652"><ele>170.0</ele><time>2026-04-06T15:30:38.999Z</time></trkpt><trkpt lat="42.74387945917689" lon="2.680152142843388"><ele>170.0</ele><time>2026-04-06T15:30:39.999Z</time></trkpt><trkpt lat="42.74396823336829" lon="2.680117456512388"><ele>170.0</ele><time>2026-04-06T15:30:40.999Z</time></trkpt><trkpt lat="42.744052177848936" lon="2.6800763192993475"><ele>170.0</ele><time>2026-04-06T15:30:41.999Z</time></trkpt><trkpt lat="42.74413366672597" lon="2.6800359090231813"><ele>170.0</ele><time>2026-04-06T15:30:42.999Z</time></trkpt><trkpt lat="42.74421127550672" lon="2.679993750680805"><ele>170.0</ele><time>2026-04-06T15:30:43.999Z</time></trkpt><trkpt lat="42.74428976803958" lon="2.679956513301002"><ele>170.0</ele><time>2026-04-06T15:30:44.999Z</time></trkpt><trkpt lat="42.74436408074029" lon="2.679914540367163"><ele>170.0</ele><time>2026-04-06T15:30:45.999Z</time></trkpt><trkpt lat="42.7444330225037" lon="2.67987561923849"><ele>170.0</ele><time>2026-04-06T15:30:46.999Z</time></trkpt><trkpt lat="42.74449158105797" lon="2.6798240986041133"><ele>170.0</ele><time>2026-04-06T15:30:47.999Z</time></trkpt><trkpt lat="42.74455004502608" lon="2.679753656650256"><ele>170.0</ele><time>2026-04-06T15:30:48.999Z</time></trkpt><trkpt lat="42.74460975146007" lon="2.6796687904586673"><ele>170.0</ele><time>2026-04-06T15:30:49.999Z</time></trkpt><trkpt lat="42.744677935545795" lon="2.679598371601466"><ele>169.5</ele><time>2026-04-06T15:30:50.999Z</time></trkpt><trkpt lat="42.7447655987154" lon="2.679483124271774"><ele>169.0</ele><time>2026-04-06T15:30:52.999Z</time></trkpt><trkpt lat="42.74482060481238" lon="2.6794270540929297"><ele>168.5</ele><time>2026-04-06T15:30:53.999Z</time></trkpt><trkpt lat="42.74487967311076" lon="2.679377975783918"><ele>168.0</ele><time>2026-04-06T15:30:54.999Z</time></trkpt><trkpt lat="42.74495135057204" lon="2.6793263116237855"><ele>167.5</ele><time>2026-04-06T15:30:55.999Z</time></trkpt><trkpt lat="42.74501526707341" lon="2.679274121699482"><ele>167.0</ele><time>2026-04-06T15:30:56.999Z</time></trkpt><trkpt lat="42.74508235083138" lon="2.679238476189922"><ele>167.0</ele><time>2026-04-06T15:30:57.999Z</time></trkpt><trkpt lat="42.745162429359624" lon="2.6792241083270856"><ele>167.0</ele><time>2026-04-06T15:30:58.999Z</time></trkpt><trkpt lat="42.745237157988306" lon="2.679222019026401"><ele>167.0</ele><time>2026-04-06T15:30:59.999Z</time></trkpt><trkpt lat="42.74532636132846" lon="2.6792392088628563"><ele>167.0</ele><time>2026-04-06T15:31:00.999Z</time></trkpt><trkpt lat="42.74544283243595" lon="2.679250236286145"><ele>167.0</ele><time>2026-04-06T15:31:01.999Z</time></trkpt><trkpt lat="42.74556461238174" lon="2.6792724142431275"><ele>166.6</ele><time>2026-04-06T15:31:02.999Z</time></trkpt><trkpt lat="42.74565629610093" lon="2.6792892175481833"><ele>166.2</ele><time>2026-04-06T15:31:03.999Z</time></trkpt><trkpt lat="42.745754839935124" lon="2.6793094376219653"><ele>165.8</ele><time>2026-04-06T15:31:05Z</time></trkpt><trkpt lat="42.74585965987378" lon="2.679322375084516"><ele>165.4</ele><time>2026-04-06T15:31:06Z</time></trkpt><trkpt lat="42.74595046083121" lon="2.6793221114301344"><ele>165.0</ele><time>2026-04-06T15:31:07Z</time></trkpt><trkpt lat="42.74603683689443" lon="2.679311997508264"><ele>164.0</ele><time>2026-04-06T15:31:08Z</time></trkpt><trkpt lat="42.746122026985645" lon="2.6792862595969913"><ele>163.0</ele><time>2026-04-06T15:31:09Z</time></trkpt><trkpt lat="42.7462004779216" lon="2.6792437654534886"><ele>162.0</ele><time>2026-04-06T15:31:10Z</time></trkpt><trkpt lat="42.74626948024482" lon="2.679187542416516"><ele>161.0</ele><time>2026-04-06T15:31:11Z</time></trkpt><trkpt lat="42.746322970031606" lon="2.6791285370132227"><ele>160.0</ele><time>2026-04-06T15:31:12Z</time></trkpt><trkpt lat="42.74639487474601" lon="2.679012943737758"><ele>159.0</ele><time>2026-04-06T15:31:14Z</time></trkpt><trkpt lat="42.746440660547336" lon="2.6789273295048686"><ele>159.0</ele><time>2026-04-06T15:31:16Z</time></trkpt><trkpt lat="42.746484206872786" lon="2.6788578418454096"><ele>159.0</ele><time>2026-04-06T15:31:50Z</time></trkpt><trkpt lat="42.74653244446462" lon="2.678795391308368"><ele>159.0</ele><time>2026-04-06T15:31:54Z</time></trkpt><trkpt lat="42.74657615766875" lon="2.678730170089505"><ele>159.0</ele><time>2026-04-06T15:31:56Z</time></trkpt><trkpt lat="42.74663574157451" lon="2.6786812975926724"><ele>159.0</ele><time>2026-04-06T15:31:58Z</time></trkpt><trkpt lat="42.74671581273453" lon="2.6786444098345075"><ele>159.0</ele><time>2026-04-06T15:32:00Z</time></trkpt><trkpt lat="42.74682928829276" lon="2.6786657990146767"><ele>157.8</ele><time>2026-04-06T15:32:02Z</time></trkpt><trkpt lat="42.746954339122624" lon="2.678724216972287"><ele>156.60000000000002</ele><time>2026-04-06T15:32:04Z</time></trkpt><trkpt lat="42.74703635985403" lon="2.6787638757478494"><ele>155.4</ele><time>2026-04-06T15:32:05Z</time></trkpt><trkpt lat="42.74712093019523" lon="2.6788072805636522"><ele>154.20000000000002</ele><time>2026-04-06T15:32:06Z</time></trkpt><trkpt lat="42.74722842509091" lon="2.6788668072634167"><ele>153.0</ele><time>2026-04-06T15:32:07Z</time></trkpt><trkpt lat="42.7473269205426" lon="2.67890923352207"><ele>153.0</ele><time>2026-04-06T15:32:08Z</time></trkpt><trkpt lat="42.74741980257378" lon="2.6789386950416945"><ele>153.0</ele><time>2026-04-06T15:32:09Z</time></trkpt><trkpt lat="42.74751007584501" lon="2.6789573673834792"><ele>153.0</ele><time>2026-04-06T15:32:10Z</time></trkpt><trkpt lat="42.74759613977746" lon="2.678978112823484"><ele>153.0</ele><time>2026-04-06T15:32:11Z</time></trkpt><trkpt lat="42.74768096046655" lon="2.679001000059356"><ele>153.0</ele><time>2026-04-06T15:32:12Z</time></trkpt><trkpt lat="42.747768194236485" lon="2.6790121842840633"><ele>153.0</ele><time>2026-04-06T15:32:13Z</time></trkpt><trkpt lat="42.747854728727745" lon="2.6789921793442986"><ele>152.0</ele><time>2026-04-06T15:32:14Z</time></trkpt><trkpt lat="42.74793623697565" lon="2.678947774453367"><ele>151.0</ele><time>2026-04-06T15:32:15Z</time></trkpt><trkpt lat="42.74801049283883" lon="2.678870214504657"><ele>150.0</ele><time>2026-04-06T15:32:16Z</time></trkpt><trkpt lat="42.74808247042543" lon="2.67882827726922"><ele>149.0</ele><time>2026-04-06T15:32:17Z</time></trkpt><trkpt lat="42.74814787732014" lon="2.678789409646181"><ele>148.0</ele><time>2026-04-06T15:32:18Z</time></trkpt><trkpt lat="42.74820774080245" lon="2.6787506590555106"><ele>147.0</ele><time>2026-04-06T15:32:19Z</time></trkpt><trkpt lat="42.74831206466843" lon="2.678701518907858"><ele>147.0</ele><time>2026-04-06T15:32:21Z</time></trkpt><trkpt lat="42.74836662716491" lon="2.6786119479544768"><ele>147.0</ele><time>2026-04-06T15:32:23Z</time></trkpt><trkpt lat="42.74838716441636" lon="2.678441923772338"><ele>147.0</ele><time>2026-04-06T15:32:25Z</time></trkpt><trkpt lat="42.74840714548009" lon="2.6782843321681544"><ele>147.0</ele><time>2026-04-06T15:32:27Z</time></trkpt><trkpt lat="42.748426813219055" lon="2.678129780433952"><ele>147.0</ele><time>2026-04-06T15:32:29Z</time></trkpt><trkpt lat="42.748439339483795" lon="2.677997650909938"><ele>146.6</ele><time>2026-04-06T15:32:31Z</time></trkpt><trkpt lat="42.74846604576786" lon="2.6778834852159856"><ele>146.2</ele><time>2026-04-06T15:32:33Z</time></trkpt><trkpt lat="42.748501187272616" lon="2.6777887827367683"><ele>145.8</ele><time>2026-04-06T15:32:35Z</time></trkpt><trkpt lat="42.74856910355064" lon="2.677676864746986"><ele>145.4</ele><time>2026-04-06T15:32:37Z</time></trkpt><trkpt lat="42.74863041450582" lon="2.6775722394439687"><ele>145.0</ele><time>2026-04-06T15:32:38.999Z</time></trkpt><trkpt lat="42.74868821326056" lon="2.677492424977057"><ele>144.0</ele><time>2026-04-06T15:32:40.999Z</time></trkpt><trkpt lat="42.748739608618855" lon="2.677428931309537"><ele>143.0</ele><time>2026-04-06T15:32:43.999Z</time></trkpt><trkpt lat="42.74879544639353" lon="2.6774776478269233"><ele>142.0</ele><time>2026-04-06T15:32:53.999Z</time></trkpt><trkpt lat="42.74882346235974" lon="2.6775581894541896"><ele>141.0</ele><time>2026-04-06T15:32:55.999Z</time></trkpt><trkpt lat="42.748841117728546" lon="2.6776470272379886"><ele>140.0</ele><time>2026-04-06T15:32:57.999Z</time></trkpt><trkpt lat="42.748900399855934" lon="2.6778164900399384"><ele>139.0</ele><time>2026-04-06T15:32:59.999Z</time></trkpt><trkpt lat="42.74893011690835" lon="2.6779499563790434"><ele>137.8</ele><time>2026-04-06T15:33:01.999Z</time></trkpt><trkpt lat="42.74896197140628" lon="2.6781050680679193"><ele>136.60000000000002</ele><time>2026-04-06T15:33:03.999Z</time></trkpt><trkpt lat="42.74900131725919" lon="2.6782587002942626"><ele>135.4</ele><time>2026-04-06T15:33:05.999Z</time></trkpt><trkpt lat="42.749039792231464" lon="2.6784010312458975"><ele>134.20000000000002</ele><time>2026-04-06T15:33:07.999Z</time></trkpt><trkpt lat="42.749117777608205" lon="2.6784775923008937"><ele>133.0</ele><time>2026-04-06T15:33:09.999Z</time></trkpt><trkpt lat="42.74923993004792" lon="2.6784449320721477"><ele>133.0</ele><time>2026-04-06T15:33:12Z</time></trkpt><trkpt lat="42.749301060357844" lon="2.6783888337976838"><ele>133.0</ele><time>2026-04-06T15:33:13Z</time></trkpt><trkpt lat="42.74935870460075" lon="2.678311200823863"><ele>133.0</ele><time>2026-04-06T15:33:14Z</time></trkpt><trkpt lat="42.749427242867355" lon="2.678238096721732"><ele>133.0</ele><time>2026-04-06T15:33:15Z</time></trkpt><trkpt lat="42.7495102798005" lon="2.6781665950628706"><ele>133.0</ele><time>2026-04-06T15:33:16Z</time></trkpt><trkpt lat="42.74959536923144" lon="2.678075062574861"><ele>133.0</ele><time>2026-04-06T15:33:17Z</time></trkpt><trkpt lat="42.74967404464801" lon="2.6779968095174613"><ele>132.20000000000002</ele><time>2026-04-06T15:33:18Z</time></trkpt><trkpt lat="42.74976712947061" lon="2.677916594711561"><ele>131.4</ele><time>2026-04-06T15:33:19Z</time></trkpt><trkpt lat="42.74986686617958" lon="2.6778609548721586"><ele>130.60000000000002</ele><time>2026-04-06T15:33:20Z</time></trkpt><trkpt lat="42.74997077696154" lon="2.677800083561038"><ele>129.8</ele><time>2026-04-06T15:33:21Z</time></trkpt><trkpt lat="42.7500742826057" lon="2.6777288594283366"><ele>129.0</ele><time>2026-04-06T15:33:22Z</time></trkpt><trkpt lat="42.75017964574938" lon="2.6776426031942204"><ele>126.6</ele><time>2026-04-06T15:33:23Z</time></trkpt><trkpt lat="42.75027155270922" lon="2.677551472406332"><ele>124.2</ele><time>2026-04-06T15:33:24Z</time></trkpt><trkpt lat="42.75036170438508" lon="2.6774577753395326"><ele>121.79999999999998</ele><time>2026-04-06T15:33:25Z</time></trkpt><trkpt lat="42.7504375839512" lon="2.6773627093344836"><ele>119.39999999999999</ele><time>2026-04-06T15:33:26Z</time></trkpt><trkpt lat="42.75050475309921" lon="2.6772754079063565"><ele>117.0</ele><time>2026-04-06T15:33:27Z</time></trkpt><trkpt lat="42.750566153066764" lon="2.67718542677414"><ele>117.0</ele><time>2026-04-06T15:33:28Z</time></trkpt><trkpt lat="42.75062711460597" lon="2.677095439995255"><ele>117.0</ele><time>2026-04-06T15:33:29Z</time></trkpt><trkpt lat="42.75068755762148" lon="2.677013608495243"><ele>117.0</ele><time>2026-04-06T15:33:30Z</time></trkpt><trkpt lat="42.7507489592426" lon="2.676936820635796"><ele>117.0</ele><time>2026-04-06T15:33:31Z</time></trkpt><trkpt lat="42.750807910083196" lon="2.676862056590633"><ele>117.0</ele><time>2026-04-06T15:33:32Z</time></trkpt><trkpt lat="42.75086589786933" lon="2.6767912987822906"><ele>117.0</ele><time>2026-04-06T15:33:33Z</time></trkpt><trkpt lat="42.75092785408017" lon="2.6767186475157625"><ele>118.0</ele><time>2026-04-06T15:33:34Z</time></trkpt><trkpt lat="42.750996190168934" lon="2.6766484137500925"><ele>118.99999999999999</ele><time>2026-04-06T15:33:35Z</time></trkpt><trkpt lat="42.75107279739502" lon="2.676578933748556"><ele>119.99999999999999</ele><time>2026-04-06T15:33:36Z</time></trkpt><trkpt lat="42.751161397862106" lon="2.676504508929122"><ele>121.0</ele><time>2026-04-06T15:33:37Z</time></trkpt><trkpt lat="42.751255900882285" lon="2.676423313374619"><ele>122.0</ele><time>2026-04-06T15:33:38Z</time></trkpt><trkpt lat="42.751343599872115" lon="2.676354202760424"><ele>120.19999999999999</ele><time>2026-04-06T15:33:39Z</time></trkpt><trkpt lat="42.75143251508841" lon="2.676280502563562"><ele>118.39999999999999</ele><time>2026-04-06T15:33:40Z</time></trkpt><trkpt lat="42.751518722048864" lon="2.6762031570685125"><ele>116.60000000000001</ele><time>2026-04-06T15:33:41Z</time></trkpt><trkpt lat="42.75161476281342" lon="2.6761233311074455"><ele>114.80000000000001</ele><time>2026-04-06T15:33:42Z</time></trkpt><trkpt lat="42.75171576303945" lon="2.67603828611153"><ele>113.0</ele><time>2026-04-06T15:33:43Z</time></trkpt><trkpt lat="42.7518087804578" lon="2.675955644381113"><ele>111.60000000000001</ele><time>2026-04-06T15:33:44Z</time></trkpt><trkpt lat="42.75189131486211" lon="2.6758620237776065"><ele>110.20000000000002</ele><time>2026-04-06T15:33:45Z</time></trkpt><trkpt lat="42.751962143392575" lon="2.675767781649525"><ele>108.8</ele><time>2026-04-06T15:33:46Z</time></trkpt><trkpt lat="42.75202947027392" lon="2.6756697319960767"><ele>107.4</ele><time>2026-04-06T15:33:47Z</time></trkpt><trkpt lat="42.75209548353173" lon="2.675572005555912"><ele>106.0</ele><time>2026-04-06T15:33:48Z</time></trkpt><trkpt lat="42.7521587632823" lon="2.6754785471927174"><ele>106.0</ele><time>2026-04-06T15:33:49Z</time></trkpt><trkpt lat="42.75222415839905" lon="2.675391692999876"><ele>106.0</ele><time>2026-04-06T15:33:50Z</time></trkpt><trkpt lat="42.75229199183583" lon="2.67531418778392"><ele>106.0</ele><time>2026-04-06T15:33:51Z</time></trkpt><trkpt lat="42.752363261365694" lon="2.6752419933950775"><ele>106.0</ele><time>2026-04-06T15:33:52Z</time></trkpt><trkpt lat="42.752438370066926" lon="2.675169863698484"><ele>106.0</ele><time>2026-04-06T15:33:53Z</time></trkpt><trkpt lat="42.75252796758322" lon="2.6750930429503295"><ele>106.0</ele><time>2026-04-06T15:33:54Z</time></trkpt><trkpt lat="42.75262925011484" lon="2.6750341715724826"><ele>106.0</ele><time>2026-04-06T15:33:55Z</time></trkpt><trkpt lat="42.752736002834084" lon="2.6749907081155486"><ele>106.0</ele><time>2026-04-06T15:33:56Z</time></trkpt><trkpt lat="42.75284208638286" lon="2.6749372011447594"><ele>106.0</ele><time>2026-04-06T15:33:57Z</time></trkpt><trkpt lat="42.752974894154555" lon="2.6748704828624033"><ele>106.0</ele><time>2026-04-06T15:33:58Z</time></trkpt><trkpt lat="42.75309268919938" lon="2.674815393094114"><ele>106.0</ele><time>2026-04-06T15:33:59Z</time></trkpt><trkpt lat="42.7532027330182" lon="2.67477038085488"><ele>106.0</ele><time>2026-04-06T15:34:00Z</time></trkpt><trkpt lat="42.75332001558247" lon="2.6747119905463275"><ele>106.0</ele><time>2026-04-06T15:34:01Z</time></trkpt><trkpt lat="42.75344334264705" lon="2.674649692817181"><ele>105.83333333333334</ele><time>2026-04-06T15:34:02Z</time></trkpt><trkpt lat="42.75355363195878" lon="2.6745931606909994"><ele>105.66666666666667</ele><time>2026-04-06T15:34:03Z</time></trkpt><trkpt lat="42.75363882146878" lon="2.674556394497977"><ele>105.5</ele><time>2026-04-06T15:34:04Z</time></trkpt><trkpt lat="42.75371136393833" lon="2.6745249366531714"><ele>105.33333333333334</ele><time>2026-04-06T15:34:05Z</time></trkpt><trkpt lat="42.753773536966904" lon="2.674495048787683"><ele>105.16666666666667</ele><time>2026-04-06T15:34:06Z</time></trkpt><trkpt lat="42.753841910009974" lon="2.6744803215758473"><ele>105.0</ele><time>2026-04-06T15:34:08Z</time></trkpt><trkpt lat="42.75390964776518" lon="2.674491212885876"><ele>105.0</ele><time>2026-04-06T15:34:42.999Z</time></trkpt><trkpt lat="42.753981024689466" lon="2.674538678962604"><ele>105.0</ele><time>2026-04-06T15:35:09.999Z</time></trkpt><trkpt lat="42.754077656188294" lon="2.6746473673083204"><ele>105.0</ele><time>2026-04-06T15:35:11.999Z</time></trkpt><trkpt lat="42.754137415650604" lon="2.6747210005685846"><ele>105.0</ele><time>2026-04-06T15:35:12.999Z</time></trkpt><trkpt lat="42.754201299916076" lon="2.6747998673165063"><ele>105.0</ele><time>2026-04-06T15:35:13.999Z</time></trkpt><trkpt lat="42.7542721968742" lon="2.6748918237254644"><ele>105.0</ele><time>2026-04-06T15:35:14.999Z</time></trkpt><trkpt lat="42.754342577196496" lon="2.6749833861894965"><ele>105.0</ele><time>2026-04-06T15:35:15.999Z</time></trkpt><trkpt lat="42.75440202957788" lon="2.6750708705354183"><ele>105.0</ele><time>2026-04-06T15:35:17Z</time></trkpt><trkpt lat="42.7544681548383" lon="2.6751542549639873"><ele>105.0</ele><time>2026-04-06T15:35:18Z</time></trkpt><trkpt lat="42.75453582851351" lon="2.6752355760810067"><ele>105.0</ele><time>2026-04-06T15:35:19Z</time></trkpt><trkpt lat="42.75460729410101" lon="2.675317799805791"><ele>104.0</ele><time>2026-04-06T15:35:20Z</time></trkpt><trkpt lat="42.75467907789449" lon="2.675415031364443"><ele>103.0</ele><time>2026-04-06T15:35:21Z</time></trkpt><trkpt lat="42.75475826761679" lon="2.675527849780294"><ele>102.0</ele><time>2026-04-06T15:35:22Z</time></trkpt><trkpt lat="42.7548493065118" lon="2.6756509740283763"><ele>101.0</ele><time>2026-04-06T15:35:23Z</time></trkpt><trkpt lat="42.75494319592887" lon="2.6757759222093984"><ele>101.0</ele><time>2026-04-06T15:35:24Z</time></trkpt><trkpt lat="42.75504143984569" lon="2.6759076005895857"><ele>101.0</ele><time>2026-04-06T15:35:25Z</time></trkpt><trkpt lat="42.75514060785474" lon="2.6760388902650556"><ele>101.0</ele><time>2026-04-06T15:35:26Z</time></trkpt><trkpt lat="42.75522971136131" lon="2.6761592367808285"><ele>101.0</ele><time>2026-04-06T15:35:27Z</time></trkpt><trkpt lat="42.75534207510581" lon="2.676300631614084"><ele>100.33333333333333</ele><time>2026-04-06T15:35:28Z</time></trkpt><trkpt lat="42.755448459477584" lon="2.676430580401672"><ele>99.66666666666666</ele><time>2026-04-06T15:35:29Z</time></trkpt><trkpt lat="42.75549766833006" lon="2.6765172234830406"><ele>99.0</ele><time>2026-04-06T15:35:30Z</time></trkpt><trkpt lat="42.75575146026337" lon="2.6768348572122074"><ele>98.75</ele><time>2026-04-06T15:35:32Z</time></trkpt><trkpt lat="42.7558533552871" lon="2.6769541933091467"><ele>98.5</ele><time>2026-04-06T15:35:33Z</time></trkpt><trkpt lat="42.75594514507259" lon="2.6770864954538687"><ele>98.25</ele><time>2026-04-06T15:35:34Z</time></trkpt><trkpt lat="42.75604265272922" lon="2.677212707269046"><ele>98.0</ele><time>2026-04-06T15:35:35Z</time></trkpt><trkpt lat="42.75614473539053" lon="2.6773468177288753"><ele>97.75</ele><time>2026-04-06T15:35:36Z</time></trkpt><trkpt lat="42.756235848301586" lon="2.677471112645499"><ele>97.5</ele><time>2026-04-06T15:35:37Z</time></trkpt><trkpt lat="42.75632304920794" lon="2.677571869578529"><ele>97.25</ele><time>2026-04-06T15:35:38Z</time></trkpt><trkpt lat="42.756404749489874" lon="2.6776769601541868"><ele>97.0</ele><time>2026-04-06T15:35:39Z</time></trkpt><trkpt lat="42.75648633102139" lon="2.677780376784967"><ele>96.8</ele><time>2026-04-06T15:35:40Z</time></trkpt><trkpt lat="42.75657400682008" lon="2.6778727391842674"><ele>96.6</ele><time>2026-04-06T15:35:41Z</time></trkpt><trkpt lat="42.75665115947619" lon="2.6779795728112394"><ele>96.39999999999999</ele><time>2026-04-06T15:35:42Z</time></trkpt><trkpt lat="42.75673194582113" lon="2.6780809643690064"><ele>96.19999999999999</ele><time>2026-04-06T15:35:43Z</time></trkpt><trkpt lat="42.75681244711996" lon="2.6781891166805707"><ele>96.0</ele><time>2026-04-06T15:35:44Z</time></trkpt><trkpt lat="42.75688691407336" lon="2.678283743729703"><ele>96.0</ele><time>2026-04-06T15:35:45Z</time></trkpt><trkpt lat="42.75695550656186" lon="2.6783785694054196"><ele>96.0</ele><time>2026-04-06T15:35:46Z</time></trkpt><trkpt lat="42.75703886579817" lon="2.6784887420123975"><ele>96.0</ele><time>2026-04-06T15:35:47Z</time></trkpt><trkpt lat="42.757134062369374" lon="2.6786139561188897"><ele>96.0</ele><time>2026-04-06T15:35:48Z</time></trkpt><trkpt lat="42.7572310228639" lon="2.6787401938482978"><ele>96.66666666666666</ele><time>2026-04-06T15:35:49Z</time></trkpt><trkpt lat="42.7573397640818" lon="2.6788763952034724"><ele>97.33333333333333</ele><time>2026-04-06T15:35:50Z</time></trkpt><trkpt lat="42.75745852447224" lon="2.6790316129337106"><ele>98.0</ele><time>2026-04-06T15:35:51Z</time></trkpt><trkpt lat="42.757574961730256" lon="2.67918835667249"><ele>98.0</ele><time>2026-04-06T15:35:52Z</time></trkpt><trkpt lat="42.757707647040775" lon="2.679360867064435"><ele>98.0</ele><time>2026-04-06T15:35:53Z</time></trkpt><trkpt lat="42.757847996333844" lon="2.6795367506487735"><ele>98.0</ele><time>2026-04-06T15:35:54Z</time></trkpt><trkpt lat="42.75798809013904" lon="2.6797104995699508"><ele>98.0</ele><time>2026-04-06T15:35:55Z</time></trkpt><trkpt lat="42.75810957965923" lon="2.6798656550027995"><ele>98.0</ele><time>2026-04-06T15:35:56Z</time></trkpt><trkpt lat="42.758237108347465" lon="2.680035006370168"><ele>98.0</ele><time>2026-04-06T15:35:57Z</time></trkpt><trkpt lat="42.758364819851074" lon="2.680195485106623"><ele>98.0</ele><time>2026-04-06T15:35:58Z</time></trkpt><trkpt lat="42.75848309373824" lon="2.680337878489378"><ele>98.0</ele><time>2026-04-06T15:35:59Z</time></trkpt><trkpt lat="42.758586470607156" lon="2.6804799636300625"><ele>98.0</ele><time>2026-04-06T15:36:00Z</time></trkpt><trkpt lat="42.75868948873079" lon="2.6806300409425647"><ele>97.0</ele><time>2026-04-06T15:36:01Z</time></trkpt><trkpt lat="42.758800861697296" lon="2.6807765332860063"><ele>96.0</ele><time>2026-04-06T15:36:02Z</time></trkpt><trkpt lat="42.75891589224064" lon="2.680927101018477"><ele>95.0</ele><time>2026-04-06T15:36:03Z</time></trkpt><trkpt lat="42.75903493121036" lon="2.681082363591148"><ele>95.33333333333334</ele><time>2026-04-06T15:36:04Z</time></trkpt><trkpt lat="42.75915317684742" lon="2.68124167477168"><ele>95.66666666666667</ele><time>2026-04-06T15:36:05Z</time></trkpt><trkpt lat="42.75927607682738" lon="2.681394302369525"><ele>96.0</ele><time>2026-04-06T15:36:06Z</time></trkpt><trkpt lat="42.75938618825837" lon="2.68154510175705"><ele>95.66666666666667</ele><time>2026-04-06T15:36:07Z</time></trkpt><trkpt lat="42.75949192182116" lon="2.681681634343993"><ele>95.33333333333334</ele><time>2026-04-06T15:36:08Z</time></trkpt><trkpt lat="42.75960086520702" lon="2.6818197581660024"><ele>95.0</ele><time>2026-04-06T15:36:09Z</time></trkpt><trkpt lat="42.75971962376911" lon="2.681971312453948"><ele>95.0</ele><time>2026-04-06T15:36:10Z</time></trkpt><trkpt lat="42.75983099487403" lon="2.6821270347644193"><ele>95.0</ele><time>2026-04-06T15:36:11Z</time></trkpt><trkpt lat="42.75994900543904" lon="2.6822834477821424"><ele>95.0</ele><time>2026-04-06T15:36:12Z</time></trkpt><trkpt lat="42.76007396557972" lon="2.682448094232359"><ele>94.66666666666667</ele><time>2026-04-06T15:36:13Z</time></trkpt><trkpt lat="42.76020121396121" lon="2.682607485060533"><ele>94.33333333333333</ele><time>2026-04-06T15:36:14Z</time></trkpt><trkpt lat="42.76032723368187" lon="2.682769246179308"><ele>94.0</ele><time>2026-04-06T15:36:15Z</time></trkpt><trkpt lat="42.76045862180538" lon="2.6829337043280943"><ele>94.0</ele><time>2026-04-06T15:36:16Z</time></trkpt><trkpt lat="42.7605843265795" lon="2.683099106206943"><ele>94.0</ele><time>2026-04-06T15:36:17Z</time></trkpt><trkpt lat="42.76070797228347" lon="2.683259757199798"><ele>94.0</ele><time>2026-04-06T15:36:18Z</time></trkpt><trkpt lat="42.760837825498605" lon="2.6834319008433654"><ele>94.0</ele><time>2026-04-06T15:36:19Z</time></trkpt><trkpt lat="42.76095870677614" lon="2.683589475905084"><ele>94.0</ele><time>2026-04-06T15:36:20Z</time></trkpt><trkpt lat="42.761081409864225" lon="2.6837415778380804"><ele>94.0</ele><time>2026-04-06T15:36:21Z</time></trkpt><trkpt lat="42.76120737565913" lon="2.6838859456764976"><ele>94.66666666666666</ele><time>2026-04-06T15:36:22Z</time></trkpt><trkpt lat="42.76134365050329" lon="2.6840124600108357"><ele>95.33333333333333</ele><time>2026-04-06T15:36:23Z</time></trkpt><trkpt lat="42.76148970068388" lon="2.684128591197726"><ele>96.0</ele><time>2026-04-06T15:36:24Z</time></trkpt><trkpt lat="42.7616360171509" lon="2.684239679837747"><ele>96.0</ele><time>2026-04-06T15:36:25Z</time></trkpt><trkpt lat="42.76177289989295" lon="2.684351184485862"><ele>96.0</ele><time>2026-04-06T15:36:26Z</time></trkpt><trkpt lat="42.761906702316075" lon="2.684460065029962"><ele>96.0</ele><time>2026-04-06T15:36:27Z</time></trkpt><trkpt lat="42.7620474600546" lon="2.684575256405245"><ele>98.0</ele><time>2026-04-06T15:36:28Z</time></trkpt><trkpt lat="42.76218506834304" lon="2.68468703450803"><ele>100.0</ele><time>2026-04-06T15:36:29Z</time></trkpt><trkpt lat="42.762305396315156" lon="2.684786308588199"><ele>102.0</ele><time>2026-04-06T15:36:30Z</time></trkpt><trkpt lat="42.76240877116698" lon="2.6848737230758664"><ele>104.0</ele><time>2026-04-06T15:36:31Z</time></trkpt><trkpt lat="42.7625506770729" lon="2.6849933165267754"><ele>104.0</ele><time>2026-04-06T15:36:32Z</time></trkpt><trkpt lat="42.76268394733363" lon="2.6851079264240933"><ele>104.0</ele><time>2026-04-06T15:36:33Z</time></trkpt><trkpt lat="42.762826880778896" lon="2.6852222794244325"><ele>104.0</ele><time>2026-04-06T15:36:34Z</time></trkpt><trkpt lat="42.76295739130233" lon="2.685328829155419"><ele>101.0</ele><time>2026-04-06T15:36:35Z</time></trkpt><trkpt lat="42.76309155638934" lon="2.685446933937352"><ele>98.0</ele><time>2026-04-06T15:36:36Z</time></trkpt><trkpt lat="42.76322308312588" lon="2.685582537408001"><ele>95.0</ele><time>2026-04-06T15:36:37Z</time></trkpt><trkpt lat="42.763345881869654" lon="2.685729938914024"><ele>95.0</ele><time>2026-04-06T15:36:38Z</time></trkpt><trkpt lat="42.76346665779211" lon="2.685891862519927"><ele>95.0</ele><time>2026-04-06T15:36:39Z</time></trkpt><trkpt lat="42.76358023054778" lon="2.6860830651956875"><ele>95.0</ele><time>2026-04-06T15:36:40Z</time></trkpt><trkpt lat="42.76368647612632" lon="2.6862565773342575"><ele>93.75</ele><time>2026-04-06T15:36:41Z</time></trkpt><trkpt lat="42.76379436289744" lon="2.686425043604529"><ele>92.5</ele><time>2026-04-06T15:36:42Z</time></trkpt><trkpt lat="42.76388239758826" lon="2.686574715693506"><ele>91.25</ele><time>2026-04-06T15:36:43Z</time></trkpt><trkpt lat="42.763970074360145" lon="2.6867185870257466"><ele>90.0</ele><time>2026-04-06T15:36:44Z</time></trkpt><trkpt lat="42.76405645553166" lon="2.686857992343965"><ele>89.0</ele><time>2026-04-06T15:36:45Z</time></trkpt><trkpt lat="42.76413532597756" lon="2.6869912349192617"><ele>88.0</ele><time>2026-04-06T15:36:46Z</time></trkpt><trkpt lat="42.76421970858935" lon="2.687127433947514"><ele>87.0</ele><time>2026-04-06T15:36:47Z</time></trkpt><trkpt lat="42.764309169145825" lon="2.6872704870663084"><ele>86.0</ele><time>2026-04-06T15:36:48Z</time></trkpt><trkpt lat="42.76440374925228" lon="2.6874183685606328"><ele>86.0</ele><time>2026-04-06T15:36:48.999Z</time></trkpt><trkpt lat="42.7645131280844" lon="2.6875848864037466"><ele>86.0</ele><time>2026-04-06T15:36:49.999Z</time></trkpt><trkpt lat="42.76461893483956" lon="2.6877526892981143"><ele>86.0</ele><time>2026-04-06T15:36:50.999Z</time></trkpt><trkpt lat="42.7647165545182" lon="2.6879091990138746"><ele>87.0</ele><time>2026-04-06T15:36:51.999Z</time></trkpt><trkpt lat="42.76481698737568" lon="2.688069549042646"><ele>88.0</ele><time>2026-04-06T15:36:52.999Z</time></trkpt><trkpt lat="42.76491653827298" lon="2.6882341841824955"><ele>89.0</ele><time>2026-04-06T15:36:53.999Z</time></trkpt><trkpt lat="42.765013387780996" lon="2.688395167706033"><ele>89.0</ele><time>2026-04-06T15:36:54.999Z</time></trkpt><trkpt lat="42.765121383110106" lon="2.6885601329178574"><ele>89.0</ele><time>2026-04-06T15:36:55.999Z</time></trkpt><trkpt lat="42.76522602882287" lon="2.688719786194347"><ele>89.0</ele><time>2026-04-06T15:36:56.999Z</time></trkpt><trkpt lat="42.765322316349874" lon="2.6888737392127675"><ele>88.0</ele><time>2026-04-06T15:36:57.999Z</time></trkpt><trkpt lat="42.76542178672503" lon="2.6890324583097334"><ele>87.0</ele><time>2026-04-06T15:36:58.999Z</time></trkpt><trkpt lat="42.76552706062418" lon="2.6891976569655958"><ele>86.0</ele><time>2026-04-06T15:36:59.999Z</time></trkpt><trkpt lat="42.76562443041697" lon="2.6893492154500938"><ele>86.33333333333334</ele><time>2026-04-06T15:37:00.999Z</time></trkpt><trkpt lat="42.765722302323056" lon="2.6895109230482714"><ele>86.66666666666667</ele><time>2026-04-06T15:37:01.999Z</time></trkpt><trkpt lat="42.76582174886754" lon="2.689669506137348"><ele>87.0</ele><time>2026-04-06T15:37:02.999Z</time></trkpt><trkpt lat="42.7659305895967" lon="2.68983554353539"><ele>87.0</ele><time>2026-04-06T15:37:03.999Z</time></trkpt><trkpt lat="42.766024609185045" lon="2.689987693258158"><ele>87.0</ele><time>2026-04-06T15:37:04.999Z</time></trkpt><trkpt lat="42.766130048670476" lon="2.6901579203390367"><ele>87.0</ele><time>2026-04-06T15:37:05.999Z</time></trkpt><trkpt lat="42.76623008538087" lon="2.690317769014208"><ele>86.66666666666667</ele><time>2026-04-06T15:37:06.999Z</time></trkpt><trkpt lat="42.76633569649256" lon="2.6904686834690557"><ele>86.33333333333334</ele><time>2026-04-06T15:37:07.999Z</time></trkpt><trkpt lat="42.76644095794014" lon="2.6906277276391517"><ele>86.0</ele><time>2026-04-06T15:37:08.999Z</time></trkpt><trkpt lat="42.766546667848765" lon="2.69079375392285"><ele>86.0</ele><time>2026-04-06T15:37:09.999Z</time></trkpt><trkpt lat="42.76664636950977" lon="2.6909532706797887"><ele>86.0</ele><time>2026-04-06T15:37:10.999Z</time></trkpt><trkpt lat="42.76674199576253" lon="2.691109170181342"><ele>86.0</ele><time>2026-04-06T15:37:11.999Z</time></trkpt><trkpt lat="42.76683082845715" lon="2.6912591324868953"><ele>86.0</ele><time>2026-04-06T15:37:12.999Z</time></trkpt><trkpt lat="42.766926679307" lon="2.691406606760103"><ele>86.0</ele><time>2026-04-06T15:37:13.999Z</time></trkpt><trkpt lat="42.767020720864714" lon="2.691557433617001"><ele>86.0</ele><time>2026-04-06T15:37:14.999Z</time></trkpt><trkpt lat="42.76710565932228" lon="2.691691904995551"><ele>86.0</ele><time>2026-04-06T15:37:15.999Z</time></trkpt><trkpt lat="42.767180801051914" lon="2.691813061394421"><ele>86.0</ele><time>2026-04-06T15:37:16.999Z</time></trkpt><trkpt lat="42.7672547235491" lon="2.6919355740382085"><ele>86.19999999999999</ele><time>2026-04-06T15:37:17.999Z</time></trkpt><trkpt lat="42.767325369298185" lon="2.6920569239428906"><ele>86.39999999999999</ele><time>2026-04-06T15:37:18.999Z</time></trkpt><trkpt lat="42.767404090439236" lon="2.692186478334253"><ele>86.6</ele><time>2026-04-06T15:37:19.999Z</time></trkpt><trkpt lat="42.76747592695458" lon="2.6922944990373594"><ele>86.8</ele><time>2026-04-06T15:37:20.999Z</time></trkpt><trkpt lat="42.767552277134634" lon="2.69238477952212"><ele>87.0</ele><time>2026-04-06T15:37:21.999Z</time></trkpt><trkpt lat="42.767621925003354" lon="2.6924794578742324"><ele>87.0</ele><time>2026-04-06T15:37:23Z</time></trkpt><trkpt lat="42.76769082261042" lon="2.6925746234508927"><ele>87.0</ele><time>2026-04-06T15:37:24Z</time></trkpt><trkpt lat="42.767768698140095" lon="2.6926694618762936"><ele>87.0</ele><time>2026-04-06T15:37:25Z</time></trkpt><trkpt lat="42.76783865796402" lon="2.692759522034553"><ele>87.0</ele><time>2026-04-06T15:37:26Z</time></trkpt><trkpt lat="42.76790486166725" lon="2.692847762230683"><ele>87.0</ele><time>2026-04-06T15:37:27Z</time></trkpt><trkpt lat="42.76797077170662" lon="2.692922621380053"><ele>86.0</ele><time>2026-04-06T15:37:28Z</time></trkpt><trkpt lat="42.76804625677996" lon="2.693009901398336"><ele>85.0</ele><time>2026-04-06T15:37:29Z</time></trkpt><trkpt lat="42.768128869922776" lon="2.6931187085310375"><ele>84.0</ele><time>2026-04-06T15:37:30Z</time></trkpt><trkpt lat="42.76821554206679" lon="2.6932291615494983"><ele>83.0</ele><time>2026-04-06T15:37:31Z</time></trkpt><trkpt lat="42.768295179996095" lon="2.6933087527070785"><ele>82.0</ele><time>2026-04-06T15:37:32Z</time></trkpt><trkpt lat="42.76837297998787" lon="2.6933867469463015"><ele>82.0</ele><time>2026-04-06T15:37:33Z</time></trkpt><trkpt lat="42.768422591646285" lon="2.693492309183562"><ele>82.0</ele><time>2026-04-06T15:37:34Z</time></trkpt><trkpt lat="42.76849834835249" lon="2.6936060724487807"><ele>82.0</ele><time>2026-04-06T15:37:35Z</time></trkpt><trkpt lat="42.76858069277686" lon="2.693699462167717"><ele>82.0</ele><time>2026-04-06T15:37:36Z</time></trkpt><trkpt lat="42.768679366219" lon="2.6937708383854613"><ele>82.0</ele><time>2026-04-06T15:37:37Z</time></trkpt><trkpt lat="42.768787377945095" lon="2.693874628964236"><ele>81.5</ele><time>2026-04-06T15:37:38Z</time></trkpt><trkpt lat="42.76887670363778" lon="2.6940035196957104"><ele>81.0</ele><time>2026-04-06T15:37:39Z</time></trkpt><trkpt lat="42.76896293646123" lon="2.694143431834122"><ele>80.5</ele><time>2026-04-06T15:37:40Z</time></trkpt><trkpt lat="42.769055153532896" lon="2.6942755376760155"><ele>80.0</ele><time>2026-04-06T15:37:41Z</time></trkpt><trkpt lat="42.769147613813736" lon="2.694385777306795"><ele>80.2</ele><time>2026-04-06T15:37:42Z</time></trkpt><trkpt lat="42.76923073637737" lon="2.6944932202501297"><ele>80.4</ele><time>2026-04-06T15:37:43Z</time></trkpt><trkpt lat="42.76931369976324" lon="2.694593713487566"><ele>80.6</ele><time>2026-04-06T15:37:44Z</time></trkpt><trkpt lat="42.76939112294729" lon="2.6946821453195082"><ele>80.8</ele><time>2026-04-06T15:37:45Z</time></trkpt><trkpt lat="42.769469808298595" lon="2.6947669009297837"><ele>81.0</ele><time>2026-04-06T15:37:46Z</time></trkpt><trkpt lat="42.76955185737656" lon="2.694855883898526"><ele>80.6</ele><time>2026-04-06T15:37:47Z</time></trkpt><trkpt lat="42.76962786570966" lon="2.694956196904756"><ele>80.19999999999999</ele><time>2026-04-06T15:37:48Z</time></trkpt><trkpt lat="42.76970151313723" lon="2.695052401590021"><ele>79.80000000000001</ele><time>2026-04-06T15:37:49Z</time></trkpt><trkpt lat="42.769786801055936" lon="2.6951546306795127"><ele>79.4</ele><time>2026-04-06T15:37:50Z</time></trkpt><trkpt lat="42.76987542825106" lon="2.6952651888538095"><ele>79.0</ele><time>2026-04-06T15:37:51Z</time></trkpt><trkpt lat="42.76995427063367" lon="2.6953596916703177"><ele>79.0</ele><time>2026-04-06T15:37:52Z</time></trkpt><trkpt lat="42.77003175605011" lon="2.6954515687691205"><ele>79.0</ele><time>2026-04-06T15:37:53Z</time></trkpt><trkpt lat="42.770107926146" lon="2.695545651479911"><ele>79.0</ele><time>2026-04-06T15:37:54Z</time></trkpt><trkpt lat="42.77019701557674" lon="2.6956462022397467"><ele>79.0</ele><time>2026-04-06T15:37:55Z</time></trkpt><trkpt lat="42.770287941579646" lon="2.69577053901279"><ele>79.25</ele><time>2026-04-06T15:37:56Z</time></trkpt><trkpt lat="42.770383236118526" lon="2.6958706582507665"><ele>79.5</ele><time>2026-04-06T15:37:57Z</time></trkpt><trkpt lat="42.77047124570008" lon="2.695992028739882"><ele>79.75</ele><time>2026-04-06T15:37:58Z</time></trkpt><trkpt lat="42.770555013438" lon="2.696100439098274"><ele>80.0</ele><time>2026-04-06T15:37:59Z</time></trkpt><trkpt lat="42.77064444894286" lon="2.696200340672921"><ele>80.0</ele><time>2026-04-06T15:38:00Z</time></trkpt><trkpt lat="42.770734942047056" lon="2.6963061893908513"><ele>80.0</ele><time>2026-04-06T15:38:01Z</time></trkpt><trkpt lat="42.770817675222624" lon="2.6964195127426875"><ele>80.0</ele><time>2026-04-06T15:38:02Z</time></trkpt><trkpt lat="42.770902400256595" lon="2.696534939957157"><ele>80.0</ele><time>2026-04-06T15:38:03Z</time></trkpt><trkpt lat="42.77100169402495" lon="2.6966397690936708"><ele>79.75</ele><time>2026-04-06T15:38:04Z</time></trkpt><trkpt lat="42.77110361683087" lon="2.6967529694135823"><ele>79.5</ele><time>2026-04-06T15:38:05Z</time></trkpt><trkpt lat="42.77118645016588" lon="2.6968665651462502"><ele>79.25</ele><time>2026-04-06T15:38:06Z</time></trkpt><trkpt lat="42.771263933937" lon="2.6969604474809605"><ele>79.0</ele><time>2026-04-06T15:38:07Z</time></trkpt><trkpt lat="42.7713392962405" lon="2.6970534969418476"><ele>79.0</ele><time>2026-04-06T15:38:08Z</time></trkpt><trkpt lat="42.77141178101141" lon="2.69713893158805"><ele>79.0</ele><time>2026-04-06T15:38:09Z</time></trkpt><trkpt lat="42.771480450419276" lon="2.697219791789182"><ele>79.0</ele><time>2026-04-06T15:38:10Z</time></trkpt><trkpt lat="42.77154840346274" lon="2.6973045444208186"><ele>79.0</ele><time>2026-04-06T15:38:11Z</time></trkpt><trkpt lat="42.7716164304099" lon="2.6973850398359627"><ele>79.0</ele><time>2026-04-06T15:38:12Z</time></trkpt><trkpt lat="42.77169487678724" lon="2.697472851886072"><ele>79.0</ele><time>2026-04-06T15:38:13Z</time></trkpt><trkpt lat="42.771794833747734" lon="2.6975471233484414"><ele>79.0</ele><time>2026-04-06T15:38:14Z</time></trkpt><trkpt lat="42.771912944825395" lon="2.697616836833662"><ele>79.0</ele><time>2026-04-06T15:38:15Z</time></trkpt><trkpt lat="42.77202966980514" lon="2.697675572808268"><ele>79.0</ele><time>2026-04-06T15:38:16Z</time></trkpt><trkpt lat="42.77212912262927" lon="2.6977226915752976"><ele>79.6</ele><time>2026-04-06T15:38:17Z</time></trkpt><trkpt lat="42.772234719259984" lon="2.697768384455512"><ele>80.2</ele><time>2026-04-06T15:38:18Z</time></trkpt><trkpt lat="42.77233978956161" lon="2.6978034363195307"><ele>80.8</ele><time>2026-04-06T15:38:19Z</time></trkpt><trkpt lat="42.7724298373768" lon="2.697838095309004"><ele>81.39999999999999</ele><time>2026-04-06T15:38:20Z</time></trkpt><trkpt lat="42.77252557641857" lon="2.6978635492900693"><ele>82.0</ele><time>2026-04-06T15:38:21Z</time></trkpt><trkpt lat="42.772593216275176" lon="2.6979287665242024"><ele>82.0</ele><time>2026-04-06T15:38:22Z</time></trkpt><trkpt lat="42.772640023633095" lon="2.6979874197977547"><ele>82.0</ele><time>2026-04-06T15:38:23Z</time></trkpt><trkpt lat="42.772731476154085" lon="2.698054224102951"><ele>82.0</ele><time>2026-04-06T15:38:25Z</time></trkpt><trkpt lat="42.77276482627375" lon="2.698143961851038"><ele>82.0</ele><time>2026-04-06T15:38:52.999Z</time></trkpt><trkpt lat="42.77281110398946" lon="2.6980836463478086"><ele>82.0</ele><time>2026-04-06T15:38:54.999Z</time></trkpt><trkpt lat="42.77284738338453" lon="2.697959698673043"><ele>82.0</ele><time>2026-04-06T15:38:56.999Z</time></trkpt><trkpt lat="42.772918743580284" lon="2.6978025821645226"><ele>81.19999999999999</ele><time>2026-04-06T15:38:58.999Z</time></trkpt><trkpt lat="42.772958323913564" lon="2.697712311555431"><ele>80.39999999999999</ele><time>2026-04-06T15:38:59.999Z</time></trkpt><trkpt lat="42.772994970713675" lon="2.6976226521202635"><ele>79.6</ele><time>2026-04-06T15:39:00.999Z</time></trkpt><trkpt lat="42.773043427341584" lon="2.697524598925201"><ele>78.8</ele><time>2026-04-06T15:39:01.999Z</time></trkpt><trkpt lat="42.7731108240609" lon="2.697397410322393"><ele>78.0</ele><time>2026-04-06T15:39:02.999Z</time></trkpt><trkpt lat="42.77319942825905" lon="2.69724199499709"><ele>78.0</ele><time>2026-04-06T15:39:03.999Z</time></trkpt><trkpt lat="42.773255175170284" lon="2.697119171193208"><ele>78.0</ele><time>2026-04-06T15:39:04.999Z</time></trkpt><trkpt lat="42.77333113506344" lon="2.6969626407297977"><ele>78.0</ele><time>2026-04-06T15:39:05.999Z</time></trkpt><trkpt lat="42.77339066361705" lon="2.696833977079316"><ele>78.0</ele><time>2026-04-06T15:39:06.999Z</time></trkpt><trkpt lat="42.77344698115604" lon="2.696719397225536"><ele>78.2</ele><time>2026-04-06T15:39:07.999Z</time></trkpt><trkpt lat="42.7735052419013" lon="2.6966116070241264"><ele>78.4</ele><time>2026-04-06T15:39:08.999Z</time></trkpt><trkpt lat="42.77353141235884" lon="2.696480134466196"><ele>78.60000000000001</ele><time>2026-04-06T15:39:09.999Z</time></trkpt><trkpt lat="42.77362557305173" lon="2.6963807990246726"><ele>78.8</ele><time>2026-04-06T15:39:10.999Z</time></trkpt><trkpt lat="42.77370244077274" lon="2.6962936913805033"><ele>79.0</ele><time>2026-04-06T15:39:11.999Z</time></trkpt><trkpt lat="42.773772802516724" lon="2.6962147620269397"><ele>78.8</ele><time>2026-04-06T15:39:12.999Z</time></trkpt><trkpt lat="42.77383264818411" lon="2.696135040236438"><ele>78.60000000000001</ele><time>2026-04-06T15:39:13.999Z</time></trkpt><trkpt lat="42.77390806140476" lon="2.6960756832314416"><ele>78.4</ele><time>2026-04-06T15:39:14.999Z</time></trkpt><trkpt lat="42.77397485453708" lon="2.695998862322504"><ele>78.2</ele><time>2026-04-06T15:39:15.999Z</time></trkpt><trkpt lat="42.77405794440834" lon="2.695905640858194"><ele>78.0</ele><time>2026-04-06T15:39:16.999Z</time></trkpt><trkpt lat="42.77413931482964" lon="2.6958528297117974"><ele>78.0</ele><time>2026-04-06T15:39:17.999Z</time></trkpt><trkpt lat="42.77422606087533" lon="2.695815616878542"><ele>78.0</ele><time>2026-04-06T15:39:18.999Z</time></trkpt><trkpt lat="42.77430169273818" lon="2.695759326742174"><ele>78.0</ele><time>2026-04-06T15:39:19.999Z</time></trkpt><trkpt lat="42.77438712338125" lon="2.695720889346252"><ele>78.0</ele><time>2026-04-06T15:39:20.999Z</time></trkpt><trkpt lat="42.77445875517144" lon="2.6956992975164744"><ele>78.0</ele><time>2026-04-06T15:39:21.999Z</time></trkpt><trkpt lat="42.77452790607967" lon="2.695662708053967"><ele>78.0</ele><time>2026-04-06T15:39:22.999Z</time></trkpt><trkpt lat="42.77459241765931" lon="2.6956373287533997"><ele>77.83333333333333</ele><time>2026-04-06T15:39:23.999Z</time></trkpt><trkpt lat="42.77465341256344" lon="2.6956040776343966"><ele>77.66666666666667</ele><time>2026-04-06T15:39:24.999Z</time></trkpt><trkpt lat="42.77476495552907" lon="2.6955676895371607"><ele>77.5</ele><time>2026-04-06T15:39:26.999Z</time></trkpt><trkpt lat="42.77485781342055" lon="2.695543200153737"><ele>77.33333333333334</ele><time>2026-04-06T15:39:29Z</time></trkpt><trkpt lat="42.77490474216221" lon="2.6954529124052717"><ele>77.16666666666667</ele><time>2026-04-06T15:39:31Z</time></trkpt><trkpt lat="42.77488048991283" lon="2.695350489055893"><ele>77.0</ele><time>2026-04-06T15:39:34Z</time></trkpt><trkpt lat="42.7747910129823" lon="2.6953518961003744"><ele>77.0</ele><time>2026-04-06T15:41:54Z</time></trkpt><trkpt lat="42.77472443272125" lon="2.695394660586036"><ele>77.0</ele><time>2026-04-06T15:41:56Z</time></trkpt><trkpt lat="42.774673586772245" lon="2.6954491883951683"><ele>77.0</ele><time>2026-04-06T15:41:58Z</time></trkpt><trkpt lat="42.77463426528452" lon="2.695535169836995"><ele>77.0</ele><time>2026-04-06T15:42:00Z</time></trkpt><trkpt lat="42.77457541056466" lon="2.6956061682594243"><ele>77.0</ele><time>2026-04-06T15:42:02Z</time></trkpt><trkpt lat="42.77451477228738" lon="2.6956363774003678"><ele>77.0</ele><time>2026-04-06T15:42:03Z</time></trkpt><trkpt lat="42.77441420475693" lon="2.6956874712431036"><ele>77.16666666666667</ele><time>2026-04-06T15:42:04Z</time></trkpt><trkpt lat="42.774327349427686" lon="2.6957421252585347"><ele>77.33333333333334</ele><time>2026-04-06T15:42:05Z</time></trkpt><trkpt lat="42.774259875234634" lon="2.6957974246866834"><ele>77.5</ele><time>2026-04-06T15:42:06Z</time></trkpt><trkpt lat="42.77418724240628" lon="2.695815237177687"><ele>77.66666666666667</ele><time>2026-04-06T15:42:07Z</time></trkpt><trkpt lat="42.774120341505004" lon="2.6957676991031803"><ele>77.83333333333333</ele><time>2026-04-06T15:42:08Z</time></trkpt><trkpt lat="42.7740469005009" lon="2.695776368444746"><ele>78.0</ele><time>2026-04-06T15:42:09Z</time></trkpt><trkpt lat="42.77393386647712" lon="2.6960177407923176"><ele>78.0</ele><time>2026-04-06T15:42:10Z</time></trkpt><trkpt lat="42.77385218713774" lon="2.6960830061502388"><ele>78.0</ele><time>2026-04-06T15:42:11Z</time></trkpt><trkpt lat="42.773771471091116" lon="2.6961840763459524"><ele>78.0</ele><time>2026-04-06T15:42:12Z</time></trkpt><trkpt lat="42.77370200207063" lon="2.696277552199125"><ele>78.0</ele><time>2026-04-06T15:42:13Z</time></trkpt><trkpt lat="42.773634633632405" lon="2.6963682305223076"><ele>78.0</ele><time>2026-04-06T15:42:14Z</time></trkpt><trkpt lat="42.77356179057616" lon="2.696469537876934"><ele>78.0</ele><time>2026-04-06T15:42:15Z</time></trkpt><trkpt lat="42.77349565346588" lon="2.696574089119966"><ele>78.0</ele><time>2026-04-06T15:42:16Z</time></trkpt><trkpt lat="42.77343137813518" lon="2.6966715785109407"><ele>78.0</ele><time>2026-04-06T15:42:17Z</time></trkpt><trkpt lat="42.77337662161339" lon="2.696774363363241"><ele>78.0</ele><time>2026-04-06T15:42:18Z</time></trkpt><trkpt lat="42.773336268294564" lon="2.696891969712503"><ele>78.0</ele><time>2026-04-06T15:42:19Z</time></trkpt><trkpt lat="42.77328122020199" lon="2.6969898363994145"><ele>78.0</ele><time>2026-04-06T15:42:20Z</time></trkpt><trkpt lat="42.77322508227235" lon="2.6970905601381037"><ele>78.0</ele><time>2026-04-06T15:42:21Z</time></trkpt><trkpt lat="42.77317515754479" lon="2.697179248655841"><ele>78.0</ele><time>2026-04-06T15:42:22Z</time></trkpt><trkpt lat="42.77315064267692" lon="2.697276920797898"><ele>78.0</ele><time>2026-04-06T15:42:23Z</time></trkpt><trkpt lat="42.77311602654733" lon="2.6973661673529"><ele>78.0</ele><time>2026-04-06T15:42:24Z</time></trkpt><trkpt lat="42.77307874936411" lon="2.69744312829791"><ele>78.0</ele><time>2026-04-06T15:42:25Z</time></trkpt><trkpt lat="42.77304923853647" lon="2.6975326135588276"><ele>78.0</ele><time>2026-04-06T15:42:26Z</time></trkpt><trkpt lat="42.77301562664412" lon="2.697620777523217"><ele>78.0</ele><time>2026-04-06T15:42:27Z</time></trkpt><trkpt lat="42.772982961863015" lon="2.697722218944552"><ele>78.0</ele><time>2026-04-06T15:42:28Z</time></trkpt><trkpt lat="42.772939862710764" lon="2.6978150812704103"><ele>78.0</ele><time>2026-04-06T15:42:29Z</time></trkpt><trkpt lat="42.77290713957901" lon="2.697896214536623"><ele>78.0</ele><time>2026-04-06T15:42:30Z</time></trkpt><trkpt lat="42.77283910402631" lon="2.698003588530218"><ele>78.0</ele><time>2026-04-06T15:42:32Z</time></trkpt><trkpt lat="42.77275852435985" lon="2.6980600237651737"><ele>78.4</ele><time>2026-04-06T15:42:34Z</time></trkpt><trkpt lat="42.77264276514587" lon="2.698019480644545"><ele>78.8</ele><time>2026-04-06T15:42:36Z</time></trkpt><trkpt lat="42.77257240440188" lon="2.697944183742875"><ele>79.2</ele><time>2026-04-06T15:42:37Z</time></trkpt><trkpt lat="42.7724944095996" lon="2.697864010283425"><ele>79.6</ele><time>2026-04-06T15:42:38Z</time></trkpt><trkpt lat="42.772409477608576" lon="2.697791889624994"><ele>80.0</ele><time>2026-04-06T15:42:39Z</time></trkpt><trkpt lat="42.772317262095235" lon="2.697740732068665"><ele>80.0</ele><time>2026-04-06T15:42:40Z</time></trkpt><trkpt lat="42.77223280970411" lon="2.6977321719309577"><ele>80.0</ele><time>2026-04-06T15:42:41Z</time></trkpt><trkpt lat="42.772156090795505" lon="2.697719437457908"><ele>80.0</ele><time>2026-04-06T15:42:42Z</time></trkpt><trkpt lat="42.77208407452509" lon="2.6976875213921843"><ele>80.0</ele><time>2026-04-06T15:42:43Z</time></trkpt><trkpt lat="42.772005803087524" lon="2.697652463860814"><ele>80.0</ele><time>2026-04-06T15:42:44Z</time></trkpt><trkpt lat="42.77191495738271" lon="2.6975952219886334"><ele>80.0</ele><time>2026-04-06T15:42:45Z</time></trkpt><trkpt lat="42.77183719372415" lon="2.697548564178307"><ele>79.8</ele><time>2026-04-06T15:42:46Z</time></trkpt><trkpt lat="42.77174193529471" lon="2.697493971999738"><ele>79.6</ele><time>2026-04-06T15:42:47Z</time></trkpt><trkpt lat="42.77165332299381" lon="2.6974161918214166"><ele>79.4</ele><time>2026-04-06T15:42:48Z</time></trkpt><trkpt lat="42.771571719375004" lon="2.697312364634069"><ele>79.2</ele><time>2026-04-06T15:42:49Z</time></trkpt><trkpt lat="42.771502723791066" lon="2.697216327938731"><ele>79.0</ele><time>2026-04-06T15:42:50Z</time></trkpt><trkpt lat="42.77142720350282" lon="2.6971341663622277"><ele>79.0</ele><time>2026-04-06T15:42:51Z</time></trkpt><trkpt lat="42.7713499685552" lon="2.6970438831137233"><ele>79.0</ele><time>2026-04-06T15:42:52Z</time></trkpt><trkpt lat="42.7712792684965" lon="2.6969578648977315"><ele>79.0</ele><time>2026-04-06T15:42:53Z</time></trkpt><trkpt lat="42.7712018560558" lon="2.696866897854052"><ele>79.0</ele><time>2026-04-06T15:42:54Z</time></trkpt><trkpt lat="42.771122390100096" lon="2.6967743955824997"><ele>79.0</ele><time>2026-04-06T15:42:55Z</time></trkpt><trkpt lat="42.7710394128576" lon="2.6966791482285983"><ele>79.2</ele><time>2026-04-06T15:42:56Z</time></trkpt><trkpt lat="42.77095876284964" lon="2.6965984693224407"><ele>79.4</ele><time>2026-04-06T15:42:57Z</time></trkpt><trkpt lat="42.77087948611458" lon="2.696510962573702"><ele>79.6</ele><time>2026-04-06T15:42:58Z</time></trkpt><trkpt lat="42.77080228075495" lon="2.696409738980595"><ele>79.8</ele><time>2026-04-06T15:42:59Z</time></trkpt><trkpt lat="42.77073043030115" lon="2.69631327833468"><ele>80.0</ele><time>2026-04-06T15:43:00Z</time></trkpt><trkpt lat="42.77065866647947" lon="2.696231826480517"><ele>80.0</ele><time>2026-04-06T15:43:01Z</time></trkpt><trkpt lat="42.77056993306779" lon="2.6961271232999957"><ele>80.0</ele><time>2026-04-06T15:43:01.999Z</time></trkpt><trkpt lat="42.770473363312405" lon="2.696008032048455"><ele>80.0</ele><time>2026-04-06T15:43:02.999Z</time></trkpt><trkpt lat="42.770373598477136" lon="2.6958853701516268"><ele>80.0</ele><time>2026-04-06T15:43:03.999Z</time></trkpt><trkpt lat="42.77027913204339" lon="2.6957689050462688"><ele>79.75</ele><time>2026-04-06T15:43:04.999Z</time></trkpt><trkpt lat="42.77018960472295" lon="2.695656686748303"><ele>79.5</ele><time>2026-04-06T15:43:05.999Z</time></trkpt><trkpt lat="42.770111759213435" lon="2.695556137486199"><ele>79.25</ele><time>2026-04-06T15:43:06.999Z</time></trkpt><trkpt lat="42.770029473955255" lon="2.6954611005328886"><ele>79.0</ele><time>2026-04-06T15:43:07.999Z</time></trkpt><trkpt lat="42.769933751070674" lon="2.695353557281855"><ele>79.0</ele><time>2026-04-06T15:43:08.999Z</time></trkpt><trkpt lat="42.76983730328763" lon="2.6952090420136585"><ele>79.0</ele><time>2026-04-06T15:43:09.999Z</time></trkpt><trkpt lat="42.76972472481158" lon="2.695080641801611"><ele>79.0</ele><time>2026-04-06T15:43:10.999Z</time></trkpt><trkpt lat="42.76961922756983" lon="2.6949558716079705"><ele>79.0</ele><time>2026-04-06T15:43:11.999Z</time></trkpt><trkpt lat="42.76951354868596" lon="2.694828458600385"><ele>79.0</ele><time>2026-04-06T15:43:12.999Z</time></trkpt><trkpt lat="42.76942606588055" lon="2.694716389298359"><ele>79.0</ele><time>2026-04-06T15:43:13.999Z</time></trkpt><trkpt lat="42.76934264879963" lon="2.6946072348116608"><ele>79.0</ele><time>2026-04-06T15:43:14.999Z</time></trkpt><trkpt lat="42.76926192105161" lon="2.6945096077204767"><ele>79.0</ele><time>2026-04-06T15:43:15.999Z</time></trkpt><trkpt lat="42.76917950613797" lon="2.694410462776864"><ele>79.2</ele><time>2026-04-06T15:43:16.999Z</time></trkpt><trkpt lat="42.76909824656219" lon="2.6943090106951395"><ele>79.4</ele><time>2026-04-06T15:43:17.999Z</time></trkpt><trkpt lat="42.76902187999649" lon="2.694222006289732"><ele>79.6</ele><time>2026-04-06T15:43:18.999Z</time></trkpt><trkpt lat="42.76895030324496" lon="2.694127545751143"><ele>79.8</ele><time>2026-04-06T15:43:19.999Z</time></trkpt><trkpt lat="42.76887735207801" lon="2.6940356635030622"><ele>80.0</ele><time>2026-04-06T15:43:20.999Z</time></trkpt><trkpt lat="42.76881500626681" lon="2.6939429205649192"><ele>80.0</ele><time>2026-04-06T15:43:21.999Z</time></trkpt><trkpt lat="42.76875943609558" lon="2.693859668822286"><ele>80.0</ele><time>2026-04-06T15:43:22.999Z</time></trkpt><trkpt lat="42.76871404711113" lon="2.693760720194672"><ele>80.0</ele><time>2026-04-06T15:43:23.999Z</time></trkpt><trkpt lat="42.76866802106038" lon="2.6936404062837878"><ele>80.0</ele><time>2026-04-06T15:43:24.999Z</time></trkpt><trkpt lat="42.7686215231611" lon="2.693535388585961"><ele>80.0</ele><time>2026-04-06T15:43:25.999Z</time></trkpt><trkpt lat="42.76856799889995" lon="2.6934525623582637"><ele>80.0</ele><time>2026-04-06T15:43:26.999Z</time></trkpt><trkpt lat="42.76848018287815" lon="2.693392623683451"><ele>80.5</ele><time>2026-04-06T15:43:27.999Z</time></trkpt><trkpt lat="42.76836448550411" lon="2.6933394050956636"><ele>81.0</ele><time>2026-04-06T15:43:28.999Z</time></trkpt><trkpt lat="42.768250959903206" lon="2.6932665854642286"><ele>81.5</ele><time>2026-04-06T15:43:29.999Z</time></trkpt><trkpt lat="42.76814684337366" lon="2.693169074127874"><ele>82.0</ele><time>2026-04-06T15:43:30.999Z</time></trkpt><trkpt lat="42.768062455771634" lon="2.69306281876156"><ele>82.0</ele><time>2026-04-06T15:43:31.999Z</time></trkpt><trkpt lat="42.767974523356095" lon="2.6929536177973"><ele>82.0</ele><time>2026-04-06T15:43:32.999Z</time></trkpt><trkpt lat="42.76789234177593" lon="2.6928541456335573"><ele>82.0</ele><time>2026-04-06T15:43:33.999Z</time></trkpt><trkpt lat="42.76780575497668" lon="2.6927519700437883"><ele>82.0</ele><time>2026-04-06T15:43:34.999Z</time></trkpt><trkpt lat="42.76771853095468" lon="2.6926250216781913"><ele>83.25</ele><time>2026-04-06T15:43:35.999Z</time></trkpt><trkpt lat="42.76765235137803" lon="2.6925131182185766"><ele>84.5</ele><time>2026-04-06T15:43:36.999Z</time></trkpt><trkpt lat="42.76755079594623" lon="2.692403861208673"><ele>85.75</ele><time>2026-04-06T15:43:37.999Z</time></trkpt><trkpt lat="42.76747387651527" lon="2.692291891361173"><ele>87.0</ele><time>2026-04-06T15:43:38.999Z</time></trkpt><trkpt lat="42.7673981510254" lon="2.692173789803295"><ele>87.0</ele><time>2026-04-06T15:43:39.999Z</time></trkpt><trkpt lat="42.76731091977567" lon="2.692046594940177"><ele>87.0</ele><time>2026-04-06T15:43:41Z</time></trkpt><trkpt lat="42.76722086106801" lon="2.691907534514456"><ele>87.0</ele><time>2026-04-06T15:43:42Z</time></trkpt><trkpt lat="42.76713443679665" lon="2.6917682489440606"><ele>87.0</ele><time>2026-04-06T15:43:43Z</time></trkpt><trkpt lat="42.76705089891943" lon="2.69162916947514"><ele>86.66666666666667</ele><time>2026-04-06T15:43:44Z</time></trkpt><trkpt lat="42.766964237596405" lon="2.6914851955798147"><ele>86.33333333333334</ele><time>2026-04-06T15:43:45Z</time></trkpt><trkpt lat="42.76686440020826" lon="2.6913180622922575"><ele>86.0</ele><time>2026-04-06T15:43:46Z</time></trkpt><trkpt lat="42.766734208371545" lon="2.6911390474678156"><ele>86.0</ele><time>2026-04-06T15:43:47Z</time></trkpt><trkpt lat="42.76664848972917" lon="2.69099529455378"><ele>86.0</ele><time>2026-04-06T15:43:48Z</time></trkpt><trkpt lat="42.766540237997305" lon="2.6908088353495563"><ele>86.0</ele><time>2026-04-06T15:43:49Z</time></trkpt><trkpt lat="42.76641414319204" lon="2.6905976092704202"><ele>86.0</ele><time>2026-04-06T15:43:50Z</time></trkpt><trkpt lat="42.766274669764094" lon="2.6903686289344106"><ele>86.0</ele><time>2026-04-06T15:43:51Z</time></trkpt><trkpt lat="42.766122191915166" lon="2.6901302052991167"><ele>86.33333333333334</ele><time>2026-04-06T15:43:52Z</time></trkpt><trkpt lat="42.76597044091826" lon="2.689901490363597"><ele>86.66666666666667</ele><time>2026-04-06T15:43:53Z</time></trkpt><trkpt lat="42.765840802903234" lon="2.68969700683473"><ele>87.0</ele><time>2026-04-06T15:43:54Z</time></trkpt><trkpt lat="42.76571623248366" lon="2.6894987638904277"><ele>86.66666666666667</ele><time>2026-04-06T15:43:55Z</time></trkpt><trkpt lat="42.76558471170334" lon="2.6892905939180434"><ele>86.33333333333334</ele><time>2026-04-06T15:43:56Z</time></trkpt><trkpt lat="42.76543797766142" lon="2.6890598621844384"><ele>86.0</ele><time>2026-04-06T15:43:57Z</time></trkpt><trkpt lat="42.76528856983233" lon="2.68882094951468"><ele>87.0</ele><time>2026-04-06T15:43:58Z</time></trkpt><trkpt lat="42.76514904533879" lon="2.6885953521051706"><ele>88.0</ele><time>2026-04-06T15:43:59Z</time></trkpt><trkpt lat="42.76503881264391" lon="2.688410409444703"><ele>89.0</ele><time>2026-04-06T15:44:00Z</time></trkpt><trkpt lat="42.76494275833295" lon="2.688257366431814"><ele>89.0</ele><time>2026-04-06T15:44:01Z</time></trkpt><trkpt lat="42.76482517880502" lon="2.68810533963471"><ele>89.0</ele><time>2026-04-06T15:44:02Z</time></trkpt><trkpt lat="42.764747929253616" lon="2.6879461792201513"><ele>89.0</ele><time>2026-04-06T15:44:03Z</time></trkpt><trkpt lat="42.76464834691706" lon="2.6877968728995265"><ele>88.0</ele><time>2026-04-06T15:44:04Z</time></trkpt><trkpt lat="42.76454078967843" lon="2.6876288015851184"><ele>87.0</ele><time>2026-04-06T15:44:05Z</time></trkpt><trkpt lat="42.76443681301058" lon="2.6874659306988047"><ele>86.0</ele><time>2026-04-06T15:44:06Z</time></trkpt><trkpt lat="42.76433569104283" lon="2.687313812361474"><ele>87.33333333333334</ele><time>2026-04-06T15:44:07Z</time></trkpt><trkpt lat="42.76423420580669" lon="2.6871518268364603"><ele>88.66666666666667</ele><time>2026-04-06T15:44:08Z</time></trkpt><trkpt lat="42.76412991057031" lon="2.6870007490820385"><ele>90.0</ele><time>2026-04-06T15:44:09Z</time></trkpt><trkpt lat="42.764032007237496" lon="2.686843106607387"><ele>90.0</ele><time>2026-04-06T15:44:10Z</time></trkpt><trkpt lat="42.763924782348894" lon="2.6866899299266764"><ele>90.0</ele><time>2026-04-06T15:44:11Z</time></trkpt><trkpt lat="42.763830828209" lon="2.6865131744475104"><ele>90.0</ele><time>2026-04-06T15:44:12Z</time></trkpt><trkpt lat="42.763725751291176" lon="2.686346335788737"><ele>90.0</ele><time>2026-04-06T15:44:13Z</time></trkpt><trkpt lat="42.76362982107917" lon="2.6861875971323195"><ele>90.0</ele><time>2026-04-06T15:44:14Z</time></trkpt><trkpt lat="42.763534915524566" lon="2.6860307520884823"><ele>90.0</ele><time>2026-04-06T15:44:15Z</time></trkpt><trkpt lat="42.7634223832516" lon="2.685856824414837"><ele>91.66666666666667</ele><time>2026-04-06T15:44:16Z</time></trkpt><trkpt lat="42.76331326896599" lon="2.6857027981115196"><ele>93.33333333333334</ele><time>2026-04-06T15:44:17Z</time></trkpt><trkpt lat="42.763197972413124" lon="2.6855496230637654"><ele>95.0</ele><time>2026-04-06T15:44:18Z</time></trkpt><trkpt lat="42.763074932760404" lon="2.6854159657254124"><ele>95.0</ele><time>2026-04-06T15:44:19Z</time></trkpt><trkpt lat="42.76293790235982" lon="2.685297528171653"><ele>95.0</ele><time>2026-04-06T15:44:20Z</time></trkpt><trkpt lat="42.762798131072685" lon="2.6851804475327765"><ele>95.0</ele><time>2026-04-06T15:44:21Z</time></trkpt><trkpt lat="42.76265375661126" lon="2.685059416462455"><ele>98.0</ele><time>2026-04-06T15:44:22Z</time></trkpt><trkpt lat="42.7624983460382" lon="2.684931506469927"><ele>101.0</ele><time>2026-04-06T15:44:23Z</time></trkpt><trkpt lat="42.76236206519941" lon="2.6848094007031365"><ele>104.0</ele><time>2026-04-06T15:44:24Z</time></trkpt><trkpt lat="42.76221003240442" lon="2.6846885676810976"><ele>104.0</ele><time>2026-04-06T15:44:25Z</time></trkpt><trkpt lat="42.762072597031164" lon="2.684573360352731"><ele>104.0</ele><time>2026-04-06T15:44:26Z</time></trkpt><trkpt lat="42.76194089393084" lon="2.684469735730997"><ele>104.0</ele><time>2026-04-06T15:44:27Z</time></trkpt><trkpt lat="42.761806656255374" lon="2.6843631312235323"><ele>101.33333333333333</ele><time>2026-04-06T15:44:28Z</time></trkpt><trkpt lat="42.76167856382982" lon="2.684252285375444"><ele>98.66666666666666</ele><time>2026-04-06T15:44:29Z</time></trkpt><trkpt lat="42.761535962299874" lon="2.6841346816408924"><ele>96.0</ele><time>2026-04-06T15:44:30Z</time></trkpt><trkpt lat="42.761393074977754" lon="2.6840119461262546"><ele>96.0</ele><time>2026-04-06T15:44:31Z</time></trkpt><trkpt lat="42.76125362796681" lon="2.6838918339135605"><ele>96.0</ele><time>2026-04-06T15:44:32Z</time></trkpt><trkpt lat="42.76111752792738" lon="2.6837604742969856"><ele>96.0</ele><time>2026-04-06T15:44:33Z</time></trkpt><trkpt lat="42.76098519103356" lon="2.683623865649863"><ele>95.33333333333333</ele><time>2026-04-06T15:44:34Z</time></trkpt><trkpt lat="42.760863843362706" lon="2.683472442700129"><ele>94.66666666666666</ele><time>2026-04-06T15:44:35Z</time></trkpt><trkpt lat="42.760747311777955" lon="2.6833150280228883"><ele>94.0</ele><time>2026-04-06T15:44:36Z</time></trkpt><trkpt lat="42.76062836024141" lon="2.68314442465358"><ele>94.0</ele><time>2026-04-06T15:44:37Z</time></trkpt><trkpt lat="42.76051066158486" lon="2.682978437054613"><ele>94.0</ele><time>2026-04-06T15:44:38Z</time></trkpt><trkpt lat="42.7603858802311" lon="2.6828290048286436"><ele>94.0</ele><time>2026-04-06T15:44:39Z</time></trkpt><trkpt lat="42.76026680426568" lon="2.682690280220902"><ele>94.25</ele><time>2026-04-06T15:44:40Z</time></trkpt><trkpt lat="42.760175837547" lon="2.682569217144694"><ele>94.5</ele><time>2026-04-06T15:44:41Z</time></trkpt><trkpt lat="42.760094106189754" lon="2.682456952791959"><ele>94.75</ele><time>2026-04-06T15:44:42Z</time></trkpt><trkpt lat="42.76000465999815" lon="2.682332429378414"><ele>95.0</ele><time>2026-04-06T15:44:43Z</time></trkpt><trkpt lat="42.75991719254848" lon="2.682218644375567"><ele>95.0</ele><time>2026-04-06T15:44:44Z</time></trkpt><trkpt lat="42.75983915936507" lon="2.6821171268506254"><ele>95.0</ele><time>2026-04-06T15:44:45Z</time></trkpt><trkpt lat="42.7597671015306" lon="2.6820221928239385"><ele>95.0</ele><time>2026-04-06T15:44:46Z</time></trkpt><trkpt lat="42.75969838888459" lon="2.6819318961535434"><ele>95.0</ele><time>2026-04-06T15:44:47Z</time></trkpt><trkpt lat="42.759633807267214" lon="2.6818474663128735"><ele>95.0</ele><time>2026-04-06T15:44:48Z</time></trkpt><trkpt lat="42.759576238174965" lon="2.6817639800764166"><ele>94.75</ele><time>2026-04-06T15:44:49Z</time></trkpt><trkpt lat="42.75951016681401" lon="2.681666347198417"><ele>94.5</ele><time>2026-04-06T15:44:50Z</time></trkpt><trkpt lat="42.75942974510728" lon="2.681568455987697"><ele>94.25</ele><time>2026-04-06T15:44:51Z</time></trkpt><trkpt lat="42.75934108340679" lon="2.68145400107357"><ele>94.0</ele><time>2026-04-06T15:44:52Z</time></trkpt><trkpt lat="42.75924723583692" lon="2.6813333002114446"><ele>94.25</ele><time>2026-04-06T15:44:53Z</time></trkpt><trkpt lat="42.759151988187334" lon="2.681210306599753"><ele>94.5</ele><time>2026-04-06T15:44:54Z</time></trkpt><trkpt lat="42.759059350748224" lon="2.681079701531096"><ele>94.75</ele><time>2026-04-06T15:44:55Z</time></trkpt><trkpt lat="42.758959180935065" lon="2.6809557721631205"><ele>95.0</ele><time>2026-04-06T15:44:56Z</time></trkpt><trkpt lat="42.758857414722975" lon="2.680828412948607"><ele>95.0</ele><time>2026-04-06T15:44:57Z</time></trkpt><trkpt lat="42.75873652203114" lon="2.6806758843075267"><ele>95.0</ele><time>2026-04-06T15:44:58Z</time></trkpt><trkpt lat="42.75855945062921" lon="2.6804566419886235"><ele>95.0</ele><time>2026-04-06T15:44:58.999Z</time></trkpt><trkpt lat="42.758446596679235" lon="2.6802834725664324"><ele>96.0</ele><time>2026-04-06T15:45:00.999Z</time></trkpt><trkpt lat="42.75834111646137" lon="2.6801466793791247"><ele>97.0</ele><time>2026-04-06T15:45:01.999Z</time></trkpt><trkpt lat="42.75822277697101" lon="2.6799975184943388"><ele>98.0</ele><time>2026-04-06T15:45:02.999Z</time></trkpt><trkpt lat="42.758111300927865" lon="2.679854014620699"><ele>98.0</ele><time>2026-04-06T15:45:03.999Z</time></trkpt><trkpt lat="42.758005249257835" lon="2.679710066084377"><ele>98.0</ele><time>2026-04-06T15:45:04.999Z</time></trkpt><trkpt lat="42.7579050466257" lon="2.6795794704099443"><ele>98.0</ele><time>2026-04-06T15:45:05.999Z</time></trkpt><trkpt lat="42.757816312047225" lon="2.6794548768214193"><ele>98.0</ele><time>2026-04-06T15:45:06.999Z</time></trkpt><trkpt lat="42.757713180441506" lon="2.6793225930735685"><ele>98.0</ele><time>2026-04-06T15:45:07.999Z</time></trkpt><trkpt lat="42.75759986606414" lon="2.679187546669776"><ele>98.0</ele><time>2026-04-06T15:45:08.999Z</time></trkpt><trkpt lat="42.75748098688266" lon="2.6790327882954648"><ele>98.0</ele><time>2026-04-06T15:45:09.999Z</time></trkpt><trkpt lat="42.75735217840318" lon="2.678879169089985"><ele>98.0</ele><time>2026-04-06T15:45:10.999Z</time></trkpt><trkpt lat="42.757234832990655" lon="2.678719790343579"><ele>98.0</ele><time>2026-04-06T15:45:11.999Z</time></trkpt><trkpt lat="42.75711028486066" lon="2.678569532114793"><ele>98.0</ele><time>2026-04-06T15:45:12.999Z</time></trkpt><trkpt lat="42.756995128466926" lon="2.678412222674588"><ele>98.33333333333333</ele><time>2026-04-06T15:45:13.999Z</time></trkpt><trkpt lat="42.756878009490265" lon="2.678261307433886"><ele>98.66666666666666</ele><time>2026-04-06T15:45:14.999Z</time></trkpt><trkpt lat="42.75675821945325" lon="2.678108632860681"><ele>99.0</ele><time>2026-04-06T15:45:15.999Z</time></trkpt><trkpt lat="42.75664865311095" lon="2.677959951432453"><ele>99.0</ele><time>2026-04-06T15:45:16.999Z</time></trkpt><trkpt lat="42.75654668317429" lon="2.6778266279663865"><ele>99.0</ele><time>2026-04-06T15:45:17.999Z</time></trkpt><trkpt lat="42.756435815646135" lon="2.677675726949406"><ele>99.0</ele><time>2026-04-06T15:45:18.999Z</time></trkpt><trkpt lat="42.75632709390244" lon="2.677526025346981"><ele>98.66666666666666</ele><time>2026-04-06T15:45:19.999Z</time></trkpt><trkpt lat="42.75621079831566" lon="2.6773801198551013"><ele>98.33333333333333</ele><time>2026-04-06T15:45:20.999Z</time></trkpt><trkpt lat="42.75608249477029" lon="2.6772211662896"><ele>98.0</ele><time>2026-04-06T15:45:21.999Z</time></trkpt><trkpt lat="42.755967389278986" lon="2.677065916050711"><ele>98.33333333333333</ele><time>2026-04-06T15:45:22.999Z</time></trkpt><trkpt lat="42.75584898096275" lon="2.676917732836928"><ele>98.66666666666666</ele><time>2026-04-06T15:45:23.999Z</time></trkpt><trkpt lat="42.75573221298616" lon="2.6767706099207844"><ele>99.0</ele><time>2026-04-06T15:45:24.999Z</time></trkpt><trkpt lat="42.755616025937854" lon="2.676624830527068"><ele>99.0</ele><time>2026-04-06T15:45:25.999Z</time></trkpt><trkpt lat="42.75549980658385" lon="2.6764739508113746"><ele>99.0</ele><time>2026-04-06T15:45:26.999Z</time></trkpt><trkpt lat="42.75538599342439" lon="2.676323791562794"><ele>99.0</ele><time>2026-04-06T15:45:27.999Z</time></trkpt><trkpt lat="42.75526485291217" lon="2.676166865403409"><ele>99.66666666666666</ele><time>2026-04-06T15:45:28.999Z</time></trkpt><trkpt lat="42.75514548568647" lon="2.676010767608319"><ele>100.33333333333333</ele><time>2026-04-06T15:45:29.999Z</time></trkpt><trkpt lat="42.755031880581754" lon="2.6758511819494055"><ele>101.0</ele><time>2026-04-06T15:45:30.999Z</time></trkpt><trkpt lat="42.754929910034505" lon="2.6757085714381836"><ele>101.0</ele><time>2026-04-06T15:45:31.999Z</time></trkpt><trkpt lat="42.75482633333415" lon="2.6755639901897004"><ele>101.0</ele><time>2026-04-06T15:45:32.999Z</time></trkpt><trkpt lat="42.75471170248323" lon="2.6754155331783895"><ele>101.0</ele><time>2026-04-06T15:45:33.999Z</time></trkpt><trkpt lat="42.754598512149634" lon="2.6752782441456997"><ele>101.0</ele><time>2026-04-06T15:45:34.999Z</time></trkpt><trkpt lat="42.75450882603413" lon="2.675162295645577"><ele>101.0</ele><time>2026-04-06T15:45:35.999Z</time></trkpt><trkpt lat="42.75444583069604" lon="2.6750688840023553"><ele>101.0</ele><time>2026-04-06T15:45:36.999Z</time></trkpt><trkpt lat="42.754324598865104" lon="2.6749423280108564"><ele>101.0</ele><time>2026-04-06T15:45:37.999Z</time></trkpt><trkpt lat="42.754224524251725" lon="2.674816179492906"><ele>101.8</ele><time>2026-04-06T15:45:38.999Z</time></trkpt><trkpt lat="42.754137970986456" lon="2.6746980837573573"><ele>102.6</ele><time>2026-04-06T15:45:39.999Z</time></trkpt><trkpt lat="42.75406566600086" lon="2.674602173215007"><ele>103.4</ele><time>2026-04-06T15:45:40.999Z</time></trkpt><trkpt lat="42.75400262667705" lon="2.6745259325972173"><ele>104.2</ele><time>2026-04-06T15:45:41.999Z</time></trkpt><trkpt lat="42.753936155362425" lon="2.674476635152209"><ele>105.0</ele><time>2026-04-06T15:45:42.999Z</time></trkpt><trkpt lat="42.75386007940434" lon="2.674458993399275"><ele>105.0</ele><time>2026-04-06T15:45:43.999Z</time></trkpt><trkpt lat="42.75377435858139" lon="2.674468868745248"><ele>105.0</ele><time>2026-04-06T15:45:44.999Z</time></trkpt><trkpt lat="42.75369132880973" lon="2.674507210408032"><ele>105.0</ele><time>2026-04-06T15:45:45.999Z</time></trkpt><trkpt lat="42.75360912802277" lon="2.6745545314344636"><ele>105.0</ele><time>2026-04-06T15:45:47Z</time></trkpt><trkpt lat="42.753543003966854" lon="2.674589130359111"><ele>105.0</ele><time>2026-04-06T15:45:48Z</time></trkpt><trkpt lat="42.753480931700715" lon="2.674614495377011"><ele>105.0</ele><time>2026-04-06T15:45:49Z</time></trkpt><trkpt lat="42.753381528181926" lon="2.6746489948589813"><ele>105.16666666666667</ele><time>2026-04-06T15:45:51Z</time></trkpt><trkpt lat="42.753299301751206" lon="2.674691374075759"><ele>105.33333333333334</ele><time>2026-04-06T15:45:53Z</time></trkpt><trkpt lat="42.753207837454866" lon="2.674733256077779"><ele>105.5</ele><time>2026-04-06T15:45:55Z</time></trkpt><trkpt lat="42.75313937922086" lon="2.674778640077832"><ele>105.66666666666667</ele><time>2026-04-06T15:45:57Z</time></trkpt><trkpt lat="42.753048325328834" lon="2.674812086601796"><ele>105.83333333333334</ele><time>2026-04-06T15:45:59Z</time></trkpt><trkpt lat="42.75297621019693" lon="2.674855901493814"><ele>106.0</ele><time>2026-04-06T15:46:01Z</time></trkpt><trkpt lat="42.75290960479983" lon="2.6748792523412512"><ele>106.0</ele><time>2026-04-06T15:46:02Z</time></trkpt><trkpt lat="42.75283789896685" lon="2.6749132143714878"><ele>106.0</ele><time>2026-04-06T15:46:03Z</time></trkpt><trkpt lat="42.75274405640618" lon="2.674958113167431"><ele>106.0</ele><time>2026-04-06T15:46:04Z</time></trkpt><trkpt lat="42.75265546320192" lon="2.6749848064340145"><ele>106.0</ele><time>2026-04-06T15:46:05Z</time></trkpt><trkpt lat="42.75255489976792" lon="2.67503398241484"><ele>106.0</ele><time>2026-04-06T15:46:06Z</time></trkpt><trkpt lat="42.75244725153477" lon="2.6751059230687617"><ele>106.0</ele><time>2026-04-06T15:46:07Z</time></trkpt><trkpt lat="42.75234608613293" lon="2.675202149644282"><ele>106.0</ele><time>2026-04-06T15:46:08Z</time></trkpt><trkpt lat="42.75225044440576" lon="2.6753273134954783"><ele>106.0</ele><time>2026-04-06T15:46:09Z</time></trkpt><trkpt lat="42.75216104431659" lon="2.6754590172909496"><ele>106.0</ele><time>2026-04-06T15:46:10Z</time></trkpt><trkpt lat="42.752064857322274" lon="2.675595372156422"><ele>106.0</ele><time>2026-04-06T15:46:11Z</time></trkpt><trkpt lat="42.75197248922543" lon="2.6757256804740623"><ele>106.0</ele><time>2026-04-06T15:46:12Z</time></trkpt><trkpt lat="42.751874295686264" lon="2.675854761603023"><ele>106.0</ele><time>2026-04-06T15:46:13Z</time></trkpt><trkpt lat="42.75176416661865" lon="2.675960074167668"><ele>106.0</ele><time>2026-04-06T15:46:14Z</time></trkpt><trkpt lat="42.75171000659242" lon="2.67601189843371"><ele>107.33333333333334</ele><time>2026-04-06T15:46:15Z</time></trkpt><trkpt lat="42.75151865772176" lon="2.676174103832256"><ele>108.66666666666666</ele><time>2026-04-06T15:46:16Z</time></trkpt><trkpt lat="42.75140014510673" lon="2.6762704428879225"><ele>110.0</ele><time>2026-04-06T15:46:17Z</time></trkpt><trkpt lat="42.75128137655408" lon="2.6763629075421527"><ele>110.0</ele><time>2026-04-06T15:46:18Z</time></trkpt><trkpt lat="42.751167444633595" lon="2.6764597934356185"><ele>110.0</ele><time>2026-04-06T15:46:19Z</time></trkpt><trkpt lat="42.7510576102966" lon="2.676550796606409"><ele>110.0</ele><time>2026-04-06T15:46:20Z</time></trkpt><trkpt lat="42.7509517462407" lon="2.6766486835046"><ele>110.0</ele><time>2026-04-06T15:46:21Z</time></trkpt><trkpt lat="42.7508561157159" lon="2.6767452824543096"><ele>111.75</ele><time>2026-04-06T15:46:22Z</time></trkpt><trkpt lat="42.75076061838409" lon="2.676859298451988"><ele>113.5</ele><time>2026-04-06T15:46:23Z</time></trkpt><trkpt lat="42.750657780318875" lon="2.676991185768139"><ele>115.25</ele><time>2026-04-06T15:46:24Z</time></trkpt><trkpt lat="42.750555210151894" lon="2.6771557915639086"><ele>117.0</ele><time>2026-04-06T15:46:25Z</time></trkpt><trkpt lat="42.75045311951035" lon="2.6772937081035666"><ele>117.0</ele><time>2026-04-06T15:46:26Z</time></trkpt><trkpt lat="42.750369168873235" lon="2.677411586168115"><ele>117.0</ele><time>2026-04-06T15:46:27Z</time></trkpt><trkpt lat="42.75028060362409" lon="2.677526611511209"><ele>117.0</ele><time>2026-04-06T15:46:28Z</time></trkpt><trkpt lat="42.750175383245974" lon="2.677634253098474"><ele>117.0</ele><time>2026-04-06T15:46:29Z</time></trkpt><trkpt lat="42.7500727233348" lon="2.6777194757953158"><ele>118.25</ele><time>2026-04-06T15:46:30Z</time></trkpt><trkpt lat="42.74996534289482" lon="2.677805530201927"><ele>119.5</ele><time>2026-04-06T15:46:31Z</time></trkpt><trkpt lat="42.7498379346576" lon="2.677890666213668"><ele>120.75</ele><time>2026-04-06T15:46:32Z</time></trkpt><trkpt lat="42.7497233026778" lon="2.6779536024474067"><ele>122.0</ele><time>2026-04-06T15:46:33Z</time></trkpt><trkpt lat="42.749626521564075" lon="2.678056838095679"><ele>122.0</ele><time>2026-04-06T15:46:34Z</time></trkpt><trkpt lat="42.749516624648685" lon="2.6781467718510967"><ele>122.0</ele><time>2026-04-06T15:46:35Z</time></trkpt><trkpt lat="42.7494200280666" lon="2.6782518674203435"><ele>122.0</ele><time>2026-04-06T15:46:36Z</time></trkpt><trkpt lat="42.749344295597986" lon="2.6783405611691027"><ele>122.0</ele><time>2026-04-06T15:46:37Z</time></trkpt><trkpt lat="42.7492628353185" lon="2.6784171449654606"><ele>124.19999999999999</ele><time>2026-04-06T15:46:38Z</time></trkpt><trkpt lat="42.74916077229714" lon="2.678494478702086"><ele>126.39999999999999</ele><time>2026-04-06T15:46:40Z</time></trkpt><trkpt lat="42.74909894223223" lon="2.678472166518207"><ele>128.60000000000002</ele><time>2026-04-06T15:46:41Z</time></trkpt><trkpt lat="42.74902036645001" lon="2.678339835590468"><ele>130.8</ele><time>2026-04-06T15:46:43Z</time></trkpt><trkpt lat="42.74898924261289" lon="2.678232252203094"><ele>133.0</ele><time>2026-04-06T15:46:44Z</time></trkpt><trkpt lat="42.7489597422587" lon="2.678099024187947"><ele>133.0</ele><time>2026-04-06T15:46:45Z</time></trkpt><trkpt lat="42.748936919422775" lon="2.6779800997897114"><ele>133.0</ele><time>2026-04-06T15:46:46Z</time></trkpt><trkpt lat="42.74891500242056" lon="2.677894268823799"><ele>133.0</ele><time>2026-04-06T15:46:47Z</time></trkpt><trkpt lat="42.748885390990296" lon="2.677780002886758"><ele>133.0</ele><time>2026-04-06T15:46:49Z</time></trkpt><trkpt lat="42.74881849428032" lon="2.6776729009878015"><ele>133.0</ele><time>2026-04-06T15:46:51Z</time></trkpt><trkpt lat="42.748803772578036" lon="2.6775832750212873"><ele>133.0</ele><time>2026-04-06T15:46:52Z</time></trkpt><trkpt lat="42.7487922259539" lon="2.677451894755856"><ele>133.0</ele><time>2026-04-06T15:46:54Z</time></trkpt><trkpt lat="42.748735197092415" lon="2.6774119872533415"><ele>133.0</ele><time>2026-04-06T15:47:06Z</time></trkpt><trkpt lat="42.74867692370769" lon="2.677508186236492"><ele>133.0</ele><time>2026-04-06T15:48:32Z</time></trkpt><trkpt lat="42.74861623376726" lon="2.6776137410511986"><ele>133.0</ele><time>2026-04-06T15:48:34Z</time></trkpt><trkpt lat="42.74855198098538" lon="2.67772978056838"><ele>133.0</ele><time>2026-04-06T15:48:36Z</time></trkpt><trkpt lat="42.748550948608035" lon="2.6778521121826313"><ele>135.4</ele><time>2026-04-06T15:48:37Z</time></trkpt><trkpt lat="42.74852776288514" lon="2.677971159909145"><ele>137.8</ele><time>2026-04-06T15:48:38Z</time></trkpt><trkpt lat="42.74848698500516" lon="2.6780526743473927"><ele>140.2</ele><time>2026-04-06T15:48:40Z</time></trkpt><trkpt lat="42.7484351965252" lon="2.6781923748992593"><ele>142.6</ele><time>2026-04-06T15:48:42Z</time></trkpt><trkpt lat="42.74842700146995" lon="2.678279401525962"><ele>145.0</ele><time>2026-04-06T15:48:43Z</time></trkpt><trkpt lat="42.74840040146737" lon="2.678421169721261"><ele>145.0</ele><time>2026-04-06T15:48:45Z</time></trkpt><trkpt lat="42.748372139055654" lon="2.6785683360319505"><ele>145.0</ele><time>2026-04-06T15:48:47Z</time></trkpt><trkpt lat="42.74832038786352" lon="2.678672364695214"><ele>145.0</ele><time>2026-04-06T15:48:49Z</time></trkpt><trkpt lat="42.748262014689914" lon="2.6787066805094546"><ele>145.0</ele><time>2026-04-06T15:48:50Z</time></trkpt><trkpt lat="42.74819247159751" lon="2.678751205656849"><ele>145.0</ele><time>2026-04-06T15:48:51Z</time></trkpt><trkpt lat="42.748120688782244" lon="2.678794358052228"><ele>145.0</ele><time>2026-04-06T15:48:52Z</time></trkpt><trkpt lat="42.74802803016216" lon="2.678843290749917"><ele>145.4</ele><time>2026-04-06T15:48:53Z</time></trkpt><trkpt lat="42.74795918344835" lon="2.678897705995714"><ele>145.8</ele><time>2026-04-06T15:48:54Z</time></trkpt><trkpt lat="42.747878677300896" lon="2.67895531894164"><ele>146.2</ele><time>2026-04-06T15:48:55Z</time></trkpt><trkpt lat="42.74779067488512" lon="2.6789911734894805"><ele>146.6</ele><time>2026-04-06T15:48:56Z</time></trkpt><trkpt lat="42.747700867114396" lon="2.6790014534762467"><ele>147.0</ele><time>2026-04-06T15:48:57Z</time></trkpt><trkpt lat="42.747592808425786" lon="2.678980226994695"><ele>148.2</ele><time>2026-04-06T15:48:58Z</time></trkpt><trkpt lat="42.74747827644871" lon="2.678940183589739"><ele>149.39999999999998</ele><time>2026-04-06T15:48:59Z</time></trkpt><trkpt lat="42.7473857627717" lon="2.6789066582863725"><ele>150.60000000000002</ele><time>2026-04-06T15:49:00Z</time></trkpt><trkpt lat="42.74728099472807" lon="2.678868446194602"><ele>151.8</ele><time>2026-04-06T15:49:01Z</time></trkpt><trkpt lat="42.74718565732494" lon="2.6788380621952315"><ele>153.0</ele><time>2026-04-06T15:49:02Z</time></trkpt><trkpt lat="42.747089978808376" lon="2.6787829535422842"><ele>153.0</ele><time>2026-04-06T15:49:03Z</time></trkpt><trkpt lat="42.747004650300795" lon="2.6787364164265015"><ele>153.0</ele><time>2026-04-06T15:49:04Z</time></trkpt><trkpt lat="42.7469213040629" lon="2.6786940636955148"><ele>153.0</ele><time>2026-04-06T15:49:05Z</time></trkpt><trkpt lat="42.7468456161439" lon="2.678656190975283"><ele>153.0</ele><time>2026-04-06T15:49:06Z</time></trkpt><trkpt lat="42.74677430402757" lon="2.678635428340523"><ele>153.0</ele><time>2026-04-06T15:49:07Z</time></trkpt><trkpt lat="42.746706540098266" lon="2.6786286645240844"><ele>153.0</ele><time>2026-04-06T15:49:08Z</time></trkpt><trkpt lat="42.74663705826544" lon="2.6786526415369143"><ele>154.20000000000002</ele><time>2026-04-06T15:49:09Z</time></trkpt><trkpt lat="42.7465637777282" lon="2.678710708452548"><ele>155.4</ele><time>2026-04-06T15:49:10Z</time></trkpt><trkpt lat="42.746498020720765" lon="2.6788047987853814"><ele>156.60000000000002</ele><time>2026-04-06T15:49:11Z</time></trkpt><trkpt lat="42.746429761114584" lon="2.6789193812451573"><ele>157.8</ele><time>2026-04-06T15:49:12Z</time></trkpt><trkpt lat="42.7463675997856" lon="2.6790252402376775"><ele>159.0</ele><time>2026-04-06T15:49:13Z</time></trkpt><trkpt lat="42.74631733257033" lon="2.679093641245506"><ele>159.0</ele><time>2026-04-06T15:49:14Z</time></trkpt><trkpt lat="42.74621811320136" lon="2.6791981977057397"><ele>159.0</ele><time>2026-04-06T15:49:16Z</time></trkpt><trkpt lat="42.74615076377047" lon="2.6792458197134272"><ele>159.0</ele><time>2026-04-06T15:49:17Z</time></trkpt><trkpt lat="42.74608426169017" lon="2.6792754332455395"><ele>159.0</ele><time>2026-04-06T15:49:18Z</time></trkpt><trkpt lat="42.74601262214961" lon="2.6792952100838163"><ele>159.0</ele><time>2026-04-06T15:49:18.999Z</time></trkpt><trkpt lat="42.74593394272333" lon="2.67930373983131"><ele>159.0</ele><time>2026-04-06T15:49:19.999Z</time></trkpt><trkpt lat="42.745842445184465" lon="2.679299396662761"><ele>160.2</ele><time>2026-04-06T15:49:20.999Z</time></trkpt><trkpt lat="42.74573687523583" lon="2.679287731056351"><ele>161.4</ele><time>2026-04-06T15:49:21.999Z</time></trkpt><trkpt lat="42.74564737525074" lon="2.679277119222388"><ele>162.6</ele><time>2026-04-06T15:49:22.999Z</time></trkpt><trkpt lat="42.7455500147705" lon="2.6792668918465186"><ele>163.8</ele><time>2026-04-06T15:49:23.999Z</time></trkpt><trkpt lat="42.74544975934447" lon="2.6792523348273196"><ele>165.0</ele><time>2026-04-06T15:49:24.999Z</time></trkpt><trkpt lat="42.745358228674945" lon="2.6792362470829305"><ele>165.0</ele><time>2026-04-06T15:49:25.999Z</time></trkpt><trkpt lat="42.74527568140749" lon="2.6792201755510936"><ele>165.0</ele><time>2026-04-06T15:49:26.999Z</time></trkpt><trkpt lat="42.74520032701631" lon="2.6792099870052333"><ele>165.0</ele><time>2026-04-06T15:49:27.999Z</time></trkpt><trkpt lat="42.74512371039219" lon="2.679213364573075"><ele>165.0</ele><time>2026-04-06T15:49:28.999Z</time></trkpt><trkpt lat="42.74505451615893" lon="2.679236204476779"><ele>165.0</ele><time>2026-04-06T15:49:29.999Z</time></trkpt><trkpt lat="42.74498152846869" lon="2.6792749235702322"><ele>165.0</ele><time>2026-04-06T15:49:30.999Z</time></trkpt><trkpt lat="42.744917404563296" lon="2.6793270096836106"><ele>164.8</ele><time>2026-04-06T15:49:31.999Z</time></trkpt><trkpt lat="42.74483855357197" lon="2.679410201160753"><ele>164.6</ele><time>2026-04-06T15:49:32.999Z</time></trkpt><trkpt lat="42.744758224779375" lon="2.6794964424435896"><ele>164.39999999999998</ele><time>2026-04-06T15:49:33.999Z</time></trkpt><trkpt lat="42.744681566012886" lon="2.6795660675622384"><ele>164.2</ele><time>2026-04-06T15:49:34.999Z</time></trkpt><trkpt lat="42.74461610903348" lon="2.679629492801595"><ele>164.0</ele><time>2026-04-06T15:49:35.999Z</time></trkpt><trkpt lat="42.74454455889895" lon="2.679712952238964"><ele>164.0</ele><time>2026-04-06T15:49:36.999Z</time></trkpt><trkpt lat="42.74448733069595" lon="2.679798679364432"><ele>164.0</ele><time>2026-04-06T15:49:37.999Z</time></trkpt><trkpt lat="42.744429588409965" lon="2.6798651125088453"><ele>164.0</ele><time>2026-04-06T15:49:38.999Z</time></trkpt><trkpt lat="42.74436106230218" lon="2.6799110305141833"><ele>164.0</ele><time>2026-04-06T15:49:39.999Z</time></trkpt><trkpt lat="42.74427513533625" lon="2.67995236413659"><ele>164.0</ele><time>2026-04-06T15:49:40.999Z</time></trkpt><trkpt lat="42.74417466495801" lon="2.6800088632257886"><ele>164.0</ele><time>2026-04-06T15:49:41.999Z</time></trkpt><trkpt lat="42.744078940571406" lon="2.680050243977666"><ele>165.2</ele><time>2026-04-06T15:49:42.999Z</time></trkpt><trkpt lat="42.74399229766691" lon="2.6800944886959717"><ele>166.39999999999998</ele><time>2026-04-06T15:49:43.999Z</time></trkpt><trkpt lat="42.74389726706887" lon="2.680138768824351"><ele>167.6</ele><time>2026-04-06T15:49:44.999Z</time></trkpt><trkpt lat="42.74378361668721" lon="2.6801700203348755"><ele>168.8</ele><time>2026-04-06T15:49:45.999Z</time></trkpt><trkpt lat="42.74366810796052" lon="2.6801991173691357"><ele>170.0</ele><time>2026-04-06T15:49:46.999Z</time></trkpt><trkpt lat="42.743554781346134" lon="2.6802174157685634"><ele>169.8</ele><time>2026-04-06T15:49:47.999Z</time></trkpt><trkpt lat="42.743448542699284" lon="2.680235560934251"><ele>169.6</ele><time>2026-04-06T15:49:48.999Z</time></trkpt><trkpt lat="42.743343520872024" lon="2.680259101029732"><ele>169.39999999999998</ele><time>2026-04-06T15:49:49.999Z</time></trkpt><trkpt lat="42.74323436954371" lon="2.680281024089712"><ele>169.2</ele><time>2026-04-06T15:49:50.999Z</time></trkpt><trkpt lat="42.743113525526546" lon="2.6803108077370084"><ele>169.0</ele><time>2026-04-06T15:49:51.999Z</time></trkpt><trkpt lat="42.742989184897056" lon="2.68035234022823"><ele>169.0</ele><time>2026-04-06T15:49:52.999Z</time></trkpt><trkpt lat="42.74287130723269" lon="2.6803997634377787"><ele>169.0</ele><time>2026-04-06T15:49:53.999Z</time></trkpt><trkpt lat="42.74275273727034" lon="2.6804682029545353"><ele>169.0</ele><time>2026-04-06T15:49:54.999Z</time></trkpt><trkpt lat="42.74265848516975" lon="2.6805265828840623"><ele>169.0</ele><time>2026-04-06T15:49:55.999Z</time></trkpt><trkpt lat="42.74256511253134" lon="2.680587659406359"><ele>172.5</ele><time>2026-04-06T15:49:56.999Z</time></trkpt><trkpt lat="42.742460584041844" lon="2.680656807723555"><ele>176.0</ele><time>2026-04-06T15:49:57.999Z</time></trkpt><trkpt lat="42.74234294725335" lon="2.68073898505757"><ele>179.5</ele><time>2026-04-06T15:49:59Z</time></trkpt><trkpt lat="42.742240420991976" lon="2.68082073312133"><ele>183.0</ele><time>2026-04-06T15:50:00Z</time></trkpt><trkpt lat="42.742134569774215" lon="2.680902183723964"><ele>183.0</ele><time>2026-04-06T15:50:01Z</time></trkpt><trkpt lat="42.74202265681254" lon="2.6809908368823177"><ele>183.0</ele><time>2026-04-06T15:50:02Z</time></trkpt><trkpt lat="42.74193345072274" lon="2.6810636272748427"><ele>183.0</ele><time>2026-04-06T15:50:03Z</time></trkpt><trkpt lat="42.741840752938494" lon="2.6811475154997417"><ele>183.0</ele><time>2026-04-06T15:50:04Z</time></trkpt><trkpt lat="42.74177467873495" lon="2.681234724200145"><ele>183.0</ele><time>2026-04-06T15:50:05Z</time></trkpt><trkpt lat="42.74169917359617" lon="2.681318861664256"><ele>185.4</ele><time>2026-04-06T15:50:06Z</time></trkpt><trkpt lat="42.741622021097726" lon="2.6813883157528275"><ele>187.8</ele><time>2026-04-06T15:50:07Z</time></trkpt><trkpt lat="42.74153920410705" lon="2.6814313686474835"><ele>190.2</ele><time>2026-04-06T15:50:08Z</time></trkpt><trkpt lat="42.741449971866054" lon="2.681464513355234"><ele>192.6</ele><time>2026-04-06T15:50:09Z</time></trkpt><trkpt lat="42.74134922586871" lon="2.6815100488827284"><ele>195.0</ele><time>2026-04-06T15:50:10Z</time></trkpt><trkpt lat="42.7412468344246" lon="2.681552713365257"><ele>195.0</ele><time>2026-04-06T15:50:11Z</time></trkpt><trkpt lat="42.74115916120328" lon="2.6815954577587586"><ele>195.0</ele><time>2026-04-06T15:50:12Z</time></trkpt><trkpt lat="42.74107849998609" lon="2.681626044595128"><ele>195.0</ele><time>2026-04-06T15:50:13Z</time></trkpt><trkpt lat="42.74098937038302" lon="2.681671778614511"><ele>195.0</ele><time>2026-04-06T15:50:14Z</time></trkpt><trkpt lat="42.740900196983084" lon="2.6817229041018757"><ele>195.0</ele><time>2026-04-06T15:50:15Z</time></trkpt><trkpt lat="42.74080633708676" lon="2.681764747083208"><ele>195.8</ele><time>2026-04-06T15:50:16Z</time></trkpt><trkpt lat="42.74069455237195" lon="2.6817983912733334"><ele>196.6</ele><time>2026-04-06T15:50:17Z</time></trkpt><trkpt lat="42.7405813918149" lon="2.6818216650972704"><ele>197.39999999999998</ele><time>2026-04-06T15:50:18Z</time></trkpt><trkpt lat="42.74047783548655" lon="2.6818335597126546"><ele>198.2</ele><time>2026-04-06T15:50:19Z</time></trkpt><trkpt lat="42.74038790026485" lon="2.6818391448549033"><ele>199.0</ele><time>2026-04-06T15:50:20Z</time></trkpt><trkpt lat="42.74029840962024" lon="2.6818417003834707"><ele>199.33333333333331</ele><time>2026-04-06T15:50:21Z</time></trkpt><trkpt lat="42.7402152504405" lon="2.6818563006814715"><ele>199.66666666666666</ele><time>2026-04-06T15:50:22Z</time></trkpt><trkpt lat="42.74014821352548" lon="2.681902081582745"><ele>200.0</ele><time>2026-04-06T15:50:23Z</time></trkpt><trkpt lat="42.740086009336935" lon="2.681978986527851"><ele>200.33333333333331</ele><time>2026-04-06T15:50:24Z</time></trkpt><trkpt lat="42.7400248549612" lon="2.682090131165245"><ele>200.66666666666666</ele><time>2026-04-06T15:50:25Z</time></trkpt><trkpt lat="42.73996022665292" lon="2.682194477836721"><ele>201.0</ele><time>2026-04-06T15:50:26Z</time></trkpt><trkpt lat="42.73990060026781" lon="2.682280566323311"><ele>201.20000000000002</ele><time>2026-04-06T15:50:27Z</time></trkpt><trkpt lat="42.73985397074342" lon="2.6823549330337073"><ele>201.4</ele><time>2026-04-06T15:50:28Z</time></trkpt><trkpt lat="42.73978153372569" lon="2.682503062290595"><ele>201.6</ele><time>2026-04-06T15:50:30Z</time></trkpt><trkpt lat="42.73971687216994" lon="2.6826412118935656"><ele>201.8</ele><time>2026-04-06T15:50:32Z</time></trkpt><trkpt lat="42.73962845422079" lon="2.6827495371435908"><ele>202.0</ele><time>2026-04-06T15:50:34Z</time></trkpt><trkpt lat="42.73955845857676" lon="2.6827489965039755"><ele>201.99999999999997</ele><time>2026-04-06T15:50:35Z</time></trkpt><trkpt lat="42.739489915262794" lon="2.6827161433764393"><ele>202.0</ele><time>2026-04-06T15:50:36Z</time></trkpt><trkpt lat="42.739430577311644" lon="2.68264587844207"><ele>202.0</ele><time>2026-04-06T15:50:37Z</time></trkpt><trkpt lat="42.73937251965069" lon="2.6825549169919176"><ele>202.0</ele><time>2026-04-06T15:50:38Z</time></trkpt><trkpt lat="42.73931735801296" lon="2.6824993199612415"><ele>201.99999999999997</ele><time>2026-04-06T15:50:39Z</time></trkpt><trkpt lat="42.73925145651119" lon="2.682479840455579"><ele>202.0</ele><time>2026-04-06T15:50:40Z</time></trkpt><trkpt lat="42.73917236148099" lon="2.6824639046226295"><ele>201.33333333333331</ele><time>2026-04-06T15:50:41Z</time></trkpt><trkpt lat="42.73908959095145" lon="2.68243253150532"><ele>200.66666666666666</ele><time>2026-04-06T15:50:42Z</time></trkpt><trkpt lat="42.73902050626471" lon="2.682397310974511"><ele>200.0</ele><time>2026-04-06T15:50:43Z</time></trkpt><trkpt lat="42.73893931467863" lon="2.6823868086901563"><ele>199.33333333333331</ele><time>2026-04-06T15:50:44Z</time></trkpt><trkpt lat="42.738872432474366" lon="2.6824240823811953"><ele>198.66666666666666</ele><time>2026-04-06T15:50:45Z</time></trkpt><trkpt lat="42.73878958210428" lon="2.6824829806667085"><ele>198.0</ele><time>2026-04-06T15:50:46Z</time></trkpt><trkpt lat="42.73870246224144" lon="2.682549306603259"><ele>198.0</ele><time>2026-04-06T15:50:47Z</time></trkpt><trkpt lat="42.7385978937657" lon="2.682627076143031"><ele>198.0</ele><time>2026-04-06T15:50:48Z</time></trkpt><trkpt lat="42.73850765439213" lon="2.68269193917454"><ele>198.0</ele><time>2026-04-06T15:50:49Z</time></trkpt><trkpt lat="42.73842373408833" lon="2.68276622081138"><ele>198.0</ele><time>2026-04-06T15:50:50Z</time></trkpt><trkpt lat="42.73833894543852" lon="2.682842580583978"><ele>198.0</ele><time>2026-04-06T15:50:51Z</time></trkpt><trkpt lat="42.73826532891239" lon="2.6829291593952433"><ele>198.8</ele><time>2026-04-06T15:50:52Z</time></trkpt><trkpt lat="42.7381919342405" lon="2.683014051007566"><ele>199.60000000000002</ele><time>2026-04-06T15:50:53Z</time></trkpt><trkpt lat="42.738127109499096" lon="2.683105774327679"><ele>200.39999999999998</ele><time>2026-04-06T15:50:54Z</time></trkpt><trkpt lat="42.73806351419765" lon="2.6831667160030626"><ele>201.2</ele><time>2026-04-06T15:50:55Z</time></trkpt><trkpt lat="42.73798210951303" lon="2.6832374381927924"><ele>202.0</ele><time>2026-04-06T15:50:56Z</time></trkpt><trkpt lat="42.73790650209929" lon="2.683302572002412"><ele>201.99999999999997</ele><time>2026-04-06T15:50:57Z</time></trkpt><trkpt lat="42.737848671882674" lon="2.683348552005086"><ele>202.0</ele><time>2026-04-06T15:50:58Z</time></trkpt><trkpt lat="42.73779073038234" lon="2.6834011142313767"><ele>202.0</ele><time>2026-04-06T15:50:59Z</time></trkpt><trkpt lat="42.73772637929363" lon="2.6834429192535465"><ele>202.0</ele><time>2026-04-06T15:51:00Z</time></trkpt><trkpt lat="42.73765223428939" lon="2.6834910069915736"><ele>201.99999999999997</ele><time>2026-04-06T15:51:01Z</time></trkpt><trkpt lat="42.737565980773795" lon="2.6835521205962234"><ele>202.0</ele><time>2026-04-06T15:51:02Z</time></trkpt><trkpt lat="42.737485633343404" lon="2.6836132888010735"><ele>203.2</ele><time>2026-04-06T15:51:03Z</time></trkpt><trkpt lat="42.73742319840706" lon="2.6836544899114108"><ele>204.39999999999998</ele><time>2026-04-06T15:51:04Z</time></trkpt><trkpt lat="42.73732874669221" lon="2.6837194886132156"><ele>205.60000000000002</ele><time>2026-04-06T15:51:06Z</time></trkpt><trkpt lat="42.73726064753997" lon="2.6837663958579805"><ele>206.8</ele><time>2026-04-06T15:51:09Z</time></trkpt><trkpt lat="42.73741899086381" lon="2.683670583372284"><ele>208.0</ele><time>2026-04-06T15:51:30Z</time></trkpt><trkpt lat="42.73749588012874" lon="2.6836132884761854"><ele>208.99999999999997</ele><time>2026-04-06T15:51:31Z</time></trkpt><trkpt lat="42.73758666586692" lon="2.6835457000026715"><ele>210.0</ele><time>2026-04-06T15:51:32Z</time></trkpt><trkpt lat="42.73767976508099" lon="2.6834793708697715"><ele>211.0</ele><time>2026-04-06T15:51:33.999Z</time></trkpt><trkpt lat="42.737755239121505" lon="2.683423293436139"><ele>212.0</ele><time>2026-04-06T15:51:34.999Z</time></trkpt><trkpt lat="42.73781066484539" lon="2.683380266319367"><ele>212.99999999999997</ele><time>2026-04-06T15:51:35.999Z</time></trkpt><trkpt lat="42.73787501071467" lon="2.683329056602625"><ele>214.0</ele><time>2026-04-06T15:51:36.999Z</time></trkpt><trkpt lat="42.73793979849943" lon="2.6832777599310016"><ele>212.2857142857143</ele><time>2026-04-06T15:51:37.999Z</time></trkpt><trkpt lat="42.738003467786406" lon="2.6832276259179673"><ele>210.57142857142858</ele><time>2026-04-06T15:51:38.999Z</time></trkpt><trkpt lat="42.738061422255136" lon="2.6831807044432217"><ele>208.85714285714286</ele><time>2026-04-06T15:51:39.999Z</time></trkpt><trkpt lat="42.738116162135704" lon="2.683135601537896"><ele>207.14285714285717</ele><time>2026-04-06T15:51:40.999Z</time></trkpt><trkpt lat="42.73816903767788" lon="2.6830824881969138"><ele>205.42857142857142</ele><time>2026-04-06T15:51:41.999Z</time></trkpt><trkpt lat="42.73821966945993" lon="2.6830222958498635"><ele>203.71428571428572</ele><time>2026-04-06T15:51:42.999Z</time></trkpt><trkpt lat="42.73827179505609" lon="2.6829500174666423"><ele>202.0</ele><time>2026-04-06T15:51:43.999Z</time></trkpt><trkpt lat="42.73832120919627" lon="2.6828773037723055"><ele>201.99999999999997</ele><time>2026-04-06T15:51:44.999Z</time></trkpt><trkpt lat="42.7383789784248" lon="2.68281368172245"><ele>202.0</ele><time>2026-04-06T15:51:45.999Z</time></trkpt><trkpt lat="42.73843715402631" lon="2.682753000752171"><ele>202.0</ele><time>2026-04-06T15:51:46.999Z</time></trkpt><trkpt lat="42.73850073804125" lon="2.682702968243422"><ele>202.0</ele><time>2026-04-06T15:51:47.999Z</time></trkpt><trkpt lat="42.738573310020634" lon="2.6826403758664674"><ele>201.99999999999997</ele><time>2026-04-06T15:51:48.999Z</time></trkpt><trkpt lat="42.73864364294714" lon="2.6825857091021175"><ele>202.0</ele><time>2026-04-06T15:51:49.999Z</time></trkpt><trkpt lat="42.73870875848546" lon="2.6825348792189727"><ele>201.2</ele><time>2026-04-06T15:51:50.999Z</time></trkpt><trkpt lat="42.73878002288321" lon="2.6825130139678803"><ele>200.39999999999998</ele><time>2026-04-06T15:51:51.999Z</time></trkpt><trkpt lat="42.738829708231336" lon="2.682455750973623"><ele>199.60000000000002</ele><time>2026-04-06T15:51:52.999Z</time></trkpt><trkpt lat="42.73893841106661" lon="2.682420814555861"><ele>198.8</ele><time>2026-04-06T15:51:54.999Z</time></trkpt><trkpt lat="42.73895178624032" lon="2.6822066568477685"><ele>198.0</ele><time>2026-04-06T15:52:00.999Z</time></trkpt><trkpt lat="42.73891644955464" lon="2.682054041398705"><ele>198.60000000000002</ele><time>2026-04-06T15:52:02.999Z</time></trkpt><trkpt lat="42.738897798131134" lon="2.681905516140425"><ele>199.20000000000002</ele><time>2026-04-06T15:52:05Z</time></trkpt><trkpt lat="42.738875228425066" lon="2.6818223031812694"><ele>199.8</ele><time>2026-04-06T15:52:06Z</time></trkpt><trkpt lat="42.73884498655385" lon="2.6816697776220177"><ele>200.4</ele><time>2026-04-06T15:52:08Z</time></trkpt><trkpt lat="42.73883522734549" lon="2.6815825169364547"><ele>201.0</ele><time>2026-04-06T15:52:09Z</time></trkpt><trkpt lat="42.73882078560771" lon="2.681421294397343"><ele>201.0</ele><time>2026-04-06T15:52:11Z</time></trkpt><trkpt lat="42.738762324800156" lon="2.681347816817965"><ele>201.0</ele><time>2026-04-06T15:52:13Z</time></trkpt><trkpt lat="42.738694007440564" lon="2.6813503621471875"><ele>201.0</ele><time>2026-04-06T15:52:15Z</time></trkpt><trkpt lat="42.73862939157638" lon="2.681370723380188"><ele>201.0</ele><time>2026-04-06T15:52:16Z</time></trkpt><trkpt lat="42.738536206914524" lon="2.6814141481479474"><ele>201.0</ele><time>2026-04-06T15:52:18Z</time></trkpt><trkpt lat="42.73841218575315" lon="2.6814755176615366"><ele>201.0</ele><time>2026-04-06T15:52:20Z</time></trkpt><trkpt lat="42.73830462951056" lon="2.6815321632648366"><ele>201.5</ele><time>2026-04-06T15:52:22Z</time></trkpt><trkpt lat="42.73817476666704" lon="2.6815233752088314"><ele>202.0</ele><time>2026-04-06T15:52:24Z</time></trkpt><trkpt lat="42.7380646189925" lon="2.681477282019321"><ele>202.5</ele><time>2026-04-06T15:52:26Z</time></trkpt><trkpt lat="42.73796253529011" lon="2.6815025338258716"><ele>203.0</ele><time>2026-04-06T15:52:28Z</time></trkpt><trkpt lat="42.73785771864094" lon="2.68152368970881"><ele>203.0</ele><time>2026-04-06T15:52:30Z</time></trkpt><trkpt lat="42.73775152284527" lon="2.681538837434773"><ele>203.0</ele><time>2026-04-06T15:52:32Z</time></trkpt><trkpt lat="42.73764791972658" lon="2.681602312615582"><ele>203.0</ele><time>2026-04-06T15:52:34Z</time></trkpt><trkpt lat="42.73758764824605" lon="2.6816455293203005"><ele>203.0</ele><time>2026-04-06T15:52:35Z</time></trkpt><trkpt lat="42.737522654948876" lon="2.6817084953454913"><ele>203.0</ele><time>2026-04-06T15:52:36Z</time></trkpt><trkpt lat="42.737447863389875" lon="2.6817818327054104"><ele>202.4</ele><time>2026-04-06T15:52:37Z</time></trkpt><trkpt lat="42.73736337014533" lon="2.68186990785231"><ele>201.8</ele><time>2026-04-06T15:52:38Z</time></trkpt><trkpt lat="42.73727411760599" lon="2.6819519372590666"><ele>201.2</ele><time>2026-04-06T15:52:39Z</time></trkpt><trkpt lat="42.7372015880803" lon="2.682024281965213"><ele>200.6</ele><time>2026-04-06T15:52:40Z</time></trkpt><trkpt lat="42.737135987191344" lon="2.682088460334385"><ele>200.0</ele><time>2026-04-06T15:52:41Z</time></trkpt><trkpt lat="42.73703362508016" lon="2.682182327839266"><ele>201.33333333333334</ele><time>2026-04-06T15:52:43Z</time></trkpt><trkpt lat="42.73696531153756" lon="2.682220094476646"><ele>202.66666666666669</ele><time>2026-04-06T15:52:44Z</time></trkpt><trkpt lat="42.73691011584701" lon="2.6822835920750134"><ele>204.0</ele><time>2026-04-06T15:52:45Z</time></trkpt><trkpt lat="42.73685759782475" lon="2.6823459673661314"><ele>205.33333333333331</ele><time>2026-04-06T15:52:46Z</time></trkpt><trkpt lat="42.73680658777763" lon="2.6824270817303386"><ele>206.66666666666666</ele><time>2026-04-06T15:52:47Z</time></trkpt><trkpt lat="42.73676856189914" lon="2.6825132405270558"><ele>208.0</ele><time>2026-04-06T15:52:48Z</time></trkpt><trkpt lat="42.736709799740204" lon="2.6826200140754883"><ele>208.0</ele><time>2026-04-06T15:52:50Z</time></trkpt><trkpt lat="42.73666723840376" lon="2.682694049705782"><ele>208.0</ele><time>2026-04-06T15:52:52Z</time></trkpt><trkpt lat="42.73657552643126" lon="2.6827911114523957"><ele>208.0</ele><time>2026-04-06T15:52:54Z</time></trkpt><trkpt lat="42.736495512069986" lon="2.682899154430271"><ele>208.0</ele><time>2026-04-06T15:52:56Z</time></trkpt><trkpt lat="42.73643455603657" lon="2.682979281519442"><ele>208.0</ele><time>2026-04-06T15:52:58Z</time></trkpt><trkpt lat="42.73636506668361" lon="2.683098635127951"><ele>209.16666666666666</ele><time>2026-04-06T15:53:00Z</time></trkpt><trkpt lat="42.73628979937563" lon="2.6832102738419428"><ele>210.33333333333331</ele><time>2026-04-06T15:53:02Z</time></trkpt><trkpt lat="42.736224325386196" lon="2.6832897391590547"><ele>211.5</ele><time>2026-04-06T15:53:04Z</time></trkpt><trkpt lat="42.73617627028919" lon="2.6833454102953027"><ele>212.66666666666669</ele><time>2026-04-06T15:53:06Z</time></trkpt><trkpt lat="42.73613595552228" lon="2.6834119792516424"><ele>213.83333333333334</ele><time>2026-04-06T15:53:24Z</time></trkpt><trkpt lat="42.736099690659344" lon="2.6834898017041984"><ele>215.0</ele><time>2026-04-06T15:53:26Z</time></trkpt><trkpt lat="42.73605227913123" lon="2.683568490629134"><ele>217.0</ele><time>2026-04-06T15:53:28Z</time></trkpt><trkpt lat="42.73599802917041" lon="2.683676976444437"><ele>219.0</ele><time>2026-04-06T15:53:30Z</time></trkpt><trkpt lat="42.73593834321407" lon="2.683762112646726"><ele>221.0</ele><time>2026-04-06T15:53:32Z</time></trkpt><trkpt lat="42.735873361269405" lon="2.6838667915712864"><ele>223.0</ele><time>2026-04-06T15:53:34Z</time></trkpt><trkpt lat="42.73580821349236" lon="2.683962529260742"><ele>225.0</ele><time>2026-04-06T15:53:36Z</time></trkpt><trkpt lat="42.73571197949746" lon="2.6840409725741328"><ele>225.0</ele><time>2026-04-06T15:53:38Z</time></trkpt><trkpt lat="42.73561803052129" lon="2.6841257675717416"><ele>225.0</ele><time>2026-04-06T15:53:39.999Z</time></trkpt><trkpt lat="42.735535793303136" lon="2.6842033426014615"><ele>225.0</ele><time>2026-04-06T15:53:41.999Z</time></trkpt><trkpt lat="42.73544947330596" lon="2.684286590306215"><ele>225.0</ele><time>2026-04-06T15:53:43.999Z</time></trkpt><trkpt lat="42.73535005584147" lon="2.6843507005028497"><ele>225.0</ele><time>2026-04-06T15:53:45.999Z</time></trkpt><trkpt lat="42.73528523406822" lon="2.684372720677826"><ele>227.6</ele><time>2026-04-06T15:53:46.999Z</time></trkpt><trkpt lat="42.735201606711684" lon="2.6844410789531783"><ele>230.2</ele><time>2026-04-06T15:53:48.999Z</time></trkpt><trkpt lat="42.735114720624175" lon="2.6845066804842497"><ele>232.8</ele><time>2026-04-06T15:53:50.999Z</time></trkpt><trkpt lat="42.735022510867864" lon="2.684588701375891"><ele>235.4</ele><time>2026-04-06T15:53:52.999Z</time></trkpt><trkpt lat="42.73490522893434" lon="2.6846328546270013"><ele>238.0</ele><time>2026-04-06T15:53:54.999Z</time></trkpt><trkpt lat="42.73479041364274" lon="2.684669218626582"><ele>238.0</ele><time>2026-04-06T15:53:56.999Z</time></trkpt><trkpt lat="42.73468686636814" lon="2.68471336233182"><ele>238.0</ele><time>2026-04-06T15:53:58.999Z</time></trkpt><trkpt lat="42.734629280981615" lon="2.6847495180160186"><ele>238.0</ele><time>2026-04-06T15:53:59.999Z</time></trkpt><trkpt lat="42.734541129725024" lon="2.6848431446157806"><ele>238.0</ele><time>2026-04-06T15:54:01.999Z</time></trkpt><trkpt lat="42.73444111594719" lon="2.6849540346364242"><ele>238.0</ele><time>2026-04-06T15:54:03.999Z</time></trkpt><trkpt lat="42.73436321466692" lon="2.6850321799312136"><ele>238.0</ele><time>2026-04-06T15:54:05.999Z</time></trkpt><trkpt lat="42.734281863409436" lon="2.6851135582574304"><ele>238.0</ele><time>2026-04-06T15:54:07.999Z</time></trkpt><trkpt lat="42.73423549334125" lon="2.6851903859430855"><ele>238.0</ele><time>2026-04-06T15:54:09.999Z</time></trkpt><trkpt lat="42.73419300667148" lon="2.68528385145208"><ele>238.0</ele><time>2026-04-06T15:54:12Z</time></trkpt><trkpt lat="42.73415557751283" lon="2.685371833063918"><ele>238.0</ele><time>2026-04-06T15:54:14Z</time></trkpt><trkpt lat="42.73401745971485" lon="2.6853815620832453"><ele>238.0</ele><time>2026-04-06T15:54:31Z</time></trkpt><trkpt lat="42.73402610962947" lon="2.685268474033565"><ele>238.0</ele><time>2026-04-06T15:54:33Z</time></trkpt><trkpt lat="42.73400953558223" lon="2.685177141613827"><ele>238.0</ele><time>2026-04-06T15:54:35Z</time></trkpt><trkpt lat="42.73394597922782" lon="2.6850080764369304"><ele>238.0</ele><time>2026-04-06T15:54:37Z</time></trkpt><trkpt lat="42.73395282287192" lon="2.684866421884998"><ele>238.0</ele><time>2026-04-06T15:54:40Z</time></trkpt><trkpt lat="42.73394071957403" lon="2.6847573417853545"><ele>237.99999999999997</ele><time>2026-04-06T15:54:42Z</time></trkpt><trkpt lat="42.73398627874614" lon="2.684597003066046"><ele>238.0</ele><time>2026-04-06T15:54:46Z</time></trkpt><trkpt lat="42.73400733012229" lon="2.6845130787642266"><ele>238.0</ele><time>2026-04-06T15:54:47Z</time></trkpt><trkpt lat="42.734031015764565" lon="2.684377584497808"><ele>238.0</ele><time>2026-04-06T15:54:49Z</time></trkpt><trkpt lat="42.73401295342356" lon="2.6842635294128687"><ele>237.99999999999997</ele><time>2026-04-06T15:54:51Z</time></trkpt><trkpt lat="42.73396365424261" lon="2.68420401496045"><ele>238.0</ele><time>2026-04-06T15:54:53Z</time></trkpt><trkpt lat="42.73390740418321" lon="2.6842475890447504"><ele>238.0</ele><time>2026-04-06T15:54:55Z</time></trkpt><trkpt lat="42.733874842259354" lon="2.684346129093037"><ele>238.0</ele><time>2026-04-06T15:54:57Z</time></trkpt><trkpt lat="42.73383529688416" lon="2.684466852776181"><ele>238.0</ele><time>2026-04-06T15:54:59Z</time></trkpt><trkpt lat="42.73375473085452" lon="2.68458756042365"><ele>238.0</ele><time>2026-04-06T15:55:01Z</time></trkpt><trkpt lat="42.733685213107584" lon="2.6846904904804165"><ele>238.0</ele><time>2026-04-06T15:55:03Z</time></trkpt><trkpt lat="42.73361547945122" lon="2.684783766019863"><ele>237.99999999999997</ele><time>2026-04-06T15:55:05Z</time></trkpt><trkpt lat="42.73356532186835" lon="2.6848608546444512"><ele>238.0</ele><time>2026-04-06T15:55:07Z</time></trkpt><trkpt lat="42.73349336827935" lon="2.684917750208369"><ele>238.0</ele><time>2026-04-06T15:55:09Z</time></trkpt><trkpt lat="42.733385134433114" lon="2.6849223584448465"><ele>238.0</ele><time>2026-04-06T15:55:11Z</time></trkpt><trkpt lat="42.733284136928674" lon="2.6848912515769197"><ele>237.99999999999997</ele><time>2026-04-06T15:55:13Z</time></trkpt><trkpt lat="42.733221855161105" lon="2.684877562103576"><ele>238.0</ele><time>2026-04-06T15:55:50.999Z</time></trkpt><trkpt lat="42.73313427586333" lon="2.6848304969727836"><ele>240.83333333333331</ele><time>2026-04-06T15:56:00.999Z</time></trkpt><trkpt lat="42.73304247631696" lon="2.6847963674715642"><ele>243.66666666666666</ele><time>2026-04-06T15:56:02.999Z</time></trkpt><trkpt lat="42.73296797878003" lon="2.684765796421565"><ele>246.5</ele><time>2026-04-06T15:56:04.999Z</time></trkpt><trkpt lat="42.732901267642134" lon="2.684744016681033"><ele>249.33333333333331</ele><time>2026-04-06T15:56:06.999Z</time></trkpt><trkpt lat="42.73282952923792" lon="2.684715594711546"><ele>252.16666666666666</ele><time>2026-04-06T15:56:08.999Z</time></trkpt><trkpt lat="42.73274263147743" lon="2.684677105275052"><ele>255.0</ele><time>2026-04-06T15:56:11.999Z</time></trkpt><trkpt lat="42.73266709843076" lon="2.6846582841448963"><ele>255.0</ele><time>2026-04-06T15:56:14.999Z</time></trkpt><trkpt lat="42.73262852399732" lon="2.684586859048877"><ele>255.00000000000003</ele><time>2026-04-06T15:56:18Z</time></trkpt><trkpt lat="42.73268099219636" lon="2.684505844522409"><ele>255.0</ele><time>2026-04-06T15:56:21Z</time></trkpt><trkpt lat="42.732712415227276" lon="2.684425741889092"><ele>255.0</ele><time>2026-04-06T15:57:11Z</time></trkpt><trkpt lat="42.732720601701544" lon="2.6843319386906517"><ele>255.00000000000003</ele><time>2026-04-06T15:57:15Z</time></trkpt><trkpt lat="42.732777383751376" lon="2.6842537817437675"><ele>255.0</ele><time>2026-04-06T15:57:54.999Z</time></trkpt><trkpt lat="42.732794826571" lon="2.6841567880245853"><ele>255.0</ele><time>2026-04-06T15:57:57.999Z</time></trkpt><trkpt lat="42.732749576435445" lon="2.684089178698036"><ele>253.57142857142858</ele><time>2026-04-06T15:58:01.999Z</time></trkpt><trkpt lat="42.73267851282768" lon="2.6840911997351227"><ele>252.14285714285717</ele><time>2026-04-06T15:58:05.999Z</time></trkpt><trkpt lat="42.732606896859146" lon="2.6840956710187527"><ele>250.71428571428572</ele><time>2026-04-06T15:58:09.999Z</time></trkpt><trkpt lat="42.732532957945786" lon="2.684113349712318"><ele>249.28571428571428</ele><time>2026-04-06T15:58:12.999Z</time></trkpt><trkpt lat="42.73245221287614" lon="2.684134597454868"><ele>247.85714285714286</ele><time>2026-04-06T15:58:15.999Z</time></trkpt><trkpt lat="42.73238832943143" lon="2.6841336001965534"><ele>246.42857142857144</ele><time>2026-04-06T15:58:17.999Z</time></trkpt><trkpt lat="42.73232327715623" lon="2.684174927754406"><ele>245.0</ele><time>2026-04-06T15:58:19.999Z</time></trkpt><trkpt lat="42.73228433280401" lon="2.684243475596464"><ele>245.00000000000003</ele><time>2026-04-06T15:58:21.999Z</time></trkpt><trkpt lat="42.732231491041915" lon="2.684291685819791"><ele>245.0</ele><time>2026-04-06T15:58:25Z</time></trkpt><trkpt lat="42.73217231202532" lon="2.684385139440511"><ele>245.0</ele><time>2026-04-06T15:58:31Z</time></trkpt><trkpt lat="42.732111645046736" lon="2.6844505656856055"><ele>245.0</ele><time>2026-04-06T15:58:34Z</time></trkpt><trkpt lat="42.73205153169397" lon="2.684476091707473"><ele>245.00000000000003</ele><time>2026-04-06T15:58:36Z</time></trkpt><trkpt lat="42.73198545793008" lon="2.6845348857931612"><ele>245.0</ele><time>2026-04-06T15:58:40Z</time></trkpt><trkpt lat="42.73197418369239" lon="2.68443058011795"><ele>245.00000000000003</ele><time>2026-04-06T15:58:59Z</time></trkpt><trkpt lat="42.73194231774107" lon="2.6843528839172808"><ele>245.0</ele><time>2026-04-06T15:59:01Z</time></trkpt><trkpt lat="42.731903659337036" lon="2.6842770434971204"><ele>245.0</ele><time>2026-04-06T15:59:03Z</time></trkpt><trkpt lat="42.731945076757825" lon="2.6842051012602144"><ele>245.0</ele><time>2026-04-06T15:59:05Z</time></trkpt><trkpt lat="42.73196110305745" lon="2.6840732157135725"><ele>245.00000000000003</ele><time>2026-04-06T15:59:07Z</time></trkpt><trkpt lat="42.731950595619196" lon="2.683955296670897"><ele>245.0</ele><time>2026-04-06T15:59:09Z</time></trkpt><trkpt lat="42.73194283093514" lon="2.683812695011817"><ele>245.0</ele><time>2026-04-06T15:59:11Z</time></trkpt><trkpt lat="42.73195578057539" lon="2.683654094348339"><ele>245.0</ele><time>2026-04-06T15:59:13Z</time></trkpt><trkpt lat="42.731977185725235" lon="2.683507178232897"><ele>245.0</ele><time>2026-04-06T15:59:15Z</time></trkpt><trkpt lat="42.73201729710754" lon="2.683355361322179"><ele>245.0</ele><time>2026-04-06T15:59:17Z</time></trkpt><trkpt lat="42.732055768992076" lon="2.6832858014962873"><ele>245.0</ele><time>2026-04-06T15:59:18Z</time></trkpt><trkpt lat="42.73208966096483" lon="2.683199398456212"><ele>242.8</ele><time>2026-04-06T15:59:19Z</time></trkpt><trkpt lat="42.73210979525641" lon="2.683114445021957"><ele>240.6</ele><time>2026-04-06T15:59:20Z</time></trkpt><trkpt lat="42.73212551532649" lon="2.6829892251272858"><ele>238.39999999999998</ele><time>2026-04-06T15:59:22Z</time></trkpt><trkpt lat="42.73219178513453" lon="2.682877641048514"><ele>236.2</ele><time>2026-04-06T15:59:24Z</time></trkpt><trkpt lat="42.732262801028014" lon="2.682784659168743"><ele>234.0</ele><time>2026-04-06T15:59:26Z</time></trkpt><trkpt lat="42.7322740819115" lon="2.682658119570053"><ele>233.5</ele><time>2026-04-06T15:59:28Z</time></trkpt><trkpt lat="42.732303538633914" lon="2.6825266019155265"><ele>233.0</ele><time>2026-04-06T15:59:30Z</time></trkpt><trkpt lat="42.732383559616025" lon="2.6823835030236824"><ele>232.5</ele><time>2026-04-06T15:59:32Z</time></trkpt><trkpt lat="42.73242589242671" lon="2.682317854011643"><ele>232.0</ele><time>2026-04-06T15:59:33Z</time></trkpt><trkpt lat="42.73245120833798" lon="2.6822370553185544"><ele>231.5</ele><time>2026-04-06T15:59:34Z</time></trkpt><trkpt lat="42.73247381633016" lon="2.6821559364011787"><ele>231.0</ele><time>2026-04-06T15:59:35Z</time></trkpt><trkpt lat="42.73253982415434" lon="2.68200274109534"><ele>230.33333333333334</ele><time>2026-04-06T15:59:37Z</time></trkpt><trkpt lat="42.732572291357094" lon="2.681908601482068"><ele>229.66666666666669</ele><time>2026-04-06T15:59:38Z</time></trkpt><trkpt lat="42.73261945495822" lon="2.681832582610821"><ele>229.0</ele><time>2026-04-06T15:59:39Z</time></trkpt><trkpt lat="42.73265434887627" lon="2.6817557962951013"><ele>228.33333333333334</ele><time>2026-04-06T15:59:40Z</time></trkpt><trkpt lat="42.73269583765954" lon="2.6816127645810677"><ele>227.66666666666669</ele><time>2026-04-06T15:59:42Z</time></trkpt><trkpt lat="42.73272951658333" lon="2.68151162760913"><ele>227.0</ele><time>2026-04-06T15:59:44Z</time></trkpt><trkpt lat="42.73259160423221" lon="2.681534254054103"><ele>228.71428571428572</ele><time>2026-04-06T15:59:58.999Z</time></trkpt><trkpt lat="42.732522128869974" lon="2.6815655768856748"><ele>230.42857142857144</ele><time>2026-04-06T15:59:59.999Z</time></trkpt><trkpt lat="42.73245714892072" lon="2.6815856819451853"><ele>232.14285714285717</ele><time>2026-04-06T16:00:00.999Z</time></trkpt><trkpt lat="42.73240206400742" lon="2.6816280421876484"><ele>233.8571428571429</ele><time>2026-04-06T16:00:01.999Z</time></trkpt><trkpt lat="42.73233519792232" lon="2.681686661837664"><ele>235.57142857142858</ele><time>2026-04-06T16:00:02.999Z</time></trkpt><trkpt lat="42.732278291665885" lon="2.6817509220529643"><ele>237.28571428571433</ele><time>2026-04-06T16:00:03.999Z</time></trkpt><trkpt lat="42.73221379791137" lon="2.6818087022243486"><ele>239.00000000000003</ele><time>2026-04-06T16:00:04.999Z</time></trkpt><trkpt lat="42.7321359552586" lon="2.6818555130313904"><ele>240.2</ele><time>2026-04-06T16:00:06.999Z</time></trkpt><trkpt lat="42.73205462801518" lon="2.6819340990964884"><ele>241.39999999999998</ele><time>2026-04-06T16:00:08.999Z</time></trkpt><trkpt lat="42.731960497135546" lon="2.682025082538508"><ele>242.6</ele><time>2026-04-06T16:00:10.999Z</time></trkpt><trkpt lat="42.73190484076211" lon="2.682075815401806"><ele>243.8</ele><time>2026-04-06T16:00:11.999Z</time></trkpt><trkpt lat="42.731851793415196" lon="2.6821276107490193"><ele>245.0</ele><time>2026-04-06T16:00:12.999Z</time></trkpt><trkpt lat="42.73176239113098" lon="2.6822416738445916"><ele>245.00000000000003</ele><time>2026-04-06T16:00:14.999Z</time></trkpt><trkpt lat="42.73169933003253" lon="2.6823148291942807"><ele>245.0</ele><time>2026-04-06T16:00:15.999Z</time></trkpt><trkpt lat="42.73164244220492" lon="2.6823788631278696"><ele>245.0</ele><time>2026-04-06T16:00:16.999Z</time></trkpt><trkpt lat="42.731585543097935" lon="2.682435109044018"><ele>245.0</ele><time>2026-04-06T16:00:17.999Z</time></trkpt><trkpt lat="42.7315224980774" lon="2.6825017827014497"><ele>245.00000000000003</ele><time>2026-04-06T16:00:18.999Z</time></trkpt><trkpt lat="42.73145698361592" lon="2.6825809206750124"><ele>245.0</ele><time>2026-04-06T16:00:19.999Z</time></trkpt><trkpt lat="42.73139306347395" lon="2.682656376725476"><ele>245.00000000000003</ele><time>2026-04-06T16:00:20.999Z</time></trkpt><trkpt lat="42.73132921094756" lon="2.682746075963596"><ele>245.0</ele><time>2026-04-06T16:00:21.999Z</time></trkpt><trkpt lat="42.73128318706837" lon="2.6828156102116503"><ele>245.0</ele><time>2026-04-06T16:00:22.999Z</time></trkpt><trkpt lat="42.73123049128881" lon="2.682877991392851"><ele>245.0</ele><time>2026-04-06T16:00:23.999Z</time></trkpt><trkpt lat="42.73114080681121" lon="2.6829644229272187"><ele>245.00000000000003</ele><time>2026-04-06T16:00:25.999Z</time></trkpt><trkpt lat="42.73107006484153" lon="2.683015302050847"><ele>245.0</ele><time>2026-04-06T16:00:27.999Z</time></trkpt><trkpt lat="42.73100907990296" lon="2.6830816141542764"><ele>248.16666666666669</ele><time>2026-04-06T16:00:30Z</time></trkpt><trkpt lat="42.7309122944842" lon="2.683170503915276"><ele>251.33333333333334</ele><time>2026-04-06T16:00:32Z</time></trkpt><trkpt lat="42.73081962213711" lon="2.683210796546178"><ele>254.5</ele><time>2026-04-06T16:00:34Z</time></trkpt><trkpt lat="42.73074995928429" lon="2.6832346387121047"><ele>257.6666666666667</ele><time>2026-04-06T16:00:36Z</time></trkpt><trkpt lat="42.730681622889094" lon="2.683243369561054"><ele>260.8333333333333</ele><time>2026-04-06T16:01:38Z</time></trkpt><trkpt lat="42.73061177151895" lon="2.683223189107008"><ele>264.0</ele><time>2026-04-06T16:01:43Z</time></trkpt><trkpt lat="42.73054954067302" lon="2.6831854526429844"><ele>264.0</ele><time>2026-04-06T16:01:46Z</time></trkpt><trkpt lat="42.73046855235134" lon="2.683074730132644"><ele>264.0</ele><time>2026-04-06T16:01:49Z</time></trkpt><trkpt lat="42.730391914864995" lon="2.682992995943835"><ele>264.0</ele><time>2026-04-06T16:01:52Z</time></trkpt><trkpt lat="42.73032268446602" lon="2.682928048021921"><ele>264.0</ele><time>2026-04-06T16:01:53.999Z</time></trkpt><trkpt lat="42.73021611880919" lon="2.68282455040768"><ele>264.0</ele><time>2026-04-06T16:01:55.999Z</time></trkpt><trkpt lat="42.730149476788284" lon="2.6828335047012235"><ele>267.6666666666667</ele><time>2026-04-06T16:02:37Z</time></trkpt><trkpt lat="42.730078329602584" lon="2.6828054603133733"><ele>271.3333333333333</ele><time>2026-04-06T16:02:39Z</time></trkpt><trkpt lat="42.72999780460364" lon="2.6828076735721833"><ele>275.0</ele><time>2026-04-06T16:02:42Z</time></trkpt><trkpt lat="42.72992114299008" lon="2.682799321657746"><ele>278.66666666666663</ele><time>2026-04-06T16:02:56Z</time></trkpt><trkpt lat="42.72984683662494" lon="2.6828223451962367"><ele>282.3333333333333</ele><time>2026-04-06T16:02:58Z</time></trkpt><trkpt lat="42.72978310780225" lon="2.6828447622112472"><ele>286.0</ele><time>2026-04-06T16:03:00Z</time></trkpt><trkpt lat="42.72967701068964" lon="2.6828636343534025"><ele>286.0</ele><time>2026-04-06T16:03:03Z</time></trkpt><trkpt lat="42.729582513852975" lon="2.682886623504428"><ele>286.0</ele><time>2026-04-06T16:03:05Z</time></trkpt><trkpt lat="42.72948505844239" lon="2.6828878804412972"><ele>286.0</ele><time>2026-04-06T16:03:07Z</time></trkpt><trkpt lat="42.729417115827445" lon="2.682875946773205"><ele>286.0</ele><time>2026-04-06T16:03:08Z</time></trkpt><trkpt lat="42.729312749013204" lon="2.6828182627505353"><ele>286.0</ele><time>2026-04-06T16:03:10Z</time></trkpt><trkpt lat="42.72925211434639" lon="2.6827571801131103"><ele>287.2</ele><time>2026-04-06T16:03:12Z</time></trkpt><trkpt lat="42.729182318213674" lon="2.682657863066292"><ele>288.40000000000003</ele><time>2026-04-06T16:03:14Z</time></trkpt><trkpt lat="42.72912390530103" lon="2.6825793134337834"><ele>289.6</ele><time>2026-04-06T16:03:16Z</time></trkpt><trkpt lat="42.729044596267755" lon="2.682489871669547"><ele>290.8</ele><time>2026-04-06T16:03:18Z</time></trkpt><trkpt lat="42.72896625246051" lon="2.682427205575733"><ele>292.0</ele><time>2026-04-06T16:03:20Z</time></trkpt><trkpt lat="42.72889875626947" lon="2.68236338319884"><ele>292.0</ele><time>2026-04-06T16:03:22Z</time></trkpt><trkpt lat="42.7288172764286" lon="2.682302519002893"><ele>292.0</ele><time>2026-04-06T16:03:24Z</time></trkpt><trkpt lat="42.728740835467796" lon="2.682249421378514"><ele>292.0</ele><time>2026-04-06T16:03:26Z</time></trkpt><trkpt lat="42.72865219667449" lon="2.6821900741731026"><ele>292.0</ele><time>2026-04-06T16:03:28Z</time></trkpt><trkpt lat="42.72856486580096" lon="2.6821678984903676"><ele>292.0</ele><time>2026-04-06T16:03:30Z</time></trkpt><trkpt lat="42.72850178750361" lon="2.6821425287472365"><ele>292.0</ele><time>2026-04-06T16:03:32Z</time></trkpt><trkpt lat="42.728423757181034" lon="2.6821127459037344"><ele>295.8333333333333</ele><time>2026-04-06T16:03:36Z</time></trkpt><trkpt lat="42.72833667623424" lon="2.6820664771471834"><ele>299.66666666666663</ele><time>2026-04-06T16:03:38Z</time></trkpt><trkpt lat="42.72824369881534" lon="2.6820317730224694"><ele>303.5</ele><time>2026-04-06T16:03:41Z</time></trkpt><trkpt lat="42.72817749064023" lon="2.682019375032441"><ele>307.3333333333333</ele><time>2026-04-06T16:03:45Z</time></trkpt><trkpt lat="42.72810949958711" lon="2.682013758626781"><ele>311.1666666666667</ele><time>2026-04-06T16:04:09.999Z</time></trkpt><trkpt lat="42.72804855463069" lon="2.6820410807149035"><ele>315.0</ele><time>2026-04-06T16:04:18.999Z</time></trkpt><trkpt lat="42.72798832180692" lon="2.682110802732452"><ele>315.0</ele><time>2026-04-06T16:04:32.999Z</time></trkpt><trkpt lat="42.727981525526666" lon="2.6822555405499457"><ele>315.0</ele><time>2026-04-06T16:05:38Z</time></trkpt><trkpt lat="42.72797907968441" lon="2.6823932189620305"><ele>315.0</ele><time>2026-04-06T16:05:40Z</time></trkpt><trkpt lat="42.72798187462491" lon="2.682534735904536"><ele>315.0</ele><time>2026-04-06T16:05:42Z</time></trkpt><trkpt lat="42.72798303085817" lon="2.682674104929308"><ele>315.0</ele><time>2026-04-06T16:05:44Z</time></trkpt><trkpt lat="42.7279495203038" lon="2.6827812994515963"><ele>315.5</ele><time>2026-04-06T16:05:46Z</time></trkpt><trkpt lat="42.72784898278982" lon="2.682873280827295"><ele>316.0</ele><time>2026-04-06T16:05:48Z</time></trkpt><trkpt lat="42.7277825397671" lon="2.682913276314762"><ele>316.5</ele><time>2026-04-06T16:05:50Z</time></trkpt><trkpt lat="42.72771816745335" lon="2.682932810498911"><ele>317.0</ele><time>2026-04-06T16:05:53Z</time></trkpt><trkpt lat="42.72765561176825" lon="2.6829795839089963"><ele>317.5</ele><time>2026-04-06T16:05:57Z</time></trkpt><trkpt lat="42.7276096034891" lon="2.6830395809185297"><ele>318.0</ele><time>2026-04-06T16:05:59Z</time></trkpt><trkpt lat="42.727595279955565" lon="2.683138307571462"><ele>318.0</ele><time>2026-04-06T16:06:01Z</time></trkpt><trkpt lat="42.72757815721679" lon="2.6832455467404404"><ele>318.0</ele><time>2026-04-06T16:06:04Z</time></trkpt><trkpt lat="42.72753028242568" lon="2.6833755335225127"><ele>318.0</ele><time>2026-04-06T16:06:06Z</time></trkpt><trkpt lat="42.72747110181327" lon="2.6835100249411674"><ele>318.0</ele><time>2026-04-06T16:06:07.999Z</time></trkpt><trkpt lat="42.72740159847333" lon="2.683629559639571"><ele>318.0</ele><time>2026-04-06T16:06:09.999Z</time></trkpt><trkpt lat="42.72734926713074" lon="2.6837017318757086"><ele>320.0</ele><time>2026-04-06T16:06:10.999Z</time></trkpt><trkpt lat="42.727303415253914" lon="2.6837686040164117"><ele>322.0</ele><time>2026-04-06T16:06:11.999Z</time></trkpt><trkpt lat="42.727247140749796" lon="2.6838345867447644"><ele>324.0</ele><time>2026-04-06T16:06:12.999Z</time></trkpt><trkpt lat="42.7271501632023" lon="2.6839192329397985"><ele>326.0</ele><time>2026-04-06T16:06:14.999Z</time></trkpt><trkpt lat="42.72707290600811" lon="2.6840343430049294"><ele>328.0</ele><time>2026-04-06T16:06:16.999Z</time></trkpt><trkpt lat="42.7270378027393" lon="2.684112095847894"><ele>330.0</ele><time>2026-04-06T16:06:17.999Z</time></trkpt><trkpt lat="42.72700221914072" lon="2.6841984422819163"><ele>330.0</ele><time>2026-04-06T16:06:18.999Z</time></trkpt><trkpt lat="42.72696159905335" lon="2.684287025108374"><ele>330.0</ele><time>2026-04-06T16:06:19.999Z</time></trkpt><trkpt lat="42.726922563341496" lon="2.6843727480266684"><ele>330.0</ele><time>2026-04-06T16:06:20.999Z</time></trkpt><trkpt lat="42.726850799678985" lon="2.6844948048292405"><ele>330.0</ele><time>2026-04-06T16:06:22.999Z</time></trkpt><trkpt lat="42.726807806649774" lon="2.6845592058584558"><ele>330.0</ele><time>2026-04-06T16:06:23.999Z</time></trkpt><trkpt lat="42.72673157665034" lon="2.6846963689766796"><ele>331.2</ele><time>2026-04-06T16:06:25.999Z</time></trkpt><trkpt lat="42.72669444867163" lon="2.6847727492278466"><ele>332.4</ele><time>2026-04-06T16:06:26.999Z</time></trkpt><trkpt lat="42.72662801289706" lon="2.684925766574443"><ele>333.6</ele><time>2026-04-06T16:06:28.999Z</time></trkpt><trkpt lat="42.72659489499408" lon="2.6850056013245576"><ele>334.8</ele><time>2026-04-06T16:06:29.999Z</time></trkpt><trkpt lat="42.72654165270233" lon="2.6851309894537856"><ele>336.0</ele><time>2026-04-06T16:06:31.999Z</time></trkpt><trkpt lat="42.72649482132913" lon="2.6852625168157993"><ele>336.0</ele><time>2026-04-06T16:06:33.999Z</time></trkpt><trkpt lat="42.7264285875826" lon="2.6853949521428886"><ele>336.0</ele><time>2026-04-06T16:06:35.999Z</time></trkpt><trkpt lat="42.72637186549847" lon="2.685526585668038"><ele>336.0</ele><time>2026-04-06T16:06:37.999Z</time></trkpt><trkpt lat="42.726332857742555" lon="2.6856001055975103"><ele>336.0</ele><time>2026-04-06T16:06:38.999Z</time></trkpt><trkpt lat="42.72625309297951" lon="2.6857610336532542"><ele>336.0</ele><time>2026-04-06T16:06:40.999Z</time></trkpt><trkpt lat="42.72621132310066" lon="2.6858388060236087"><ele>336.0</ele><time>2026-04-06T16:06:41.999Z</time></trkpt><trkpt lat="42.72616802262726" lon="2.685910894867313"><ele>336.0</ele><time>2026-04-06T16:06:42.999Z</time></trkpt><trkpt lat="42.72611877402001" lon="2.6859854307191253"><ele>336.0</ele><time>2026-04-06T16:06:43.999Z</time></trkpt><trkpt lat="42.72608797172061" lon="2.686064656763554"><ele>336.0</ele><time>2026-04-06T16:06:44.999Z</time></trkpt><trkpt lat="42.72605734222343" lon="2.686139918112633"><ele>336.0</ele><time>2026-04-06T16:06:45.999Z</time></trkpt><trkpt lat="42.72602309780615" lon="2.6862153601612944"><ele>336.0</ele><time>2026-04-06T16:06:48Z</time></trkpt><trkpt lat="42.72597226010903" lon="2.6862942217745642"><ele>336.0</ele><time>2026-04-06T16:06:50Z</time></trkpt><trkpt lat="42.72594132101116" lon="2.6863997648583915"><ele>334.20000000000005</ele><time>2026-04-06T16:06:52Z</time></trkpt><trkpt lat="42.72590461106813" lon="2.686539334004419"><ele>332.40000000000003</ele><time>2026-04-06T16:06:54Z</time></trkpt><trkpt lat="42.725870384493824" lon="2.686628997859126"><ele>330.6</ele><time>2026-04-06T16:06:56Z</time></trkpt><trkpt lat="42.72581724877816" lon="2.6867327848557783"><ele>328.8</ele><time>2026-04-06T16:06:59Z</time></trkpt><trkpt lat="42.72577662800413" lon="2.6868623973318395"><ele>327.0</ele><time>2026-04-06T16:07:02Z</time></trkpt><trkpt lat="42.72573858181426" lon="2.6869916482150975"><ele>327.0</ele><time>2026-04-06T16:07:04Z</time></trkpt><trkpt lat="42.72571055091908" lon="2.6871229567115567"><ele>327.0</ele><time>2026-04-06T16:07:06Z</time></trkpt><trkpt lat="42.7256792156472" lon="2.687245206601171"><ele>327.0</ele><time>2026-04-06T16:07:08Z</time></trkpt><trkpt lat="42.72564914954176" lon="2.6873212830014395"><ele>327.0</ele><time>2026-04-06T16:07:09Z</time></trkpt><trkpt lat="42.7255998231304" lon="2.6874573171624028"><ele>327.0</ele><time>2026-04-06T16:07:11Z</time></trkpt><trkpt lat="42.72555466650431" lon="2.6875988011563177"><ele>327.0</ele><time>2026-04-06T16:07:13Z</time></trkpt><trkpt lat="42.72549083626063" lon="2.687708027897737"><ele>327.0</ele><time>2026-04-06T16:07:15Z</time></trkpt><trkpt lat="42.725409169205115" lon="2.6878148723572006"><ele>327.0</ele><time>2026-04-06T16:07:17Z</time></trkpt><trkpt lat="42.725312305336594" lon="2.6879204685983438"><ele>327.0</ele><time>2026-04-06T16:07:19Z</time></trkpt><trkpt lat="42.72522599833665" lon="2.6879922132237977"><ele>327.0</ele><time>2026-04-06T16:07:21Z</time></trkpt><trkpt lat="42.72513182171716" lon="2.6880762934011044"><ele>325.3333333333333</ele><time>2026-04-06T16:07:23Z</time></trkpt><trkpt lat="42.72508486292856" lon="2.688143055110507"><ele>323.6666666666667</ele><time>2026-04-06T16:07:24Z</time></trkpt><trkpt lat="42.725039541868924" lon="2.688226549199797"><ele>322.0</ele><time>2026-04-06T16:07:25Z</time></trkpt><trkpt lat="42.72499988817787" lon="2.6883176225693393"><ele>320.33333333333337</ele><time>2026-04-06T16:07:26Z</time></trkpt><trkpt lat="42.72494433689799" lon="2.6884324610941523"><ele>318.6666666666667</ele><time>2026-04-06T16:07:28Z</time></trkpt><trkpt lat="42.7248838349324" lon="2.6885447340239246"><ele>317.0</ele><time>2026-04-06T16:07:30Z</time></trkpt><trkpt lat="42.724837041172705" lon="2.688632018308718"><ele>317.0</ele><time>2026-04-06T16:07:32Z</time></trkpt><trkpt lat="42.72479602937474" lon="2.6887051073917916"><ele>317.0</ele><time>2026-04-06T16:07:34Z</time></trkpt><trkpt lat="42.72476535606852" lon="2.68879135797378"><ele>317.0</ele><time>2026-04-06T16:07:36Z</time></trkpt><trkpt lat="42.724737263915635" lon="2.688875459671771"><ele>317.0</ele><time>2026-04-06T16:07:38Z</time></trkpt><trkpt lat="42.72472085274699" lon="2.6889728180173225"><ele>317.0</ele><time>2026-04-06T16:07:40Z</time></trkpt><trkpt lat="42.72470017212912" lon="2.6890609142939526"><ele>317.0</ele><time>2026-04-06T16:07:42Z</time></trkpt><trkpt lat="42.72469691387827" lon="2.6891648426431747"><ele>317.0</ele><time>2026-04-06T16:07:44Z</time></trkpt><trkpt lat="42.7246960761663" lon="2.689270663890585"><ele>317.0</ele><time>2026-04-06T16:07:46Z</time></trkpt><trkpt lat="42.72469475816499" lon="2.689384692036014"><ele>317.0</ele><time>2026-04-06T16:07:48Z</time></trkpt><trkpt lat="42.724702408729314" lon="2.689497493514106"><ele>317.0</ele><time>2026-04-06T16:07:50Z</time></trkpt><trkpt lat="42.724708832485895" lon="2.6896089266342975"><ele>317.0</ele><time>2026-04-06T16:07:52Z</time></trkpt><trkpt lat="42.724707389464676" lon="2.689720937136614"><ele>317.0</ele><time>2026-04-06T16:07:54Z</time></trkpt><trkpt lat="42.72470633445198" lon="2.689833956711695"><ele>317.0</ele><time>2026-04-06T16:07:57Z</time></trkpt><trkpt lat="42.72471299562938" lon="2.689955360462296"><ele>316.33333333333337</ele><time>2026-04-06T16:08:00Z</time></trkpt><trkpt lat="42.72471849340149" lon="2.690042840576136"><ele>315.6666666666667</ele><time>2026-04-06T16:08:02Z</time></trkpt><trkpt lat="42.72473622181496" lon="2.6901496051668765"><ele>315.0</ele><time>2026-04-06T16:08:04Z</time></trkpt><trkpt lat="42.72474234199047" lon="2.6902497784336474"><ele>314.3333333333333</ele><time>2026-04-06T16:08:06Z</time></trkpt><trkpt lat="42.724724299360275" lon="2.69035729942213"><ele>313.66666666666663</ele><time>2026-04-06T16:08:08Z</time></trkpt><trkpt lat="42.72472506676157" lon="2.690462172571162"><ele>313.0</ele><time>2026-04-06T16:08:10Z</time></trkpt><trkpt lat="42.724762003706616" lon="2.690572158086232"><ele>312.3333333333333</ele><time>2026-04-06T16:08:12Z</time></trkpt><trkpt lat="42.72478037708913" lon="2.690674192973799"><ele>311.66666666666663</ele><time>2026-04-06T16:08:14Z</time></trkpt><trkpt lat="42.72480601510717" lon="2.690761169680054"><ele>311.0</ele><time>2026-04-06T16:08:16Z</time></trkpt><trkpt lat="42.724801217218115" lon="2.6908832303687413"><ele>310.3333333333333</ele><time>2026-04-06T16:08:18.999Z</time></trkpt><trkpt lat="42.72474951446185" lon="2.690958429855965"><ele>309.6666666666667</ele><time>2026-04-06T16:08:20.999Z</time></trkpt><trkpt lat="42.724646071734995" lon="2.6910195463402893"><ele>309.0</ele><time>2026-04-06T16:08:22.999Z</time></trkpt><trkpt lat="42.72459648512853" lon="2.6910858050067503"><ele>309.0</ele><time>2026-04-06T16:08:24.999Z</time></trkpt><trkpt lat="42.72452203978623" lon="2.691127963323234"><ele>313.0</ele><time>2026-04-06T16:08:27.999Z</time></trkpt><trkpt lat="42.72446607220454" lon="2.691171595571089"><ele>313.0</ele><time>2026-04-06T16:08:29.999Z</time></trkpt><trkpt lat="42.72439253137636" lon="2.6911846380300273"><ele>284.0</ele><time>2026-04-06T16:08:33.999Z</time></trkpt><trkpt lat="42.72432450793989" lon="2.6912074203439875"><ele>284.0</ele><time>2026-04-06T16:08:37.999Z</time></trkpt></trkseg></trk></gpx>